# Wetter Temperatur Luftdruck Luftfeuchtigkeit Sichtweite Windgeschwindigkeit Windrichtung Zeit
1 Clouds 9 1024 27 10000 2.1 357 14:22 01.02.2023
2 Clear 9 1024 27 10000 2.33 358 13:20 01.02.2023
3 Clear 9 1024 27 10000 2.23 358 12:49 01.02.2023
4 Clear 10 1024 26 10000 2.3 356 11:56 01.02.2023
5 Clear 10 1025 26 10000 2.77 358 08:43 01.02.2023
6 Clear 14 1022 15 10000 4.92 354 00:43 01.02.2023
7 Clear 13 1024 16 10000 5.48 2 21:36 31.01.2023
8 Clear 12 1026 18 10000 6 5 19:48 31.01.2023
9 Clear 11 1026 21 10000 6.01 5 18:37 31.01.2023
10 Clear 7 1026 31 10000 4.29 344 15:36 31.01.2023
11 Clear 7 1025 32 10000 4.05 360 15:18 31.01.2023
12 Clear 7 1024 31 10000 3.83 1 14:19 31.01.2023
13 Clear 7 1023 34 10000 4.36 357 12:19 31.01.2023
14 Clear 8 1023 35 10000 4.59 351 10:47 31.01.2023
15 Clear 8 1023 36 10000 4.7 352 09:51 31.01.2023
16 Clear 8 1022 36 10000 4.68 353 08:59 31.01.2023
17 Clear 8 1022 36 10000 4.68 353 08:35 31.01.2023
18 Clear 10 1020 39 10000 4.73 355 05:36 31.01.2023
19 Clouds 13 1017 35 10000 6.44 341 23:56 30.01.2023
20 Clouds 13 1017 37 10000 6.05 344 22:51 30.01.2023
21 Clouds 13 1017 37 10000 6.05 344 22:30 30.01.2023
22 Clouds 12 1018 43 10000 5.35 347 20:48 30.01.2023
23 Clouds 12 1019 47 10000 5.27 352 20:27 30.01.2023
24 Clouds 10 1018 58 10000 4.16 353 17:50 30.01.2023
25 Clouds 10 1018 68 10000 3.36 357 16:32 30.01.2023
26 Clouds 10 1015 85 10000 4.71 350 14:27 30.01.2023
27 Clouds 10 1014 83 10000 5.18 349 12:26 30.01.2023
28 Clouds 11 1013 77 10000 2.78 355 11:27 30.01.2023
29 Clouds 11 1012 74 10000 1.08 19 09:54 30.01.2023
30 Clouds 11 1011 73 10000 0.3 128 08:56 30.01.2023
31 Clouds 12 1010 67 10000 1.61 175 06:55 30.01.2023
32 Clouds 16 1005 49 10000 3.43 187 01:39 30.01.2023
33 Clear 17 1004 39 10000 1.58 207 23:35 29.01.2023
34 Clear 17 1004 40 10000 2.48 219 22:37 29.01.2023
35 Clear 17 1005 44 10000 3.45 197 21:41 29.01.2023
36 Clear 16 1006 49 10000 4.07 174 20:41 29.01.2023
37 Clear 15 1008 55 10000 3.85 173 19:48 29.01.2023
38 Clear 14 1009 59 10000 3.54 165 19:27 29.01.2023
39 Clear 13 1009 63 10000 3 160 17:49 29.01.2023
40 Clear 10 1008 72 10000 1.65 161 16:21 29.01.2023
41 Clear 10 1008 63 10000 1.87 156 14:48 29.01.2023
42 Clear 11 1008 52 10000 1.3 140 13:30 29.01.2023
43 Clouds 11 1008 49 10000 1.29 138 12:44 29.01.2023
44 Clouds 12 1009 47 10000 1.13 139 12:23 29.01.2023
45 Clouds 12 1009 47 10000 1.13 139 11:51 29.01.2023
46 Clouds 12 1009 45 10000 1.63 152 11:26 29.01.2023
47 Clouds 13 1010 43 10000 2.04 154 09:59 29.01.2023
48 Clouds 14 1012 41 10000 2.27 167 07:20 29.01.2023
49 Clouds 15 1012 40 10000 2.04 178 03:40 29.01.2023
50 Clear 18 1012 28 10000 1.29 154 23:39 28.01.2023
51 Clear 17 1014 29 10000 0.42 53 20:45 28.01.2023
52 Clear 16 1016 30 10000 0.87 18 19:52 28.01.2023
53 Clear 16 1016 30 10000 0.82 17 18:35 28.01.2023
54 Clear 13 1015 39 10000 0.4 30 17:21 28.01.2023
55 Clear 10 1014 42 10000 0.46 156 16:27 28.01.2023
56 Clear 10 1014 42 10000 0.46 156 15:49 28.01.2023
57 Clear 11 1014 42 10000 0.31 48 15:22 28.01.2023
58 Clear 11 1014 42 10000 0.31 48 15:22 28.01.2023
59 Clear 11 1014 42 10000 0.56 337 13:44 28.01.2023
60 Clear 12 1014 42 10000 0.83 343 11:55 28.01.2023
61 Clear 12 1014 41 10000 1.54 357 10:34 28.01.2023
62 Clear 13 1014 41 10000 1.64 350 09:21 28.01.2023
63 Clear 16 1015 36 10000 1 186 01:51 28.01.2023
64 Clear 18 1016 27 10000 0.34 47 00:27 28.01.2023
65 Clear 18 1018 27 10000 0.92 83 21:56 27.01.2023
66 Clear 16 1021 30 10000 0.8 151 19:47 27.01.2023
67 Clear 15 1023 31 10000 0.41 154 17:58 27.01.2023
68 Clear 13 1023 39 10000 0.12 38 17:20 27.01.2023
69 Clear 13 1023 39 10000 0.12 38 16:41 27.01.2023
70 Clear 11 1024 40 10000 1.51 1 15:25 27.01.2023
71 Clear 11 1024 39 10000 1.39 353 14:26 27.01.2023
72 Clear 11 1024 39 10000 1.39 353 13:33 27.01.2023
73 Clear 12 1026 40 10000 0.79 334 09:37 27.01.2023
74 Clear 13 1028 37 10000 1.19 15 06:51 27.01.2023
75 Clear 18 1029 25 10000 3.42 359 00:28 27.01.2023
76 Clear 17 1030 27 10000 3.86 6 22:20 26.01.2023
77 Clear 17 1032 29 10000 4.21 8 20:56 26.01.2023
78 Clear 16 1034 32 10000 4.46 6 20:26 26.01.2023
79 Clear 14 1035 41 10000 3.2 10 18:19 26.01.2023
80 Clear 12 1035 48 10000 2.89 7 16:57 26.01.2023
81 Clear 11 1034 51 10000 2.81 5 16:24 26.01.2023
82 Clear 11 1034 51 10000 2.81 5 15:43 26.01.2023
83 Clear 11 1033 50 10000 2.84 5 15:24 26.01.2023
84 Clear 11 1032 49 10000 3.1 2 13:54 26.01.2023
85 Clear 12 1032 49 10000 3.23 1 12:33 26.01.2023
86 Clear 12 1031 48 10000 3.12 1 10:59 26.01.2023
87 Clear 13 1031 47 10000 3.03 2 10:26 26.01.2023
88 Clear 13 1031 47 10000 3.03 2 09:43 26.01.2023
89 Clear 13 1030 44 10000 2.92 2 08:25 26.01.2023
90 Clear 19 1025 26 10000 3.63 352 23:58 25.01.2023
91 Clear 19 1025 26 10000 3.63 352 23:37 25.01.2023
92 Clear 18 1026 27 10000 4.97 358 21:54 25.01.2023
93 Clear 18 1028 28 10000 4.58 360 21:20 25.01.2023
94 Clear 16 1029 28 10000 3.98 1 18:31 25.01.2023
95 Clear 15 1029 31 10000 3.1 2 17:30 25.01.2023
96 Clear 11 1027 36 10000 2.09 346 15:42 25.01.2023
97 Clear 12 1026 34 10000 2.1 352 12:54 25.01.2023
98 Clear 12 1025 33 10000 1.45 359 10:51 25.01.2023
99 Clear 13 1025 33 10000 1.39 352 09:44 25.01.2023
100 Clear 13 1026 30 10000 1.93 359 07:43 25.01.2023
101 Clear 15 1026 28 10000 2.1 336 01:32 25.01.2023
102 Clear 17 1025 21 10000 2.58 358 00:23 25.01.2023
103 Clear 17 1025 22 10000 3.02 359 21:33 24.01.2023
104 Clear 15 1028 24 10000 3.75 4 20:19 24.01.2023
105 Clear 15 1028 24 10000 3.75 4 20:19 24.01.2023
106 Clear 14 1028 26 10000 3.57 3 18:46 24.01.2023
107 Clear 13 1028 28 10000 2.72 2 17:31 24.01.2023
108 Clear 11 1028 34 10000 2.58 355 16:53 24.01.2023
109 Clear 9 1027 36 10000 2.23 351 16:26 24.01.2023
110 Clear 9 1027 36 10000 2.23 351 16:26 24.01.2023
111 Clear 9 1026 36 10000 2.61 351 13:41 24.01.2023
112 Clear 10 1025 39 10000 2.54 355 11:30 24.01.2023
113 Clear 11 1024 41 10000 2.36 358 08:38 24.01.2023
114 Clear 11 1024 41 10000 2.59 359 08:18 24.01.2023
115 Clear 11 1024 41 10000 2.59 359 07:47 24.01.2023
116 Clear 13 1021 34 10000 3.73 348 02:40 24.01.2023
117 Clear 15 1019 25 10000 4.75 1 00:37 24.01.2023
118 Clear 15 1019 25 10000 6.66 356 22:28 23.01.2023
119 Clear 13 1021 28 10000 7.39 356 20:26 23.01.2023
120 Clear 12 1021 29 10000 8.24 354 19:21 23.01.2023
121 Clear 9 1020 36 10000 5.29 349 17:19 23.01.2023
122 Clear 8 1020 37 10000 5.21 348 15:32 23.01.2023
123 Clear 8 1019 37 10000 4.6 348 13:56 23.01.2023
124 Clear 8 1019 37 10000 4.4 344 12:55 23.01.2023
125 Clear 8 1019 37 10000 3.96 349 11:57 23.01.2023
126 Clear 8 1018 37 10000 3.98 353 11:28 23.01.2023
127 Clear 9 1018 37 10000 5.28 348 08:25 23.01.2023
128 Clear 16 1014 22 10000 8.29 7 00:24 23.01.2023
129 Clear 16 1015 26 10000 6.2 353 22:19 22.01.2023
130 Clear 15 1016 28 10000 5.54 355 21:19 22.01.2023
131 Clear 15 1017 28 10000 5.15 355 20:22 22.01.2023
132 Clear 15 1017 28 10000 5.15 355 19:45 22.01.2023
133 Clouds 13 1018 29 10000 3.33 2 18:48 22.01.2023
134 Clouds 12 1018 31 10000 1.99 5 17:56 22.01.2023
135 Clouds 10 1018 37 10000 1.44 339 17:24 22.01.2023
136 Clouds 9 1018 39 10000 1.24 348 15:34 22.01.2023
137 Clouds 10 1018 36 10000 3.81 358 14:47 22.01.2023
138 Clouds 10 1017 34 10000 1.51 154 13:28 22.01.2023
139 Clouds 10 1017 34 10000 1.51 154 12:34 22.01.2023
140 Clouds 11 1018 32 10000 2.58 174 11:35 22.01.2023
141 Clouds 11 1021 35 10000 1.02 155 09:35 22.01.2023
142 Clear 11 1024 36 10000 0.57 171 06:40 22.01.2023
143 Clear 13 1025 34 10000 0.51 290 02:27 22.01.2023
144 Clear 15 1025 24 10000 1.33 359 23:32 21.01.2023
145 Clear 15 1026 25 10000 2.39 1 22:18 21.01.2023
146 Clear 13 1029 29 10000 3.01 2 19:47 21.01.2023
147 Clear 11 1030 35 10000 2.38 5 17:40 21.01.2023
148 Clear 8 1029 45 10000 2.18 356 14:37 21.01.2023
149 Clear 9 1027 43 10000 2.24 353 12:57 21.01.2023
150 Clear 9 1027 43 10000 2.24 353 12:35 21.01.2023
151 Clear 10 1028 43 10000 2.12 355 11:27 21.01.2023
152 Clear 10 1028 42 10000 2.05 0 09:35 21.01.2023
153 Clear 11 1027 36 10000 2.51 348 04:41 21.01.2023
154 Clear 14 1024 26 10000 4.68 351 22:29 20.01.2023
155 Clear 14 1024 26 10000 4.68 351 21:40 20.01.2023
156 Clear 13 1025 27 10000 4.9 354 21:21 20.01.2023
157 Clear 12 1026 28 10000 4.85 356 19:55 20.01.2023
158 Clear 9 1025 38 10000 3.48 354 17:20 20.01.2023
159 Clear 8 1024 38 10000 3.47 351 14:47 20.01.2023
160 Clear 8 1023 38 10000 3.42 351 13:51 20.01.2023
161 Clear 9 1022 42 10000 2.6 352 10:48 20.01.2023
162 Clear 9 1020 44 10000 2.29 349 08:58 20.01.2023
163 Clouds 10 1020 45 10000 2.43 349 06:39 20.01.2023
164 Clouds 12 1018 53 10000 2.63 283 02:32 20.01.2023
165 Clear 14 1016 37 10000 3.2 3 22:37 19.01.2023
166 Clear 13 1017 39 10000 3.21 3 21:39 19.01.2023
167 Clear 13 1017 40 10000 1.29 15 19:38 19.01.2023
168 Clouds 12 1018 40 10000 0.66 30 18:55 19.01.2023
169 Clouds 10 1018 47 10000 1.01 133 14:26 19.01.2023
170 Clouds 11 1020 42 10000 1.17 149 10:22 19.01.2023
171 Clouds 11 1020 42 10000 1.45 150 08:57 19.01.2023
172 Clear 14 1019 28 10000 0.77 132 22:41 18.01.2023
173 Clear 13 1022 29 10000 1.4 11 20:21 18.01.2023
174 Clear 13 1022 29 10000 1.4 11 19:46 18.01.2023
175 Clear 13 1022 31 10000 0.98 2 19:28 18.01.2023
176 Clear 10 1021 40 10000 0.9 353 16:46 18.01.2023
177 Clear 9 1019 42 10000 1.08 12 14:21 18.01.2023
178 Clear 10 1018 41 10000 1.16 358 12:43 18.01.2023
179 Clear 11 1017 41 10000 2.24 358 10:28 18.01.2023
180 Clear 12 1015 41 10000 2.28 358 06:47 18.01.2023
181 Clouds 15 1010 35 10000 0.57 60 01:24 18.01.2023
182 Clouds 15 1009 38 10000 0.69 22 22:21 17.01.2023
183 Clouds 14 1010 44 10000 0.06 357 19:44 17.01.2023
184 Clouds 13 1010 51 10000 0.14 240 18:59 17.01.2023
185 Clouds 12 1009 56 10000 0.39 203 17:41 17.01.2023
186 Clouds 10 1007 66 10000 0.74 216 15:28 17.01.2023
187 Clouds 10 1007 66 10000 0.74 216 14:51 17.01.2023
188 Clouds 10 1006 63 10000 0.75 256 13:33 17.01.2023
189 Clouds 10 1006 64 10000 0.49 306 11:49 17.01.2023
190 Clouds 11 1005 62 10000 0.49 255 10:34 17.01.2023
191 Clouds 12 1005 60 10000 0.8 356 09:26 17.01.2023
192 Clouds 12 1004 57 10000 0.49 320 07:38 17.01.2023
193 Clear 13 1002 53 10000 3.11 192 03:50 17.01.2023
194 Clear 16 999 39 10000 5.49 196 00:49 17.01.2023
195 Clouds 17 998 38 10000 6.69 195 22:40 16.01.2023
196 Clouds 17 998 43 10000 7.79 203 21:46 16.01.2023
197 Clouds 15 1000 67 10000 8.84 175 19:56 16.01.2023
198 Clouds 14 1002 80 10000 7.91 170 19:26 16.01.2023
199 Clouds 14 1002 80 10000 7.91 170 18:49 16.01.2023
200 Clouds 13 1002 84 10000 6.86 170 18:19 16.01.2023
201 Clouds 13 1002 84 10000 5.65 175 17:20 16.01.2023
202 Clouds 12 1002 90 5022 4.89 162 14:28 16.01.2023
203 Clouds 12 1002 90 5022 4.89 162 13:37 16.01.2023
204 Clouds 11 1005 88 10000 4.31 180 10:27 16.01.2023
205 Rain 11 1006 83 10000 4.92 173 08:44 16.01.2023
206 Clouds 15 1005 52 10000 1.65 177 23:21 15.01.2023
207 Clouds 15 1006 54 10000 2 178 21:25 15.01.2023
208 Clouds 15 1006 53 10000 2.3 183 20:32 15.01.2023
209 Clouds 14 1006 56 10000 2.58 175 19:38 15.01.2023
210 Clouds 13 1006 66 10000 2.62 169 17:38 15.01.2023
211 Clouds 11 1004 77 10000 1.64 190 15:18 15.01.2023
212 Clouds 12 1002 75 10000 2.52 220 12:30 15.01.2023
213 Clouds 12 1002 75 10000 2.52 220 12:30 15.01.2023
214 Clouds 12 1002 75 10000 3.69 206 11:30 15.01.2023
215 Clouds 13 1002 77 10000 4.86 194 10:28 15.01.2023
216 Clouds 13 1002 77 10000 4.86 194 09:34 15.01.2023
217 Clouds 14 1006 83 10000 7.17 167 01:42 15.01.2023
218 Clouds 15 1006 81 10000 5.5 173 22:45 14.01.2023
219 Clouds 15 1007 78 8848 6.54 178 21:55 14.01.2023
220 Clouds 15 1007 78 8848 6.54 178 21:36 14.01.2023
221 Clouds 15 1007 78 8848 6.54 178 21:36 14.01.2023
222 Clouds 17 1008 65 10000 6.63 180 21:18 14.01.2023
223 Clouds 17 1008 65 10000 6.63 180 21:18 14.01.2023
224 Clouds 18 1010 52 10000 5.16 184 20:28 14.01.2023
225 Clouds 17 1011 52 10000 4.54 181 18:38 14.01.2023
226 Clouds 13 1012 53 10000 1.93 189 15:48 14.01.2023
227 Clouds 15 1012 50 10000 1.62 187 15:26 14.01.2023
228 Clouds 14 1012 50 10000 3.17 159 14:25 14.01.2023
229 Clouds 14 1012 50 10000 3.17 159 13:33 14.01.2023
230 Clouds 14 1014 47 10000 1.32 186 10:51 14.01.2023
231 Clouds 15 1015 46 10000 1.29 199 09:59 14.01.2023
232 Clouds 15 1017 42 10000 1.64 183 04:56 14.01.2023
233 Clouds 17 1018 38 10000 1.28 164 23:23 13.01.2023
234 Clouds 17 1018 38 10000 1.28 164 22:45 13.01.2023
235 Clouds 17 1019 37 10000 0.61 170 22:20 13.01.2023
236 Clouds 17 1020 37 10000 0.81 198 21:23 13.01.2023
237 Clouds 17 1022 38 10000 0.67 148 19:38 13.01.2023
238 Clouds 16 1023 41 10000 0.41 137 18:19 13.01.2023
239 Clouds 13 1022 48 10000 0.51 33 16:24 13.01.2023
240 Clouds 13 1022 48 10000 0.6 333 13:19 13.01.2023
241 Clouds 13 1023 48 10000 0.28 11 12:20 13.01.2023
242 Clouds 14 1024 47 10000 0.62 337 10:26 13.01.2023
243 Clouds 14 1024 47 10000 0.62 337 09:45 13.01.2023
244 Clouds 14 1024 47 10000 1.1 8 08:52 13.01.2023
245 Clouds 14 1025 48 10000 1.05 4 08:21 13.01.2023
246 Clouds 14 1025 45 10000 1.17 10 06:52 13.01.2023
247 Clouds 14 1025 46 10000 0.69 325 04:43 13.01.2023
248 Clouds 17 1025 37 10000 1.37 1 23:58 12.01.2023
249 Clouds 17 1025 37 10000 1.56 357 22:43 12.01.2023
250 Clouds 16 1027 39 10000 1.77 6 20:55 12.01.2023
251 Clouds 16 1028 42 10000 1.79 5 19:44 12.01.2023
252 Clouds 14 1028 46 10000 1.39 349 17:35 12.01.2023
253 Clouds 12 1027 55 10000 1.45 353 16:25 12.01.2023
254 Clouds 12 1027 55 10000 1.63 333 14:45 12.01.2023
255 Clouds 12 1027 54 10000 1.73 340 14:22 12.01.2023
256 Clouds 12 1027 56 10000 2.08 351 12:50 12.01.2023
257 Clouds 12 1027 59 10000 1.21 3 10:38 12.01.2023
258 Clouds 12 1027 61 10000 1.56 354 08:31 12.01.2023
259 Clouds 13 1026 60 10000 1.5 344 05:26 12.01.2023
260 Clouds 15 1022 48 10000 0.11 57 23:59 11.01.2023
261 Clouds 15 1022 48 10000 0.11 57 23:41 11.01.2023
262 Clouds 15 1023 49 10000 0.48 298 23:21 11.01.2023
263 Clouds 15 1022 50 10000 0.78 59 21:46 11.01.2023
264 Clouds 14 1023 51 10000 0.32 30 20:32 11.01.2023
265 Clouds 13 1024 54 10000 0.69 127 18:39 11.01.2023
266 Clouds 12 1022 61 10000 0.38 25 17:23 11.01.2023
267 Clouds 10 1021 64 10000 0.41 328 15:21 11.01.2023
268 Clouds 11 1020 62 10000 0.46 31 13:44 11.01.2023
269 Clouds 11 1019 57 10000 0.16 109 12:20 11.01.2023
270 Clouds 12 1018 56 10000 1.13 190 10:43 11.01.2023
271 Clouds 12 1016 57 10000 2.57 184 08:21 11.01.2023
272 Clear 12 1016 59 10000 1.7 182 07:25 11.01.2023
273 Clouds 16 1009 48 10000 7.69 201 01:25 11.01.2023
274 Clouds 15 1008 58 10000 6.76 198 22:46 10.01.2023
275 Rain 15 1009 68 10000 5.21 184 21:34 10.01.2023
276 Rain 16 1009 81 3297 6.46 228 20:43 10.01.2023
277 Rain 18 1009 70 7318 9.14 181 19:40 10.01.2023
278 Rain 17 1011 71 10000 8.46 175 18:48 10.01.2023
279 Clouds 17 1010 70 10000 8.1 175 17:59 10.01.2023
280 Clouds 16 1011 75 10000 7.62 170 16:39 10.01.2023
281 Clouds 16 1011 74 10000 7.24 179 15:31 10.01.2023
282 Clouds 16 1011 74 10000 7.24 179 15:31 10.01.2023
283 Clouds 16 1011 76 10000 7.66 180 14:32 10.01.2023
284 Clouds 17 1012 77 10000 6.55 172 12:25 10.01.2023
285 Clouds 17 1012 79 10000 6.85 170 09:26 10.01.2023
286 Clouds 17 1012 79 10000 6.85 170 08:30 10.01.2023
287 Clouds 17 1011 73 10000 9.42 177 07:27 10.01.2023
288 Clouds 17 1011 71 10000 7.54 174 04:55 10.01.2023
289 Clouds 17 1012 66 10000 6.03 173 23:37 09.01.2023
290 Clouds 16 1013 59 10000 5.05 180 21:51 09.01.2023
291 Clouds 16 1015 55 10000 4.86 176 20:45 09.01.2023
292 Clouds 16 1016 52 10000 3.54 182 19:30 09.01.2023
293 Clouds 16 1016 57 10000 3.8 176 17:55 09.01.2023
294 Clouds 16 1016 57 10000 3.8 176 17:55 09.01.2023
295 Clouds 16 1016 58 10000 3.87 172 17:28 09.01.2023
296 Clouds 16 1016 58 10000 3.87 172 16:32 09.01.2023
297 Clouds 16 1016 59 10000 3.14 180 15:30 09.01.2023
298 Clouds 16 1016 59 10000 3.25 177 14:46 09.01.2023
299 Clouds 17 1015 58 10000 5.3 176 13:39 09.01.2023
300 Clouds 17 1015 59 10000 5.59 169 12:49 09.01.2023
301 Clouds 17 1016 60 10000 4.57 171 11:43 09.01.2023
302 Clouds 16 1017 60 10000 4.33 165 10:35 09.01.2023
303 Clouds 16 1019 54 10000 1.76 176 06:44 09.01.2023
304 Clouds 16 1018 46 10000 0.9 201 02:54 09.01.2023
305 Clouds 18 1017 37 10000 0.53 137 00:43 09.01.2023
306 Clouds 19 1018 33 10000 1.41 167 21:41 08.01.2023
307 Clouds 18 1019 33 10000 1.22 180 21:20 08.01.2023
308 Clouds 18 1020 34 10000 1.91 197 20:29 08.01.2023
309 Clouds 16 1021 39 10000 1.89 202 17:56 08.01.2023
310 Clouds 14 1019 42 10000 4.09 184 17:20 08.01.2023
311 Clouds 14 1020 43 10000 3.57 185 15:47 08.01.2023
312 Clouds 14 1020 44 10000 3.5 168 15:24 08.01.2023
313 Clouds 13 1019 46 10000 1.45 183 13:57 08.01.2023
314 Clouds 13 1018 45 10000 2.03 177 13:29 08.01.2023
315 Clouds 14 1019 47 10000 2.56 149 12:24 08.01.2023
316 Clouds 14 1018 46 10000 2.04 161 09:39 08.01.2023
317 Clouds 14 1019 46 10000 2.3 158 09:18 08.01.2023
318 Clouds 14 1020 46 10000 2.62 166 07:41 08.01.2023
319 Clouds 16 1021 46 10000 1.85 164 23:58 07.01.2023
320 Clouds 17 1021 43 10000 1.22 152 22:46 07.01.2023
321 Clouds 17 1021 43 10000 0.6 168 22:23 07.01.2023
322 Clouds 17 1021 43 10000 0.6 168 21:46 07.01.2023
323 Clouds 16 1022 45 10000 1.07 172 20:31 07.01.2023
324 Clouds 15 1024 45 10000 1.09 121 19:28 07.01.2023
325 Clouds 15 1024 47 10000 0.66 190 18:23 07.01.2023
326 Clouds 15 1024 47 10000 0.66 190 17:44 07.01.2023
327 Clouds 13 1023 56 10000 0.71 145 17:20 07.01.2023
328 Clouds 12 1023 59 10000 0.24 161 16:29 07.01.2023
329 Clouds 12 1023 59 10000 0.24 161 15:46 07.01.2023
330 Clouds 11 1023 61 10000 0.2 191 15:22 07.01.2023
331 Clouds 11 1023 61 10000 0.28 100 14:26 07.01.2023
332 Clouds 11 1023 61 10000 0.28 100 13:43 07.01.2023
333 Clouds 12 1023 61 10000 0.44 54 13:22 07.01.2023
334 Clouds 12 1023 60 10000 0.44 6 12:21 07.01.2023
335 Clouds 12 1023 61 10000 0.43 333 10:57 07.01.2023
336 Clouds 12 1023 62 10000 0.35 48 10:23 07.01.2023
337 Clouds 13 1024 63 10000 0.16 354 08:21 07.01.2023
338 Clouds 13 1024 63 10000 0.16 354 07:43 07.01.2023
339 Clear 13 1024 61 10000 0.39 328 06:49 07.01.2023
340 Clear 16 1023 48 10000 0.64 114 23:55 06.01.2023
341 Clouds 16 1023 48 10000 0.65 34 22:22 06.01.2023
342 Clouds 16 1023 48 10000 0.65 34 21:58 06.01.2023
343 Clear 16 1024 49 10000 0.67 16 20:59 06.01.2023
344 Clear 15 1024 51 10000 0.8 3 19:57 06.01.2023
345 Clear 15 1024 51 10000 0.8 3 19:39 06.01.2023
346 Clear 15 1025 57 10000 0.83 12 19:21 06.01.2023
347 Clear 14 1024 60 10000 1.05 12 18:25 06.01.2023
348 Clear 12 1023 67 10000 0.54 359 16:55 06.01.2023
349 Clear 11 1023 71 10000 0.37 330 16:23 06.01.2023
350 Clear 11 1023 71 10000 0.37 330 15:53 06.01.2023
351 Clear 11 1023 71 10000 0.37 330 15:34 06.01.2023
352 Clear 11 1021 67 10000 0.47 122 13:48 06.01.2023
353 Clear 12 1020 68 10000 0.45 224 12:22 06.01.2023
354 Clear 12 1019 68 10000 0.65 203 10:57 06.01.2023
355 Clear 13 1018 69 10000 1.52 203 08:55 06.01.2023
356 Clouds 14 1016 73 10000 1.55 209 05:31 06.01.2023
357 Clouds 17 1013 62 10000 6.42 175 23:53 05.01.2023
358 Clouds 16 1013 65 10000 6.94 176 22:54 05.01.2023
359 Clouds 15 1014 81 10000 6.88 167 21:23 05.01.2023
360 Clouds 14 1014 79 10000 5.38 166 19:18 05.01.2023
361 Clouds 14 1014 78 10000 5.01 175 17:27 05.01.2023
362 Clouds 14 1014 76 10000 5.4 170 15:59 05.01.2023
363 Clouds 14 1014 76 10000 5.4 170 15:40 05.01.2023
364 Clouds 14 1014 75 10000 4.45 168 14:34 05.01.2023
365 Clouds 15 1015 74 10000 5.92 169 12:42 05.01.2023
366 Clouds 15 1015 76 10000 5.66 157 11:44 05.01.2023
367 Clouds 15 1016 73 10000 3.33 161 09:50 05.01.2023
368 Clouds 15 1017 73 10000 3.82 153 08:24 05.01.2023
369 Clouds 15 1017 73 10000 3.9 156 07:18 05.01.2023
370 Clouds 16 1018 70 10000 4.23 148 03:35 05.01.2023
371 Clouds 18 1018 62 10000 3.54 160 22:35 04.01.2023
372 Clouds 17 1018 62 10000 2.54 165 21:33 04.01.2023
373 Clouds 15 1021 69 10000 1.79 143 20:26 04.01.2023
374 Clouds 15 1021 69 10000 1.79 143 19:56 04.01.2023
375 Clouds 16 1020 67 10000 2.26 155 19:31 04.01.2023
376 Clouds 14 1020 70 10000 1.16 172 18:19 04.01.2023
377 Clouds 13 1020 75 10000 1.52 166 16:31 04.01.2023
378 Clouds 12 1020 79 10000 0.46 196 15:28 04.01.2023
379 Clouds 12 1019 79 10000 0.11 19 13:44 04.01.2023
380 Clouds 12 1019 76 10000 0.48 168 11:40 04.01.2023
381 Clouds 12 1019 75 10000 0.16 332 11:19 04.01.2023
382 Clouds 12 1019 75 10000 0.16 332 10:42 04.01.2023
383 Clouds 12 1019 75 10000 0.75 316 10:21 04.01.2023
384 Clouds 13 1018 71 10000 0.38 339 06:18 04.01.2023
385 Clouds 14 1017 62 10000 0.66 170 01:43 04.01.2023
386 Clouds 15 1016 56 10000 0.94 129 23:52 03.01.2023
387 Clouds 15 1016 56 10000 0.94 129 23:31 03.01.2023
388 Clouds 14 1016 57 10000 1.55 159 22:26 03.01.2023
389 Clouds 14 1017 60 10000 0.61 131 20:51 03.01.2023
390 Clouds 12 1018 65 10000 0.69 70 18:52 03.01.2023
391 Clouds 11 1016 76 10000 0.66 3 16:46 03.01.2023
392 Clouds 9 1016 83 10000 0.62 309 15:47 03.01.2023
393 Clouds 10 1014 82 10000 0.61 159 13:51 03.01.2023
394 Clouds 10 1014 74 10000 0.99 167 13:29 03.01.2023
395 Clouds 10 1014 74 10000 0.99 167 12:57 03.01.2023
396 Clouds 10 1014 70 10000 0.53 170 12:29 03.01.2023
397 Clear 10 1013 59 10000 1.38 165 10:25 03.01.2023
398 Clouds 11 1011 52 10000 0.65 129 06:21 03.01.2023
399 Clouds 12 1012 46 10000 0.39 190 03:56 03.01.2023
400 Clouds 12 1012 46 10000 0.39 190 03:35 03.01.2023
401 Clouds 14 1011 35 10000 2.17 170 23:36 02.01.2023
402 Clouds 14 1011 34 10000 1.58 157 22:41 02.01.2023
403 Clouds 14 1012 34 10000 0.8 156 21:52 02.01.2023
404 Clouds 13 1013 34 10000 0.96 143 20:38 02.01.2023
405 Clouds 12 1014 37 10000 0.78 129 19:27 02.01.2023
406 Clear 10 1014 46 10000 0.65 85 16:54 02.01.2023
407 Clear 9 1013 48 10000 1.06 60 14:46 02.01.2023
408 Clear 10 1011 47 10000 1.18 17 12:57 02.01.2023
409 Clear 10 1011 46 10000 1.4 350 11:40 02.01.2023
410 Clear 11 1010 44 10000 1.93 339 09:48 02.01.2023
411 Clear 11 1009 45 10000 1.82 345 07:32 02.01.2023
412 Clouds 14 1004 60 10000 0.67 334 00:40 02.01.2023
413 Clouds 13 1003 65 10000 0.37 330 21:55 01.01.2023
414 Clouds 13 1004 70 10000 0.54 347 21:22 01.01.2023
415 Clouds 13 1004 70 10000 0.54 347 20:45 01.01.2023
416 Clouds 12 1005 78 10000 1.77 7 19:42 01.01.2023
417 Clouds 12 1004 87 5065 6.23 8 17:55 01.01.2023
418 Clouds 14 1001 78 10000 2.02 14 17:20 01.01.2023
419 Clouds 14 1001 78 10000 2.02 14 16:31 01.01.2023
420 Clouds 14 999 80 10000 4.2 178 14:47 01.01.2023
421 Clouds 15 998 82 10000 4.86 173 13:37 01.01.2023
422 Clouds 15 998 85 10000 6.84 168 12:33 01.01.2023
423 Clouds 15 999 83 10000 7.51 167 11:36 01.01.2023
424 Clouds 15 999 83 10000 7.51 167 11:36 01.01.2023
425 Rain 15 1000 89 6855 6.62 155 10:23 01.01.2023
426 Clouds 16 1002 87 5509 5.47 171 08:48 01.01.2023
427 Clouds 16 1003 81 6354 5.78 182 08:18 01.01.2023
428 Clouds 17 1003 73 10000 7.33 176 06:58 01.01.2023
429 Clouds 20 1004 61 10000 7.92 190 00:52 01.01.2023
430 Clouds 21 1004 56 10000 7.25 193 23:41 31.12.2022
431 Clouds 21 1005 55 10000 6.58 196 22:32 31.12.2022
432 Clouds 21 1006 57 10000 5.16 187 21:34 31.12.2022
433 Clouds 21 1006 57 10000 5.16 187 21:34 31.12.2022
434 Clouds 20 1008 61 10000 4.56 172 20:43 31.12.2022
435 Clouds 19 1009 66 10000 4.79 169 19:33 31.12.2022
436 Clouds 18 1010 71 10000 4.64 167 18:42 31.12.2022
437 Clouds 17 1010 76 10000 3.77 164 18:18 31.12.2022
438 Clouds 17 1010 76 10000 3.77 164 17:45 31.12.2022
439 Clouds 16 1010 82 10000 2.22 174 16:40 31.12.2022
440 Clouds 15 1011 86 10000 1.86 180 16:19 31.12.2022
441 Clouds 15 1011 87 10000 1.31 186 14:39 31.12.2022
442 Clouds 16 1012 87 10000 0.52 192 13:33 31.12.2022
443 Clouds 16 1012 85 10000 0.56 181 12:39 31.12.2022
444 Clouds 16 1013 85 10000 0.6 189 12:19 31.12.2022
445 Clouds 16 1013 85 10000 0.6 189 11:50 31.12.2022
446 Clouds 16 1013 85 10000 0.58 197 10:34 31.12.2022
447 Clouds 16 1013 85 10000 0.57 176 09:53 31.12.2022
448 Clouds 16 1013 84 10000 0.68 159 09:18 31.12.2022
449 Clouds 16 1013 78 10000 0.99 143 07:25 31.12.2022
450 Clouds 17 1013 66 10000 3.53 161 00:35 31.12.2022
451 Clouds 17 1013 66 10000 3.53 161 00:35 31.12.2022
452 Clouds 18 1013 62 10000 3.72 165 23:45 30.12.2022
453 Clouds 18 1014 59 10000 2.59 161 22:49 30.12.2022
454 Clouds 18 1015 59 10000 1.64 153 21:43 30.12.2022
455 Clouds 17 1015 60 10000 1.36 149 21:23 30.12.2022
456 Clouds 15 1017 66 10000 1.08 151 18:58 30.12.2022
457 Clouds 14 1017 67 10000 0.71 117 17:45 30.12.2022
458 Clouds 13 1017 73 10000 0.77 170 17:26 30.12.2022
459 Clouds 11 1017 81 10000 0.43 83 15:56 30.12.2022
460 Clear 11 1016 79 10000 0.8 118 14:35 30.12.2022
461 Clouds 13 1016 67 10000 1.29 165 10:24 30.12.2022
462 Clouds 13 1016 63 10000 0.94 127 08:19 30.12.2022
463 Clear 14 1013 51 10000 0.97 360 02:59 30.12.2022
464 Clear 15 1012 47 10000 2.26 345 01:53 30.12.2022
465 Clouds 17 1011 38 10000 1.01 125 22:54 29.12.2022
466 Clouds 17 1011 38 10000 1.33 162 21:31 29.12.2022
467 Clouds 16 1011 39 10000 2.5 165 20:54 29.12.2022
468 Clouds 16 1012 40 10000 2.31 160 20:25 29.12.2022
469 Clouds 15 1012 46 10000 2.15 158 18:26 29.12.2022
470 Clouds 15 1012 46 10000 2.15 158 17:32 29.12.2022
471 Clouds 15 1012 49 10000 1.97 158 16:55 29.12.2022
472 Clouds 14 1012 52 10000 1.28 146 16:21 29.12.2022
473 Clouds 14 1011 52 10000 1.23 166 15:29 29.12.2022
474 Clouds 14 1011 54 10000 0.53 190 13:33 29.12.2022
475 Clouds 14 1010 64 10000 0.57 140 11:29 29.12.2022
476 Clouds 15 1010 59 10000 0.98 126 08:22 29.12.2022
477 Clear 19 1008 47 10000 0.71 117 00:22 29.12.2022
478 Clear 19 1008 47 10000 0.37 97 23:27 28.12.2022
479 Clear 18 1009 53 10000 1.46 11 21:21 28.12.2022
480 Clear 18 1010 57 10000 1.21 356 20:25 28.12.2022
481 Clouds 17 1010 59 10000 1.3 5 19:23 28.12.2022
482 Clouds 15 1009 68 10000 0.55 216 16:56 28.12.2022
483 Clouds 14 1007 76 10000 0.52 344 14:43 28.12.2022
484 Clouds 15 1007 76 10000 0.61 352 12:55 28.12.2022
485 Clouds 15 1006 73 10000 1.2 356 11:55 28.12.2022
486 Clouds 16 1006 72 10000 0.24 44 10:43 28.12.2022
487 Clouds 16 1005 72 10000 1.97 163 08:43 28.12.2022
488 Clouds 17 1006 69 10000 2.68 182 07:25 28.12.2022
489 Clouds 17 1006 74 10000 2.65 193 06:42 28.12.2022
490 Clouds 22 1005 43 10000 3.59 205 23:36 27.12.2022
491 Clouds 22 1010 30 10000 3.53 202 20:23 27.12.2022
492 Clouds 22 1009 30 10000 2.96 206 19:31 27.12.2022
493 Clouds 22 1009 30 10000 2.96 206 19:31 27.12.2022
494 Clouds 22 1010 30 10000 3.53 202 19:31 27.12.2022
495 Clouds 18 1011 36 10000 1.94 191 17:28 27.12.2022
496 Clouds 18 1011 36 10000 1.94 191 16:42 27.12.2022
497 Clouds 17 1012 38 10000 1.32 208 15:30 27.12.2022
498 Clouds 17 1013 38 10000 0.66 178 12:35 27.12.2022
499 Clouds 18 1014 38 10000 1.38 157 11:29 27.12.2022
500 Clouds 18 1015 38 10000 0.82 150 09:46 27.12.2022
501 Clouds 18 1015 37 10000 1.47 179 09:23 27.12.2022
502 Clouds 18 1017 38 10000 1.06 142 06:50 27.12.2022
503 Clouds 20 1018 35 10000 1.87 174 04:31 27.12.2022
504 Clouds 23 1020 26 10000 0.37 289 22:26 26.12.2022
505 Clouds 22 1020 27 10000 0.83 113 21:24 26.12.2022
506 Clouds 22 1020 27 10000 0.83 113 20:39 26.12.2022
507 Clouds 22 1022 27 10000 0.53 106 18:44 26.12.2022
508 Clouds 21 1022 29 10000 0.48 304 17:46 26.12.2022
509 Clouds 16 1022 39 10000 1.39 336 16:20 26.12.2022
510 Clouds 16 1021 39 10000 1.23 336 14:30 26.12.2022
511 Clouds 17 1021 32 10000 1.41 349 12:47 26.12.2022
512 Clouds 18 1023 28 10000 1.59 357 07:59 26.12.2022
513 Clear 24 1022 21 10000 1.02 0 23:58 25.12.2022
514 Clear 24 1022 21 10000 1.02 0 23:38 25.12.2022
515 Clear 24 1023 21 10000 1.85 3 22:29 25.12.2022
516 Clear 24 1023 21 10000 1.85 3 21:48 25.12.2022
517 Clouds 22 1026 25 10000 2.2 4 18:50 25.12.2022
518 Clouds 20 1026 29 10000 2.15 350 17:52 25.12.2022
519 Clouds 20 1026 29 10000 2.15 350 17:34 25.12.2022
520 Clouds 16 1025 38 10000 1.59 2 15:23 25.12.2022
521 Clouds 17 1025 37 10000 1.52 347 12:42 25.12.2022
522 Clouds 18 1026 35 10000 1.26 10 09:28 25.12.2022
523 Clouds 22 1025 27 10000 1.98 352 23:51 24.12.2022
524 Clear 22 1026 27 10000 2.71 3 21:50 24.12.2022
525 Clear 20 1028 31 10000 2.26 358 18:32 24.12.2022
526 Clear 16 1027 40 10000 2.19 356 16:46 24.12.2022
527 Clear 14 1026 44 10000 1.84 344 14:54 24.12.2022
528 Clear 15 1024 39 10000 1.54 346 12:43 24.12.2022
529 Clear 15 1024 36 10000 1.76 353 11:26 24.12.2022
530 Clear 15 1023 36 10000 1.73 357 10:21 24.12.2022
531 Clear 15 1023 36 10000 1.73 357 09:36 24.12.2022
532 Clear 16 1023 38 10000 0.59 340 06:21 24.12.2022
533 Clear 17 1022 37 10000 0.53 315 02:50 24.12.2022
534 Clouds 20 1021 27 10000 0.96 2 23:37 23.12.2022
535 Clouds 20 1021 27 10000 1.77 4 22:28 23.12.2022
536 Clouds 20 1021 28 10000 2.12 6 20:41 23.12.2022
537 Clouds 19 1022 29 10000 1.56 356 19:39 23.12.2022
538 Clear 18 1022 30 10000 1.01 342 19:21 23.12.2022
539 Clear 18 1022 30 10000 1.01 342 18:46 23.12.2022
540 Clear 17 1022 32 10000 1.04 351 18:20 23.12.2022
541 Clear 14 1021 40 10000 1.22 353 16:35 23.12.2022
542 Clear 12 1020 44 10000 0.86 333 15:37 23.12.2022
543 Clouds 14 1020 45 10000 1.51 333 11:57 23.12.2022
544 Clouds 15 1019 44 10000 1.2 3 09:37 23.12.2022
545 Clouds 14 1019 45 10000 0.68 352 08:45 23.12.2022
546 Clouds 14 1019 46 10000 0.19 32 07:18 23.12.2022
547 Clouds 14 1019 46 10000 0.08 23 06:39 23.12.2022
548 Clouds 19 1017 31 10000 0.49 145 23:23 22.12.2022
549 Clouds 19 1017 31 10000 0.49 145 22:57 22.12.2022
550 Clouds 19 1018 31 10000 0.87 33 21:24 22.12.2022
551 Clouds 18 1020 32 10000 0.67 345 19:26 22.12.2022
552 Clouds 18 1020 29 10000 0.63 320 18:51 22.12.2022
553 Clouds 15 1019 38 10000 0.52 345 17:29 22.12.2022
554 Clouds 15 1019 38 10000 0.52 345 16:39 22.12.2022
555 Clouds 13 1019 41 10000 1.11 20 15:35 22.12.2022
556 Clouds 13 1019 40 10000 0.94 360 14:51 22.12.2022
557 Clouds 13 1018 41 10000 0.65 350 13:34 22.12.2022
558 Clouds 13 1018 41 10000 0.93 3 12:59 22.12.2022
559 Clouds 13 1018 40 10000 0.9 4 10:55 22.12.2022
560 Clouds 13 1018 40 10000 0.9 4 10:30 22.12.2022
561 Clouds 14 1019 39 10000 1.01 13 09:21 22.12.2022
562 Clouds 14 1019 38 10000 0.55 320 08:28 22.12.2022
563 Clouds 14 1020 38 10000 0.72 359 07:22 22.12.2022
564 Clouds 15 1019 35 10000 0.2 178 04:18 22.12.2022
565 Clear 20 1018 25 10000 0.23 118 00:24 22.12.2022
566 Clear 19 1020 25 10000 0.74 350 22:24 21.12.2022
567 Clear 19 1021 25 10000 0.9 358 21:24 21.12.2022
568 Clear 19 1021 25 10000 0.9 358 20:54 21.12.2022
569 Clear 19 1021 25 10000 0.9 358 20:30 21.12.2022
570 Clear 18 1022 26 10000 1.16 7 19:44 21.12.2022
571 Clear 17 1023 27 10000 1.34 353 19:26 21.12.2022
572 Clear 17 1023 26 10000 1.41 349 18:47 21.12.2022
573 Clear 16 1023 27 10000 1.56 2 18:21 21.12.2022
574 Clear 11 1023 35 10000 1.15 353 15:25 21.12.2022
575 Clear 11 1023 33 10000 1.19 348 13:46 21.12.2022
576 Clear 12 1023 29 10000 1.37 349 11:48 21.12.2022
577 Clear 12 1023 29 10000 1.06 2 11:20 21.12.2022
578 Clear 12 1023 29 10000 1.06 2 11:20 21.12.2022
579 Clear 12 1023 29 10000 0.73 357 09:50 21.12.2022
580 Clear 13 1023 28 10000 0.52 338 08:48 21.12.2022
581 Clear 13 1024 26 10000 1.22 335 06:29 21.12.2022
582 Clear 17 1023 19 10000 0.68 342 00:24 21.12.2022
583 Clear 17 1023 18 10000 0.98 18 21:47 20.12.2022
584 Clear 17 1024 18 10000 0.08 336 20:33 20.12.2022
585 Clouds 16 1025 21 10000 0.49 24 19:43 20.12.2022
586 Clear 16 1025 19 10000 0.37 35 19:43 20.12.2022
587 Clouds 16 1026 21 10000 1.04 23 18:41 20.12.2022
588 Clouds 15 1026 23 10000 0.82 346 18:21 20.12.2022
589 Clouds 15 1026 23 10000 0.82 346 17:46 20.12.2022
590 Clouds 13 1026 28 10000 1.05 340 16:57 20.12.2022
591 Clouds 12 1026 30 10000 0.84 355 15:49 20.12.2022
592 Clouds 12 1026 29 10000 0.89 351 14:50 20.12.2022
593 Clouds 12 1026 29 10000 0.89 351 14:50 20.12.2022
594 Clouds 11 1025 30 10000 0.66 355 14:29 20.12.2022
595 Clouds 11 1025 31 10000 0.45 25 13:25 20.12.2022
596 Clouds 12 1025 34 10000 0.38 360 12:32 20.12.2022
597 Clouds 12 1026 35 10000 0.53 319 11:42 20.12.2022
598 Clouds 12 1026 34 10000 0.56 340 09:41 20.12.2022
599 Clouds 13 1026 35 10000 0.22 18 06:24 20.12.2022
600 Clouds 16 1024 25 10000 0.15 116 23:46 19.12.2022
601 Clouds 16 1024 25 10000 0.04 92 22:21 19.12.2022
602 Clouds 15 1025 25 10000 0.49 27 20:48 19.12.2022
603 Clouds 15 1026 25 10000 0.37 2 19:40 19.12.2022
604 Clouds 14 1026 25 10000 0.2 7 18:43 19.12.2022
605 Clear 13 1025 26 10000 0.42 26 17:38 19.12.2022
606 Clear 9 1023 35 10000 0.17 320 14:45 19.12.2022
607 Clear 9 1022 36 10000 1.06 1 12:35 19.12.2022
608 Clear 9 1021 35 10000 0.85 351 11:36 19.12.2022
609 Clear 10 1020 33 10000 1.23 356 07:48 19.12.2022
610 Clear 10 1019 33 10000 0.72 339 06:32 19.12.2022
611 Clear 16 1015 21 10000 0.86 150 00:20 19.12.2022
612 Clear 16 1015 20 10000 0.85 150 21:48 18.12.2022
613 Clear 15 1016 21 10000 0.56 131 21:26 18.12.2022
614 Clear 15 1015 20 10000 0.66 137 20:53 18.12.2022
615 Clear 14 1017 21 10000 0.37 28 19:43 18.12.2022
616 Clouds 14 1017 22 10000 0.71 35 18:57 18.12.2022
617 Clouds 13 1017 23 10000 0.45 14 17:52 18.12.2022
618 Clouds 8 1016 32 10000 0.17 141 15:41 18.12.2022
619 Clouds 8 1016 32 10000 0.13 336 15:23 18.12.2022
620 Clouds 8 1016 32 10000 0.13 336 14:55 18.12.2022
621 Clouds 9 1016 31 10000 0.4 27 13:28 18.12.2022
622 Clouds 9 1016 31 10000 0.4 27 12:42 18.12.2022
623 Clouds 9 1016 31 10000 0.64 359 11:49 18.12.2022
624 Clouds 10 1016 31 10000 0.27 16 09:34 18.12.2022
625 Clouds 10 1017 31 10000 0.54 352 08:46 18.12.2022
626 Clouds 10 1018 33 10000 0.39 7 06:41 18.12.2022
627 Clouds 11 1018 32 10000 0.53 357 06:18 18.12.2022
628 Clouds 12 1018 30 10000 0.86 333 01:53 18.12.2022
629 Clear 15 1018 23 10000 0.68 24 22:57 17.12.2022
630 Clear 14 1020 24 10000 0.65 36 20:46 17.12.2022
631 Clear 12 1023 29 10000 0.93 32 17:52 17.12.2022
632 Clear 8 1022 39 10000 1.22 358 15:32 17.12.2022
633 Clear 9 1022 38 10000 1.3 355 13:20 17.12.2022
634 Clear 9 1023 39 10000 1.18 6 11:19 17.12.2022
635 Clear 9 1023 39 10000 1.18 6 10:40 17.12.2022
636 Clear 10 1023 38 10000 1.27 15 08:37 17.12.2022
637 Clear 11 1024 38 10000 1.05 9 07:22 17.12.2022
638 Clear 11 1024 38 10000 1.05 9 06:44 17.12.2022
639 Clear 15 1023 29 10000 2.67 13 23:20 16.12.2022
640 Clear 14 1024 32 10000 3.11 15 20:30 16.12.2022
641 Clear 13 1025 37 10000 3.33 5 18:41 16.12.2022
642 Clouds 10 1025 49 10000 2.5 357 15:37 16.12.2022
643 Clouds 10 1024 49 10000 2.1 357 14:46 16.12.2022
644 Clouds 11 1023 46 10000 2.16 352 13:22 16.12.2022
645 Clouds 11 1023 44 10000 2.23 353 11:57 16.12.2022
646 Clouds 12 1023 42 10000 2.39 350 09:41 16.12.2022
647 Clouds 12 1023 41 10000 2.06 347 08:50 16.12.2022
648 Clouds 12 1023 40 10000 1.93 350 07:55 16.12.2022
649 Clouds 12 1023 40 10000 2 358 06:58 16.12.2022
650 Clouds 17 1019 28 10000 2.72 350 23:19 15.12.2022
651 Clouds 17 1020 29 10000 3.39 356 21:58 15.12.2022
652 Clouds 16 1022 31 10000 3.23 0 20:24 15.12.2022
653 Clouds 15 1022 31 10000 2.66 11 19:21 15.12.2022
654 Clouds 12 1022 37 10000 1.82 352 17:28 15.12.2022
655 Clouds 12 1022 37 10000 1.82 352 16:39 15.12.2022
656 Clouds 10 1021 40 10000 1.28 347 14:57 15.12.2022
657 Clouds 10 1021 40 10000 1.22 352 13:18 15.12.2022
658 Clouds 10 1021 41 10000 1.06 347 12:25 15.12.2022
659 Clouds 11 1022 41 10000 0.69 341 09:28 15.12.2022
660 Clouds 11 1022 41 10000 0.69 341 08:46 15.12.2022
661 Clouds 11 1022 41 10000 0.18 15 05:48 15.12.2022
662 Clouds 12 1021 40 10000 0.36 283 02:38 15.12.2022
663 Clear 15 1022 32 10000 1.87 7 21:25 14.12.2022
664 Clear 15 1022 32 10000 1.87 7 20:59 14.12.2022
665 Clear 14 1023 35 10000 2.21 8 20:23 14.12.2022
666 Clear 12 1023 37 10000 1.58 5 18:25 14.12.2022
667 Clear 11 1023 42 10000 1.35 345 16:57 14.12.2022
668 Clear 8 1022 48 10000 1.49 353 15:39 14.12.2022
669 Clear 9 1021 45 10000 1.55 359 13:41 14.12.2022
670 Clear 9 1020 43 10000 0.77 2 11:21 14.12.2022
671 Clear 9 1020 43 10000 0.77 2 10:33 14.12.2022
672 Clear 10 1020 42 10000 0.33 306 08:51 14.12.2022
673 Clear 15 1016 30 10000 0.84 11 22:50 13.12.2022
674 Clear 14 1016 31 10000 0.94 6 21:48 13.12.2022
675 Clear 14 1017 34 10000 1.07 3 20:48 13.12.2022
676 Clear 13 1018 36 10000 1.33 11 20:19 13.12.2022
677 Clouds 12 1017 40 10000 0.55 5 17:40 13.12.2022
678 Clouds 8 1016 53 10000 0.65 358 15:55 13.12.2022
679 Clouds 8 1015 52 10000 0.56 252 14:52 13.12.2022
680 Clouds 8 1015 52 10000 0.56 252 14:52 13.12.2022
681 Clouds 9 1014 51 10000 1.42 355 11:32 13.12.2022
682 Clouds 9 1013 52 10000 0.96 17 10:36 13.12.2022
683 Clear 9 1013 52 10000 0.63 348 09:43 13.12.2022
684 Clouds 10 1012 50 10000 0.89 178 06:21 13.12.2022
685 Clouds 12 1010 42 10000 0.58 112 22:23 12.12.2022
686 Clouds 12 1011 44 10000 0.55 128 21:27 12.12.2022
687 Clouds 11 1011 50 10000 0.41 54 19:28 12.12.2022
688 Clouds 10 1011 54 10000 0.32 248 17:21 12.12.2022
689 Clouds 9 1010 58 10000 0.41 64 15:22 12.12.2022
690 Clear 9 1009 55 10000 1.59 145 12:26 12.12.2022
691 Clear 10 1008 53 10000 0.24 179 09:20 12.12.2022
692 Clear 11 1008 52 10000 2.24 184 05:42 12.12.2022
693 Clear 12 1007 50 10000 2.94 196 03:51 12.12.2022
694 Clouds 15 1004 36 10000 6.85 186 22:57 11.12.2022
695 Clouds 15 1005 69 6697 8.24 191 20:54 11.12.2022
696 Clouds 18 1004 56 10000 10.78 193 19:54 11.12.2022
697 Clouds 18 1004 56 10000 10.78 193 19:36 11.12.2022
698 Clouds 16 1006 71 10000 10.04 177 18:22 11.12.2022
699 Clouds 16 1006 71 10000 10.04 177 17:33 11.12.2022
700 Rain 15 1007 74 10000 8.31 176 16:52 11.12.2022
701 Rain 14 1007 70 9461 7.55 169 15:47 11.12.2022
702 Rain 15 1007 67 8862 6.92 171 14:50 11.12.2022
703 Clouds 15 1007 60 10000 7.78 173 13:21 11.12.2022
704 Clouds 15 1007 60 10000 7.78 173 12:40 11.12.2022
705 Clouds 15 1009 66 10000 8.48 169 09:46 11.12.2022
706 Clouds 19 1011 44 10000 6.92 187 00:35 11.12.2022
707 Clouds 19 1011 36 10000 7.23 175 23:56 10.12.2022
708 Clouds 19 1012 31 10000 6.88 168 22:33 10.12.2022
709 Clouds 18 1014 34 10000 5.14 166 21:23 10.12.2022
710 Clouds 18 1014 34 10000 5.14 166 20:39 10.12.2022
711 Clear 17 1016 35 10000 3.72 172 19:55 10.12.2022
712 Clouds 13 1018 47 10000 0.74 142 17:18 10.12.2022
713 Clouds 13 1018 47 10000 0.74 142 16:36 10.12.2022
714 Clouds 11 1018 53 10000 0.82 139 15:39 10.12.2022
715 Clouds 11 1017 53 10000 1.4 134 14:59 10.12.2022
716 Clouds 11 1017 49 10000 1.14 142 12:55 10.12.2022
717 Clouds 12 1017 48 10000 1.6 152 11:55 10.12.2022
718 Clouds 12 1018 47 10000 2.04 159 10:46 10.12.2022
719 Clouds 12 1018 47 10000 2.13 160 09:38 10.12.2022
720 Clouds 12 1019 51 10000 1.01 160 07:21 10.12.2022
721 Clouds 12 1019 48 10000 0.57 207 04:56 10.12.2022
722 Clear 17 1017 35 10000 1.3 156 23:34 09.12.2022
723 Clear 17 1018 34 10000 0.9 152 22:41 09.12.2022
724 Clear 16 1020 36 10000 0.63 67 21:27 09.12.2022
725 Clear 16 1020 36 10000 0.63 67 20:58 09.12.2022
726 Clear 15 1021 36 10000 0.55 14 19:43 09.12.2022
727 Clear 14 1022 40 10000 0.94 16 17:56 09.12.2022
728 Clear 12 1021 44 10000 0.77 348 16:47 09.12.2022
729 Clear 9 1021 55 10000 0.28 349 16:18 09.12.2022
730 Clear 9 1021 55 10000 0.29 313 15:24 09.12.2022
731 Clouds 11 1020 50 10000 0.31 349 12:37 09.12.2022
732 Clouds 12 1020 47 10000 0.26 285 10:49 09.12.2022
733 Clouds 12 1020 46 10000 0.42 144 10:19 09.12.2022
734 Clouds 13 1021 42 10000 1.12 169 05:37 09.12.2022
735 Clouds 15 1021 39 10000 0.97 167 03:18 09.12.2022
736 Clear 16 1022 33 10000 1.8 156 22:48 08.12.2022
737 Clear 16 1024 37 10000 1.12 164 20:51 08.12.2022
738 Clear 14 1026 40 10000 0.76 134 18:56 08.12.2022
739 Clear 10 1026 54 10000 0.17 132 16:26 08.12.2022
740 Clear 10 1025 54 10000 0.44 165 14:30 08.12.2022
741 Clear 11 1024 50 10000 0.24 120 12:25 08.12.2022
742 Clear 11 1024 49 10000 0.3 166 10:34 08.12.2022
743 Clear 12 1024 47 10000 1.13 145 09:28 08.12.2022
744 Clear 13 1023 48 10000 0.67 133 06:51 08.12.2022
745 Clouds 16 1019 40 10000 0.98 142 22:43 07.12.2022
746 Clear 16 1019 42 10000 0.73 149 22:18 07.12.2022
747 Clear 16 1019 42 10000 0.73 149 21:45 07.12.2022
748 Clear 15 1021 48 10000 0.39 141 19:49 07.12.2022
749 Clouds 14 1020 52 10000 0.5 348 18:20 07.12.2022
750 Clouds 11 1019 64 10000 0.91 301 15:39 07.12.2022
751 Clouds 11 1017 62 10000 0.51 314 13:26 07.12.2022
752 Clear 12 1017 61 10000 0.57 262 10:49 07.12.2022
753 Clear 12 1017 60 10000 0.16 224 09:58 07.12.2022
754 Clear 12 1017 58 10000 0.22 187 08:58 07.12.2022
755 Clouds 13 1016 56 10000 0.45 158 07:21 07.12.2022
756 Clouds 14 1016 53 10000 1.21 196 05:24 07.12.2022
757 Clouds 16 1014 44 10000 1.47 164 00:56 07.12.2022
758 Clouds 17 1014 44 10000 1.24 147 21:49 06.12.2022
759 Clouds 15 1016 49 10000 1.73 170 19:22 06.12.2022
760 Clouds 13 1015 54 10000 1.04 197 17:19 06.12.2022
761 Clouds 12 1015 59 10000 1.19 198 16:29 06.12.2022
762 Clouds 12 1015 59 10000 1.19 198 15:35 06.12.2022
763 Clouds 12 1014 58 10000 0.79 161 14:35 06.12.2022
764 Clear 12 1013 56 10000 1.33 167 13:49 06.12.2022
765 Clear 12 1013 57 10000 1.07 182 12:41 06.12.2022
766 Clear 12 1013 55 10000 0.87 172 11:48 06.12.2022
767 Clear 13 1012 52 10000 0.19 239 07:50 06.12.2022
768 Clear 16 1011 46 10000 2.33 352 03:20 06.12.2022
769 Clouds 19 1010 35 10000 0.88 138 23:44 05.12.2022
770 Clouds 19 1010 38 10000 1.98 152 21:47 05.12.2022
771 Clouds 19 1011 40 10000 2.32 155 20:52 05.12.2022
772 Clouds 18 1012 44 10000 2.63 159 20:22 05.12.2022
773 Clouds 18 1012 44 10000 2.63 159 19:36 05.12.2022
774 Clouds 15 1014 56 10000 1.47 166 16:53 05.12.2022
775 Clouds 14 1013 65 10000 0.83 143 15:29 05.12.2022
776 Clouds 14 1013 65 10000 0.83 143 14:52 05.12.2022
777 Clouds 15 1013 65 10000 0.94 144 12:58 05.12.2022
778 Clouds 15 1013 65 10000 0.94 144 12:38 05.12.2022
779 Clouds 15 1013 65 10000 1.14 154 11:43 05.12.2022
780 Clouds 16 1013 65 10000 1.56 168 09:23 05.12.2022
781 Clear 22 1012 48 10000 5.48 192 00:19 05.12.2022
782 Clear 23 1012 47 10000 6.59 192 22:44 04.12.2022
783 Clear 23 1013 46 10000 6.95 181 22:19 04.12.2022
784 Clear 23 1013 46 10000 6.95 181 21:37 04.12.2022
785 Clear 21 1015 48 10000 5.88 172 20:26 04.12.2022
786 Clouds 20 1016 49 10000 5.09 173 19:24 04.12.2022
787 Clouds 20 1016 49 10000 5.09 173 18:37 04.12.2022
788 Clouds 17 1016 56 10000 2.71 164 17:22 04.12.2022
789 Clouds 17 1016 56 10000 2.71 164 16:37 04.12.2022
790 Clouds 15 1017 61 10000 2.19 170 16:19 04.12.2022
791 Clouds 16 1017 62 10000 2.64 174 15:31 04.12.2022
792 Clouds 16 1016 59 10000 2.55 170 14:43 04.12.2022
793 Clouds 16 1016 59 10000 2.38 166 12:59 04.12.2022
794 Clouds 16 1016 59 10000 2.38 166 12:40 04.12.2022
795 Clouds 16 1016 59 10000 2.21 163 11:35 04.12.2022
796 Clouds 16 1017 64 10000 2.31 166 09:19 04.12.2022
797 Clouds 17 1018 61 10000 0.15 142 02:52 04.12.2022
798 Clouds 19 1017 53 10000 0.96 162 23:44 03.12.2022
799 Clouds 19 1017 53 10000 0.86 154 22:51 03.12.2022
800 Clouds 19 1018 53 10000 0.59 143 21:53 03.12.2022
801 Clouds 19 1019 55 10000 0.54 168 21:19 03.12.2022
802 Clouds 17 1021 63 10000 0.13 28 18:57 03.12.2022
803 Clouds 17 1021 63 10000 0.13 28 18:38 03.12.2022
804 Clouds 15 1020 71 10000 1.28 341 15:53 03.12.2022
805 Clouds 15 1020 69 10000 1.24 358 13:50 03.12.2022
806 Clouds 15 1019 67 10000 0.4 326 12:53 03.12.2022
807 Clouds 15 1020 67 10000 0.29 96 12:22 03.12.2022
808 Clouds 15 1020 63 10000 1.14 157 09:47 03.12.2022
809 Clouds 15 1021 66 10000 0.41 283 06:27 03.12.2022
810 Clouds 17 1019 57 10000 0.59 16 00:23 03.12.2022
811 Clouds 17 1019 57 10000 0.73 67 22:20 02.12.2022
812 Clouds 16 1019 58 10000 0.67 106 20:53 02.12.2022
813 Clouds 15 1020 67 10000 0.21 99 18:21 02.12.2022
814 Clouds 12 1018 78 10000 0.77 319 15:58 02.12.2022
815 Clouds 12 1016 79 10000 0.75 316 14:40 02.12.2022
816 Clouds 13 1015 78 10000 0.32 239 14:22 02.12.2022
817 Clouds 13 1014 78 10000 1.44 193 12:55 02.12.2022
818 Clouds 13 1013 76 10000 2.42 210 11:31 02.12.2022
819 Clouds 14 1010 72 10000 6.4 186 08:35 02.12.2022
820 Clouds 15 1009 68 10000 6.49 189 07:23 02.12.2022
821 Clouds 19 1007 41 10000 7.63 185 23:35 01.12.2022
822 Clouds 19 1008 40 10000 8.01 177 21:45 01.12.2022
823 Clouds 18 1009 43 10000 7.12 174 21:26 01.12.2022
824 Clouds 16 1012 51 10000 5.41 174 19:22 01.12.2022
825 Clouds 15 1012 54 10000 4.62 177 17:48 01.12.2022
826 Clouds 12 1012 55 10000 2.91 177 15:39 01.12.2022
827 Clear 13 1011 46 10000 2.01 166 11:37 01.12.2022
828 Clear 13 1012 42 10000 1.62 171 10:23 01.12.2022
829 Clear 13 1012 42 10000 1.62 171 09:54 01.12.2022
830 Clear 13 1012 42 10000 1.62 171 09:35 01.12.2022
831 Clouds 18 1012 26 10000 1.65 162 23:59 30.11.2022
832 Clouds 18 1013 26 10000 1.58 163 22:37 30.11.2022
833 Clouds 17 1015 26 10000 1.47 161 21:19 30.11.2022
834 Clouds 16 1016 27 10000 1.22 161 20:25 30.11.2022
835 Clouds 16 1016 27 10000 1.22 161 19:58 30.11.2022
836 Clear 16 1017 27 10000 1.42 157 18:33 30.11.2022
837 Clear 15 1017 28 10000 1.11 146 17:36 30.11.2022
838 Clear 11 1017 37 10000 0.68 134 16:19 30.11.2022
839 Clear 11 1016 36 10000 0.45 121 14:27 30.11.2022
840 Clear 11 1016 36 10000 0.45 121 13:48 30.11.2022
841 Clear 12 1016 36 10000 0.42 88 10:42 30.11.2022
842 Clear 13 1017 35 10000 0.67 17 08:39 30.11.2022
843 Clear 13 1017 35 10000 0.69 27 07:57 30.11.2022
844 Clouds 17 1014 25 10000 0.34 126 23:39 29.11.2022
845 Clear 18 1014 25 10000 0.72 29 22:51 29.11.2022
846 Clear 17 1014 26 10000 1.54 18 21:36 29.11.2022
847 Clear 17 1015 27 10000 2.19 8 20:37 29.11.2022
848 Clear 16 1016 33 10000 3.13 4 18:59 29.11.2022
849 Clear 13 1015 40 10000 1.76 357 17:18 29.11.2022
850 Clear 12 1014 45 10000 1.92 355 16:26 29.11.2022
851 Clear 12 1012 44 10000 1.97 4 14:50 29.11.2022
852 Clear 12 1011 43 10000 1.88 4 13:35 29.11.2022
853 Clear 13 1009 41 10000 1.74 10 11:57 29.11.2022
854 Clear 13 1008 41 10000 1.37 2 11:18 29.11.2022
855 Clear 13 1007 41 10000 1.14 352 09:47 29.11.2022
856 Clear 13 1006 40 10000 0.91 349 08:42 29.11.2022
857 Clouds 17 1003 31 10000 1.3 331 01:30 29.11.2022
858 Clouds 20 1003 23 10000 0.51 142 23:35 28.11.2022
859 Clouds 20 1003 24 10000 1.41 135 22:53 28.11.2022
860 Clouds 20 1005 24 10000 0.9 136 21:54 28.11.2022
861 Clouds 20 1005 24 10000 0.9 136 21:36 28.11.2022
862 Clouds 19 1007 28 10000 0.86 158 19:41 28.11.2022
863 Clouds 18 1008 29 10000 0.77 157 18:30 28.11.2022
864 Clouds 17 1008 31 10000 0.95 159 17:51 28.11.2022
865 Clouds 16 1009 36 10000 1.15 152 16:57 28.11.2022
866 Clouds 14 1009 40 10000 0.75 128 14:28 28.11.2022
867 Clouds 14 1009 40 10000 0.75 128 13:52 28.11.2022
868 Clouds 15 1009 39 10000 1.39 150 12:43 28.11.2022
869 Clouds 14 1012 43 10000 0.94 151 10:29 28.11.2022
870 Clouds 15 1013 41 10000 1.16 143 07:53 28.11.2022
871 Clouds 16 1014 38 10000 1.11 145 04:45 28.11.2022
872 Clouds 16 1015 37 10000 1.06 155 03:59 28.11.2022
873 Clouds 16 1015 38 10000 0.78 155 03:19 28.11.2022
874 Clouds 20 1016 28 10000 1.29 154 22:53 27.11.2022
875 Clouds 20 1017 28 10000 1.18 161 21:49 27.11.2022
876 Clear 20 1017 28 10000 0.96 146 20:36 27.11.2022
877 Clear 17 1020 36 10000 1.02 21 17:59 27.11.2022
878 Clear 14 1019 47 10000 1.02 352 15:35 27.11.2022
879 Clear 14 1019 45 10000 1.47 354 13:34 27.11.2022
880 Clear 15 1019 41 10000 1.96 356 10:57 27.11.2022
881 Clear 16 1019 38 10000 2.12 348 08:47 27.11.2022
882 Clear 18 1018 21 10000 2.18 347 04:47 27.11.2022
883 Clouds 21 1016 13 10000 0.58 33 22:34 26.11.2022
884 Clouds 20 1017 14 10000 0.83 16 20:56 26.11.2022
885 Clouds 20 1018 14 10000 0.62 49 19:37 26.11.2022
886 Clouds 19 1019 14 10000 0.83 177 17:57 26.11.2022
887 Clear 13 1019 20 10000 0.28 133 16:25 26.11.2022
888 Clear 13 1019 20 10000 0.65 19 13:51 26.11.2022
889 Clear 14 1019 21 10000 0.14 259 12:23 26.11.2022
890 Clear 14 1020 21 10000 0.08 126 10:51 26.11.2022
891 Clear 15 1020 21 10000 0.58 153 09:31 26.11.2022
892 Clear 16 1022 20 10000 0.41 193 07:21 26.11.2022
893 Clouds 21 1024 12 10000 0.44 93 21:47 25.11.2022
894 Clouds 21 1024 12 10000 0.44 93 21:46 25.11.2022
895 Clouds 21 1025 13 10000 0.62 45 21:27 25.11.2022
896 Clear 20 1027 13 10000 0.79 45 19:57 25.11.2022
897 Clear 17 1028 18 10000 0.8 348 16:50 25.11.2022
898 Clear 13 1028 21 10000 0.87 21 14:45 25.11.2022
899 Clear 15 1028 18 10000 1.2 358 09:36 25.11.2022
900 Clear 16 1028 18 10000 1.19 358 08:41 25.11.2022
901 Clear 16 1029 18 10000 1.3 3 06:55 25.11.2022
902 Clear 17 1029 17 10000 1.65 357 06:26 25.11.2022
903 Clouds 21 1027 13 10000 4.04 2 23:57 24.11.2022
904 Clouds 21 1027 13 10000 4.23 3 22:57 24.11.2022
905 Clouds 21 1027 13 10000 4.09 6 21:59 24.11.2022
906 Clouds 20 1028 14 10000 4.08 7 20:45 24.11.2022
907 Clouds 19 1029 18 10000 3.86 12 19:20 24.11.2022
908 Clouds 18 1029 20 10000 3.44 6 17:43 24.11.2022
909 Clouds 16 1029 23 10000 2.66 6 17:20 24.11.2022
910 Clouds 14 1027 24 10000 2.63 7 15:29 24.11.2022
911 Clouds 15 1026 23 10000 2.75 5 14:22 24.11.2022
912 Clouds 15 1026 23 10000 2.75 5 14:22 24.11.2022
913 Clouds 16 1024 20 10000 3.17 3 11:59 24.11.2022
914 Clouds 16 1024 20 10000 3.03 5 10:37 24.11.2022
915 Clouds 18 1022 18 10000 3.02 359 07:54 24.11.2022
916 Clouds 20 1020 16 10000 2.38 345 03:23 24.11.2022
917 Clouds 25 1017 12 10000 3.17 352 23:46 23.11.2022
918 Clouds 24 1018 12 10000 3.1 349 22:24 23.11.2022
919 Clouds 24 1018 12 10000 3.1 349 21:30 23.11.2022
920 Clouds 23 1019 12 10000 3.32 351 20:48 23.11.2022
921 Clouds 23 1019 11 10000 3.09 3 19:30 23.11.2022
922 Clouds 21 1020 10 10000 1.96 6 18:41 23.11.2022
923 Clouds 18 1019 12 10000 0.97 326 16:56 23.11.2022
924 Clear 14 1018 16 10000 0.82 357 13:41 23.11.2022
925 Clear 14 1017 16 10000 0.09 303 13:21 23.11.2022
926 Clear 14 1018 16 10000 0.37 334 12:21 23.11.2022
927 Clear 14 1018 16 10000 0.37 334 12:21 23.11.2022
928 Clear 14 1018 16 10000 0.37 334 11:42 23.11.2022
929 Clear 14 1018 17 10000 0.2 349 10:44 23.11.2022
930 Clouds 15 1018 16 10000 0.24 322 09:44 23.11.2022
931 Clouds 15 1018 16 10000 0.73 323 09:26 23.11.2022
932 Clouds 15 1018 16 10000 0.73 323 08:37 23.11.2022
933 Clear 15 1019 18 10000 0.21 125 06:59 23.11.2022
934 Clear 16 1019 18 10000 0.34 218 05:18 23.11.2022
935 Clear 22 1018 11 10000 0.46 73 23:24 22.11.2022
936 Clear 22 1018 11 10000 0.46 73 22:34 22.11.2022
937 Clear 21 1018 11 10000 0.56 68 21:34 22.11.2022
938 Clear 21 1019 11 10000 1.05 14 20:50 22.11.2022
939 Clear 20 1020 11 10000 1.48 4 20:20 22.11.2022
940 Clouds 20 1020 11 10000 1.49 12 18:34 22.11.2022
941 Clouds 19 1021 11 10000 1.24 4 17:45 22.11.2022
942 Clouds 15 1021 16 10000 1.63 342 16:23 22.11.2022
943 Clouds 14 1020 16 10000 1.31 347 14:20 22.11.2022
944 Clouds 15 1020 15 10000 1.12 340 12:26 22.11.2022
945 Clouds 15 1021 16 10000 1.36 348 09:26 22.11.2022
946 Clouds 15 1021 17 10000 0.94 341 07:59 22.11.2022
947 Clouds 15 1021 17 10000 1.1 350 06:37 22.11.2022
948 Clouds 20 1020 10 10000 0.22 75 23:42 21.11.2022
949 Clouds 21 1020 9 10000 0.39 42 22:51 21.11.2022
950 Clouds 21 1021 10 10000 0.57 41 22:20 21.11.2022
951 Clouds 20 1021 10 10000 0.9 24 21:23 21.11.2022
952 Clouds 19 1022 10 10000 0.99 20 19:49 21.11.2022
953 Clouds 19 1022 10 10000 0.99 20 19:31 21.11.2022
954 Clouds 19 1022 10 10000 0.99 20 19:31 21.11.2022
955 Clouds 19 1022 10 10000 0.99 20 19:31 21.11.2022
956 Clouds 19 1022 10 10000 0.99 20 19:31 21.11.2022
957 Clouds 19 1023 10 10000 1.1 14 18:50 21.11.2022
958 Clouds 16 1023 13 10000 0.74 347 17:26 21.11.2022
959 Clouds 16 1023 13 10000 0.74 347 16:41 21.11.2022
960 Clouds 12 1022 15 10000 0.82 352 15:58 21.11.2022
961 Clouds 11 1022 16 10000 0.71 342 15:23 21.11.2022
962 Clouds 11 1022 15 10000 0.87 352 13:53 21.11.2022
963 Clouds 12 1022 15 10000 0.96 350 12:47 21.11.2022
964 Clouds 13 1022 15 10000 1.04 351 09:31 21.11.2022
965 Clouds 13 1022 16 10000 0.66 354 07:52 21.11.2022
966 Clear 20 1022 10 10000 0.8 11 23:47 20.11.2022
967 Clear 20 1023 10 10000 1.27 13 21:36 20.11.2022
968 Clear 19 1024 11 10000 1.41 5 20:47 20.11.2022
969 Clear 18 1026 13 10000 1.69 7 18:58 20.11.2022
970 Clear 15 1026 16 10000 1.58 355 16:50 20.11.2022
971 Clear 12 1026 19 10000 1.65 348 15:43 20.11.2022
972 Clear 11 1025 19 10000 1.76 353 14:55 20.11.2022
973 Clear 11 1025 19 10000 1.59 346 13:58 20.11.2022
974 Clear 12 1025 19 10000 1.79 348 13:23 20.11.2022
975 Clear 12 1025 19 10000 1.78 348 11:41 20.11.2022
976 Clear 12 1025 18 10000 1.69 348 10:57 20.11.2022
977 Clear 12 1025 18 10000 1.61 351 09:43 20.11.2022
978 Clear 12 1025 17 10000 1.45 356 08:52 20.11.2022
979 Clear 12 1025 17 10000 1.45 356 08:52 20.11.2022
980 Clear 13 1025 17 10000 1.46 358 07:58 20.11.2022
981 Clear 13 1025 17 10000 1.49 1 07:22 20.11.2022
982 Clear 18 1023 14 10000 2.8 349 01:26 20.11.2022
983 Clear 18 1023 14 10000 2.8 349 00:45 20.11.2022
984 Clear 19 1023 13 10000 3.46 355 00:26 20.11.2022
985 Clear 19 1023 13 10000 3.46 355 23:57 19.11.2022
986 Clear 19 1023 13 10000 3.87 0 23:26 19.11.2022
987 Clear 19 1023 13 10000 3.87 0 22:43 19.11.2022
988 Clear 18 1024 13 10000 4.27 7 21:47 19.11.2022
989 Clear 18 1025 15 10000 4.67 11 21:23 19.11.2022
990 Clear 17 1025 16 10000 4.52 10 20:40 19.11.2022
991 Clear 17 1026 18 10000 4.78 10 19:48 19.11.2022
992 Clear 14 1027 25 10000 4.7 9 18:19 19.11.2022
993 Clear 14 1027 25 10000 4.7 9 17:38 19.11.2022
994 Clear 13 1027 30 10000 3.86 8 17:18 19.11.2022
995 Clear 10 1026 36 10000 3.65 2 14:47 19.11.2022
996 Clear 11 1025 34 10000 3.96 359 13:21 19.11.2022
997 Clear 12 1024 33 10000 4.17 359 11:52 19.11.2022
998 Clear 14 1023 30 10000 4.51 355 09:45 19.11.2022
999 Clear 15 1022 27 10000 3.99 354 07:52 19.11.2022
1000 Clear 16 1020 24 10000 3.95 355 04:44 19.11.2022
1001 Clouds 20 1016 17 10000 5.12 358 00:46 19.11.2022
1002 Clouds 21 1016 16 10000 5.94 352 23:34 18.11.2022
1003 Clouds 21 1016 15 10000 4.85 0 22:23 18.11.2022
1004 Clouds 21 1016 15 10000 4.85 0 21:35 18.11.2022
1005 Clouds 21 1016 15 10000 4.38 3 20:57 18.11.2022
1006 Clouds 20 1017 15 10000 3.99 359 20:25 18.11.2022
1007 Clouds 20 1017 15 10000 3.99 359 19:36 18.11.2022
1008 Clouds 18 1017 17 10000 2.66 360 17:45 18.11.2022
1009 Clouds 15 1017 22 10000 1.74 349 15:59 18.11.2022
1010 Clear 14 1017 26 10000 0.58 323 11:57 18.11.2022
1011 Clear 15 1017 25 10000 1.37 8 10:22 18.11.2022
1012 Clear 15 1018 25 10000 0.69 352 07:52 18.11.2022
1013 Clouds 17 1019 24 10000 0.16 233 05:27 18.11.2022
1014 Clouds 18 1020 23 10000 0.62 199 02:40 18.11.2022
1015 Clouds 21 1021 16 10000 0.42 131 23:29 17.11.2022
1016 Clouds 20 1023 16 10000 0.94 34 20:48 17.11.2022
1017 Clear 19 1025 17 10000 1.28 14 19:54 17.11.2022
1018 Clear 19 1025 17 10000 1.28 14 19:54 17.11.2022
1019 Clouds 19 1026 17 10000 1.6 9 19:27 17.11.2022
1020 Clouds 18 1026 18 10000 1.52 15 18:29 17.11.2022
1021 Clouds 18 1026 18 10000 1.52 15 17:30 17.11.2022
1022 Clouds 16 1027 21 10000 1.49 359 16:31 17.11.2022
1023 Clear 14 1027 21 10000 1.65 346 12:20 17.11.2022
1024 Clear 14 1027 20 10000 1.77 354 10:47 17.11.2022
1025 Clear 15 1028 20 10000 1.36 357 07:35 17.11.2022
1026 Clear 17 1028 17 10000 2.64 358 01:30 17.11.2022
1027 Clear 20 1028 13 10000 4.02 357 23:31 16.11.2022
1028 Clear 20 1029 13 10000 5.31 7 22:19 16.11.2022
1029 Clear 19 1030 14 10000 5.87 5 20:33 16.11.2022
1030 Clear 17 1032 19 10000 6.23 2 18:49 16.11.2022
1031 Clear 17 1032 19 10000 6.23 2 18:49 16.11.2022
1032 Clear 17 1032 19 10000 6.23 2 18:49 16.11.2022
1033 Clear 17 1032 19 10000 6.23 2 18:30 16.11.2022
1034 Clear 12 1033 32 10000 3.84 1 15:58 16.11.2022
1035 Clear 13 1031 25 10000 3.38 4 11:54 16.11.2022
1036 Clear 14 1030 21 10000 3.5 2 07:45 16.11.2022
1037 Clear 17 1025 21 10000 3.78 14 01:42 16.11.2022
1038 Clear 20 1023 17 10000 5.63 6 23:36 15.11.2022
1039 Clear 20 1023 18 10000 5.24 3 21:44 15.11.2022
1040 Clear 18 1025 22 10000 5.05 14 20:19 15.11.2022
1041 Clear 18 1025 24 10000 4.67 9 18:56 15.11.2022
1042 Clear 17 1025 26 10000 4.12 9 17:37 15.11.2022
1043 Clear 13 1024 34 10000 2.49 357 16:20 15.11.2022
1044 Clear 13 1024 34 10000 2.49 357 15:39 15.11.2022
1045 Clear 13 1023 36 10000 2.31 356 14:41 15.11.2022
1046 Clouds 14 1022 34 10000 1.84 348 12:54 15.11.2022
1047 Clouds 14 1022 33 10000 1.85 346 11:22 15.11.2022
1048 Clouds 14 1022 33 10000 1.7 344 09:43 15.11.2022
1049 Clear 18 1020 24 10000 1.19 358 00:54 15.11.2022
1050 Clear 19 1020 23 10000 1.14 16 00:24 15.11.2022
1051 Clear 19 1020 23 10000 1.52 10 22:33 14.11.2022
1052 Clear 18 1020 24 10000 1.94 21 20:44 14.11.2022
1053 Clear 17 1021 25 10000 2.3 12 19:47 14.11.2022
1054 Clouds 16 1022 28 10000 2.61 8 18:27 14.11.2022
1055 Clouds 13 1020 33 10000 1.7 356 13:20 14.11.2022
1056 Clouds 13 1020 32 10000 1.85 359 11:49 14.11.2022
1057 Clear 14 1019 31 10000 1.93 357 11:25 14.11.2022
1058 Clear 14 1019 30 10000 1.96 10 08:34 14.11.2022
1059 Clear 14 1019 30 10000 1.96 10 08:34 14.11.2022
1060 Clear 14 1019 30 10000 1.96 10 08:34 14.11.2022
1061 Clear 15 1019 29 10000 1.75 4 07:52 14.11.2022
1062 Clear 16 1017 27 10000 2.18 343 04:31 14.11.2022
1063 Clear 19 1015 24 10000 8.23 351 23:23 13.11.2022
1064 Clear 18 1016 25 10000 8.49 348 21:42 13.11.2022
1065 Clear 18 1016 28 10000 8.03 347 20:50 13.11.2022
1066 Clouds 16 1017 36 10000 5.82 350 18:55 13.11.2022
1067 Clouds 15 1017 40 10000 6.64 355 17:50 13.11.2022
1068 Clouds 13 1015 44 10000 3.15 348 16:25 13.11.2022
1069 Clouds 13 1014 38 10000 2.91 343 14:44 13.11.2022
1070 Clear 13 1013 31 10000 2.55 340 12:58 13.11.2022
1071 Clear 13 1012 33 10000 1.37 314 12:24 13.11.2022
1072 Clear 13 1012 32 10000 1.26 305 10:42 13.11.2022
1073 Clear 15 1012 23 10000 0.79 17 06:29 13.11.2022
1074 Clear 19 1012 14 10000 2.36 151 23:58 12.11.2022
1075 Clear 19 1014 14 10000 2.26 161 21:42 12.11.2022
1076 Clear 19 1015 14 10000 2 166 21:19 12.11.2022
1077 Clear 18 1016 15 10000 2.01 163 19:52 12.11.2022
1078 Clear 16 1017 17 10000 1.52 152 17:33 12.11.2022
1079 Clear 12 1018 25 10000 0.95 146 16:19 12.11.2022
1080 Clear 11 1018 27 10000 0.52 143 14:50 12.11.2022
1081 Clouds 12 1018 24 10000 0.35 52 11:23 12.11.2022
1082 Clouds 13 1019 21 10000 0.72 360 08:25 12.11.2022
1083 Clouds 17 1019 13 10000 0.88 50 00:41 12.11.2022
1084 Clouds 18 1020 14 10000 1.73 30 21:35 11.11.2022
1085 Clouds 17 1021 15 10000 2 25 20:45 11.11.2022
1086 Clouds 16 1023 18 10000 2.68 16 19:29 11.11.2022
1087 Clouds 16 1023 18 10000 2.68 16 18:42 11.11.2022
1088 Clouds 15 1023 20 10000 2.71 14 17:41 11.11.2022
1089 Clouds 12 1023 27 10000 2.22 1 15:36 11.11.2022
1090 Clouds 12 1022 29 10000 2.47 356 14:20 11.11.2022
1091 Clouds 12 1022 29 10000 2.5 354 13:24 11.11.2022
1092 Clear 14 1021 28 10000 2.32 355 09:37 11.11.2022
1093 Clear 15 1021 27 10000 2.13 353 08:27 11.11.2022
1094 Clear 16 1020 25 10000 2.08 353 04:39 11.11.2022
1095 Clear 19 1019 23 10000 2.36 4 23:21 10.11.2022
1096 Clear 18 1020 23 10000 2.67 5 21:55 10.11.2022
1097 Clear 18 1020 23 10000 2.67 5 21:32 10.11.2022
1098 Clear 18 1021 25 10000 3.09 4 20:50 10.11.2022
1099 Clear 17 1022 27 10000 3.63 2 20:20 10.11.2022
1100 Clear 17 1022 27 10000 3.63 2 19:42 10.11.2022
1101 Clear 17 1023 29 10000 4.18 356 18:32 10.11.2022
1102 Clear 13 1023 43 10000 1.99 354 16:26 10.11.2022
1103 Clear 13 1021 44 10000 2.23 352 13:56 10.11.2022
1104 Clear 14 1021 44 10000 1.77 348 11:38 10.11.2022
1105 Clear 14 1021 43 10000 0.96 356 08:44 10.11.2022
1106 Clear 16 1017 35 10000 0.24 194 01:34 10.11.2022
1107 Clear 18 1015 31 10000 0.56 102 23:39 09.11.2022
1108 Clear 17 1014 31 10000 1.04 114 22:38 09.11.2022
1109 Clear 16 1015 35 10000 0.39 183 20:48 09.11.2022
1110 Clear 16 1015 38 10000 0.8 190 20:29 09.11.2022
1111 Clear 16 1015 38 10000 0.8 190 19:43 09.11.2022
1112 Clouds 15 1014 42 10000 0.56 179 19:18 09.11.2022
1113 Clouds 14 1013 50 10000 1.88 221 16:50 09.11.2022
1114 Clouds 12 1011 61 10000 2.62 214 14:48 09.11.2022
1115 Clouds 12 1010 59 10000 3.18 207 14:26 09.11.2022
1116 Clouds 12 1010 59 10000 3.18 207 13:31 09.11.2022
1117 Clouds 13 1009 63 10000 3.78 201 12:34 09.11.2022
1118 Clouds 14 1007 57 10000 5.78 197 08:44 09.11.2022
1119 Clouds 14 1006 60 10000 6.51 192 07:46 09.11.2022
1120 Clouds 17 1000 71 4965 7.07 196 01:44 09.11.2022
1121 Clouds 18 1003 73 10000 8.91 163 21:56 08.11.2022
1122 Clouds 18 1003 73 10000 8.91 163 21:35 08.11.2022
1123 Clouds 18 1006 74 10000 8.33 182 20:41 08.11.2022
1124 Clouds 16 1007 83 10000 7.2 151 19:47 08.11.2022
1125 Clouds 16 1008 81 10000 6.27 157 18:59 08.11.2022
1126 Clouds 16 1009 72 10000 5.32 167 17:32 08.11.2022
1127 Clouds 16 1009 60 10000 4.89 171 14:57 08.11.2022
1128 Clouds 16 1009 56 10000 5.5 175 14:23 08.11.2022
1129 Clouds 15 1009 56 10000 5.18 172 13:26 08.11.2022
1130 Clouds 16 1008 68 10000 6.66 190 10:26 08.11.2022
1131 Clouds 16 1008 64 10000 7.92 187 07:38 08.11.2022
1132 Clouds 20 1006 61 10000 9.06 192 01:50 08.11.2022
1133 Clouds 24 1005 41 10000 8.49 198 22:54 07.11.2022
1134 Clouds 24 1006 38 10000 8.14 196 21:39 07.11.2022
1135 Clouds 24 1007 38 10000 7.17 194 20:46 07.11.2022
1136 Clouds 23 1008 38 10000 6.11 192 19:37 07.11.2022
1137 Clouds 20 1008 52 10000 5.26 188 17:41 07.11.2022
1138 Clouds 18 1008 70 10000 4.75 193 15:38 07.11.2022
1139 Clouds 17 1007 73 10000 5.61 191 14:55 07.11.2022
1140 Clouds 18 1006 72 10000 6.35 188 13:21 07.11.2022
1141 Clouds 18 1006 71 10000 6.05 186 12:22 07.11.2022
1142 Clouds 19 1006 62 10000 6.89 182 09:50 07.11.2022
1143 Clouds 20 1006 57 10000 5.63 191 08:25 07.11.2022
1144 Clouds 20 1006 55 10000 4.75 196 06:31 07.11.2022
1145 Clear 22 1005 45 10000 1.98 133 01:45 07.11.2022
1146 Clear 24 1007 30 10000 2.99 159 23:23 06.11.2022
1147 Clear 23 1009 30 10000 1.68 160 21:22 06.11.2022
1148 Clear 23 1009 30 10000 1.68 160 20:48 06.11.2022
1149 Clouds 22 1010 30 10000 1.61 152 19:56 06.11.2022
1150 Clear 20 1011 32 10000 1.08 141 19:24 06.11.2022
1151 Clear 19 1011 34 10000 1.12 149 18:20 06.11.2022
1152 Clear 19 1011 34 10000 1.12 149 17:39 06.11.2022
1153 Clouds 18 1011 35 10000 1.08 141 17:18 06.11.2022
1154 Clear 16 1011 40 10000 0.85 148 16:18 06.11.2022
1155 Clouds 14 1010 43 10000 1.29 163 14:52 06.11.2022
1156 Clouds 15 1010 37 10000 0.66 128 12:46 06.11.2022
1157 Clouds 16 1010 34 10000 0.67 134 10:56 06.11.2022
1158 Clouds 16 1010 32 10000 1.03 145 09:52 06.11.2022
1159 Clouds 17 1010 30 10000 0.35 75 07:44 06.11.2022
1160 Clouds 23 1011 18 10000 1.4 148 23:23 05.11.2022
1161 Clear 22 1014 18 10000 1.31 155 20:45 05.11.2022
1162 Clouds 19 1017 20 10000 0.88 131 18:22 05.11.2022
1163 Clouds 18 1017 21 10000 1.54 184 16:35 05.11.2022
1164 Clouds 13 1017 28 10000 1.22 192 14:43 05.11.2022
1165 Clouds 14 1018 27 10000 1 69 13:39 05.11.2022
1166 Clouds 15 1018 27 10000 0.41 8 11:49 05.11.2022
1167 Clouds 16 1020 25 10000 0.07 58 08:58 05.11.2022
1168 Clouds 16 1021 25 10000 0.18 207 07:23 05.11.2022
1169 Clouds 16 1020 24 10000 0.09 239 06:54 05.11.2022
1170 Clouds 20 1020 17 10000 1.68 171 00:37 05.11.2022
1171 Clouds 20 1021 17 10000 0.67 88 23:27 04.11.2022
1172 Clouds 19 1023 17 10000 0.65 38 20:44 04.11.2022
1173 Clouds 18 1024 17 10000 0.85 26 19:31 04.11.2022
1174 Clouds 18 1024 17 10000 0.85 26 19:31 04.11.2022
1175 Clear 15 1025 20 10000 0.64 3 17:25 04.11.2022
1176 Clear 11 1024 27 10000 0.68 19 14:25 04.11.2022
1177 Clear 12 1023 26 10000 1.46 4 12:28 04.11.2022
1178 Clear 12 1023 26 10000 1.46 4 11:45 04.11.2022
1179 Clear 13 1022 23 10000 2.12 353 09:25 04.11.2022
1180 Clouds 14 1022 21 10000 3.06 356 08:19 04.11.2022
1181 Clouds 15 1021 21 10000 3.48 347 05:51 04.11.2022
1182 Clouds 18 1016 15 10000 6.29 327 00:42 04.11.2022
1183 Clear 18 1014 19 10000 6.87 340 21:18 03.11.2022
1184 Clear 18 1014 19 10000 6.87 340 20:44 03.11.2022
1185 Clear 17 1015 20 10000 6.78 343 19:41 03.11.2022
1186 Clouds 15 1014 35 10000 3.69 344 18:18 03.11.2022
1187 Clouds 15 1014 35 10000 3.69 344 17:36 03.11.2022
1188 Clouds 12 1013 60 10000 0.37 248 14:58 03.11.2022
1189 Clouds 13 1013 63 10000 0.95 242 13:26 03.11.2022
1190 Clouds 13 1013 63 10000 0.95 242 12:34 03.11.2022
1191 Clouds 12 1012 69 10000 1.26 272 11:31 03.11.2022
1192 Clouds 12 1012 69 10000 1.26 272 11:31 03.11.2022
1193 Clouds 13 1011 53 10000 2.52 353 07:47 03.11.2022
1194 Clouds 20 1009 29 10000 0.39 102 21:59 02.11.2022
1195 Clouds 20 1011 31 10000 0.71 124 20:54 02.11.2022
1196 Clouds 19 1011 32 10000 0.78 136 20:23 02.11.2022
1197 Clouds 18 1012 35 10000 1.14 207 18:23 02.11.2022
1198 Clouds 16 1011 40 10000 2.31 215 16:26 02.11.2022
1199 Clouds 16 1010 44 10000 2.85 204 15:27 02.11.2022
1200 Clouds 17 1009 50 10000 3.35 200 12:50 02.11.2022
1201 Clouds 17 1008 56 10000 3.86 202 12:20 02.11.2022
1202 Clouds 18 1007 61 10000 6.1 193 09:50 02.11.2022
1203 Clear 19 1007 54 10000 6.91 191 08:18 02.11.2022
1204 Clouds 24 1003 28 10000 8.33 197 01:46 02.11.2022
1205 Clouds 28 1005 14 10000 8.82 199 22:21 01.11.2022
1206 Clouds 28 1005 14 10000 8.82 199 21:54 01.11.2022
1207 Clouds 28 1007 15 10000 7.49 191 20:28 01.11.2022
1208 Clouds 28 1007 15 10000 7.49 191 19:59 01.11.2022
1209 Clouds 28 1007 15 10000 7.49 191 19:40 01.11.2022
1210 Clouds 26 1008 16 10000 7.64 182 18:23 01.11.2022
1211 Clouds 23 1008 20 10000 5.35 177 16:28 01.11.2022
1212 Clouds 22 1008 20 10000 4.72 177 14:38 01.11.2022
1213 Clouds 22 1008 18 10000 3.46 179 12:34 01.11.2022
1214 Clouds 23 1008 18 10000 3.47 179 11:40 01.11.2022
1215 Clouds 23 1008 17 10000 2.81 177 11:20 01.11.2022
1216 Clouds 24 1009 16 10000 2.53 180 08:58 01.11.2022
1217 Clouds 24 1009 15 10000 2.72 177 07:49 01.11.2022
1218 Clouds 24 1010 15 10000 2.65 173 07:27 01.11.2022
1219 Clouds 24 1010 15 10000 2.65 173 06:45 01.11.2022
1220 Clouds 25 1010 15 10000 2.31 176 05:19 01.11.2022
1221 Clouds 29 1010 12 10000 1.93 151 22:43 31.10.2022
1222 Clouds 29 1011 12 10000 1.54 150 21:33 31.10.2022
1223 Clouds 27 1013 13 10000 0.72 132 19:57 31.10.2022
1224 Clouds 26 1014 14 10000 0.61 108 18:36 31.10.2022
1225 Clouds 25 1014 15 10000 0.1 53 16:44 31.10.2022
1226 Clear 21 1014 20 10000 0.41 61 15:35 31.10.2022
1227 Clear 20 1014 20 10000 0.96 2 12:30 31.10.2022
1228 Clear 21 1014 19 10000 1.42 341 09:36 31.10.2022
1229 Clear 22 1015 19 10000 1.59 344 07:41 31.10.2022
1230 Clear 24 1015 17 10000 0.99 333 02:47 31.10.2022
1231 Clear 25 1014 16 10000 1.29 323 01:48 31.10.2022
1232 Clear 29 1015 12 10000 4.05 355 22:22 30.10.2022
1233 Clear 29 1016 12 10000 4.23 0 20:43 30.10.2022
1234 Clear 28 1017 12 10000 4.09 6 19:52 30.10.2022
1235 Clouds 24 1018 14 10000 3.52 1 16:42 30.10.2022
1236 Clouds 20 1017 18 10000 2.36 355 14:54 30.10.2022
1237 Clouds 20 1017 17 10000 2.2 352 13:51 30.10.2022
1238 Clouds 21 1017 15 10000 1.66 348 12:27 30.10.2022
1239 Clouds 21 1017 14 10000 2.19 345 10:32 30.10.2022
1240 Clouds 22 1017 13 10000 2.02 340 09:36 30.10.2022
1241 Clouds 22 1018 12 10000 1.08 345 08:18 30.10.2022
1242 Clear 28 1017 7 10000 0.99 9 00:30 30.10.2022
1243 Clear 28 1017 7 10000 1.4 14 23:48 29.10.2022
1244 Clear 27 1018 7 10000 1.78 8 22:52 29.10.2022
1245 Clear 25 1021 9 10000 2.21 6 19:57 29.10.2022
1246 Clear 19 1021 14 10000 1.75 330 17:24 29.10.2022
1247 Clear 17 1020 16 10000 1.18 337 15:51 29.10.2022
1248 Clear 17 1020 15 10000 1.69 348 15:23 29.10.2022
1249 Clear 17 1020 15 10000 1.69 348 14:41 29.10.2022
1250 Clouds 17 1020 15 10000 1.15 344 12:34 29.10.2022
1251 Clouds 18 1020 14 10000 0.86 8 09:57 29.10.2022
1252 Clouds 20 1021 12 10000 0.58 316 07:33 29.10.2022
1253 Clouds 20 1021 12 10000 0.62 25 05:55 29.10.2022
1254 Clouds 22 1020 11 10000 0.58 288 02:45 29.10.2022
1255 Clear 25 1020 8 10000 0.92 119 22:30 28.10.2022
1256 Clear 23 1022 9 10000 0.42 95 20:46 28.10.2022
1257 Clear 21 1023 9 10000 0.35 85 18:58 28.10.2022
1258 Clear 21 1023 9 10000 0.35 85 18:31 28.10.2022
1259 Clear 14 1022 14 10000 0.45 31 15:30 28.10.2022
1260 Clear 14 1022 14 10000 0.45 31 15:30 28.10.2022
1261 Clear 15 1021 14 10000 0.68 38 14:43 28.10.2022
1262 Clear 15 1021 14 10000 0.52 14 12:31 28.10.2022
1263 Clear 16 1021 14 10000 0.61 7 11:34 28.10.2022
1264 Clear 16 1021 14 10000 0.83 22 10:47 28.10.2022
1265 Clear 17 1021 13 10000 0.7 359 09:47 28.10.2022
1266 Clear 18 1021 12 10000 1.13 356 08:28 28.10.2022
1267 Clear 19 1019 11 10000 0.99 299 03:43 28.10.2022
1268 Clouds 23 1018 9 10000 2.83 11 23:49 27.10.2022
1269 Clouds 23 1018 10 10000 3.19 12 22:40 27.10.2022
1270 Clouds 22 1019 11 10000 3.69 11 21:55 27.10.2022
1271 Clouds 22 1020 13 10000 4.17 6 20:30 27.10.2022
1272 Clear 18 1020 18 10000 2.99 8 18:23 27.10.2022
1273 Clouds 16 1018 19 10000 2.73 356 14:30 27.10.2022
1274 Clouds 18 1015 18 10000 2.71 359 11:29 27.10.2022
1275 Clear 21 1012 19 10000 3.05 355 07:29 27.10.2022
1276 Clear 26 1009 15 10000 1.37 123 00:22 27.10.2022
1277 Clear 26 1009 15 10000 1.37 123 23:46 26.10.2022
1278 Clear 26 1010 15 10000 1.26 131 22:38 26.10.2022
1279 Clear 24 1012 16 10000 1.11 146 19:58 26.10.2022
1280 Clear 19 1013 21 10000 0.59 174 17:27 26.10.2022
1281 Clear 17 1012 23 10000 1.65 159 14:53 26.10.2022
1282 Clear 17 1012 24 10000 0.28 225 12:39 26.10.2022
1283 Clear 18 1012 23 10000 0.77 354 11:32 26.10.2022
1284 Clouds 19 1012 21 10000 0.66 341 09:18 26.10.2022
1285 Clouds 19 1012 21 10000 0.66 341 08:43 26.10.2022
1286 Clouds 25 1013 12 10000 1.33 156 00:50 26.10.2022
1287 Clouds 25 1014 12 10000 0.89 146 00:29 26.10.2022
1288 Clouds 24 1016 13 10000 0.6 116 21:58 25.10.2022
1289 Clouds 23 1018 13 10000 0.6 95 21:25 25.10.2022
1290 Clear 22 1019 14 10000 0.45 77 20:27 25.10.2022
1291 Clear 21 1019 14 10000 0.28 73 18:40 25.10.2022
1292 Clear 14 1020 22 10000 0.21 149 15:48 25.10.2022
1293 Clear 16 1019 20 10000 0.16 357 11:40 25.10.2022
1294 Clear 16 1020 19 10000 0.24 49 10:46 25.10.2022
1295 Clear 16 1020 19 10000 0.24 49 10:46 25.10.2022
1296 Clear 17 1020 19 10000 0.14 100 10:28 25.10.2022
1297 Clear 17 1020 18 10000 0.29 190 08:36 25.10.2022
1298 Clear 18 1020 17 10000 0.37 161 08:18 25.10.2022
1299 Clear 18 1020 17 10000 0.37 161 07:44 25.10.2022
1300 Clear 18 1021 17 10000 0.83 152 06:41 25.10.2022
1301 Clear 20 1020 16 10000 1.41 177 03:28 25.10.2022
1302 Clear 22 1020 11 10000 0.75 136 00:32 25.10.2022
1303 Clear 21 1022 13 10000 1.69 7 22:26 24.10.2022
1304 Clear 21 1022 13 10000 1.69 7 21:37 24.10.2022
1305 Clear 20 1023 14 10000 1.76 11 20:50 24.10.2022
1306 Clear 19 1023 16 10000 2.02 11 20:19 24.10.2022
1307 Clear 18 1023 17 10000 2.05 10 18:33 24.10.2022
1308 Clear 15 1023 22 10000 1.35 5 16:55 24.10.2022
1309 Clear 14 1022 24 10000 2.2 356 15:24 24.10.2022
1310 Clear 14 1021 24 10000 2.25 351 14:19 24.10.2022
1311 Clear 15 1020 23 10000 2.57 357 12:27 24.10.2022
1312 Clear 16 1019 20 10000 2.92 360 09:22 24.10.2022
1313 Clear 21 1012 14 10000 6.11 13 03:21 24.10.2022
1314 Clear 22 1010 15 10000 2.46 12 22:39 23.10.2022
1315 Clear 21 1011 16 10000 2.98 22 20:38 23.10.2022
1316 Clear 19 1011 19 10000 3 32 18:41 23.10.2022
1317 Clouds 17 1010 25 10000 2.01 14 17:28 23.10.2022
1318 Clouds 16 1008 29 10000 2 11 15:40 23.10.2022
1319 Clouds 17 1007 31 10000 2.13 7 14:55 23.10.2022
1320 Clouds 18 1006 33 10000 3.1 360 11:40 23.10.2022
1321 Clouds 19 1004 29 10000 3.85 12 10:19 23.10.2022
1322 Clear 22 999 43 10000 2.84 37 05:53 23.10.2022
1323 Clouds 32 993 16 10000 4.39 220 22:51 22.10.2022
1324 Clouds 31 995 16 10000 5.26 218 21:45 22.10.2022
1325 Clouds 30 997 17 10000 4.75 203 21:20 22.10.2022
1326 Clouds 29 999 19 10000 4.17 201 19:59 22.10.2022
1327 Clouds 29 999 19 10000 4.17 201 19:31 22.10.2022
1328 Clouds 26 1002 28 10000 3.1 192 17:39 22.10.2022
1329 Clouds 22 1003 35 10000 1.6 210 16:28 22.10.2022
1330 Clear 23 1002 33 10000 2.23 192 14:49 22.10.2022
1331 Clear 23 1002 32 10000 2.37 188 14:18 22.10.2022
1332 Clear 25 1004 28 10000 2.03 182 11:22 22.10.2022
1333 Clear 26 1004 27 10000 2.13 180 09:43 22.10.2022
1334 Clear 26 1005 24 10000 2.67 169 08:37 22.10.2022
1335 Clear 28 1006 18 10000 2.95 173 05:34 22.10.2022
1336 Clear 34 1007 13 10000 2.98 160 00:28 22.10.2022
1337 Clear 33 1008 14 10000 2.1 155 22:50 21.10.2022
1338 Clear 33 1010 15 10000 1.34 147 21:32 21.10.2022
1339 Clear 31 1012 18 10000 0.63 140 20:26 21.10.2022
1340 Clear 29 1012 20 10000 0.6 171 17:50 21.10.2022
1341 Clear 24 1011 26 10000 1.09 166 14:40 21.10.2022
1342 Clear 25 1011 25 10000 1.06 171 13:39 21.10.2022
1343 Clear 26 1011 23 10000 1.44 176 11:46 21.10.2022
1344 Clear 27 1011 20 10000 1.47 186 10:24 21.10.2022
1345 Clear 28 1011 19 10000 1.68 191 08:45 21.10.2022
1346 Clear 28 1011 18 10000 1.64 192 08:20 21.10.2022
1347 Clouds 28 1011 16 10000 1.59 202 04:30 21.10.2022
1348 Clouds 33 1013 11 10000 0.77 106 23:23 20.10.2022
1349 Clouds 32 1015 12 10000 0.54 91 21:21 20.10.2022
1350 Clouds 31 1016 12 10000 0.65 43 19:44 20.10.2022
1351 Clouds 31 1016 13 10000 0.61 11 18:49 20.10.2022
1352 Clouds 30 1016 13 10000 0.49 12 17:43 20.10.2022
1353 Clouds 25 1016 18 10000 1.12 354 14:38 20.10.2022
1354 Clouds 25 1015 18 10000 0.87 3 12:32 20.10.2022
1355 Clouds 26 1016 17 10000 1.01 348 11:34 20.10.2022
1356 Clouds 26 1016 17 10000 0.53 339 10:52 20.10.2022
1357 Clouds 26 1016 17 10000 0.48 24 09:30 20.10.2022
1358 Clouds 28 1016 15 10000 0.81 326 07:23 20.10.2022
1359 Clouds 34 1015 11 10000 0.35 347 02:22 20.10.2022
1360 Clouds 35 1016 11 10000 1.56 11 23:40 19.10.2022
1361 Clouds 34 1018 11 10000 1.54 15 22:25 19.10.2022
1362 Clouds 33 1019 11 10000 1.66 23 21:27 19.10.2022
1363 Clouds 32 1019 11 10000 1.72 30 20:19 19.10.2022
1364 Clouds 30 1019 15 10000 0.98 20 17:52 19.10.2022
1365 Clouds 25 1018 21 10000 0.55 28 16:24 19.10.2022
1366 Clouds 26 1017 19 10000 1.23 337 14:27 19.10.2022
1367 Clouds 26 1017 20 10000 0.95 349 12:21 19.10.2022
1368 Clouds 28 1017 19 10000 0.85 134 08:52 19.10.2022
1369 Clear 28 1017 18 10000 0.49 90 07:24 19.10.2022
1370 Clouds 34 1015 13 10000 0.94 2 01:33 19.10.2022
1371 Clouds 34 1016 15 10000 1.48 19 23:25 18.10.2022
1372 Clouds 34 1017 17 10000 1.24 24 21:49 18.10.2022
1373 Clouds 34 1017 17 10000 1.24 24 21:31 18.10.2022
1374 Clear 32 1018 21 10000 0.84 52 20:27 18.10.2022
1375 Clear 31 1018 23 10000 0.71 49 18:59 18.10.2022
1376 Clouds 27 1018 27 10000 0.4 24 16:57 18.10.2022
1377 Clouds 24 1016 32 10000 0.25 37 15:23 18.10.2022
1378 Clouds 25 1016 32 10000 0.21 73 13:39 18.10.2022
1379 Clouds 26 1015 30 10000 0.35 143 11:47 18.10.2022
1380 Clouds 27 1015 30 10000 0.76 161 10:36 18.10.2022
1381 Clouds 27 1015 28 10000 1.3 153 09:26 18.10.2022
1382 Clouds 28 1015 28 10000 1.06 170 06:38 18.10.2022
1383 Clear 33 1013 25 10000 0.57 91 23:40 17.10.2022
1384 Clear 32 1015 30 10000 0.64 110 21:31 17.10.2022
1385 Clear 31 1016 33 10000 0.53 109 20:49 17.10.2022
1386 Clear 30 1016 35 10000 0.65 93 20:29 17.10.2022
1387 Clear 30 1016 35 10000 0.65 93 19:42 17.10.2022
1388 Clear 28 1017 42 10000 0.46 142 17:49 17.10.2022
1389 Clear 24 1016 54 10000 0.77 155 16:22 17.10.2022
1390 Clear 24 1016 52 10000 0.68 140 15:20 17.10.2022
1391 Clear 24 1015 50 10000 0.31 91 13:35 17.10.2022
1392 Clear 27 1014 41 10000 1.41 164 09:28 17.10.2022
1393 Clear 31 1012 29 10000 1.42 183 02:37 17.10.2022
1394 Clear 32 1012 29 10000 0.6 76 22:54 16.10.2022
1395 Clear 30 1014 37 10000 0.68 109 21:22 16.10.2022
1396 Clouds 29 1014 38 10000 0.88 120 19:56 16.10.2022
1397 Clouds 29 1014 38 10000 0.88 120 19:38 16.10.2022
1398 Clouds 27 1014 45 10000 1.22 167 17:47 16.10.2022
1399 Clouds 26 1013 47 10000 0.62 169 16:32 16.10.2022
1400 Clouds 24 1012 53 10000 0.19 112 15:56 16.10.2022
1401 Clouds 25 1011 48 10000 0.55 151 12:49 16.10.2022
1402 Clouds 26 1010 46 10000 1.74 168 12:20 16.10.2022
1403 Clouds 27 1009 39 10000 2.85 174 10:27 16.10.2022
1404 Clouds 30 1008 25 10000 4.45 149 08:26 16.10.2022
1405 Clear 35 1006 12 10000 0.6 104 23:47 15.10.2022
1406 Clear 35 1008 12 10000 0.85 139 22:18 15.10.2022
1407 Clear 34 1009 12 10000 0.71 99 21:21 15.10.2022
1408 Clear 34 1009 12 10000 1.12 43 20:23 15.10.2022
1409 Clear 32 1009 13 10000 0.98 2 18:26 15.10.2022
1410 Clear 25 1008 20 10000 0.46 359 15:46 15.10.2022
1411 Clear 26 1008 19 10000 0.65 13 14:21 15.10.2022
1412 Clear 27 1007 16 10000 0.21 131 11:52 15.10.2022
1413 Clear 27 1008 15 10000 0.75 131 10:31 15.10.2022
1414 Clear 28 1007 14 10000 0.27 314 08:31 15.10.2022
1415 Clear 36 1006 8 10000 0.44 81 01:55 15.10.2022
1416 Clear 36 1006 7 10000 0.78 47 23:31 14.10.2022
1417 Clear 35 1008 8 10000 1.63 25 22:23 14.10.2022
1418 Clear 35 1009 9 10000 2.11 21 21:27 14.10.2022
1419 Clear 35 1009 9 10000 2.11 21 21:27 14.10.2022
1420 Clear 34 1010 10 10000 2.58 17 19:44 14.10.2022
1421 Clear 27 1010 16 10000 2 350 16:26 14.10.2022
1422 Clear 27 1009 15 10000 1.58 351 13:26 14.10.2022
1423 Clear 28 1009 15 10000 1.18 345 12:18 14.10.2022
1424 Clear 29 1010 14 10000 0.56 338 09:29 14.10.2022
1425 Clear 30 1011 13 10000 1.01 329 06:55 14.10.2022
1426 Clear 30 1011 12 10000 1 333 06:18 14.10.2022
1427 Clear 30 1011 12 10000 1 333 05:42 14.10.2022
1428 Clear 31 1011 12 10000 0.88 358 03:44 14.10.2022
1429 Clear 37 1011 8 10000 2.3 348 23:54 13.10.2022
1430 Clear 36 1014 9 10000 2.74 10 22:22 13.10.2022
1431 Clear 35 1015 10 10000 2.9 15 21:25 13.10.2022
1432 Clear 34 1015 12 10000 2 11 19:43 13.10.2022
1433 Clear 33 1015 13 10000 1.96 7 19:25 13.10.2022
1434 Clear 33 1015 13 10000 1.96 7 18:42 13.10.2022
1435 Clear 29 1016 18 10000 0.95 346 16:50 13.10.2022
1436 Clear 25 1015 22 10000 0.7 345 15:45 13.10.2022
1437 Clear 26 1015 22 10000 0.64 329 14:19 13.10.2022
1438 Clear 27 1014 18 10000 0.32 303 12:50 13.10.2022
1439 Clear 27 1014 17 10000 0.24 247 11:35 13.10.2022
1440 Clear 28 1015 16 10000 0.15 2 09:40 13.10.2022
1441 Clear 29 1015 16 10000 0.51 260 07:40 13.10.2022
1442 Clear 30 1015 15 10000 0.47 196 06:40 13.10.2022
1443 Clear 36 1014 10 10000 0.65 6 01:51 13.10.2022
1444 Clear 36 1014 10 10000 1.19 21 00:55 13.10.2022
1445 Clear 36 1015 10 10000 1.44 21 22:46 12.10.2022
1446 Clear 35 1016 11 10000 1.63 13 22:28 12.10.2022
1447 Clear 34 1017 12 10000 1.95 7 21:21 12.10.2022
1448 Clear 34 1017 12 10000 1.95 7 20:52 12.10.2022
1449 Clear 34 1017 14 10000 1.75 13 19:30 12.10.2022
1450 Clear 31 1017 18 10000 1.31 11 18:25 12.10.2022
1451 Clear 31 1017 18 10000 1.31 11 17:47 12.10.2022
1452 Clear 26 1016 25 10000 0.54 345 15:40 12.10.2022
1453 Clear 27 1014 23 10000 0.2 259 13:56 12.10.2022
1454 Clear 27 1014 22 10000 0.18 219 12:46 12.10.2022
1455 Clear 29 1013 20 10000 0.73 211 09:40 12.10.2022
1456 Clear 30 1013 19 10000 0.79 229 07:58 12.10.2022
1457 Clear 30 1013 20 10000 0.99 223 07:38 12.10.2022
1458 Clear 31 1013 20 10000 1.11 198 06:43 12.10.2022
1459 Clear 35 1011 16 10000 0.65 74 00:58 12.10.2022
1460 Clear 34 1013 19 10000 0.6 96 22:18 11.10.2022
1461 Clear 33 1014 20 10000 0.52 75 20:40 11.10.2022
1462 Clear 31 1015 24 10000 0.88 15 19:21 11.10.2022
1463 Clear 28 1014 29 10000 0.52 356 16:49 11.10.2022
1464 Clear 28 1014 29 10000 0.52 356 16:49 11.10.2022
1465 Clouds 25 1013 35 10000 0.87 4 14:36 11.10.2022
1466 Clouds 26 1012 35 10000 0.83 359 12:57 11.10.2022
1467 Clouds 28 1012 32 10000 0.9 321 10:29 11.10.2022
1468 Clouds 28 1012 32 10000 0.9 321 09:36 11.10.2022
1469 Clouds 28 1013 34 10000 2.08 222 06:56 11.10.2022
1470 Clouds 33 1010 21 10000 2.32 109 02:31 11.10.2022
1471 Clouds 35 1009 17 10000 0.92 122 00:31 11.10.2022
1472 Clouds 35 1012 21 10000 0.76 123 21:37 10.10.2022
1473 Clouds 33 1014 23 10000 0.55 126 19:59 10.10.2022
1474 Clouds 32 1014 24 10000 0.53 105 18:38 10.10.2022
1475 Clouds 29 1014 28 10000 0.04 244 17:23 10.10.2022
1476 Clouds 26 1014 34 10000 0.28 37 15:58 10.10.2022
1477 Clouds 28 1013 31 10000 0.3 201 13:31 10.10.2022
1478 Clouds 29 1013 28 10000 1.04 158 12:21 10.10.2022
1479 Clear 31 1013 24 10000 2.07 177 09:22 10.10.2022
1480 Clear 32 1013 24 10000 2.09 194 05:45 10.10.2022
1481 Clear 33 1013 23 10000 2.27 178 05:21 10.10.2022
1482 Clear 36 1012 18 10000 1.05 171 00:34 10.10.2022
1483 Clear 36 1013 19 10000 0.88 144 23:31 09.10.2022
1484 Clear 35 1015 21 10000 1.03 145 22:20 09.10.2022
1485 Clear 35 1016 23 10000 0.96 144 21:26 09.10.2022
1486 Clear 35 1016 23 10000 0.96 144 20:35 09.10.2022
1487 Clear 33 1016 24 10000 0.65 129 19:47 09.10.2022
1488 Clear 32 1017 25 10000 0.53 130 18:48 09.10.2022
1489 Clear 31 1017 27 10000 0.73 138 17:35 09.10.2022
1490 Clear 30 1016 28 10000 0.7 119 16:39 09.10.2022
1491 Clear 27 1016 34 10000 0.8 112 16:19 09.10.2022
1492 Clear 27 1015 32 10000 0.94 115 14:49 09.10.2022
1493 Clear 28 1015 32 10000 1.42 134 14:26 09.10.2022
1494 Clear 29 1014 29 10000 1.64 148 12:48 09.10.2022
1495 Clear 30 1014 23 10000 1.95 153 11:22 09.10.2022
1496 Clear 31 1014 21 10000 1.94 172 08:32 09.10.2022
1497 Clear 33 1013 16 10000 0.36 124 04:28 09.10.2022
1498 Clear 35 1013 14 10000 0.74 20 03:22 09.10.2022
1499 Clear 37 1013 13 10000 0.91 45 00:42 09.10.2022
1500 Clear 37 1014 14 10000 0.75 70 23:32 08.10.2022
1501 Clear 37 1014 15 10000 0.66 91 22:38 08.10.2022
1502 Clear 35 1017 18 10000 0.81 122 20:37 08.10.2022
1503 Clear 35 1017 17 10000 0.72 127 19:37 08.10.2022
1504 Clear 33 1018 19 10000 0.27 66 17:39 08.10.2022
1505 Clear 27 1017 27 10000 0.09 347 15:35 08.10.2022
1506 Clear 28 1016 25 10000 0.14 148 13:53 08.10.2022
1507 Clear 29 1016 23 10000 0.67 160 12:20 08.10.2022
1508 Clear 30 1016 22 10000 1.41 156 10:35 08.10.2022
1509 Clear 31 1016 21 10000 1.86 183 09:35 08.10.2022
1510 Clear 31 1016 18 10000 0.98 121 07:25 08.10.2022
1511 Clear 35 1014 14 10000 0.86 309 02:41 08.10.2022
1512 Clear 37 1015 12 10000 1.9 15 23:52 07.10.2022
1513 Clear 37 1015 12 10000 1.39 23 23:20 07.10.2022
1514 Clear 36 1017 14 10000 0.62 68 22:19 07.10.2022
1515 Clear 36 1017 14 10000 0.62 68 22:19 07.10.2022
1516 Clear 36 1017 15 10000 0.73 99 20:37 07.10.2022
1517 Clear 34 1018 15 10000 0.87 42 18:40 07.10.2022
1518 Clear 31 1018 18 10000 0.79 13 16:58 07.10.2022
1519 Clear 27 1017 23 10000 0.62 7 15:50 07.10.2022
1520 Clear 27 1016 23 10000 0.45 5 14:35 07.10.2022
1521 Clear 29 1016 18 10000 0.81 118 12:23 07.10.2022
1522 Clear 31 1015 16 10000 0.38 53 09:26 07.10.2022
1523 Clear 31 1015 16 10000 0.38 53 08:49 07.10.2022
1524 Clear 32 1015 16 10000 0.46 40 05:51 07.10.2022
1525 Clear 38 1013 12 10000 1.36 30 00:41 07.10.2022
1526 Clear 37 1014 13 10000 0.79 61 22:50 06.10.2022
1527 Clear 37 1015 13 10000 0.78 57 21:42 06.10.2022
1528 Clear 36 1016 13 10000 1.07 41 21:22 06.10.2022
1529 Clear 35 1016 14 10000 1.17 36 19:50 06.10.2022
1530 Clear 34 1016 13 10000 0.88 45 18:37 06.10.2022
1531 Clear 34 1016 13 10000 0.88 45 18:37 06.10.2022
1532 Clear 33 1017 13 10000 0.8 43 17:50 06.10.2022
1533 Clear 27 1015 18 10000 0.32 33 14:42 06.10.2022
1534 Clear 29 1014 15 10000 0.82 1 11:30 06.10.2022
1535 Clear 31 1013 14 10000 0.35 112 06:53 06.10.2022
1536 Clear 33 1012 12 10000 0.63 262 03:35 06.10.2022
1537 Clear 38 1012 9 10000 0.56 43 23:44 05.10.2022
1538 Clear 36 1014 10 10000 0.6 62 21:21 05.10.2022
1539 Clear 34 1014 11 10000 0.43 91 19:29 05.10.2022
1540 Clear 33 1014 11 10000 0.52 130 17:35 05.10.2022
1541 Clear 27 1013 17 10000 0.41 146 15:57 05.10.2022
1542 Clear 27 1013 17 10000 0.48 160 14:47 05.10.2022
1543 Clear 28 1012 16 10000 0.47 153 14:19 05.10.2022
1544 Clear 29 1012 17 10000 0.06 59 12:23 05.10.2022
1545 Clear 30 1012 15 10000 0.23 282 09:28 05.10.2022
1546 Clear 31 1012 15 10000 0.16 245 07:43 05.10.2022
1547 Clear 32 1012 14 10000 0.69 241 06:19 05.10.2022
1548 Clear 33 1011 13 10000 0.64 290 04:21 05.10.2022
1549 Clear 38 1010 9 10000 1.01 40 00:50 05.10.2022
1550 Clear 38 1010 9 10000 1 39 00:27 05.10.2022
1551 Clear 37 1011 9 10000 1.13 28 22:39 04.10.2022
1552 Clear 36 1013 10 10000 1.94 15 20:39 04.10.2022
1553 Clear 34 1014 11 10000 2.21 4 18:59 04.10.2022
1554 Clear 34 1014 11 10000 2.21 4 18:38 04.10.2022
1555 Clear 33 1014 12 10000 1.81 4 17:48 04.10.2022
1556 Clear 31 1014 15 10000 1.17 356 16:36 04.10.2022
1557 Clear 29 1012 18 10000 1.26 340 13:19 04.10.2022
1558 Clear 30 1012 18 10000 1.02 324 09:47 04.10.2022
1559 Clear 32 1012 20 10000 0.8 281 07:24 04.10.2022
1560 Clear 37 1010 16 10000 0.97 43 02:27 04.10.2022
1561 Clear 37 1011 18 10000 0.65 75 23:41 03.10.2022
1562 Clear 36 1013 19 10000 0.72 70 21:55 03.10.2022
1563 Clear 35 1013 19 10000 0.77 49 21:23 03.10.2022
1564 Clear 34 1013 20 10000 0.7 39 20:28 03.10.2022
1565 Clear 33 1014 22 10000 0.77 38 18:35 03.10.2022
1566 Clear 31 1014 26 10000 0.34 272 17:26 03.10.2022
1567 Clear 28 1013 32 10000 0.11 202 15:49 03.10.2022
1568 Clear 29 1012 31 10000 0.75 186 14:21 03.10.2022
1569 Clear 29 1011 30 10000 1.15 173 12:31 03.10.2022
1570 Clear 30 1011 29 10000 1.15 169 10:40 03.10.2022
1571 Clear 31 1011 29 10000 1.4 175 09:44 03.10.2022
1572 Clear 32 1011 24 10000 1.52 186 07:32 03.10.2022
1573 Clear 34 1009 17 10000 2.59 205 03:38 03.10.2022
1574 Clouds 37 1009 15 10000 3.41 164 22:50 02.10.2022
1575 Clouds 35 1011 17 10000 1.94 159 21:26 02.10.2022
1576 Clear 34 1011 16 10000 1.86 162 19:39 02.10.2022
1577 Clear 32 1011 18 10000 1.78 177 17:55 02.10.2022
1578 Clear 30 1011 19 10000 1.5 176 16:50 02.10.2022
1579 Clear 27 1010 23 10000 1.79 167 16:27 02.10.2022
1580 Clear 28 1009 22 10000 2.12 169 14:53 02.10.2022
1581 Clear 28 1009 21 10000 2.11 172 13:46 02.10.2022
1582 Clear 29 1009 21 10000 2.01 175 12:38 02.10.2022
1583 Clear 30 1008 20 10000 1.98 180 11:43 02.10.2022
1584 Clear 30 1008 19 10000 2.14 179 11:23 02.10.2022
1585 Clear 31 1008 18 10000 2.09 181 09:49 02.10.2022
1586 Clear 31 1008 18 10000 1.62 186 08:27 02.10.2022
1587 Clear 33 1007 15 10000 2.17 178 05:18 02.10.2022
1588 Clear 37 1005 16 10000 2.67 156 00:57 02.10.2022
1589 Clear 37 1005 16 10000 2.67 156 00:37 02.10.2022
1590 Clear 36 1007 16 10000 1.55 152 23:24 01.10.2022
1591 Clear 35 1008 16 10000 1.12 142 21:38 01.10.2022
1592 Clear 33 1009 17 10000 0.53 69 18:54 01.10.2022
1593 Clear 30 1009 19 10000 0.61 355 17:28 01.10.2022
1594 Clear 28 1007 22 10000 0.36 292 14:50 01.10.2022
1595 Clear 28 1007 20 10000 0.09 198 13:44 01.10.2022
1596 Clear 29 1007 19 10000 0.49 136 12:34 01.10.2022
1597 Clear 30 1007 18 10000 0.91 160 11:22 01.10.2022
1598 Clear 30 1007 18 10000 0.91 160 10:51 01.10.2022
1599 Clear 31 1006 17 10000 0.95 175 10:29 01.10.2022
1600 Clear 31 1006 17 10000 1.07 186 09:21 01.10.2022
1601 Clear 32 1006 16 10000 1.33 190 08:26 01.10.2022
1602 Clear 35 1005 12 10000 1.75 164 03:42 01.10.2022
1603 Clear 37 1005 10 10000 1.75 167 03:18 01.10.2022
1604 Clear 37 1006 11 10000 2.19 166 23:21 30.09.2022
1605 Clear 37 1008 13 10000 2.24 166 22:18 30.09.2022
1606 Clear 35 1009 16 10000 1.75 162 20:57 30.09.2022
1607 Clear 34 1010 16 10000 1.01 153 20:20 30.09.2022
1608 Clear 33 1010 17 10000 0.89 161 18:32 30.09.2022
1609 Clear 31 1011 19 10000 0.51 163 16:54 30.09.2022
1610 Clear 28 1010 21 10000 1.65 163 14:49 30.09.2022
1611 Clear 30 1009 19 10000 1.41 180 12:51 30.09.2022
1612 Clear 31 1009 18 10000 2.09 181 11:56 30.09.2022
1613 Clear 33 1009 16 10000 2.81 179 09:25 30.09.2022
1614 Clear 33 1009 15 10000 3.04 179 07:58 30.09.2022
1615 Clear 37 1008 12 10000 3.91 177 03:35 30.09.2022
1616 Clouds 40 1008 10 10000 4.26 192 02:21 30.09.2022
1617 Clouds 39 1011 11 10000 5.47 183 21:53 29.09.2022
1618 Clouds 39 1012 13 10000 4.63 174 21:24 29.09.2022
1619 Clouds 37 1013 15 10000 3.51 169 19:58 29.09.2022
1620 Clouds 36 1013 17 10000 3.46 174 18:30 29.09.2022
1621 Clouds 36 1013 17 10000 3.46 174 18:30 29.09.2022
1622 Clouds 31 1013 27 10000 1.95 166 16:29 29.09.2022
1623 Clouds 31 1013 27 10000 1.95 166 15:37 29.09.2022
1624 Clear 31 1013 27 10000 1.82 172 14:59 29.09.2022
1625 Clear 32 1012 24 10000 2.58 178 12:54 29.09.2022
1626 Clear 34 1012 20 10000 2.58 171 08:51 29.09.2022
1627 Clear 36 1012 18 10000 3.34 165 05:35 29.09.2022
1628 Clouds 40 1010 14 10000 4.22 176 02:37 29.09.2022
1629 Clouds 41 1011 14 10000 4.6 164 23:29 28.09.2022
1630 Clear 40 1012 17 10000 5.69 159 22:23 28.09.2022
1631 Clear 40 1013 19 10000 4.87 159 21:28 28.09.2022
1632 Clear 39 1014 22 10000 3.27 157 19:58 28.09.2022
1633 Clear 34 1014 26 10000 1.55 173 17:19 28.09.2022
1634 Clear 32 1013 30 10000 1.65 158 14:45 28.09.2022
1635 Clear 33 1012 27 10000 1.98 173 12:31 28.09.2022
1636 Clear 34 1012 24 10000 2.69 173 10:24 28.09.2022
1637 Clouds 35 1012 21 10000 2.25 173 08:25 28.09.2022
1638 Clouds 36 1012 19 10000 2.51 169 06:42 28.09.2022
1639 Clear 40 1009 13 10000 3.89 153 01:50 28.09.2022
1640 Clear 40 1009 13 10000 3.52 161 01:27 28.09.2022
1641 Clear 40 1011 12 10000 2.36 155 22:50 27.09.2022
1642 Clear 39 1013 11 10000 1.22 140 21:24 27.09.2022
1643 Clear 39 1013 11 10000 1.22 140 20:37 27.09.2022
1644 Clouds 38 1013 11 10000 0.54 152 19:47 27.09.2022
1645 Clouds 36 1013 10 10000 0.98 157 18:25 27.09.2022
1646 Clouds 36 1013 10 10000 0.98 157 17:42 27.09.2022
1647 Clear 30 1012 14 10000 0.99 153 15:27 27.09.2022
1648 Clouds 30 1012 13 10000 0.46 147 14:41 27.09.2022
1649 Clouds 31 1011 12 10000 0.9 168 12:40 27.09.2022
1650 Clouds 31 1011 12 10000 0.9 168 12:40 27.09.2022
1651 Clouds 32 1011 11 10000 0.49 210 10:53 27.09.2022
1652 Clouds 33 1011 10 10000 1.1 158 08:46 27.09.2022
1653 Clear 35 1012 10 10000 1.14 194 06:27 27.09.2022
1654 Clear 40 1011 7 10000 0.42 50 01:45 27.09.2022
1655 Clear 40 1011 7 10000 0.54 47 01:27 27.09.2022
1656 Clear 40 1012 8 10000 0.87 29 23:25 26.09.2022
1657 Clear 39 1013 8 10000 1.3 20 22:24 26.09.2022
1658 Clear 38 1014 9 10000 1.67 19 20:29 26.09.2022
1659 Clear 38 1014 9 10000 1.67 19 19:30 26.09.2022
1660 Clear 37 1014 9 10000 1.77 21 18:31 26.09.2022
1661 Clear 30 1014 14 10000 1.16 13 15:55 26.09.2022
1662 Clear 31 1013 13 10000 1.27 8 13:30 26.09.2022
1663 Clear 33 1013 12 10000 1.16 347 11:29 26.09.2022
1664 Clear 33 1013 12 10000 1.16 347 10:38 26.09.2022
1665 Clear 33 1013 12 10000 1.29 350 10:19 26.09.2022
1666 Clear 33 1013 12 10000 1.29 350 09:53 26.09.2022
1667 Clear 34 1013 12 10000 1.23 358 09:23 26.09.2022
1668 Clear 34 1014 12 10000 1.45 24 07:30 26.09.2022
1669 Clear 39 1012 10 10000 1.72 40 02:48 26.09.2022
1670 Clear 40 1013 10 10000 2.4 33 23:46 25.09.2022
1671 Clear 39 1015 11 10000 2.24 32 21:54 25.09.2022
1672 Clear 39 1015 11 10000 2.24 32 21:34 25.09.2022
1673 Clear 38 1015 11 10000 2.42 28 20:45 25.09.2022
1674 Clear 38 1016 14 10000 2.37 21 19:43 25.09.2022
1675 Clear 37 1016 17 10000 2.19 17 18:40 25.09.2022
1676 Clear 36 1016 19 10000 1.81 16 18:20 25.09.2022
1677 Clear 34 1016 22 10000 1.28 6 16:35 25.09.2022
1678 Clear 31 1015 27 10000 1.26 352 15:44 25.09.2022
1679 Clear 32 1014 25 10000 1.39 347 14:22 25.09.2022
1680 Clear 32 1014 25 10000 1.17 342 12:51 25.09.2022
1681 Clear 33 1014 25 10000 0.47 299 10:29 25.09.2022
1682 Clear 33 1014 22 10000 0.22 251 08:24 25.09.2022
1683 Clear 35 1014 21 10000 0.37 257 05:38 25.09.2022
1684 Clear 39 1013 15 10000 0.71 124 01:32 25.09.2022
1685 Clear 39 1014 12 10000 0.72 100 22:35 24.09.2022
1686 Clear 37 1016 10 10000 1.19 31 20:55 24.09.2022
1687 Clear 36 1016 11 10000 2.18 5 19:22 24.09.2022
1688 Clear 33 1016 13 10000 1.32 351 17:19 24.09.2022
1689 Clear 29 1015 16 10000 1.08 342 16:24 24.09.2022
1690 Clear 29 1015 16 10000 1.2 341 15:20 24.09.2022
1691 Clear 30 1014 15 10000 1 344 13:25 24.09.2022
1692 Clear 30 1014 15 10000 1 344 12:49 24.09.2022
1693 Clear 30 1014 14 10000 0.67 344 10:38 24.09.2022
1694 Clear 31 1013 13 10000 0.91 341 09:40 24.09.2022
1695 Clear 31 1013 13 10000 0.94 348 08:43 24.09.2022
1696 Clear 31 1013 13 10000 0.94 348 08:43 24.09.2022
1697 Clear 31 1013 12 10000 0.66 5 07:24 24.09.2022
1698 Clear 32 1013 11 10000 0.92 330 04:40 24.09.2022
1699 Clouds 36 1011 8 10000 0.69 145 02:19 24.09.2022
1700 Clear 35 1013 10 10000 0.69 58 22:28 23.09.2022
1701 Clear 34 1014 11 10000 1.17 24 21:28 23.09.2022
1702 Clear 34 1014 11 10000 1.17 24 20:56 23.09.2022
1703 Clear 34 1015 10 10000 1.77 9 20:20 23.09.2022
1704 Clear 31 1015 12 10000 1.66 8 18:27 23.09.2022
1705 Clear 27 1013 17 10000 1.28 346 13:45 23.09.2022
1706 Clear 27 1013 17 10000 0.51 352 10:45 23.09.2022
1707 Clear 28 1013 16 10000 0.05 205 09:29 23.09.2022
1708 Clear 30 1012 15 10000 0.68 299 04:59 23.09.2022
1709 Clear 34 1011 12 10000 0.64 98 00:31 23.09.2022
1710 Clear 33 1012 13 10000 0.74 83 23:21 22.09.2022
1711 Clear 32 1013 15 10000 0.74 59 22:26 22.09.2022
1712 Clear 31 1014 17 10000 0.8 38 20:46 22.09.2022
1713 Clear 29 1015 22 10000 1.06 32 19:27 22.09.2022
1714 Clear 27 1015 23 10000 0.27 46 16:57 22.09.2022
1715 Clear 26 1011 25 10000 0.72 214 12:20 22.09.2022
1716 Clear 27 1011 24 10000 1.26 198 10:32 22.09.2022
1717 Clear 28 1010 22 10000 2.41 186 08:52 22.09.2022
1718 Clear 29 1009 18 10000 3.26 179 06:45 22.09.2022
1719 Clear 33 1007 12 10000 5.48 189 02:52 22.09.2022
1720 Clear 33 1008 11 10000 6.63 179 23:25 21.09.2022
1721 Clear 33 1009 12 10000 6.38 177 21:50 21.09.2022
1722 Clear 31 1010 16 10000 4.37 170 20:18 21.09.2022
1723 Clear 28 1011 28 10000 3.68 176 17:49 21.09.2022
1724 Clear 27 1011 32 10000 3.39 183 16:51 21.09.2022
1725 Clear 25 1010 38 10000 2.93 195 14:37 21.09.2022
1726 Clear 26 1009 35 10000 3.28 197 12:54 21.09.2022
1727 Clear 27 1009 34 10000 3.41 183 11:29 21.09.2022
1728 Clear 27 1009 34 10000 3.22 181 10:29 21.09.2022
1729 Clear 28 1009 34 10000 3.16 183 09:21 21.09.2022
1730 Clear 28 1009 37 10000 3.05 193 07:41 21.09.2022
1731 Clear 34 1007 15 10000 4.77 198 02:48 21.09.2022
1732 Clear 34 1007 14 10000 6.15 187 02:28 21.09.2022
1733 Clear 34 1007 15 10000 5.63 196 00:44 21.09.2022
1734 Clear 34 1008 15 10000 6.43 179 23:18 20.09.2022
1735 Clear 33 1010 16 10000 5.52 166 20:52 20.09.2022
1736 Clear 32 1010 20 10000 4.68 168 19:37 20.09.2022
1737 Clear 27 1010 24 10000 2.89 173 16:41 20.09.2022
1738 Clear 25 1009 27 10000 2.33 183 14:51 20.09.2022
1739 Clear 26 1009 25 10000 2.57 192 13:48 20.09.2022
1740 Clear 27 1008 27 10000 2.92 191 10:33 20.09.2022
1741 Clear 30 1007 21 10000 2.45 198 08:28 20.09.2022
1742 Clear 31 1007 18 10000 2.14 182 06:22 20.09.2022
1743 Clear 32 1006 15 10000 3.03 193 04:28 20.09.2022
1744 Clear 34 1006 13 10000 5.52 178 23:49 19.09.2022
1745 Clear 33 1008 14 10000 5.48 165 22:28 19.09.2022
1746 Clear 33 1008 15 10000 4.92 165 20:59 19.09.2022
1747 Clear 33 1008 15 10000 4.92 165 20:39 19.09.2022
1748 Clear 30 1009 20 10000 4.37 167 18:41 19.09.2022
1749 Clear 25 1008 28 10000 3.08 175 15:56 19.09.2022
1750 Clear 26 1007 27 10000 3.24 180 13:44 19.09.2022
1751 Clear 27 1006 28 10000 3.51 182 11:33 19.09.2022
1752 Clear 27 1006 29 10000 3.35 186 09:33 19.09.2022
1753 Clear 28 1006 29 10000 3.48 188 08:20 19.09.2022
1754 Clear 33 1003 18 10000 5.99 192 02:46 19.09.2022
1755 Clear 33 1004 17 10000 6.52 186 23:26 18.09.2022
1756 Clear 33 1005 18 10000 6.55 185 21:53 18.09.2022
1757 Clear 32 1005 18 10000 6.94 182 20:34 18.09.2022
1758 Clear 30 1005 18 10000 6.63 180 19:26 18.09.2022
1759 Clear 29 1004 20 10000 6.68 180 17:49 18.09.2022
1760 Clear 28 1004 26 10000 6.33 179 16:43 18.09.2022
1761 Clear 26 1003 34 10000 5.56 176 14:39 18.09.2022
1762 Clear 27 1002 36 10000 5.8 175 12:58 18.09.2022
1763 Clear 28 1002 34 10000 5.58 176 11:53 18.09.2022
1764 Clear 31 1001 25 10000 5.44 182 06:57 18.09.2022
1765 Clear 36 1000 12 10000 6.37 187 01:37 18.09.2022
1766 Clear 36 1000 12 10000 6.03 195 01:18 18.09.2022
1767 Clear 35 1003 13 10000 6.14 181 22:55 17.09.2022
1768 Clear 34 1004 15 10000 5.7 168 20:51 17.09.2022
1769 Clear 32 1005 17 10000 5.02 168 19:36 17.09.2022
1770 Clear 30 1006 23 10000 3.97 168 17:36 17.09.2022
1771 Clear 28 1005 27 10000 1.86 163 14:22 17.09.2022
1772 Clear 28 1005 25 10000 1.91 167 12:44 17.09.2022
1773 Clear 30 1006 22 10000 1.97 175 10:48 17.09.2022
1774 Clear 32 1007 18 10000 1.83 179 06:35 17.09.2022
1775 Clear 33 1007 16 10000 2.33 153 04:35 17.09.2022
1776 Clear 35 1008 14 10000 2.45 151 23:39 16.09.2022
1777 Clear 34 1010 16 10000 1.72 146 21:57 16.09.2022
1778 Clear 33 1011 17 10000 1.6 145 20:44 16.09.2022
1779 Clouds 31 1012 20 10000 1.64 155 18:43 16.09.2022
1780 Clouds 27 1011 27 10000 0.71 219 16:22 16.09.2022
1781 Clouds 27 1011 27 10000 0.59 216 14:51 16.09.2022
1782 Clouds 28 1010 25 10000 0.91 166 12:52 16.09.2022
1783 Clear 30 1010 23 10000 1.61 155 09:55 16.09.2022
1784 Clear 32 1009 18 10000 2.01 170 07:23 16.09.2022
1785 Clear 32 1009 18 10000 2.01 170 06:48 16.09.2022
1786 Clear 32 1009 17 10000 2.27 176 05:55 16.09.2022
1787 Clear 35 1007 13 10000 4.31 187 01:45 16.09.2022
1788 Clear 34 1010 17 10000 4.84 165 21:34 15.09.2022
1789 Clear 33 1011 18 10000 4.03 164 20:37 15.09.2022
1790 Clear 31 1012 22 10000 2.65 170 19:24 15.09.2022
1791 Clear 29 1012 26 10000 2.37 171 17:40 15.09.2022
1792 Clear 28 1011 30 10000 2.02 170 17:22 15.09.2022
1793 Clear 27 1011 34 10000 1.66 160 15:38 15.09.2022
1794 Clear 28 1010 32 10000 2.26 166 12:50 15.09.2022
1795 Clear 28 1009 31 10000 2.28 169 11:48 15.09.2022
1796 Clear 29 1009 30 10000 2.11 170 09:44 15.09.2022
1797 Clear 31 1008 24 10000 2.97 178 06:45 15.09.2022
1798 Clear 35 1006 14 10000 5.77 198 03:29 15.09.2022
1799 Clear 35 1007 16 10000 6.2 185 22:57 14.09.2022
1800 Clear 34 1008 18 10000 5.5 168 20:31 14.09.2022
1801 Clear 33 1009 22 10000 4.48 165 19:32 14.09.2022
1802 Clear 31 1009 31 10000 3.56 157 17:37 14.09.2022
1803 Clear 30 1009 35 10000 2.93 155 16:36 14.09.2022
1804 Clear 29 1008 43 10000 2.31 153 14:51 14.09.2022
1805 Clear 29 1007 46 10000 0.29 141 12:38 14.09.2022
1806 Clear 30 1007 45 10000 2.13 358 09:52 14.09.2022
1807 Clouds 31 1006 40 10000 1.78 15 08:28 14.09.2022
1808 Clouds 34 1005 29 10000 1.92 186 06:50 14.09.2022
1809 Clouds 35 1004 27 10000 2.19 196 06:28 14.09.2022
1810 Clouds 37 1003 24 10000 3.55 180 02:43 14.09.2022
1811 Clouds 37 1003 24 10000 3.53 181 01:34 14.09.2022
1812 Clouds 37 1004 25 10000 3.22 168 00:52 14.09.2022
1813 Clouds 36 1004 26 10000 3.4 159 23:55 13.09.2022
1814 Clouds 36 1004 26 10000 3.4 159 23:36 13.09.2022
1815 Clouds 36 1005 28 10000 3.99 158 23:18 13.09.2022
1816 Clear 35 1007 30 10000 4.22 157 22:28 13.09.2022
1817 Clear 35 1007 30 10000 4.22 157 21:35 13.09.2022
1818 Clear 32 1009 41 10000 1.5 168 18:56 13.09.2022
1819 Clear 30 1009 50 10000 1.04 193 16:39 13.09.2022
1820 Clear 29 1009 53 10000 0.63 218 15:19 13.09.2022
1821 Clouds 30 1008 48 10000 0.64 207 13:37 13.09.2022
1822 Clouds 32 1009 40 10000 0.25 240 10:20 13.09.2022
1823 Clouds 33 1008 36 10000 3.06 190 07:56 13.09.2022
1824 Clouds 36 1008 28 10000 1.2 220 02:22 13.09.2022
1825 Clouds 35 1011 33 10000 1.16 147 23:22 12.09.2022
1826 Clouds 35 1011 33 10000 1.16 147 22:40 12.09.2022
1827 Clouds 33 1013 37 10000 0.75 87 21:21 12.09.2022
1828 Clouds 35 1013 35 10000 2.29 147 20:22 12.09.2022
1829 Clouds 32 1013 41 10000 1.67 150 18:24 12.09.2022
1830 Clouds 31 1013 47 10000 1.24 184 15:50 12.09.2022
1831 Clouds 31 1013 51 10000 3.53 107 12:31 12.09.2022
1832 Clear 34 1012 35 10000 1.52 190 10:31 12.09.2022
1833 Clouds 36 1012 28 10000 2.39 181 07:40 12.09.2022
1834 Clouds 37 1012 24 10000 2.02 172 04:36 12.09.2022
1835 Clouds 39 1011 21 10000 4.09 175 02:24 12.09.2022
1836 Clouds 38 1014 24 10000 2.36 172 22:46 11.09.2022
1837 Clouds 38 1014 24 10000 2.36 172 22:46 11.09.2022
1838 Clouds 37 1014 27 10000 1.73 163 21:30 11.09.2022
1839 Clouds 36 1015 31 10000 1.21 147 20:44 11.09.2022
1840 Clear 35 1016 36 10000 1.27 139 19:39 11.09.2022
1841 Clear 34 1016 40 10000 1.19 130 19:19 11.09.2022
1842 Clear 32 1015 46 10000 0.69 162 17:29 11.09.2022
1843 Clear 31 1015 50 10000 0.59 175 15:51 11.09.2022
1844 Clear 31 1014 51 10000 0.29 93 13:52 11.09.2022
1845 Clear 32 1013 48 10000 0.45 168 11:35 11.09.2022
1846 Clouds 34 1012 43 10000 0.4 226 08:25 11.09.2022
1847 Clouds 34 1012 42 10000 0.17 222 05:55 11.09.2022
1848 Clouds 37 1009 34 10000 1.18 34 00:34 11.09.2022
1849 Clouds 36 1011 38 10000 0.82 356 22:23 10.09.2022
1850 Clouds 36 1012 38 10000 2.19 122 20:35 10.09.2022
1851 Clouds 36 1012 38 10000 2.19 122 20:35 10.09.2022
1852 Clouds 33 1012 48 10000 3.04 161 19:45 10.09.2022
1853 Clouds 32 1012 53 10000 4.38 147 19:27 10.09.2022
1854 Clouds 32 1011 53 10000 4.74 157 17:53 10.09.2022
1855 Clouds 32 1009 55 10000 3.62 174 15:44 10.09.2022
1856 Clouds 32 1008 53 10000 3.42 161 14:34 10.09.2022
1857 Clouds 33 1007 50 10000 3.15 170 12:52 10.09.2022
1858 Clouds 33 1006 47 10000 3.5 176 10:35 10.09.2022
1859 Clouds 34 1006 44 10000 3.74 180 08:42 10.09.2022
1860 Clouds 34 1005 43 10000 4.17 186 08:23 10.09.2022
1861 Clouds 36 1004 36 10000 4.68 171 05:25 10.09.2022
1862 Clouds 40 1002 27 10000 8.19 164 23:52 09.09.2022
1863 Clouds 41 1002 25 10000 8.17 161 23:19 09.09.2022
1864 Clear 41 1003 24 10000 6.57 159 21:21 09.09.2022
1865 Clouds 40 1003 24 10000 5.06 155 20:28 09.09.2022
1866 Clouds 40 1003 24 10000 5.07 156 19:23 09.09.2022
1867 Clouds 39 1003 24 10000 2.89 156 18:18 09.09.2022
1868 Clouds 36 1002 26 10000 2.68 160 16:18 09.09.2022
1869 Clouds 36 1001 25 10000 1.72 152 13:47 09.09.2022
1870 Clouds 37 1001 24 10000 1.1 170 11:51 09.09.2022
1871 Clouds 40 1002 20 10000 2.22 191 08:19 09.09.2022
1872 Clear 43 1002 16 10000 1.93 152 03:48 09.09.2022
1873 Clear 44 1003 14 10000 1.23 123 00:40 09.09.2022
1874 Clouds 43 1007 16 10000 1.68 130 21:52 08.09.2022
1875 Clear 42 1008 18 10000 2.28 161 20:50 08.09.2022
1876 Clear 41 1010 19 10000 2.45 158 20:29 08.09.2022
1877 Clear 41 1010 19 10000 2.45 158 19:39 08.09.2022
1878 Clouds 39 1010 22 10000 0.73 135 17:40 08.09.2022
1879 Clouds 36 1011 27 10000 1.11 178 16:19 08.09.2022
1880 Clouds 36 1011 28 10000 1.86 176 13:56 08.09.2022
1881 Clouds 35 1011 30 10000 0.9 107 12:50 08.09.2022
1882 Clear 37 1011 26 10000 1.19 190 11:36 08.09.2022
1883 Clear 38 1011 23 10000 2.46 178 09:58 08.09.2022
1884 Clear 40 1011 24 10000 3.69 177 07:45 08.09.2022
1885 Clear 41 1011 22 10000 4.2 177 05:30 08.09.2022
1886 Clear 45 1009 16 10000 5.51 160 02:36 08.09.2022
1887 Clear 45 1009 16 10000 5.51 160 02:36 08.09.2022
1888 Clear 46 1009 14 10000 5.81 160 02:18 08.09.2022
1889 Clear 46 1010 13 10000 3.65 151 00:22 08.09.2022
1890 Clear 45 1012 14 10000 2.59 144 22:19 07.09.2022
1891 Clear 45 1012 14 10000 2.59 144 21:39 07.09.2022
1892 Clear 44 1013 15 10000 2.53 155 20:31 07.09.2022
1893 Clouds 43 1014 16 10000 2.54 159 19:26 07.09.2022
1894 Clouds 40 1013 19 10000 2.62 156 17:22 07.09.2022
1895 Clouds 39 1011 17 10000 2.16 170 12:41 07.09.2022
1896 Clouds 40 1010 15 10000 3.16 170 10:45 07.09.2022
1897 Clear 41 1010 14 10000 3.42 169 08:36 07.09.2022
1898 Clear 42 1009 13 10000 2.9 171 06:51 07.09.2022
1899 Clear 48 1007 8 10000 0.79 173 01:50 07.09.2022
1900 Clear 47 1009 9 10000 0.59 33 22:35 06.09.2022
1901 Clear 46 1009 10 10000 0.95 47 21:38 06.09.2022
1902 Clear 44 1010 12 10000 0.78 84 19:57 06.09.2022
1903 Clear 43 1011 12 10000 0.63 41 18:45 06.09.2022
1904 Clear 42 1010 14 10000 0.45 21 17:56 06.09.2022
1905 Clear 40 1010 15 10000 0.33 55 17:20 06.09.2022
1906 Clear 40 1010 15 10000 0.33 55 16:37 06.09.2022
1907 Clear 36 1009 20 10000 0.28 14 14:55 06.09.2022
1908 Clear 37 1008 18 10000 0.32 193 13:44 06.09.2022
1909 Clear 37 1008 18 10000 0.32 193 13:44 06.09.2022
1910 Clear 37 1008 18 10000 1.04 287 13:21 06.09.2022
1911 Clear 39 1008 17 10000 1.38 280 11:29 06.09.2022
1912 Clear 39 1008 17 10000 1.38 280 10:33 06.09.2022
1913 Clear 41 1008 14 10000 1.77 211 08:29 06.09.2022
1914 Clear 41 1008 14 10000 1.77 211 07:37 06.09.2022
1915 Clear 46 1005 10 10000 4.14 163 02:34 06.09.2022
1916 Clear 46 1007 14 10000 2.12 161 23:21 05.09.2022
1917 Clear 45 1008 17 10000 1.31 149 21:50 05.09.2022
1918 Clear 45 1009 18 10000 1.87 151 20:32 05.09.2022
1919 Clear 42 1009 21 10000 2.1 158 19:18 05.09.2022
1920 Clear 42 1009 21 10000 2.1 158 18:44 05.09.2022
1921 Clear 41 1009 23 10000 2.05 154 18:21 05.09.2022
1922 Clouds 38 1009 27 10000 1.29 153 16:27 05.09.2022
1923 Clouds 38 1009 27 10000 1.29 153 15:46 05.09.2022
1924 Clouds 38 1007 27 10000 1.44 161 13:25 05.09.2022
1925 Clouds 39 1007 25 10000 1.52 185 12:26 05.09.2022
1926 Clear 40 1007 21 10000 1.83 170 09:19 05.09.2022
1927 Clear 42 1007 20 10000 1.34 198 06:40 05.09.2022
1928 Clear 46 1007 14 10000 0.44 4 01:56 05.09.2022
1929 Clear 45 1010 17 10000 0.89 103 22:59 04.09.2022
1930 Clear 44 1010 18 10000 1.11 110 22:27 04.09.2022
1931 Clear 43 1011 19 10000 1.4 132 20:44 04.09.2022
1932 Clear 42 1012 22 10000 1.94 153 19:29 04.09.2022
1933 Clear 41 1013 23 10000 2.05 168 17:50 04.09.2022
1934 Clear 39 1013 26 10000 2.14 172 16:42 04.09.2022
1935 Clear 37 1012 30 10000 2.41 174 14:29 04.09.2022
1936 Clear 38 1011 29 10000 2.62 175 13:28 04.09.2022
1937 Clear 38 1011 29 10000 2.62 175 13:28 04.09.2022
1938 Clear 38 1011 28 10000 2.84 175 11:54 04.09.2022
1939 Clear 39 1011 25 10000 3.62 174 10:28 04.09.2022
1940 Clouds 41 1011 21 10000 4.87 170 07:29 04.09.2022
1941 Clouds 42 1009 18 10000 1.8 113 05:19 04.09.2022
1942 Clear 46 1008 13 10000 2.67 164 00:47 04.09.2022
1943 Clear 45 1010 17 10000 1.79 147 22:22 03.09.2022
1944 Clear 44 1011 19 10000 1.95 152 21:23 03.09.2022
1945 Clear 43 1011 21 10000 2.31 154 19:39 03.09.2022
1946 Clear 40 1011 26 10000 1.79 153 17:26 03.09.2022
1947 Clear 40 1011 26 10000 1.79 153 16:31 03.09.2022
1948 Clear 37 1009 31 10000 1.33 135 14:45 03.09.2022
1949 Clear 37 1009 29 10000 1.09 154 14:22 03.09.2022
1950 Clear 39 1009 26 10000 2.77 177 12:24 03.09.2022
1951 Clear 39 1009 24 10000 4.09 181 10:49 03.09.2022
1952 Clouds 41 1008 18 10000 2.9 174 08:29 03.09.2022
1953 Clouds 41 1008 18 10000 2.9 174 08:29 03.09.2022
1954 Clouds 42 1007 16 10000 3.21 178 06:58 03.09.2022
1955 Clouds 44 1006 13 10000 3.98 163 04:34 03.09.2022
1956 Clouds 47 1006 9 10000 0.95 143 00:29 03.09.2022
1957 Clouds 47 1006 9 10000 0.95 132 23:20 02.09.2022
1958 Clear 45 1007 10 10000 0.99 122 20:59 02.09.2022
1959 Clear 45 1008 10 10000 1.1 128 20:39 02.09.2022
1960 Clear 44 1008 11 10000 1.12 127 19:30 02.09.2022
1961 Clear 43 1008 12 10000 0.98 137 18:43 02.09.2022
1962 Clear 42 1008 12 10000 0.89 156 18:24 02.09.2022
1963 Clear 41 1008 12 10000 0.7 167 16:49 02.09.2022
1964 Clear 37 1006 15 10000 0.3 200 15:21 02.09.2022
1965 Clear 38 1006 13 10000 0.65 238 12:43 02.09.2022
1966 Clear 40 1006 12 10000 1.02 226 10:22 02.09.2022
1967 Clear 40 1006 12 10000 1.02 226 09:41 02.09.2022
1968 Clear 41 1005 12 10000 0.55 253 07:36 02.09.2022
1969 Clear 41 1005 12 10000 0.58 257 06:40 02.09.2022
1970 Clouds 45 1004 10 10000 0.55 28 03:52 02.09.2022
1971 Clear 47 1006 9 10000 1.08 46 22:45 01.09.2022
1972 Clear 46 1007 9 10000 1.29 29 21:44 01.09.2022
1973 Clear 45 1008 9 10000 1.33 13 21:25 01.09.2022
1974 Clear 45 1008 9 10000 1.33 13 20:46 01.09.2022
1975 Clear 43 1009 10 10000 0.85 351 19:20 01.09.2022
1976 Clear 42 1009 11 10000 0.4 2 17:47 01.09.2022
1977 Clear 38 1009 15 10000 1.28 289 16:29 01.09.2022
1978 Clear 37 1008 16 10000 1.1 283 14:33 01.09.2022
1979 Clear 38 1008 15 10000 1.3 279 12:59 01.09.2022
1980 Clear 39 1008 14 10000 1.15 258 11:55 01.09.2022
1981 Clear 39 1008 14 10000 1.15 258 11:36 01.09.2022
1982 Clear 39 1008 14 10000 1.81 260 10:45 01.09.2022
1983 Clear 40 1008 13 10000 0.77 267 08:53 01.09.2022
1984 Clear 42 1008 12 10000 0.88 186 06:26 01.09.2022
1985 Clear 46 1007 9 10000 1.23 165 01:45 01.09.2022
1986 Clear 46 1008 9 10000 1.58 156 00:19 01.09.2022
1987 Clear 45 1010 9 10000 0.93 148 22:21 31.08.2022
1988 Clear 44 1011 10 10000 0.58 156 20:22 31.08.2022
1989 Clear 41 1012 11 10000 0.88 179 18:19 31.08.2022
1990 Clear 40 1012 12 10000 0.58 189 16:32 31.08.2022
1991 Clear 36 1011 15 10000 0.43 5 14:58 31.08.2022
1992 Clear 38 1011 13 10000 1.12 268 12:25 31.08.2022
1993 Clear 38 1011 13 10000 1.12 268 11:38 31.08.2022
1994 Clear 40 1011 14 10000 1.18 208 09:25 31.08.2022
1995 Clear 41 1011 14 10000 2.21 200 06:35 31.08.2022
1996 Clear 45 1010 11 10000 4.36 164 01:25 31.08.2022
1997 Clear 44 1012 14 10000 2.05 153 21:49 30.08.2022
1998 Clear 43 1013 16 10000 1.36 150 20:59 30.08.2022
1999 Clear 40 1013 19 10000 0.68 133 18:53 30.08.2022
2000 Clear 36 1012 27 10000 0.86 174 15:43 30.08.2022
2001 Clear 35 1011 29 10000 0.88 160 13:30 30.08.2022
2002 Clear 37 1010 26 10000 1.83 172 11:22 30.08.2022
2003 Clear 37 1010 26 10000 1.83 172 10:57 30.08.2022
2004 Clear 38 1010 23 10000 2.68 176 08:49 30.08.2022
2005 Clear 41 1008 18 10000 3.77 165 03:55 30.08.2022
2006 Clear 43 1008 16 10000 4.31 156 00:26 30.08.2022
2007 Clear 42 1009 17 10000 5.21 159 22:34 29.08.2022
2008 Clear 42 1009 19 10000 5.1 161 21:34 29.08.2022
2009 Clear 41 1010 21 10000 4.64 160 20:34 29.08.2022
2010 Clear 39 1011 25 10000 4.09 161 18:55 29.08.2022
2011 Clear 36 1010 27 10000 3.74 167 17:26 29.08.2022
2012 Clear 36 1010 27 10000 3.74 167 16:56 29.08.2022
2013 Clear 34 1009 34 10000 2.88 166 15:18 29.08.2022
2014 Clear 35 1008 35 10000 2.53 162 13:40 29.08.2022
2015 Clear 36 1007 35 10000 2.45 165 11:44 29.08.2022
2016 Clear 36 1007 34 10000 2.89 163 10:42 29.08.2022
2017 Clear 37 1006 29 10000 2.96 164 08:53 29.08.2022
2018 Clear 39 1005 24 10000 3.66 163 06:29 29.08.2022
2019 Clear 42 1003 15 10000 4.34 180 01:58 29.08.2022
2020 Clear 42 1005 15 10000 5.37 171 22:55 28.08.2022
2021 Clear 41 1006 15 10000 5.28 167 21:47 28.08.2022
2022 Clear 40 1006 16 10000 4.37 165 21:25 28.08.2022
2023 Clear 39 1007 17 10000 3.77 164 20:18 28.08.2022
2024 Clear 37 1007 20 10000 3.19 162 18:22 28.08.2022
2025 Clear 37 1007 20 10000 3.19 162 17:51 28.08.2022
2026 Clear 35 1007 22 10000 2.49 164 16:44 28.08.2022
2027 Clear 33 1006 27 10000 1.66 169 15:00 28.08.2022
2028 Clear 34 1005 25 10000 3 176 13:19 28.08.2022
2029 Clear 35 1004 23 10000 3.29 180 11:25 28.08.2022
2030 Clear 36 1004 22 10000 3.9 179 10:20 28.08.2022
2031 Clear 36 1004 22 10000 4.31 180 08:49 28.08.2022
2032 Clear 37 1004 21 10000 4.78 182 07:53 28.08.2022
2033 Clear 38 1003 21 10000 4.89 177 07:23 28.08.2022
2034 Clear 43 1002 9 10000 3.61 205 00:36 28.08.2022
2035 Clear 43 1004 10 10000 2.97 176 23:20 27.08.2022
2036 Clear 42 1005 11 10000 3.59 168 22:27 27.08.2022
2037 Clear 41 1006 12 10000 3.56 166 20:35 27.08.2022
2038 Clear 39 1007 14 10000 3.53 171 19:26 27.08.2022
2039 Clear 35 1007 18 10000 2.59 170 16:29 27.08.2022
2040 Clear 35 1007 18 10000 2.59 170 15:31 27.08.2022
2041 Clear 36 1006 17 10000 2.18 177 13:22 27.08.2022
2042 Clear 36 1006 17 10000 1.81 185 11:59 27.08.2022
2043 Clear 37 1006 17 10000 1.73 190 10:30 27.08.2022
2044 Clear 37 1006 17 10000 1.99 178 09:33 27.08.2022
2045 Clouds 39 1006 21 10000 1.84 170 06:54 27.08.2022
2046 Clouds 42 1007 20 10000 0.58 149 01:21 27.08.2022
2047 Clear 42 1008 21 10000 1.03 124 23:48 26.08.2022
2048 Clear 40 1010 24 10000 1.04 117 21:49 26.08.2022
2049 Clear 38 1012 28 10000 0.53 106 20:20 26.08.2022
2050 Clear 36 1012 32 10000 0.5 59 17:59 26.08.2022
2051 Clear 35 1012 35 10000 0.68 44 16:36 26.08.2022
2052 Clear 33 1012 41 10000 0.5 340 15:24 26.08.2022
2053 Clouds 34 1012 39 10000 0.57 325 13:18 26.08.2022
2054 Clouds 34 1012 39 10000 0.21 205 11:48 26.08.2022
2055 Clouds 34 1012 42 10000 0.9 19 11:22 26.08.2022
2056 Clouds 34 1013 42 10000 4.11 30 09:45 26.08.2022
2057 Clouds 41 1008 15 10000 2.43 168 04:56 26.08.2022
2058 Clear 43 1008 14 10000 2.93 159 00:44 26.08.2022
2059 Clear 42 1010 16 10000 2.81 160 22:45 25.08.2022
2060 Clear 41 1012 22 10000 2.37 161 20:57 25.08.2022
2061 Clear 39 1013 27 10000 2.07 161 19:36 25.08.2022
2062 Clear 38 1013 31 10000 1.78 165 18:36 25.08.2022
2063 Clear 37 1013 34 10000 1.8 159 17:32 25.08.2022
2064 Clear 36 1013 35 10000 1.36 138 16:45 25.08.2022
2065 Clear 35 1012 37 10000 0.91 122 15:37 25.08.2022
2066 Clear 35 1010 33 10000 1.23 155 14:30 25.08.2022
2067 Clear 36 1009 30 10000 2.1 154 11:34 25.08.2022
2068 Clear 37 1009 29 10000 1.96 151 10:45 25.08.2022
2069 Clouds 37 1009 29 10000 2.18 165 07:55 25.08.2022
2070 Clouds 41 1006 19 10000 2.55 143 04:40 25.08.2022
2071 Clouds 45 1005 12 10000 5.51 177 23:56 24.08.2022
2072 Clouds 44 1006 12 10000 5.42 163 23:25 24.08.2022
2073 Clouds 44 1007 12 10000 4.99 160 22:18 24.08.2022
2074 Clouds 44 1007 12 10000 4.99 160 21:32 24.08.2022
2075 Clouds 42 1008 15 10000 3.85 165 20:23 24.08.2022
2076 Clear 39 1008 20 10000 3.05 159 17:38 24.08.2022
2077 Clear 36 1007 26 10000 1.52 129 16:23 24.08.2022
2078 Clear 36 1007 26 10000 1.52 129 15:48 24.08.2022
2079 Clear 37 1005 24 10000 2.06 140 12:53 24.08.2022
2080 Clear 39 1005 19 10000 2.89 163 11:22 24.08.2022
2081 Clear 40 1005 15 10000 2.71 170 09:19 24.08.2022
2082 Clear 41 1005 14 10000 3.75 176 07:43 24.08.2022
2083 Clear 46 1003 9 10000 4.23 168 01:43 24.08.2022
2084 Clear 45 1005 10 10000 2.73 162 22:53 23.08.2022
2085 Clear 44 1006 11 10000 2.23 160 22:29 23.08.2022
2086 Clear 43 1006 11 10000 1.95 158 21:27 23.08.2022
2087 Clear 43 1007 12 10000 1.68 157 19:54 23.08.2022
2088 Clear 42 1008 13 10000 1.52 161 18:30 23.08.2022
2089 Clear 40 1008 13 10000 1.27 166 17:47 23.08.2022
2090 Clear 39 1008 14 10000 1.22 175 16:35 23.08.2022
2091 Clear 36 1007 18 10000 0.72 151 15:20 23.08.2022
2092 Clear 38 1006 16 10000 1.16 168 13:26 23.08.2022
2093 Clear 39 1007 15 10000 1.05 187 11:24 23.08.2022
2094 Clear 39 1007 15 10000 1.05 187 10:35 23.08.2022
2095 Clear 40 1007 14 10000 1.02 185 09:52 23.08.2022
2096 Clear 40 1007 14 10000 2.08 189 08:51 23.08.2022
2097 Clear 41 1007 13 10000 2.54 193 08:20 23.08.2022
2098 Clear 41 1007 13 10000 2.54 193 07:34 23.08.2022
2099 Clear 42 1007 13 10000 2.95 169 06:27 23.08.2022
2100 Clear 44 1007 10 10000 2.82 159 03:24 23.08.2022
2101 Clear 44 1008 11 10000 1.47 140 00:28 23.08.2022
2102 Clear 44 1008 11 10000 1.47 140 23:33 22.08.2022
2103 Clear 43 1009 11 10000 1.13 132 22:44 22.08.2022
2104 Clear 42 1011 13 10000 0.86 126 21:25 22.08.2022
2105 Clear 41 1012 14 10000 0.96 126 19:47 22.08.2022
2106 Clear 40 1012 14 10000 1.19 151 18:45 22.08.2022
2107 Clear 37 1012 18 10000 1.56 153 17:18 22.08.2022
2108 Clear 36 1011 22 10000 1.21 120 15:39 22.08.2022
2109 Clear 36 1011 21 10000 1.37 128 15:39 22.08.2022
2110 Clear 36 1010 20 10000 2.25 157 13:47 22.08.2022
2111 Clear 38 1009 16 10000 2.17 186 10:38 22.08.2022
2112 Clear 40 1009 15 10000 2.02 179 07:59 22.08.2022
2113 Clear 44 1007 11 10000 3.08 159 04:22 22.08.2022
2114 Clear 44 1008 12 10000 2.97 159 00:41 22.08.2022
2115 Clear 44 1009 12 10000 3.16 156 00:22 22.08.2022
2116 Clear 43 1011 14 10000 3.03 152 22:22 21.08.2022
2117 Clear 42 1011 15 10000 2.74 155 21:25 21.08.2022
2118 Clear 41 1011 17 10000 2.47 154 20:47 21.08.2022
2119 Clear 39 1012 19 10000 2.58 154 19:25 21.08.2022
2120 Clear 37 1011 24 10000 2.56 152 17:24 21.08.2022
2121 Clear 35 1011 28 10000 1.51 136 15:53 21.08.2022
2122 Clear 35 1010 30 10000 1.49 140 15:21 21.08.2022
2123 Clouds 35 1010 30 10000 2.17 142 13:52 21.08.2022
2124 Clouds 36 1009 30 10000 1.87 150 13:28 21.08.2022
2125 Clouds 36 1008 29 10000 2.41 156 11:39 21.08.2022
2126 Clouds 38 1007 21 10000 3.87 169 09:31 21.08.2022
2127 Clouds 39 1007 17 10000 3.33 170 08:56 21.08.2022
2128 Clear 39 1007 19 10000 3.43 164 08:38 21.08.2022
2129 Clear 40 1006 16 10000 3.34 191 07:26 21.08.2022
2130 Clear 44 1004 10 10000 4.02 184 03:40 21.08.2022
2131 Clear 45 1005 11 10000 5.24 176 00:24 21.08.2022
2132 Clear 45 1005 11 10000 4.57 163 22:40 20.08.2022
2133 Clear 44 1006 13 10000 3.71 159 21:37 20.08.2022
2134 Clear 43 1007 14 10000 3.13 157 20:40 20.08.2022
2135 Clear 42 1007 14 10000 3.42 155 19:40 20.08.2022
2136 Clear 41 1007 16 10000 2.86 154 18:30 20.08.2022
2137 Clear 40 1007 17 10000 2.9 165 17:50 20.08.2022
2138 Clear 39 1007 20 10000 2.55 148 16:52 20.08.2022
2139 Clear 37 1006 24 10000 1.24 137 15:33 20.08.2022
2140 Clear 37 1005 24 10000 1.38 149 13:26 20.08.2022
2141 Clear 38 1004 22 10000 1.27 153 11:50 20.08.2022
2142 Clouds 39 1004 20 10000 1.76 170 09:37 20.08.2022
2143 Clouds 40 1004 18 10000 2.17 167 08:34 20.08.2022
2144 Clear 41 1004 18 10000 1.75 188 05:55 20.08.2022
2145 Clear 43 1004 17 10000 0.74 51 00:59 20.08.2022
2146 Clear 43 1004 17 10000 0.74 51 00:35 20.08.2022
2147 Clear 42 1006 18 10000 1.34 47 23:19 19.08.2022
2148 Clear 42 1006 18 10000 1.34 47 22:33 19.08.2022
2149 Clouds 40 1008 23 10000 1.31 53 20:20 19.08.2022
2150 Clouds 38 1009 27 10000 1.62 46 17:35 19.08.2022
2151 Clouds 35 1008 33 10000 1.57 19 15:19 19.08.2022
2152 Clouds 37 1008 31 10000 0.84 38 13:21 19.08.2022
2153 Rain 37 1008 28 10000 2.99 341 10:53 19.08.2022
2154 Rain 38 1008 28 10000 1.47 354 10:24 19.08.2022
2155 Clouds 38 1008 26 10000 2.11 360 06:37 19.08.2022
2156 Clouds 41 1008 25 10000 0.44 104 00:57 19.08.2022
2157 Clouds 40 1009 27 10000 0.73 266 00:28 19.08.2022
2158 Clouds 40 1009 27 10000 0.73 266 23:38 18.08.2022
2159 Clouds 40 1010 28 10000 0.73 299 22:50 18.08.2022
2160 Clouds 40 1011 29 10000 0.95 6 21:57 18.08.2022
2161 Clouds 40 1011 29 10000 0.95 6 21:34 18.08.2022
2162 Clouds 39 1011 31 10000 2.39 13 19:56 18.08.2022
2163 Clouds 38 1012 34 10000 3.19 8 19:28 18.08.2022
2164 Clouds 37 1012 36 10000 3.45 8 17:50 18.08.2022
2165 Clouds 36 1012 39 10000 3.43 8 16:59 18.08.2022
2166 Clouds 35 1011 41 10000 3.7 353 14:52 18.08.2022
2167 Clouds 35 1010 40 10000 4.41 354 14:19 18.08.2022
2168 Clouds 36 1010 37 10000 4.15 350 13:29 18.08.2022
2169 Clouds 36 1010 37 10000 3.21 340 11:42 18.08.2022
2170 Clouds 38 1009 30 10000 3.38 360 09:43 18.08.2022
2171 Clouds 39 1008 29 10000 0.54 10 08:42 18.08.2022
2172 Clouds 40 1008 26 10000 0.42 139 07:19 18.08.2022
2173 Clouds 40 1008 26 10000 1.07 216 04:37 18.08.2022
2174 Clouds 42 1008 23 10000 2.22 164 23:35 17.08.2022
2175 Clear 42 1009 22 10000 1.43 149 21:46 17.08.2022
2176 Clear 41 1010 25 10000 1.36 136 20:20 17.08.2022
2177 Clouds 40 1010 26 10000 1.47 145 19:29 17.08.2022
2178 Clouds 39 1010 27 10000 1.09 143 17:37 17.08.2022
2179 Clouds 38 1010 29 10000 0.72 140 16:39 17.08.2022
2180 Clouds 37 1010 31 10000 0.52 101 15:30 17.08.2022
2181 Clouds 38 1008 27 10000 0.42 142 13:31 17.08.2022
2182 Clouds 39 1008 25 10000 0.19 276 11:39 17.08.2022
2183 Clouds 39 1007 24 10000 1.53 215 09:59 17.08.2022
2184 Clouds 40 1007 22 10000 0.63 119 08:24 17.08.2022
2185 Clouds 42 1005 17 10000 2.02 194 03:52 17.08.2022
2186 Clouds 43 1006 18 10000 1.33 208 00:38 17.08.2022
2187 Clouds 42 1008 20 10000 0.97 116 22:42 16.08.2022
2188 Clouds 40 1009 24 10000 1.03 120 20:59 16.08.2022
2189 Clouds 39 1009 26 10000 1.2 127 19:54 16.08.2022
2190 Clouds 38 1009 28 10000 1.32 142 19:19 16.08.2022
2191 Clouds 37 1009 31 10000 1.44 154 17:54 16.08.2022
2192 Clouds 37 1009 31 10000 1.44 154 17:54 16.08.2022
2193 Clouds 35 1009 36 10000 1.6 146 16:18 16.08.2022
2194 Clouds 35 1009 36 10000 1.6 146 15:39 16.08.2022
2195 Clouds 35 1008 38 10000 0.98 101 14:43 16.08.2022
2196 Clouds 35 1008 36 10000 0.86 15 14:25 16.08.2022
2197 Clouds 36 1007 33 10000 2.27 216 11:39 16.08.2022
2198 Clouds 37 1008 32 10000 2.54 147 09:58 16.08.2022
2199 Clear 38 1008 29 10000 2.89 109 08:48 16.08.2022
2200 Clear 38 1008 30 10000 2.62 154 08:19 16.08.2022
2201 Clouds 40 1006 24 10000 3.16 122 05:28 16.08.2022
2202 Clear 42 1008 13 10000 1.27 163 23:18 15.08.2022
2203 Clear 41 1009 14 10000 1.27 163 22:18 15.08.2022
2204 Clear 41 1009 14 10000 1.27 163 21:41 15.08.2022
2205 Clear 40 1009 14 10000 1.46 164 20:31 15.08.2022
2206 Clear 38 1010 17 10000 1.51 162 18:57 15.08.2022
2207 Clear 37 1010 21 10000 1.63 168 17:59 15.08.2022
2208 Clear 35 1009 29 10000 1.23 147 16:24 15.08.2022
2209 Clear 33 1010 44 10000 0.79 84 14:49 15.08.2022
2210 Clear 34 1009 41 10000 0.99 71 13:23 15.08.2022
2211 Clear 35 1009 37 10000 1.77 84 10:37 15.08.2022
2212 Clear 37 1009 27 10000 2.47 129 08:55 15.08.2022
2213 Clear 39 1008 17 10000 2.02 147 06:51 15.08.2022
2214 Clear 42 1007 9 10000 2.43 169 03:56 15.08.2022
2215 Clear 42 1009 10 10000 3.56 155 23:38 14.08.2022
2216 Clear 41 1011 11 10000 2.85 159 21:49 14.08.2022
2217 Clear 40 1012 13 10000 2.3 162 21:25 14.08.2022
2218 Clouds 39 1012 19 10000 2.07 164 19:46 14.08.2022
2219 Clouds 38 1012 23 10000 2.07 159 18:41 14.08.2022
2220 Clouds 37 1012 25 10000 1.89 153 17:44 14.08.2022
2221 Clouds 36 1012 29 10000 1.87 167 16:31 14.08.2022
2222 Clouds 34 1012 38 10000 1.77 163 15:45 14.08.2022
2223 Clouds 33 1011 40 10000 1.37 151 14:19 14.08.2022
2224 Clouds 33 1011 40 10000 1.37 151 13:49 14.08.2022
2225 Clouds 34 1011 38 10000 1.4 130 13:18 14.08.2022
2226 Clouds 34 1011 36 10000 1.26 118 11:50 14.08.2022
2227 Clouds 35 1011 32 10000 2.75 161 10:27 14.08.2022
2228 Clouds 36 1011 31 10000 2.32 160 08:45 14.08.2022
2229 Clouds 36 1011 30 10000 2.47 172 06:21 14.08.2022
2230 Clouds 38 1011 26 10000 4.02 137 02:46 14.08.2022
2231 Clouds 41 1011 22 10000 4.87 154 23:49 13.08.2022
2232 Clouds 40 1012 24 10000 4.38 156 22:52 13.08.2022
2233 Clouds 39 1013 27 10000 4.11 134 20:58 13.08.2022
2234 Clouds 38 1014 29 10000 3.56 143 20:28 13.08.2022
2235 Clouds 38 1014 23 10000 3.42 147 19:24 13.08.2022
2236 Clouds 37 1013 28 10000 3.08 152 17:36 13.08.2022
2237 Clouds 34 1012 43 10000 1.87 145 15:23 13.08.2022
2238 Clouds 35 1012 42 10000 1.71 138 14:26 13.08.2022
2239 Clouds 34 1013 43 10000 1.97 154 13:38 13.08.2022
2240 Clouds 35 1012 42 10000 1.93 156 11:52 13.08.2022
2241 Clouds 35 1012 40 10000 2.59 157 10:21 13.08.2022
2242 Clouds 36 1012 39 10000 3.78 146 08:23 13.08.2022
2243 Clouds 36 1012 39 10000 3.78 146 08:23 13.08.2022
2244 Clouds 36 1012 39 10000 3.78 146 08:23 13.08.2022
2245 Clouds 41 1008 21 10000 3.45 129 05:22 13.08.2022
2246 Clear 43 1009 16 10000 4.98 178 23:52 12.08.2022
2247 Clear 43 1011 16 10000 5.19 171 21:42 12.08.2022
2248 Clear 42 1011 16 10000 4.91 167 20:51 12.08.2022
2249 Clouds 41 1012 17 10000 4.4 163 19:39 12.08.2022
2250 Clouds 40 1012 17 10000 3.86 165 18:46 12.08.2022
2251 Clouds 38 1012 22 10000 2.71 156 17:21 12.08.2022
2252 Clear 36 1012 27 10000 1.79 159 15:49 12.08.2022
2253 Clear 35 1011 26 10000 2.04 168 14:41 12.08.2022
2254 Clear 36 1010 24 10000 2.2 171 12:55 12.08.2022
2255 Clear 37 1010 25 10000 2.32 175 10:44 12.08.2022
2256 Clear 39 1010 20 10000 2.16 178 07:50 12.08.2022
2257 Clear 40 1010 18 10000 2.41 190 06:39 12.08.2022
2258 Clear 43 1009 15 10000 3.38 209 03:20 12.08.2022
2259 Clear 43 1011 18 10000 4.72 179 00:27 12.08.2022
2260 Clear 43 1011 18 10000 4.72 179 23:35 11.08.2022
2261 Clear 42 1012 19 10000 4.88 170 22:27 11.08.2022
2262 Clear 42 1012 19 10000 4.88 170 21:43 11.08.2022
2263 Clear 41 1013 20 10000 4.6 164 20:59 11.08.2022
2264 Clouds 40 1013 20 10000 3.92 162 20:20 11.08.2022
2265 Clouds 40 1013 20 10000 3.78 162 19:32 11.08.2022
2266 Clouds 39 1014 21 10000 3.05 162 18:36 11.08.2022
2267 Clouds 37 1014 23 10000 1.97 160 16:38 11.08.2022
2268 Clear 35 1013 27 10000 1.32 170 15:25 11.08.2022
2269 Clouds 35 1013 26 10000 1.42 169 13:37 11.08.2022
2270 Clouds 36 1013 26 10000 1.64 165 11:26 11.08.2022
2271 Clear 38 1013 25 10000 2.44 186 07:49 11.08.2022
2272 Clear 40 1011 19 10000 4 195 03:57 11.08.2022
2273 Clear 41 1011 19 10000 4.32 192 01:33 11.08.2022
2274 Clear 41 1013 23 10000 5.11 170 22:38 10.08.2022
2275 Clear 40 1013 24 10000 5.05 165 21:44 10.08.2022
2276 Clear 39 1014 24 10000 4.11 161 20:55 10.08.2022
2277 Clouds 38 1014 25 10000 3.03 159 19:44 10.08.2022
2278 Clouds 37 1015 28 10000 2.58 162 18:45 10.08.2022
2279 Clouds 34 1014 38 10000 1.64 149 17:19 10.08.2022
2280 Clouds 33 1013 52 10000 2.1 139 13:36 10.08.2022
2281 Clouds 33 1013 52 10000 2.1 139 13:36 10.08.2022
2282 Clouds 33 1013 51 10000 2.33 146 12:48 10.08.2022
2283 Clouds 34 1012 49 10000 4.36 153 09:56 10.08.2022
2284 Clouds 34 1012 46 10000 4.71 147 08:35 10.08.2022
2285 Clouds 36 1010 39 10000 4.52 140 07:21 10.08.2022
2286 Clouds 40 1009 28 10000 3.31 172 04:49 10.08.2022
2287 Clouds 41 1008 23 10000 5.26 186 00:49 10.08.2022
2288 Clouds 41 1010 23 10000 5.03 170 23:25 09.08.2022
2289 Clouds 40 1011 23 10000 3.96 161 21:37 09.08.2022
2290 Clouds 40 1011 25 10000 3.27 160 20:42 09.08.2022
2291 Clouds 38 1012 28 10000 3.02 155 18:56 09.08.2022
2292 Clouds 37 1012 31 10000 2.98 159 17:31 09.08.2022
2293 Clouds 36 1012 36 10000 2.72 169 16:43 09.08.2022
2294 Clouds 35 1011 40 10000 2.05 154 15:59 09.08.2022
2295 Clouds 35 1011 41 10000 1.95 146 14:43 09.08.2022
2296 Clouds 35 1011 44 10000 0.88 104 10:53 09.08.2022
2297 Clouds 35 1011 41 10000 0.67 22 08:52 09.08.2022
2298 Clouds 35 1011 41 10000 1.22 23 07:54 09.08.2022
2299 Clouds 33 1013 49 7068 3.55 128 04:49 09.08.2022
2300 Clouds 42 1009 22 10000 4.6 151 23:58 08.08.2022
2301 Clouds 42 1010 22 10000 5.17 153 23:24 08.08.2022
2302 Clouds 42 1010 22 10000 5.17 153 22:38 08.08.2022
2303 Clouds 42 1011 23 10000 5.1 155 21:44 08.08.2022
2304 Clouds 41 1011 24 10000 4.49 164 20:34 08.08.2022
2305 Clouds 41 1011 21 10000 4.34 161 19:34 08.08.2022
2306 Clouds 39 1012 22 10000 3.51 159 17:56 08.08.2022
2307 Clouds 37 1011 30 10000 2.15 160 15:48 08.08.2022
2308 Clouds 36 1011 31 10000 2.27 165 15:28 08.08.2022
2309 Clouds 38 1010 26 10000 1.98 159 12:30 08.08.2022
2310 Clouds 39 1010 24 10000 1.47 169 10:28 08.08.2022
2311 Clouds 40 1010 22 10000 1.95 179 07:51 08.08.2022
2312 Clouds 42 1009 18 10000 2.41 168 03:45 08.08.2022
2313 Clear 42 1011 20 10000 0.97 154 23:28 07.08.2022
2314 Clear 41 1012 21 10000 0.7 114 21:41 07.08.2022
2315 Clear 41 1012 20 10000 0.65 67 21:19 07.08.2022
2316 Clear 40 1012 22 10000 1.07 64 20:23 07.08.2022
2317 Clear 40 1012 22 10000 1.07 64 19:52 07.08.2022
2318 Clear 39 1012 24 10000 1.64 21 19:22 07.08.2022
2319 Clear 38 1012 25 10000 1.17 21 17:31 07.08.2022
2320 Clear 37 1012 26 10000 1.07 19 16:52 07.08.2022
2321 Clear 36 1012 30 10000 1.01 348 15:39 07.08.2022
2322 Clear 35 1011 32 10000 0.96 341 13:58 07.08.2022
2323 Clear 35 1011 33 10000 0.51 345 12:41 07.08.2022
2324 Clear 36 1011 33 10000 0.56 332 10:51 07.08.2022
2325 Clear 36 1011 33 10000 0.29 17 10:21 07.08.2022
2326 Clear 39 1009 24 10000 0.39 80 04:38 07.08.2022
2327 Clear 40 1009 21 10000 0.59 114 02:25 07.08.2022
2328 Clear 38 1012 26 10000 0.41 59 22:40 06.08.2022
2329 Clear 37 1012 30 10000 0.71 33 22:18 06.08.2022
2330 Clear 36 1013 35 10000 1.71 16 19:48 06.08.2022
2331 Clouds 34 1013 39 10000 2.08 10 18:50 06.08.2022
2332 Clouds 33 1013 44 10000 2.13 1 17:48 06.08.2022
2333 Clouds 32 1014 49 10000 1.57 351 16:30 06.08.2022
2334 Clear 31 1012 58 10000 1.43 358 13:52 06.08.2022
2335 Clear 31 1012 57 10000 1.58 351 12:46 06.08.2022
2336 Clear 32 1012 55 10000 1.26 351 11:21 06.08.2022
2337 Clear 32 1012 54 10000 0.34 24 09:49 06.08.2022
2338 Clouds 32 1012 54 10000 1.52 347 07:35 06.08.2022
2339 Clouds 35 1011 45 10000 1.91 8 01:59 06.08.2022
2340 Clouds 33 1012 52 10000 1.07 9 22:40 05.08.2022
2341 Clouds 32 1013 57 10000 0.69 333 21:36 05.08.2022
2342 Rain 29 1014 70 10000 0.67 342 19:22 05.08.2022
2343 Clouds 29 1014 70 10000 0.67 342 18:44 05.08.2022
2344 Clouds 29 1014 70 10000 0.67 342 18:44 05.08.2022
2345 Clouds 28 1014 74 10000 0.68 69 16:55 05.08.2022
2346 Clouds 28 1014 74 10000 0.68 69 16:37 05.08.2022
2347 Clouds 29 1013 73 10000 1.62 155 15:21 05.08.2022
2348 Clouds 30 1012 68 10000 0.82 164 13:43 05.08.2022
2349 Clouds 28 1013 77 9746 1.59 182 13:22 05.08.2022
2350 Rain 29 1012 71 10000 1.85 187 12:24 05.08.2022
2351 Clouds 30 1012 66 10000 2.59 175 10:30 05.08.2022
2352 Clouds 33 1011 51 10000 6.32 94 07:58 05.08.2022
2353 Clouds 36 1009 34 10000 1.78 116 05:30 05.08.2022
2354 Clouds 43 1007 22 10000 3.67 160 23:51 04.08.2022
2355 Clouds 42 1009 23 10000 4.19 156 22:25 04.08.2022
2356 Clouds 41 1009 25 10000 3.56 156 21:25 04.08.2022
2357 Clouds 41 1009 25 10000 3.56 156 20:42 04.08.2022
2358 Clouds 40 1010 26 10000 1.08 140 19:23 04.08.2022
2359 Clouds 40 1010 26 10000 1.08 140 18:35 04.08.2022
2360 Clouds 39 1010 27 10000 0.71 151 17:31 04.08.2022
2361 Clouds 37 1008 30 10000 0.24 241 13:57 04.08.2022
2362 Clouds 37 1008 30 10000 0.27 187 12:43 04.08.2022
2363 Clouds 38 1008 27 10000 1.33 185 10:50 04.08.2022
2364 Clouds 41 1008 23 10000 3.02 166 07:52 04.08.2022
2365 Clouds 42 1006 20 10000 3.47 163 04:43 04.08.2022
2366 Clouds 44 1006 20 10000 2.14 144 02:27 04.08.2022
2367 Clouds 43 1007 21 10000 0.98 205 23:44 03.08.2022
2368 Clouds 42 1008 22 10000 0.49 163 22:30 03.08.2022
2369 Clouds 41 1010 24 10000 0.99 42 20:50 03.08.2022
2370 Clouds 40 1011 27 10000 1.23 23 19:35 03.08.2022
2371 Clouds 39 1011 30 10000 1.76 6 18:36 03.08.2022
2372 Clear 35 1011 38 10000 1.18 2 16:24 03.08.2022
2373 Clear 34 1011 42 10000 0.98 346 14:51 03.08.2022
2374 Clear 36 1010 38 10000 1.38 357 12:32 03.08.2022
2375 Clear 37 1011 34 10000 4.14 356 08:54 03.08.2022
2376 Clear 41 1008 25 10000 0.6 240 04:47 03.08.2022
2377 Clear 41 1008 24 10000 0.68 238 03:37 03.08.2022
2378 Clouds 41 1009 26 10000 1.06 242 01:36 03.08.2022
2379 Clouds 40 1011 29 10000 0.49 128 23:27 02.08.2022
2380 Clouds 40 1012 30 10000 0.72 107 21:55 02.08.2022
2381 Clouds 40 1012 30 10000 0.72 107 21:33 02.08.2022
2382 Clouds 38 1013 31 10000 0.94 131 19:38 02.08.2022
2383 Clouds 35 1013 40 10000 0.39 144 16:42 02.08.2022
2384 Clouds 35 1012 40 10000 0.89 219 13:21 02.08.2022
2385 Clouds 35 1012 38 10000 1.7 221 10:34 02.08.2022
2386 Clouds 37 1011 35 10000 2.61 208 08:27 02.08.2022
2387 Clouds 37 1011 35 10000 2.61 208 07:50 02.08.2022
2388 Clouds 40 1009 29 10000 2.46 217 04:56 02.08.2022
2389 Clouds 40 1010 29 10000 1.97 135 01:58 02.08.2022
2390 Clouds 39 1012 32 10000 2.45 150 23:21 01.08.2022
2391 Clouds 38 1014 34 10000 1.86 147 21:37 01.08.2022
2392 Clouds 35 1015 43 10000 0.91 132 19:45 01.08.2022
2393 Clouds 34 1015 49 10000 0.54 98 18:53 01.08.2022
2394 Clouds 31 1016 60 10000 0.5 69 16:55 01.08.2022
2395 Clouds 31 1016 60 10000 0.5 69 16:55 01.08.2022
2396 Clouds 31 1016 60 10000 0.5 69 16:55 01.08.2022
2397 Clouds 31 1016 60 10000 0.5 69 16:33 01.08.2022
2398 Clouds 30 1016 63 10000 0.4 53 15:34 01.08.2022
2399 Clouds 30 1015 64 10000 0.55 80 14:44 01.08.2022
2400 Clouds 31 1015 62 10000 1.48 6 13:29 01.08.2022
2401 Clouds 31 1015 62 10000 2.54 9 10:48 01.08.2022
2402 Clouds 31 1015 59 10000 5.59 1 08:53 01.08.2022
2403 Clouds 34 1014 48 10000 5.6 351 07:23 01.08.2022
2404 Clouds 37 1011 36 10000 2.19 356 04:32 01.08.2022
2405 Rain 41 1010 28 10000 3.66 174 01:23 01.08.2022
2406 Clouds 40 1012 30 10000 3.42 168 22:44 31.07.2022
2407 Clouds 39 1013 31 10000 3.18 159 22:25 31.07.2022
2408 Clouds 38 1014 36 10000 2.27 149 20:39 31.07.2022
2409 Clouds 36 1014 40 10000 3.41 147 18:40 31.07.2022
2410 Clouds 35 1014 44 10000 3.1 181 16:55 31.07.2022
2411 Clouds 34 1012 45 10000 2.38 156 14:43 31.07.2022
2412 Clouds 35 1012 40 10000 2.94 157 12:59 31.07.2022
2413 Clouds 36 1011 39 10000 2.83 170 11:39 31.07.2022
2414 Clouds 37 1011 35 10000 3.69 163 08:47 31.07.2022
2415 Clouds 39 1010 28 10000 3.74 161 05:38 31.07.2022
2416 Clouds 42 1008 23 10000 3.85 147 02:29 31.07.2022
2417 Clouds 41 1010 29 10000 2.77 149 22:49 30.07.2022
2418 Clouds 40 1011 32 10000 2.57 141 21:52 30.07.2022
2419 Clouds 40 1011 32 10000 2.57 141 21:33 30.07.2022
2420 Clouds 39 1012 36 10000 2.3 139 20:38 30.07.2022
2421 Clouds 39 1012 36 10000 2.3 139 20:38 30.07.2022
2422 Clouds 38 1012 38 10000 1.69 132 19:50 30.07.2022
2423 Clouds 36 1013 45 10000 1.22 117 18:20 30.07.2022
2424 Clouds 34 1013 49 10000 1.35 119 16:40 30.07.2022
2425 Clouds 34 1012 51 10000 1.7 133 15:33 30.07.2022
2426 Clouds 34 1011 52 10000 2.09 133 14:23 30.07.2022
2427 Clouds 34 1010 44 10000 0.94 115 12:32 30.07.2022
2428 Clouds 35 1010 42 10000 0.66 169 11:55 30.07.2022
2429 Clouds 36 1010 40 10000 2.19 138 10:20 30.07.2022
2430 Clouds 36 1010 40 10000 2.19 138 09:32 30.07.2022
2431 Clouds 38 1010 33 10000 3.35 130 07:44 30.07.2022
2432 Clear 43 1006 23 10000 6.02 153 02:34 30.07.2022
2433 Clear 44 1006 20 10000 5.13 157 01:20 30.07.2022
2434 Clear 42 1009 23 10000 2.27 150 21:39 29.07.2022
2435 Clear 40 1010 25 10000 1.9 148 20:57 29.07.2022
2436 Clear 40 1010 25 10000 1.83 147 19:48 29.07.2022
2437 Clear 37 1011 30 10000 2.2 158 17:40 29.07.2022
2438 Clear 34 1009 34 10000 2.06 160 14:53 29.07.2022
2439 Clouds 35 1009 38 10000 1.42 128 12:58 29.07.2022
2440 Clouds 36 1009 35 10000 1.37 109 09:49 29.07.2022
2441 Clouds 38 1009 31 10000 1.46 90 08:48 29.07.2022
2442 Clouds 40 1007 22 10000 0.82 54 07:39 29.07.2022
2443 Clear 44 1005 15 10000 5.2 161 01:46 29.07.2022
2444 Clear 42 1008 17 10000 2.4 152 21:57 28.07.2022
2445 Clear 41 1009 18 10000 2.08 151 20:55 28.07.2022
2446 Clear 40 1010 22 10000 1.49 146 20:22 28.07.2022
2447 Clear 40 1010 22 10000 1.49 146 19:42 28.07.2022
2448 Clear 38 1010 26 10000 1.83 146 18:27 28.07.2022
2449 Clear 38 1010 26 10000 1.83 146 17:43 28.07.2022
2450 Clear 37 1010 31 10000 1.76 153 16:42 28.07.2022
2451 Clear 34 1010 41 10000 1.94 165 15:24 28.07.2022
2452 Clouds 34 1009 41 10000 1.43 33 12:51 28.07.2022
2453 Clouds 35 1009 38 10000 2.84 2 10:36 28.07.2022
2454 Clouds 38 1008 30 10000 2.15 67 06:25 28.07.2022
2455 Clouds 38 1008 31 10000 1.89 353 05:27 28.07.2022
2456 Clouds 44 1007 18 10000 2.77 160 00:45 28.07.2022
2457 Clouds 43 1008 19 10000 2.06 158 22:40 27.07.2022
2458 Clouds 41 1010 23 10000 1.75 146 21:27 27.07.2022
2459 Clouds 40 1011 24 10000 1.53 150 19:37 27.07.2022
2460 Clouds 38 1011 31 10000 1.29 148 17:49 27.07.2022
2461 Clouds 35 1011 38 10000 0.31 316 15:52 27.07.2022
2462 Clouds 34 1010 43 10000 0.62 340 14:57 27.07.2022
2463 Clouds 34 1010 43 10000 0.62 340 14:34 27.07.2022
2464 Clouds 35 1010 38 10000 1.28 183 12:49 27.07.2022
2465 Clouds 36 1010 36 10000 3.14 168 07:53 27.07.2022
2466 Clouds 37 1009 37 10000 1.91 159 06:21 27.07.2022
2467 Clouds 37 1009 40 10000 3.68 279 01:59 27.07.2022
2468 Clouds 38 1011 36 10000 3.55 133 22:29 26.07.2022
2469 Clouds 37 1011 39 10000 3.11 127 21:20 26.07.2022
2470 Clouds 37 1011 39 10000 3.11 127 20:31 26.07.2022
2471 Clouds 36 1012 43 10000 1.85 118 18:44 26.07.2022
2472 Clouds 35 1012 44 10000 1.69 139 17:59 26.07.2022
2473 Clouds 34 1012 46 10000 1.61 133 16:31 26.07.2022
2474 Clouds 33 1011 49 10000 1.01 123 15:30 26.07.2022
2475 Clouds 33 1010 47 10000 1.2 135 13:38 26.07.2022
2476 Clouds 34 1010 44 10000 1.52 147 11:38 26.07.2022
2477 Clouds 35 1010 42 10000 1.17 117 09:32 26.07.2022
2478 Clouds 37 1008 32 10000 2.05 75 06:26 26.07.2022
2479 Clouds 41 1008 22 10000 5.28 155 00:57 26.07.2022
2480 Clouds 41 1009 20 10000 4.52 146 23:33 25.07.2022
2481 Clouds 40 1010 18 10000 1.38 114 22:27 25.07.2022
2482 Clouds 40 1010 18 10000 1.38 114 21:43 25.07.2022
2483 Clouds 40 1011 19 10000 0.68 76 20:42 25.07.2022
2484 Clouds 39 1011 17 10000 2.05 149 19:50 25.07.2022
2485 Clouds 37 1011 24 10000 2.36 141 18:21 25.07.2022
2486 Clouds 37 1011 24 10000 2.36 141 17:31 25.07.2022
2487 Clouds 34 1010 34 10000 2.17 155 15:30 25.07.2022
2488 Clouds 35 1008 39 10000 2.36 157 12:29 25.07.2022
2489 Clouds 36 1008 38 10000 2.63 164 10:32 25.07.2022
2490 Clouds 38 1006 24 10000 3.94 166 06:51 25.07.2022
2491 Clear 45 1006 8 10000 7.71 170 23:56 24.07.2022
2492 Clear 44 1007 8 10000 6.96 166 23:19 24.07.2022
2493 Clear 44 1007 8 10000 6.96 166 22:35 24.07.2022
2494 Clear 42 1008 10 10000 3.7 158 21:28 24.07.2022
2495 Clear 42 1008 10 10000 3.7 158 20:53 24.07.2022
2496 Clear 41 1009 11 10000 3.02 158 20:27 24.07.2022
2497 Clear 40 1009 14 10000 2.18 156 18:57 24.07.2022
2498 Clear 37 1009 21 10000 2.23 164 16:51 24.07.2022
2499 Clear 35 1009 29 10000 1.73 159 15:53 24.07.2022
2500 Clear 33 1008 34 10000 1.44 149 14:40 24.07.2022
2501 Clear 34 1008 33 10000 1.51 148 13:25 24.07.2022
2502 Clear 35 1007 32 10000 1.59 156 12:19 24.07.2022
2503 Clear 36 1007 31 10000 1.82 145 11:26 24.07.2022
2504 Clear 36 1007 27 10000 2.26 158 09:23 24.07.2022
2505 Clouds 37 1006 21 10000 1.81 169 07:53 24.07.2022
2506 Clouds 38 1006 20 10000 2.1 166 06:34 24.07.2022
2507 Clouds 43 1004 12 10000 5.77 171 02:33 24.07.2022
2508 Clouds 43 1007 7 10000 7.67 162 22:31 23.07.2022
2509 Clouds 42 1007 8 10000 3.91 163 20:41 23.07.2022
2510 Clouds 41 1008 9 10000 2.27 163 18:55 23.07.2022
2511 Clouds 40 1008 9 10000 1.97 171 17:48 23.07.2022
2512 Clear 39 1008 10 10000 1.21 159 17:24 23.07.2022
2513 Clear 37 1007 11 10000 0.66 181 15:55 23.07.2022
2514 Clear 35 1007 13 10000 0.49 145 15:21 23.07.2022
2515 Clear 35 1007 13 10000 0.49 145 14:47 23.07.2022
2516 Clouds 35 1007 11 10000 0.92 146 13:54 23.07.2022
2517 Clear 37 1006 10 10000 0.5 227 11:47 23.07.2022
2518 Clear 38 1006 10 10000 0.91 201 10:36 23.07.2022
2519 Clear 39 1005 8 10000 3.2 185 09:28 23.07.2022
2520 Clouds 41 1004 8 10000 3.1 178 06:46 23.07.2022
2521 Clouds 46 1002 8 10000 5.24 184 03:37 23.07.2022
2522 Clouds 47 1004 9 10000 6.63 169 00:27 23.07.2022
2523 Clouds 44 1007 10 10000 3.63 164 21:28 22.07.2022
2524 Clouds 44 1007 10 10000 3.63 164 20:31 22.07.2022
2525 Clear 41 1007 10 10000 2.49 164 18:42 22.07.2022
2526 Clouds 40 1008 11 10000 1.92 168 17:39 22.07.2022
2527 Clouds 38 1007 13 10000 1 180 15:46 22.07.2022
2528 Clear 36 1007 15 10000 1.61 154 12:47 22.07.2022
2529 Clear 39 1007 13 10000 1.9 186 10:22 22.07.2022
2530 Clear 39 1007 13 10000 2.44 183 09:21 22.07.2022
2531 Clouds 40 1007 13 10000 2.95 179 07:57 22.07.2022
2532 Clouds 45 1005 10 10000 5.07 184 04:23 22.07.2022
2533 Clouds 47 1007 9 10000 3.75 161 23:43 21.07.2022
2534 Clouds 45 1009 10 10000 2.21 153 21:51 21.07.2022
2535 Clear 43 1010 12 10000 1.14 143 19:45 21.07.2022
2536 Clouds 42 1011 12 10000 1.19 153 18:43 21.07.2022
2537 Clear 39 1011 14 10000 0.82 175 17:22 21.07.2022
2538 Clear 39 1011 14 10000 0.82 175 16:31 21.07.2022
2539 Clear 35 1010 18 10000 0.76 175 14:46 21.07.2022
2540 Clouds 36 1010 17 10000 1.03 150 13:58 21.07.2022
2541 Clouds 37 1010 16 10000 1.04 156 11:58 21.07.2022
2542 Clouds 39 1010 15 10000 2.14 181 10:21 21.07.2022
2543 Clouds 39 1009 14 10000 2.54 180 08:53 21.07.2022
2544 Clouds 40 1009 14 10000 2.58 174 08:18 21.07.2022
2545 Clouds 41 1009 13 10000 3.22 179 06:45 21.07.2022
2546 Clear 46 1008 12 10000 5.11 184 03:25 21.07.2022
2547 Clouds 45 1011 13 10000 4.35 168 22:51 20.07.2022
2548 Clouds 44 1012 14 10000 3.42 164 22:20 20.07.2022
2549 Clouds 43 1012 15 10000 2.54 161 20:46 20.07.2022
2550 Clouds 42 1013 16 10000 1.48 158 19:47 20.07.2022
2551 Clouds 42 1013 16 10000 2.02 162 19:47 20.07.2022
2552 Clouds 41 1013 18 10000 1.08 159 19:19 20.07.2022
2553 Clouds 41 1013 18 10000 1.08 159 18:33 20.07.2022
2554 Clear 40 1013 19 10000 0.82 146 17:42 20.07.2022
2555 Clear 38 1013 21 10000 0.73 345 15:43 20.07.2022
2556 Clear 35 1012 24 10000 0.28 36 14:54 20.07.2022
2557 Clouds 35 1012 23 10000 0.76 344 13:44 20.07.2022
2558 Clouds 36 1011 21 10000 1.39 329 11:31 20.07.2022
2559 Clouds 40 1010 17 10000 2.14 187 07:39 20.07.2022
2560 Clear 45 1007 12 10000 5.46 203 02:44 20.07.2022
2561 Clear 45 1008 13 10000 5.09 175 00:44 20.07.2022
2562 Clear 45 1010 15 10000 4.41 168 22:41 19.07.2022
2563 Clear 43 1011 16 10000 3.05 166 22:21 19.07.2022
2564 Clear 42 1012 17 10000 2.18 159 20:51 19.07.2022
2565 Clear 41 1012 20 10000 1.47 149 20:18 19.07.2022
2566 Clear 40 1012 19 10000 1.15 149 18:43 19.07.2022
2567 Clear 39 1012 20 10000 0.92 135 17:56 19.07.2022
2568 Clear 37 1012 26 10000 0.3 134 16:25 19.07.2022
2569 Clear 35 1011 28 10000 0.5 352 14:20 19.07.2022
2570 Clouds 36 1011 27 10000 0.31 326 11:35 19.07.2022
2571 Clouds 37 1011 25 10000 0.99 177 10:31 19.07.2022
2572 Clouds 38 1010 23 10000 2.53 170 08:48 19.07.2022
2573 Clouds 39 1010 22 10000 2.52 172 08:22 19.07.2022
2574 Clouds 39 1010 24 10000 3.72 175 07:18 19.07.2022
2575 Clouds 42 1008 20 10000 5.51 184 05:26 19.07.2022
2576 Clouds 42 1008 20 10000 5.51 184 04:46 19.07.2022
2577 Clouds 45 1007 15 10000 5.86 159 00:34 19.07.2022
2578 Clouds 44 1009 16 10000 5.57 158 23:22 18.07.2022
2579 Clouds 44 1009 16 10000 5.57 158 22:56 18.07.2022
2580 Clouds 43 1010 17 10000 5.97 155 21:58 18.07.2022
2581 Clouds 43 1010 17 10000 6.14 151 20:50 18.07.2022
2582 Clouds 41 1011 19 10000 4.68 157 19:25 18.07.2022
2583 Clouds 40 1010 22 10000 4.03 166 17:22 18.07.2022
2584 Clouds 38 1010 24 10000 3.16 171 15:46 18.07.2022
2585 Clear 36 1010 26 10000 3.58 158 14:30 18.07.2022
2586 Clouds 37 1008 23 10000 1.3 159 12:45 18.07.2022
2587 Clear 38 1007 21 10000 1.41 190 11:29 18.07.2022
2588 Clear 39 1007 19 10000 2.62 204 08:54 18.07.2022
2589 Clouds 41 1006 17 10000 3.3 195 07:28 18.07.2022
2590 Clouds 48 1003 10 10000 4.43 184 00:42 18.07.2022
2591 Clouds 47 1005 11 10000 4.98 166 22:37 17.07.2022
2592 Clouds 47 1006 11 10000 4.06 165 21:57 17.07.2022
2593 Clouds 46 1007 12 10000 3.81 164 21:21 17.07.2022
2594 Clouds 46 1007 12 10000 3.81 164 20:44 17.07.2022
2595 Clouds 45 1007 13 10000 2.46 156 19:32 17.07.2022
2596 Clouds 43 1007 14 10000 2.4 164 18:54 17.07.2022
2597 Clouds 42 1008 15 10000 2.28 168 17:38 17.07.2022
2598 Clouds 41 1008 16 10000 1.82 168 16:51 17.07.2022
2599 Clouds 39 1007 18 10000 1.22 172 16:26 17.07.2022
2600 Clouds 37 1007 20 10000 1.18 177 14:58 17.07.2022
2601 Clouds 38 1006 19 10000 1.22 168 13:32 17.07.2022
2602 Clouds 39 1006 18 10000 1.08 195 11:50 17.07.2022
2603 Clouds 40 1006 18 10000 1.63 190 09:30 17.07.2022
2604 Clear 43 1006 16 10000 2.26 167 05:54 17.07.2022
2605 Clear 46 1005 14 10000 3.97 166 02:33 17.07.2022
2606 Clear 45 1008 16 10000 2.48 152 23:21 16.07.2022
2607 Clear 44 1009 18 10000 1.73 146 21:47 16.07.2022
2608 Clear 42 1011 22 10000 0.5 69 20:25 16.07.2022
2609 Clear 41 1011 21 10000 0.73 35 18:41 16.07.2022
2610 Clear 39 1011 24 10000 1.41 7 17:19 16.07.2022
2611 Clear 36 1011 29 10000 1.44 350 15:23 16.07.2022
2612 Clear 37 1010 30 10000 1.07 26 11:54 16.07.2022
2613 Clear 38 1010 29 10000 1.14 147 09:37 16.07.2022
2614 Clear 39 1010 27 10000 2.29 165 08:48 16.07.2022
2615 Clouds 39 1010 27 10000 2.74 163 08:29 16.07.2022
2616 Clouds 42 1008 24 10000 6.6 157 04:28 16.07.2022
2617 Clouds 44 1008 19 10000 4.82 159 03:29 16.07.2022
2618 Clouds 44 1010 19 10000 5.04 161 23:51 15.07.2022
2619 Clouds 44 1011 21 10000 4.26 171 22:43 15.07.2022
2620 Clouds 42 1012 23 10000 3.42 162 21:31 15.07.2022
2621 Clouds 41 1013 25 10000 2.53 156 20:31 15.07.2022
2622 Clouds 39 1013 29 10000 0.78 130 18:44 15.07.2022
2623 Clouds 37 1014 32 10000 0.49 58 17:48 15.07.2022
2624 Clouds 35 1014 39 10000 0.21 339 15:41 15.07.2022
2625 Clouds 34 1012 44 10000 1.11 2 13:22 15.07.2022
2626 Clouds 34 1012 43 10000 1.25 354 11:48 15.07.2022
2627 Clouds 34 1012 42 10000 1.93 14 10:42 15.07.2022
2628 Clouds 39 1009 26 10000 2.27 163 07:47 15.07.2022
2629 Clouds 38 1008 36 10000 10.91 174 02:39 15.07.2022
2630 Clouds 43 1008 19 10000 6.61 158 00:38 15.07.2022
2631 Clouds 43 1009 19 10000 7.79 166 22:54 14.07.2022
2632 Clouds 43 1010 18 10000 9.29 163 21:57 14.07.2022
2633 Clouds 43 1010 18 10000 9.29 163 21:33 14.07.2022
2634 Clouds 44 1010 16 10000 8.03 168 20:57 14.07.2022
2635 Clouds 44 1010 16 10000 8.03 168 20:37 14.07.2022
2636 Clouds 44 1010 15 10000 6.81 171 20:18 14.07.2022
2637 Clouds 40 1010 17 10000 3.34 172 16:42 14.07.2022
2638 Clouds 38 1010 19 10000 2.72 166 16:18 14.07.2022
2639 Clouds 36 1010 22 10000 2.28 165 14:44 14.07.2022
2640 Clear 36 1009 22 10000 2.07 172 13:33 14.07.2022
2641 Clear 37 1009 22 10000 2.48 181 12:23 14.07.2022
2642 Clear 38 1008 21 10000 2.56 183 11:26 14.07.2022
2643 Clear 38 1008 21 10000 2.56 183 10:49 14.07.2022
2644 Clear 39 1008 17 10000 2.47 196 08:28 14.07.2022
2645 Clear 44 1005 11 10000 5.2 220 03:42 14.07.2022
2646 Clear 46 1006 10 10000 5.88 182 00:55 14.07.2022
2647 Clear 46 1007 10 10000 5.96 176 00:18 14.07.2022
2648 Clear 45 1008 9 10000 6.12 169 22:28 13.07.2022
2649 Clear 45 1008 9 10000 6.12 169 21:37 13.07.2022
2650 Clear 44 1009 9 10000 6.42 168 20:38 13.07.2022
2651 Clear 40 1010 10 10000 5.18 163 18:26 13.07.2022
2652 Clear 39 1010 10 10000 4.07 161 17:22 13.07.2022
2653 Clear 37 1010 11 10000 2.54 152 16:18 13.07.2022
2654 Clear 36 1008 12 10000 2.35 176 13:57 13.07.2022
2655 Clear 37 1008 12 10000 2.93 180 11:33 13.07.2022
2656 Clear 37 1007 12 10000 3 180 10:44 13.07.2022
2657 Clear 38 1007 12 10000 3 183 09:30 13.07.2022
2658 Clear 39 1006 12 10000 2.27 197 08:24 13.07.2022
2659 Clear 43 1004 11 10000 2.96 225 04:50 13.07.2022
2660 Clear 47 1004 9 10000 5.51 199 00:49 13.07.2022
2661 Clear 46 1006 8 10000 5.14 178 22:48 12.07.2022
2662 Clear 46 1006 8 10000 5.08 173 21:49 12.07.2022
2663 Clear 45 1007 8 10000 4.75 168 20:54 12.07.2022
2664 Clear 45 1007 8 10000 4.75 168 20:36 12.07.2022
2665 Clear 42 1008 10 10000 2.28 162 18:53 12.07.2022
2666 Clear 39 1009 10 10000 1.56 169 17:29 12.07.2022
2667 Clear 38 1008 11 10000 1.44 164 15:35 12.07.2022
2668 Clear 35 1007 12 10000 1.65 156 13:44 12.07.2022
2669 Clear 37 1007 11 10000 2.15 184 11:59 12.07.2022
2670 Clear 38 1007 10 10000 2.41 189 10:47 12.07.2022
2671 Clear 39 1007 8 10000 2.61 197 09:19 12.07.2022
2672 Clear 40 1007 8 10000 1.99 205 07:57 12.07.2022
2673 Clear 42 1005 12 10000 1.75 188 05:57 12.07.2022
2674 Clear 42 1005 12 10000 1.75 188 05:39 12.07.2022
2675 Clear 46 1005 9 10000 2.75 168 01:43 12.07.2022
2676 Clear 45 1007 8 10000 1.97 148 22:52 11.07.2022
2677 Clear 45 1009 7 10000 1.43 146 21:44 11.07.2022
2678 Clear 43 1009 7 10000 1.04 140 20:33 11.07.2022
2679 Clear 42 1010 7 10000 0.94 139 19:33 11.07.2022
2680 Clear 41 1010 8 10000 0.79 127 18:32 11.07.2022
2681 Clear 39 1011 8 10000 0.57 120 17:36 11.07.2022
2682 Clear 37 1011 9 10000 0.65 164 15:46 11.07.2022
2683 Clear 33 1010 11 10000 0.34 162 14:32 11.07.2022
2684 Clear 36 1010 9 10000 1.45 212 11:40 11.07.2022
2685 Clear 37 1010 8 10000 1.74 210 10:22 11.07.2022
2686 Clear 37 1010 8 10000 1.69 212 09:42 11.07.2022
2687 Clear 38 1010 7 10000 1.89 216 08:33 11.07.2022
2688 Clear 41 1009 5 10000 2.96 212 04:34 11.07.2022
2689 Clear 45 1010 9 10000 3.89 169 00:22 11.07.2022
2690 Clear 44 1011 9 10000 3.63 167 22:56 10.07.2022
2691 Clear 43 1012 8 10000 3.15 162 21:51 10.07.2022
2692 Clear 42 1013 9 10000 2.34 157 20:54 10.07.2022
2693 Clear 40 1014 10 10000 1.62 156 19:50 10.07.2022
2694 Clear 39 1014 11 10000 1.21 160 18:48 10.07.2022
2695 Clear 38 1015 12 10000 0.85 162 17:37 10.07.2022
2696 Clear 37 1015 12 10000 0.88 170 16:57 10.07.2022
2697 Clear 36 1014 12 10000 0.71 178 15:33 10.07.2022
2698 Clear 33 1014 14 10000 0.64 165 14:30 10.07.2022
2699 Clear 34 1013 13 10000 1.17 182 12:29 10.07.2022
2700 Clear 35 1013 12 10000 1.59 177 11:25 10.07.2022
2701 Clear 36 1013 10 10000 2.21 187 08:45 10.07.2022
2702 Clear 37 1013 11 10000 2.6 189 07:59 10.07.2022
2703 Clear 44 1010 4 10000 6.04 198 02:50 10.07.2022
2704 Clear 44 1011 4 10000 6.17 188 23:30 09.07.2022
2705 Clear 43 1013 5 10000 6.06 172 22:25 09.07.2022
2706 Clear 42 1013 6 10000 5.54 168 21:29 09.07.2022
2707 Clear 39 1015 11 10000 4.62 165 18:58 09.07.2022
2708 Clear 37 1015 14 10000 4.37 165 17:59 09.07.2022
2709 Clear 36 1015 16 10000 3.66 170 16:59 09.07.2022
2710 Clear 34 1015 18 10000 2.5 169 15:54 09.07.2022
2711 Clear 34 1015 18 10000 2.5 169 15:35 09.07.2022
2712 Clouds 32 1013 19 10000 2.14 183 13:54 09.07.2022
2713 Clouds 33 1013 19 10000 2.22 183 13:27 09.07.2022
2714 Clouds 33 1012 18 10000 2.38 181 11:34 09.07.2022
2715 Clouds 35 1012 15 10000 2.51 181 10:24 09.07.2022
2716 Clouds 36 1012 13 10000 2.45 191 08:27 09.07.2022
2717 Clouds 37 1011 12 10000 2.04 198 06:59 09.07.2022
2718 Clouds 39 1010 10 10000 3.14 202 04:35 09.07.2022
2719 Clouds 43 1010 9 10000 5.27 178 23:33 08.07.2022
2720 Clouds 42 1011 10 10000 5.1 162 22:00 08.07.2022
2721 Clouds 41 1012 10 10000 5.17 162 21:21 08.07.2022
2722 Clouds 41 1012 10 10000 5.17 162 20:35 08.07.2022
2723 Clouds 38 1013 13 10000 2.63 161 18:45 08.07.2022
2724 Clouds 37 1013 15 10000 2.1 165 17:45 08.07.2022
2725 Clouds 34 1013 17 10000 0.97 141 16:24 08.07.2022
2726 Clouds 32 1012 18 10000 1.36 151 14:50 08.07.2022
2727 Clear 32 1011 16 10000 2.27 163 12:31 08.07.2022
2728 Clear 33 1011 13 10000 2.22 169 10:47 08.07.2022
2729 Clear 34 1011 12 10000 2.43 164 09:58 08.07.2022
2730 Clear 36 1010 11 10000 2.27 205 06:59 08.07.2022
2731 Clear 37 1009 10 10000 2.78 206 05:33 08.07.2022
2732 Clear 42 1008 7 10000 5.7 197 00:40 08.07.2022
2733 Clear 42 1009 9 10000 5.69 186 22:50 07.07.2022
2734 Clear 41 1010 11 10000 5.71 173 21:48 07.07.2022
2735 Clear 38 1011 15 10000 5.11 165 19:34 07.07.2022
2736 Clear 35 1012 19 10000 3.81 166 17:43 07.07.2022
2737 Clear 32 1011 23 10000 2.02 167 16:21 07.07.2022
2738 Clear 31 1010 25 10000 2.15 160 13:40 07.07.2022
2739 Clear 31 1010 23 10000 2.33 166 12:43 07.07.2022
2740 Clear 32 1009 21 10000 2.33 167 12:23 07.07.2022
2741 Clear 32 1009 21 10000 2.33 167 11:33 07.07.2022
2742 Clear 33 1009 19 10000 2.3 173 10:45 07.07.2022
2743 Clear 33 1009 18 10000 2.36 176 10:27 07.07.2022
2744 Clear 34 1009 18 10000 2.68 178 09:22 07.07.2022
2745 Clear 36 1007 15 10000 3.53 202 05:57 07.07.2022
2746 Clear 41 1006 13 10000 6.34 187 00:18 07.07.2022
2747 Clear 41 1006 13 10000 6.34 187 23:36 06.07.2022
2748 Clear 40 1007 14 10000 6.3 183 23:18 06.07.2022
2749 Clear 40 1007 14 10000 6.3 183 22:51 06.07.2022
2750 Clear 40 1007 14 10000 6.3 183 22:33 06.07.2022
2751 Clear 38 1009 19 10000 5.76 165 20:19 06.07.2022
2752 Clear 36 1010 25 10000 4.59 166 19:18 06.07.2022
2753 Clear 33 1010 31 10000 3.86 165 17:21 06.07.2022
2754 Clear 31 1010 33 10000 3.07 158 15:50 06.07.2022
2755 Clear 31 1008 33 10000 3.11 172 12:44 06.07.2022
2756 Clear 32 1008 31 10000 3.44 172 11:52 06.07.2022
2757 Clear 32 1008 29 10000 3.4 172 10:49 06.07.2022
2758 Clear 33 1007 27 10000 3.01 179 09:21 06.07.2022
2759 Clear 34 1007 27 10000 3.1 181 07:44 06.07.2022
2760 Clear 35 1007 25 10000 3.9 186 06:44 06.07.2022
2761 Clear 40 1006 13 10000 6.31 179 23:42 05.07.2022
2762 Clear 40 1007 14 10000 6 173 22:42 05.07.2022
2763 Clear 37 1009 17 10000 5.15 161 20:48 05.07.2022
2764 Clear 36 1009 20 10000 4.06 163 20:21 05.07.2022
2765 Clear 35 1010 19 10000 4.46 162 19:37 05.07.2022
2766 Clear 32 1010 23 10000 2.61 164 17:50 05.07.2022
2767 Clear 31 1010 25 10000 2.06 167 17:19 05.07.2022
2768 Clear 30 1010 26 10000 1.35 161 16:18 05.07.2022
2769 Clear 29 1009 29 10000 0.98 156 14:54 05.07.2022
2770 Clear 29 1009 28 10000 1.59 155 13:34 05.07.2022
2771 Clear 30 1008 25 10000 2.81 167 12:22 05.07.2022
2772 Clear 31 1007 24 10000 3.27 170 10:45 05.07.2022
2773 Clear 32 1007 23 10000 4.02 172 09:57 05.07.2022
2774 Clear 33 1007 21 10000 4.21 173 08:21 05.07.2022
2775 Clear 34 1006 19 10000 4.32 174 06:51 05.07.2022
2776 Clear 37 1005 15 10000 5.37 184 04:37 05.07.2022
2777 Clear 39 1005 12 10000 6.59 181 01:33 05.07.2022
2778 Clear 39 1006 12 10000 5.58 172 23:37 04.07.2022
2779 Clear 38 1007 12 10000 5.46 165 22:56 04.07.2022
2780 Clear 37 1008 13 10000 5.01 160 22:18 04.07.2022
2781 Clear 35 1009 15 10000 4.62 160 20:56 04.07.2022
2782 Clear 35 1009 15 10000 4.62 160 20:36 04.07.2022
2783 Clear 34 1009 17 10000 3.66 161 19:56 04.07.2022
2784 Clear 34 1009 16 10000 3.24 161 19:37 04.07.2022
2785 Clear 32 1009 18 10000 2.82 162 18:51 04.07.2022
2786 Clear 30 1009 22 10000 2.78 160 16:54 04.07.2022
2787 Clear 29 1009 24 10000 1.97 146 15:35 04.07.2022
2788 Clear 27 1008 26 10000 1.83 153 13:47 04.07.2022
2789 Clear 27 1008 24 10000 2.17 153 12:55 04.07.2022
2790 Clear 29 1007 20 10000 2.22 163 10:57 04.07.2022
2791 Clear 30 1006 18 10000 2.42 179 10:27 04.07.2022
2792 Clear 30 1006 17 10000 3.05 182 09:21 04.07.2022
2793 Clear 33 1003 13 10000 5.88 186 06:28 04.07.2022
2794 Clear 39 1002 7 10000 8.4 192 02:59 04.07.2022
2795 Clear 40 1003 7 10000 6.86 193 23:52 03.07.2022
2796 Clear 40 1004 8 10000 6.12 177 22:36 03.07.2022
2797 Clear 37 1006 13 10000 5.23 162 20:46 03.07.2022
2798 Clear 36 1007 13 10000 4.55 162 19:59 03.07.2022
2799 Clear 34 1007 16 10000 3.69 161 19:25 03.07.2022
2800 Clear 34 1007 16 10000 3.69 161 18:30 03.07.2022
2801 Clear 33 1008 17 10000 3.36 163 17:41 03.07.2022
2802 Clear 28 1007 22 10000 1.8 166 15:28 03.07.2022
2803 Clear 28 1007 22 10000 1.8 166 14:54 03.07.2022
2804 Clear 28 1006 22 10000 1.87 177 13:50 03.07.2022
2805 Clear 30 1006 19 10000 2.16 184 12:49 03.07.2022
2806 Clear 31 1005 18 10000 2.82 190 12:19 03.07.2022
2807 Clear 32 1005 17 10000 3.33 190 10:54 03.07.2022
2808 Clear 32 1005 17 10000 3.33 190 10:36 03.07.2022
2809 Clear 34 1004 16 10000 4.55 186 08:21 03.07.2022
2810 Clear 34 1004 15 10000 4.37 183 07:34 03.07.2022
2811 Clear 42 1004 11 10000 9.21 192 00:41 03.07.2022
2812 Clear 42 1004 12 10000 8.25 191 23:38 02.07.2022
2813 Clear 41 1005 13 10000 7.44 183 22:31 02.07.2022
2814 Clear 39 1007 14 10000 5.96 166 20:36 02.07.2022
2815 Clear 38 1008 14 10000 5.26 162 19:50 02.07.2022
2816 Clear 36 1008 15 10000 4.51 162 18:48 02.07.2022
2817 Clear 35 1009 16 10000 3.96 163 17:40 02.07.2022
2818 Clear 34 1009 16 10000 3.53 163 16:32 02.07.2022
2819 Clear 32 1008 20 10000 2.39 165 13:51 02.07.2022
2820 Clear 33 1007 18 10000 2.97 179 11:51 02.07.2022
2821 Clear 34 1007 18 10000 3.16 181 10:52 02.07.2022
2822 Clear 35 1007 17 10000 3.49 185 10:28 02.07.2022
2823 Clear 35 1007 17 10000 3.78 184 08:39 02.07.2022
2824 Clear 36 1007 16 10000 4.16 182 08:19 02.07.2022
2825 Clear 38 1005 14 10000 5.52 190 05:59 02.07.2022
2826 Clear 43 1006 7 10000 4.36 184 00:47 02.07.2022
2827 Clear 43 1007 6 10000 3.92 169 23:31 01.07.2022
2828 Clear 42 1008 6 10000 4.14 162 22:36 01.07.2022
2829 Clear 41 1009 7 10000 3.98 161 21:40 01.07.2022
2830 Clear 39 1010 7 10000 3.59 160 20:59 01.07.2022
2831 Clear 39 1010 7 10000 3.59 160 20:37 01.07.2022
2832 Clear 38 1011 8 10000 3.16 159 19:41 01.07.2022
2833 Clear 35 1012 10 10000 2.28 164 17:45 01.07.2022
2834 Clear 31 1010 15 10000 1.71 156 15:26 01.07.2022
2835 Clear 31 1009 14 10000 1.34 143 13:54 01.07.2022
2836 Clear 31 1009 14 10000 1.34 143 13:54 01.07.2022
2837 Clear 32 1009 11 10000 1.16 183 11:49 01.07.2022
2838 Clear 34 1008 11 10000 2.71 185 10:20 01.07.2022
2839 Clear 35 1008 11 10000 3.55 190 08:50 01.07.2022
2840 Clear 42 1006 10 10000 9.14 219 03:18 01.07.2022
2841 Clear 43 1007 9 10000 6.12 206 00:25 01.07.2022
2842 Clear 43 1008 10 10000 4.98 191 22:56 30.06.2022
2843 Clear 43 1008 10 10000 4.98 191 22:33 30.06.2022
2844 Clear 42 1009 11 10000 4.68 174 21:59 30.06.2022
2845 Clear 42 1009 11 10000 4.68 174 21:41 30.06.2022
2846 Clear 39 1011 13 10000 4.03 169 20:29 30.06.2022
2847 Clear 39 1011 13 10000 4.08 166 19:54 30.06.2022
2848 Clear 38 1011 14 10000 3.42 165 19:24 30.06.2022
2849 Clear 38 1011 14 10000 3.42 165 18:42 30.06.2022
2850 Clear 36 1011 15 10000 3.03 165 17:43 30.06.2022
2851 Clear 35 1011 16 10000 2.61 167 16:48 30.06.2022
2852 Clear 34 1011 18 10000 1.8 178 15:39 30.06.2022
2853 Clouds 32 1010 19 10000 1.48 177 13:34 30.06.2022
2854 Clouds 33 1010 18 10000 1.42 187 12:35 30.06.2022
2855 Clouds 34 1010 16 10000 1.87 191 11:37 30.06.2022
2856 Clouds 35 1009 14 10000 3.74 200 09:55 30.06.2022
2857 Clouds 35 1009 14 10000 3.74 200 09:34 30.06.2022
2858 Clear 36 1009 14 10000 5.31 191 08:18 30.06.2022
2859 Clear 37 1008 14 10000 5.32 188 07:18 30.06.2022
2860 Clear 44 1006 11 10000 12.5 226 01:42 30.06.2022
2861 Clear 45 1007 9 10000 7.46 213 23:34 29.06.2022
2862 Clear 44 1008 9 10000 6.52 199 22:40 29.06.2022
2863 Clear 44 1009 10 10000 6.22 191 21:39 29.06.2022
2864 Clear 43 1010 12 10000 7.02 177 20:34 29.06.2022
2865 Clear 42 1011 12 10000 6.72 172 19:39 29.06.2022
2866 Clear 40 1011 13 10000 5.32 169 17:54 29.06.2022
2867 Clear 39 1012 14 10000 4.93 172 16:48 29.06.2022
2868 Clear 37 1011 15 10000 3.72 175 15:32 29.06.2022
2869 Clear 37 1010 17 10000 2.77 182 12:49 29.06.2022
2870 Clear 37 1010 17 10000 3.01 184 11:57 29.06.2022
2871 Clear 38 1010 17 10000 2.53 182 09:35 29.06.2022
2872 Clear 39 1010 16 10000 2.77 179 08:46 29.06.2022
2873 Clear 42 1009 14 10000 4.45 197 05:42 29.06.2022
2874 Clouds 45 1008 11 10000 7.15 190 02:21 29.06.2022
2875 Clouds 46 1008 11 10000 6.22 190 00:38 29.06.2022
2876 Clouds 46 1009 12 10000 5.82 186 23:55 28.06.2022
2877 Clouds 45 1010 12 10000 5.66 182 22:48 28.06.2022
2878 Clouds 45 1011 12 10000 5.11 171 21:55 28.06.2022
2879 Clouds 45 1011 12 10000 5.11 171 21:33 28.06.2022
2880 Clouds 44 1012 12 10000 4.61 165 20:55 28.06.2022
2881 Clear 43 1013 12 10000 3.73 163 19:50 28.06.2022
2882 Clear 42 1013 13 10000 2.69 163 19:24 28.06.2022
2883 Clear 42 1013 13 10000 2.69 163 18:37 28.06.2022
2884 Clear 39 1013 16 10000 2.13 163 16:35 28.06.2022
2885 Clear 38 1013 18 10000 1.44 158 15:54 28.06.2022
2886 Clear 36 1013 20 10000 1.66 164 14:48 28.06.2022
2887 Clear 36 1012 19 10000 1.7 172 14:18 28.06.2022
2888 Clear 36 1013 19 10000 1.6 169 13:45 28.06.2022
2889 Clear 37 1012 17 10000 1.81 181 11:58 28.06.2022
2890 Clear 39 1012 15 10000 2.54 191 09:50 28.06.2022
2891 Clear 39 1012 13 10000 2.61 195 08:54 28.06.2022
2892 Clear 40 1012 12 10000 2.79 192 08:26 28.06.2022
2893 Clear 41 1012 13 10000 2.77 179 07:20 28.06.2022
2894 Clear 44 1010 10 10000 3.48 167 02:42 28.06.2022
2895 Clear 44 1012 10 10000 2.32 164 23:49 27.06.2022
2896 Clear 43 1013 13 10000 2.34 166 23:25 27.06.2022
2897 Clear 42 1014 15 10000 2.15 166 21:53 27.06.2022
2898 Clear 41 1015 16 10000 1.99 164 21:21 27.06.2022
2899 Clear 40 1016 19 10000 1.9 159 19:54 27.06.2022
2900 Clear 38 1016 21 10000 1.82 151 18:50 27.06.2022
2901 Clear 37 1016 23 10000 1.87 143 17:33 27.06.2022
2902 Clear 35 1016 25 10000 1.58 132 15:44 27.06.2022
2903 Clear 34 1014 22 10000 2.12 155 14:18 27.06.2022
2904 Clear 35 1014 16 10000 2.8 154 12:58 27.06.2022
2905 Clear 36 1013 10 10000 2.34 141 11:40 27.06.2022
2906 Clear 38 1012 9 10000 0.88 220 09:45 27.06.2022
2907 Clear 38 1012 8 10000 1.66 195 08:43 27.06.2022
2908 Clear 39 1012 8 10000 2.2 187 07:39 27.06.2022
2909 Clear 41 1011 7 10000 2.89 170 05:50 27.06.2022
2910 Clear 44 1010 7 10000 3.5 168 01:24 27.06.2022
2911 Clear 43 1011 7 10000 2.83 164 22:59 26.06.2022
2912 Clear 42 1013 8 10000 1.83 160 21:38 26.06.2022
2913 Clear 41 1013 9 10000 1.48 160 20:33 26.06.2022
2914 Clear 39 1014 10 10000 1.05 131 18:34 26.06.2022
2915 Clear 38 1014 10 10000 0.62 113 17:47 26.06.2022
2916 Clear 36 1013 12 10000 0.81 134 15:37 26.06.2022
2917 Clear 34 1011 14 10000 0.74 269 14:23 26.06.2022
2918 Clear 34 1011 13 10000 0.83 297 13:26 26.06.2022
2919 Clear 35 1011 11 10000 0.9 225 11:49 26.06.2022
2920 Clear 35 1010 11 10000 1.36 205 10:42 26.06.2022
2921 Clear 36 1010 10 10000 1.59 201 10:22 26.06.2022
2922 Clear 37 1010 9 10000 1.6 210 08:36 26.06.2022
2923 Clear 38 1009 10 10000 2.31 177 06:31 26.06.2022
2924 Clear 43 1007 8 10000 3.34 156 00:38 26.06.2022
2925 Clear 43 1008 8 10000 3.29 156 00:19 26.06.2022
2926 Clear 43 1008 8 10000 3.29 156 23:31 25.06.2022
2927 Clear 43 1009 9 10000 2.61 157 22:48 25.06.2022
2928 Clear 42 1010 10 10000 2.01 153 22:25 25.06.2022
2929 Clear 41 1010 12 10000 1.55 148 21:21 25.06.2022
2930 Clear 41 1010 12 10000 1.55 148 20:48 25.06.2022
2931 Clear 39 1011 14 10000 1.31 147 20:25 25.06.2022
2932 Clear 37 1011 14 10000 1.03 139 18:26 25.06.2022
2933 Clear 36 1011 14 10000 0.85 158 17:27 25.06.2022
2934 Clear 35 1011 15 10000 0.66 165 16:29 25.06.2022
2935 Clear 32 1010 18 10000 0.64 145 14:43 25.06.2022
2936 Clear 33 1009 15 10000 1.26 137 12:51 25.06.2022
2937 Clear 33 1009 15 10000 1.26 137 12:32 25.06.2022
2938 Clear 36 1009 11 10000 1.86 184 09:35 25.06.2022
2939 Clear 36 1009 11 10000 1.88 186 08:55 25.06.2022
2940 Clear 37 1008 10 10000 1.99 176 08:25 25.06.2022
2941 Clear 38 1007 12 10000 2.25 188 06:36 25.06.2022
2942 Clear 41 1006 10 10000 2.04 151 01:31 25.06.2022
2943 Clear 40 1007 10 10000 1.9 150 23:58 24.06.2022
2944 Clear 39 1009 13 10000 0.99 137 22:29 24.06.2022
2945 Clear 38 1010 16 10000 0.66 109 21:28 24.06.2022
2946 Clear 37 1010 18 10000 0.62 91 20:24 24.06.2022
2947 Clear 37 1010 16 10000 0.82 119 19:39 24.06.2022
2948 Clear 36 1011 18 10000 0.69 108 19:18 24.06.2022
2949 Clear 36 1011 18 10000 0.69 108 18:46 24.06.2022
2950 Clear 35 1011 19 10000 0.63 101 18:28 24.06.2022
2951 Clear 34 1011 21 10000 0.36 85 16:48 24.06.2022
2952 Clear 31 1010 24 10000 0.73 340 14:58 24.06.2022
2953 Clear 31 1010 25 10000 1.16 346 14:24 24.06.2022
2954 Clear 31 1010 25 10000 1.16 346 13:46 24.06.2022
2955 Clear 32 1009 23 10000 0.18 28 11:42 24.06.2022
2956 Clear 33 1009 23 10000 0.41 203 10:42 24.06.2022
2957 Clear 33 1008 23 10000 0.41 240 09:42 24.06.2022
2958 Clear 34 1008 23 10000 0.55 248 08:54 24.06.2022
2959 Clear 34 1008 23 10000 0.81 255 08:32 24.06.2022
2960 Clear 36 1008 22 10000 1.09 216 06:45 24.06.2022
2961 Clouds 36 1007 21 10000 1.3 188 06:26 24.06.2022
2962 Clouds 37 1007 20 10000 0.67 185 04:50 24.06.2022
2963 Clear 39 1008 17 10000 5.33 180 23:43 23.06.2022
2964 Clear 38 1009 21 10000 3.25 166 22:43 23.06.2022
2965 Clear 37 1010 23 10000 2.26 160 21:40 23.06.2022
2966 Clear 35 1011 26 10000 1.62 154 20:42 23.06.2022
2967 Clear 33 1012 30 10000 0.92 134 19:57 23.06.2022
2968 Clear 32 1012 33 10000 0.4 79 18:43 23.06.2022
2969 Clear 31 1013 36 10000 0.61 6 17:35 23.06.2022
2970 Clear 30 1013 40 10000 0.75 30 16:32 23.06.2022
2971 Clear 27 1013 50 10000 0.42 297 15:26 23.06.2022
2972 Clear 27 1013 50 10000 0.42 297 14:45 23.06.2022
2973 Clear 27 1013 47 10000 0.74 17 11:54 23.06.2022
2974 Clear 28 1014 46 10000 1 5 10:56 23.06.2022
2975 Clear 28 1014 45 10000 1.06 359 09:20 23.06.2022
2976 Clouds 31 1014 40 10000 0.53 7 05:48 23.06.2022
2977 Clouds 34 1013 33 10000 6.95 351 01:22 23.06.2022
2978 Clouds 34 1014 33 10000 5.9 350 00:25 23.06.2022
2979 Clouds 33 1015 35 10000 4.96 339 23:22 22.06.2022
2980 Clouds 33 1015 32 10000 4.87 338 21:44 22.06.2022
2981 Clouds 34 1015 29 10000 4.35 330 20:52 22.06.2022
2982 Clouds 34 1015 27 10000 4.34 343 20:20 22.06.2022
2983 Clouds 33 1016 32 10000 5.27 354 19:44 22.06.2022
2984 Clouds 31 1016 35 10000 1.76 344 17:50 22.06.2022
2985 Clouds 32 1015 29 10000 1.78 199 16:50 22.06.2022
2986 Clouds 31 1014 26 10000 4.46 176 15:46 22.06.2022
2987 Clouds 32 1013 23 10000 2.96 157 15:22 22.06.2022
2988 Clouds 32 1012 18 10000 1.75 183 13:50 22.06.2022
2989 Clouds 33 1011 14 10000 1.19 168 13:25 22.06.2022
2990 Clouds 33 1011 14 10000 1.19 168 12:37 22.06.2022
2991 Clouds 32 1011 13 10000 1.31 148 11:47 22.06.2022
2992 Clear 32 1011 12 10000 1.37 146 10:53 22.06.2022
2993 Clear 33 1011 11 10000 0.92 163 09:44 22.06.2022
2994 Clear 34 1010 8 10000 0.83 209 07:56 22.06.2022
2995 Clear 40 1009 5 10000 0.62 135 03:25 22.06.2022
2996 Clear 40 1010 5 10000 1.06 182 01:21 22.06.2022
2997 Clear 40 1011 5 10000 0.49 204 23:39 21.06.2022
2998 Clear 39 1012 6 10000 1.08 20 21:31 21.06.2022
2999 Clouds 37 1013 7 10000 2.63 18 19:43 21.06.2022
3000 Clouds 34 1013 9 10000 3.12 10 17:57 21.06.2022
3001 Clouds 33 1013 10 10000 2.52 11 16:52 21.06.2022
3002 Clouds 29 1012 13 10000 1.43 341 12:40 21.06.2022
3003 Clouds 29 1012 13 10000 1.05 345 10:55 21.06.2022
3004 Clouds 29 1011 14 10000 0.67 0 09:40 21.06.2022
3005 Clear 30 1011 13 10000 0.6 344 08:22 21.06.2022
3006 Clear 30 1011 13 10000 0.6 344 08:22 21.06.2022
3007 Clear 31 1011 12 10000 0.95 302 05:37 21.06.2022
3008 Clear 36 1011 8 10000 0.57 100 00:37 21.06.2022
3009 Clear 34 1014 10 10000 1.55 27 22:25 20.06.2022
3010 Clear 34 1014 10 10000 1.55 27 21:50 20.06.2022
3011 Clear 33 1015 12 10000 2.59 14 20:32 20.06.2022
3012 Clear 33 1015 12 10000 2.59 14 20:32 20.06.2022
3013 Clear 32 1016 13 10000 3.51 8 19:38 20.06.2022
3014 Clear 30 1017 15 10000 3.81 11 18:44 20.06.2022
3015 Clear 29 1017 16 10000 4.4 6 17:52 20.06.2022
3016 Clear 28 1017 17 10000 4.78 358 17:29 20.06.2022
3017 Clear 26 1016 18 10000 4.01 354 15:55 20.06.2022
3018 Clear 25 1015 18 10000 2.83 356 12:44 20.06.2022
3019 Clear 26 1014 17 10000 2.51 356 10:41 20.06.2022
3020 Clear 26 1014 16 10000 3.21 358 09:41 20.06.2022
3021 Clear 28 1013 14 10000 3.95 4 08:44 20.06.2022
3022 Clear 29 1011 13 10000 1.03 203 05:55 20.06.2022
3023 Clear 33 1010 10 10000 1.07 108 02:29 20.06.2022
3024 Clear 32 1011 11 10000 1.02 112 00:26 20.06.2022
3025 Clear 31 1012 12 10000 0.87 101 22:59 19.06.2022
3026 Clear 30 1013 13 10000 1.08 103 21:58 19.06.2022
3027 Clear 30 1013 13 10000 1.08 103 21:40 19.06.2022
3028 Clear 29 1013 15 10000 0.89 97 20:39 19.06.2022
3029 Clear 28 1014 17 10000 0.79 66 19:48 19.06.2022
3030 Clear 26 1014 19 10000 0.7 54 18:57 19.06.2022
3031 Clear 26 1014 19 10000 0.7 54 18:30 19.06.2022
3032 Clear 24 1014 24 10000 0.41 92 17:22 19.06.2022
3033 Clear 24 1014 24 10000 0.41 92 16:35 19.06.2022
3034 Clear 23 1014 25 10000 0.65 201 15:43 19.06.2022
3035 Clear 21 1013 29 10000 0.42 182 15:24 19.06.2022
3036 Clear 21 1012 26 10000 0.13 18 14:20 19.06.2022
3037 Clear 21 1012 26 10000 0.13 18 13:37 19.06.2022
3038 Clear 22 1010 25 10000 0.94 208 11:40 19.06.2022
3039 Clear 22 1010 24 10000 0.56 190 10:47 19.06.2022
3040 Clear 23 1009 22 10000 2.59 208 08:54 19.06.2022
3041 Clear 24 1007 22 10000 2.91 204 08:22 19.06.2022
3042 Clear 26 1004 18 10000 7.26 189 05:59 19.06.2022
3043 Clear 32 1002 8 10000 9.38 201 02:59 19.06.2022
3044 Clear 34 1003 6 10000 7.1 193 00:26 19.06.2022
3045 Clear 34 1003 6 10000 7.1 193 23:36 18.06.2022
3046 Clear 33 1004 6 10000 6.85 190 22:55 18.06.2022
3047 Clear 33 1005 6 10000 6.51 176 21:52 18.06.2022
3048 Clear 31 1006 7 10000 5.52 169 20:50 18.06.2022
3049 Clear 30 1007 9 10000 4.66 164 19:50 18.06.2022
3050 Clear 28 1007 11 10000 3.99 167 18:54 18.06.2022
3051 Clear 28 1007 11 10000 3.99 167 18:30 18.06.2022
3052 Clear 25 1007 14 10000 3.52 172 17:28 18.06.2022
3053 Clear 24 1007 16 10000 3.27 173 15:39 18.06.2022
3054 Clear 22 1006 18 10000 3.03 179 14:50 18.06.2022
3055 Clear 22 1006 18 10000 2.74 185 13:54 18.06.2022
3056 Clear 23 1005 16 10000 3.65 196 12:25 18.06.2022
3057 Clear 24 1004 17 10000 4.38 198 10:59 18.06.2022
3058 Clouds 25 1004 17 10000 5.38 193 09:31 18.06.2022
3059 Clouds 26 1004 17 10000 5.72 191 08:40 18.06.2022
3060 Clouds 26 1003 18 10000 6.07 187 07:34 18.06.2022
3061 Clouds 31 1001 12 10000 8.25 193 05:20 18.06.2022
3062 Clouds 35 1000 9 10000 9.76 204 01:47 18.06.2022
3063 Clouds 36 1001 9 10000 11.44 209 01:21 18.06.2022
3064 Clouds 37 1001 10 10000 11.26 209 00:23 18.06.2022
3065 Clouds 37 1001 10 10000 11.26 209 00:23 18.06.2022
3066 Clouds 37 1001 10 10000 11.26 209 23:36 17.06.2022
3067 Clouds 37 1002 8 10000 8.9 200 22:29 17.06.2022
3068 Clear 36 1002 11 10000 7.84 190 20:29 17.06.2022
3069 Clear 35 1002 11 10000 7.95 180 19:24 17.06.2022
3070 Clear 35 1002 11 10000 7.95 180 19:24 17.06.2022
3071 Clear 34 1003 13 10000 7.46 174 17:56 17.06.2022
3072 Clear 33 1003 15 10000 6.8 172 16:44 17.06.2022
3073 Clear 31 1002 18 10000 5.85 176 16:25 17.06.2022
3074 Clear 31 1002 18 10000 5.85 176 15:40 17.06.2022
3075 Clear 30 1002 19 10000 5.33 178 14:23 17.06.2022
3076 Clear 30 1002 19 10000 5.33 178 13:58 17.06.2022
3077 Clear 30 1002 19 10000 5.33 178 13:38 17.06.2022
3078 Clear 32 1001 16 10000 5.02 177 12:28 17.06.2022
3079 Clear 32 1001 16 10000 5.02 177 11:55 17.06.2022
3080 Clear 32 1001 16 10000 5.02 177 11:33 17.06.2022
3081 Clear 34 1001 14 10000 5.42 181 09:36 17.06.2022
3082 Clear 35 1001 13 10000 5 180 08:26 17.06.2022
3083 Clear 36 1000 12 10000 4.85 183 06:45 17.06.2022
3084 Clear 42 999 7 10000 5.7 217 03:59 17.06.2022
3085 Clear 44 999 5 10000 9.27 202 01:56 17.06.2022
3086 Clear 45 1001 5 10000 7.25 201 23:47 16.06.2022
3087 Clear 44 1002 6 10000 6.34 197 22:42 16.06.2022
3088 Clear 42 1004 7 10000 7.1 180 21:23 16.06.2022
3089 Clear 42 1004 7 10000 7.1 180 20:55 16.06.2022
3090 Clear 42 1004 7 10000 7.1 180 20:35 16.06.2022
3091 Clear 41 1005 8 10000 6.25 167 19:41 16.06.2022
3092 Clear 38 1006 9 10000 3.97 168 18:24 16.06.2022
3093 Clear 38 1006 9 10000 3.97 168 17:43 16.06.2022
3094 Clear 37 1006 9 10000 2.96 171 16:35 16.06.2022
3095 Clear 32 1006 12 10000 2.17 170 15:22 16.06.2022
3096 Clear 32 1006 12 10000 2.17 170 14:37 16.06.2022
3097 Clear 32 1006 11 10000 2.17 167 13:22 16.06.2022
3098 Clear 32 1006 11 10000 2.17 167 12:36 16.06.2022
3099 Clear 33 1006 10 10000 1.94 167 11:51 16.06.2022
3100 Clear 33 1006 10 10000 1.94 167 11:51 16.06.2022
3101 Clear 33 1006 9 10000 1.7 171 10:55 16.06.2022
3102 Clear 34 1006 8 10000 1.74 178 09:53 16.06.2022
3103 Clear 34 1006 8 10000 1.84 181 09:21 16.06.2022
3104 Clear 34 1006 8 10000 1.84 181 08:30 16.06.2022
3105 Clear 36 1006 7 10000 1.95 171 07:26 16.06.2022
3106 Clear 38 1005 6 10000 3.1 163 04:50 16.06.2022
3107 Clear 41 1005 5 10000 2.52 160 02:20 16.06.2022
3108 Clear 41 1005 5 10000 2.52 160 01:35 16.06.2022
3109 Clear 41 1006 5 10000 1.81 151 00:56 16.06.2022
3110 Clear 40 1007 5 10000 1.17 148 23:43 15.06.2022
3111 Clear 40 1008 5 10000 0.79 137 22:38 15.06.2022
3112 Clear 38 1010 5 10000 1.31 26 21:22 15.06.2022
3113 Clear 38 1010 5 10000 1.31 26 20:44 15.06.2022
3114 Clear 36 1010 6 10000 2.41 15 20:25 15.06.2022
3115 Clear 35 1011 7 10000 3.28 10 19:29 15.06.2022
3116 Clear 34 1011 7 10000 3.5 6 17:56 15.06.2022
3117 Clear 33 1011 8 10000 3.16 5 17:25 15.06.2022
3118 Clear 31 1010 9 10000 2.18 359 15:38 15.06.2022
3119 Clear 28 1009 11 10000 1.97 351 14:23 15.06.2022
3120 Clear 28 1009 11 10000 1.92 344 12:54 15.06.2022
3121 Clear 29 1009 10 10000 1.85 341 11:58 15.06.2022
3122 Clear 30 1008 10 10000 1.34 351 10:24 15.06.2022
3123 Clear 30 1008 10 10000 1.34 351 09:45 15.06.2022
3124 Clear 30 1008 10 10000 0.83 349 08:50 15.06.2022
3125 Clear 31 1008 10 10000 0.69 322 06:36 15.06.2022
3126 Clear 33 1007 9 10000 0.3 341 04:46 15.06.2022
3127 Clear 36 1007 7 10000 0.86 135 01:55 15.06.2022
3128 Clear 36 1007 7 10000 0.68 98 00:51 15.06.2022
3129 Clear 36 1007 7 10000 0.68 98 00:51 15.06.2022
3130 Clear 35 1008 7 10000 0.67 70 23:40 14.06.2022
3131 Clear 34 1009 8 10000 0.98 43 23:21 14.06.2022
3132 Clear 33 1011 8 10000 1.67 25 22:23 14.06.2022
3133 Clear 33 1011 8 10000 1.67 25 21:40 14.06.2022
3134 Clear 32 1012 9 10000 2.68 10 20:56 14.06.2022
3135 Clear 32 1012 9 10000 2.68 10 20:32 14.06.2022
3136 Clear 29 1013 10 10000 4.76 4 19:22 14.06.2022
3137 Clear 28 1014 11 10000 5.22 1 18:25 14.06.2022
3138 Clear 27 1014 12 10000 5.48 357 16:48 14.06.2022
3139 Clear 26 1013 13 10000 4.92 355 15:50 14.06.2022
3140 Clear 24 1013 15 10000 4.09 353 15:28 14.06.2022
3141 Clear 24 1013 15 10000 4.09 353 14:40 14.06.2022
3142 Clear 24 1013 14 10000 3.46 355 13:46 14.06.2022
3143 Clear 25 1012 14 10000 3.8 355 12:48 14.06.2022
3144 Clear 25 1011 14 10000 4.29 355 11:46 14.06.2022
3145 Clear 26 1011 14 10000 4.13 359 10:49 14.06.2022
3146 Clear 27 1010 14 10000 4.22 0 10:25 14.06.2022
3147 Clear 27 1010 14 10000 4.22 0 10:25 14.06.2022
3148 Clear 28 1009 14 10000 4.02 2 08:52 14.06.2022
3149 Clear 29 1008 12 10000 4.6 9 07:58 14.06.2022
3150 Clear 35 1003 11 10000 6.53 12 06:19 14.06.2022
3151 Clear 38 1000 16 10000 2.38 172 03:36 14.06.2022
3152 Clear 39 1000 17 10000 1.27 125 01:36 14.06.2022
3153 Clear 38 1001 20 10000 1.44 137 23:51 13.06.2022
3154 Clear 36 1003 26 10000 1.49 150 22:27 13.06.2022
3155 Clear 36 1003 26 10000 1.49 150 21:59 13.06.2022
3156 Clear 35 1004 30 10000 1.56 149 21:24 13.06.2022
3157 Clear 33 1004 32 10000 1.45 146 19:42 13.06.2022
3158 Clear 32 1005 36 10000 1.75 153 18:45 13.06.2022
3159 Clear 31 1005 39 10000 1.43 159 17:52 13.06.2022
3160 Clear 30 1005 42 10000 1.7 161 17:18 13.06.2022
3161 Clear 29 1004 46 10000 1.86 191 16:22 13.06.2022
3162 Clear 27 1004 52 10000 1.8 208 14:48 13.06.2022
3163 Clear 27 1003 52 10000 1.9 200 14:18 13.06.2022
3164 Clear 28 1002 51 10000 2.8 195 13:23 13.06.2022
3165 Clear 29 1001 49 10000 3.66 201 11:50 13.06.2022
3166 Clear 30 1001 46 10000 4.35 202 10:36 13.06.2022
3167 Clear 30 1000 43 10000 4.87 201 09:42 13.06.2022
3168 Clear 31 1000 42 10000 5.48 202 08:30 13.06.2022
3169 Clouds 34 999 28 10000 6.17 208 06:35 13.06.2022
3170 Clouds 37 997 20 10000 8.5 196 04:35 13.06.2022
3171 Clouds 42 998 8 10000 14.28 221 01:44 13.06.2022
3172 Clear 43 998 6 10000 15.6 218 01:18 13.06.2022
3173 Clear 45 998 5 10000 14.32 216 23:41 12.06.2022
3174 Clear 44 999 5 10000 7.43 207 22:34 12.06.2022
3175 Clear 43 1001 6 10000 5.14 199 21:46 12.06.2022
3176 Clear 41 1002 8 10000 5.52 175 20:49 12.06.2022
3177 Clear 39 1004 10 10000 5.08 168 19:49 12.06.2022
3178 Clear 38 1004 14 10000 5.12 162 18:54 12.06.2022
3179 Clear 35 1006 18 10000 3.46 163 17:24 12.06.2022
3180 Clear 33 1006 20 10000 2.37 163 15:52 12.06.2022
3181 Clear 31 1005 23 10000 2.12 159 14:50 12.06.2022
3182 Clear 31 1005 24 10000 1.74 158 14:18 12.06.2022
3183 Clear 31 1005 24 10000 1.74 158 13:45 12.06.2022
3184 Clear 32 1005 21 10000 1.91 161 12:28 12.06.2022
3185 Clear 33 1005 20 10000 2.01 147 10:46 12.06.2022
3186 Clear 34 1005 18 10000 1.19 131 10:20 12.06.2022
3187 Clear 35 1005 16 10000 1.35 172 08:51 12.06.2022
3188 Clear 36 1005 15 10000 2.83 179 08:29 12.06.2022
3189 Clear 37 1004 14 10000 4.05 186 06:49 12.06.2022
3190 Clear 43 1003 7 10000 6.64 191 04:26 12.06.2022
3191 Clouds 46 1003 5 10000 9.96 212 02:27 12.06.2022
3192 Clouds 46 1002 6 10000 8.95 209 01:35 12.06.2022
3193 Clouds 46 1003 6 10000 6.76 212 00:57 12.06.2022
3194 Clouds 46 1004 7 10000 4.18 200 00:19 12.06.2022
3195 Clear 45 1005 8 10000 2.67 186 23:21 11.06.2022
3196 Clear 45 1005 8 10000 2.67 186 22:37 11.06.2022
3197 Clear 44 1006 9 10000 2.37 173 21:31 11.06.2022
3198 Clear 41 1008 12 10000 2.26 156 20:27 11.06.2022
3199 Clear 41 1009 12 10000 1.91 153 19:37 11.06.2022
3200 Clear 39 1009 13 10000 1.86 163 18:50 11.06.2022
3201 Clear 39 1009 13 10000 1.86 163 18:31 11.06.2022
3202 Clear 38 1010 15 10000 2.22 171 17:49 11.06.2022
3203 Clear 37 1010 16 10000 2.24 172 17:26 11.06.2022
3204 Clear 37 1010 16 10000 2.24 172 16:44 11.06.2022
3205 Clear 35 1009 17 10000 1.78 172 16:25 11.06.2022
3206 Clear 33 1009 20 10000 1.73 176 15:18 11.06.2022
3207 Clear 33 1009 19 10000 2.04 179 13:52 11.06.2022
3208 Clear 35 1008 16 10000 2.14 188 12:19 11.06.2022
3209 Clear 36 1008 15 10000 2.6 189 10:40 11.06.2022
3210 Clouds 37 1008 14 10000 3.18 186 09:42 11.06.2022
3211 Clouds 37 1008 13 10000 3.37 184 08:46 11.06.2022
3212 Clear 39 1007 13 10000 4.42 185 06:47 11.06.2022
3213 Clear 40 1007 12 10000 4.72 194 05:58 11.06.2022
3214 Clear 44 1005 9 10000 7.23 215 03:46 11.06.2022
3215 Clear 46 1005 9 10000 5.98 201 01:52 11.06.2022
3216 Clear 46 1005 8 10000 5.18 200 01:26 11.06.2022
3217 Clear 45 1007 9 10000 5.23 191 23:29 10.06.2022
3218 Clear 44 1008 10 10000 4.12 172 22:29 10.06.2022
3219 Clear 44 1008 10 10000 4.12 172 21:47 10.06.2022
3220 Clear 43 1009 11 10000 3.16 163 20:39 10.06.2022
3221 Clear 42 1009 12 10000 2.45 162 20:21 10.06.2022
3222 Clear 40 1010 13 10000 2.31 161 19:19 10.06.2022
3223 Clear 40 1010 13 10000 2.31 161 19:19 10.06.2022
3224 Clear 40 1010 13 10000 2.31 161 18:55 10.06.2022
3225 Clear 39 1010 14 10000 1.66 160 17:55 10.06.2022
3226 Clear 39 1010 14 10000 1.66 160 17:32 10.06.2022
3227 Clear 37 1010 15 10000 1.11 172 16:36 10.06.2022
3228 Clear 36 1010 16 10000 0.63 198 15:40 10.06.2022
3229 Clouds 33 1008 19 10000 1.39 171 14:29 10.06.2022
3230 Clouds 33 1008 19 10000 1.07 152 13:23 10.06.2022
3231 Clouds 34 1008 18 10000 1.2 164 11:59 10.06.2022
3232 Clouds 35 1008 17 10000 1.4 169 10:59 10.06.2022
3233 Clouds 36 1007 16 10000 1.49 176 10:24 10.06.2022
3234 Clouds 36 1007 15 10000 1.68 182 08:58 10.06.2022
3235 Clouds 37 1007 13 10000 1.62 183 07:51 10.06.2022
3236 Clouds 38 1006 12 10000 2.07 188 06:47 10.06.2022
3237 Clouds 38 1006 10 10000 2.41 192 06:28 10.06.2022
3238 Clouds 39 1005 9 10000 2.99 210 04:55 10.06.2022
3239 Clouds 43 1005 6 10000 4.91 201 02:31 10.06.2022
3240 Clouds 44 1005 6 10000 5.15 205 01:37 10.06.2022
3241 Clouds 44 1005 6 10000 4.69 184 23:58 09.06.2022
3242 Clouds 43 1006 7 10000 5.19 174 22:43 09.06.2022
3243 Clouds 43 1007 7 10000 4.67 167 21:43 09.06.2022
3244 Clouds 41 1007 8 10000 4.37 159 21:24 09.06.2022
3245 Clouds 41 1007 8 10000 4.37 159 20:38 09.06.2022
3246 Clouds 40 1008 9 10000 3.32 159 19:46 09.06.2022
3247 Clouds 38 1008 9 10000 2.74 164 18:37 09.06.2022
3248 Clouds 37 1009 10 10000 2.13 172 17:31 09.06.2022
3249 Clouds 34 1008 12 10000 1.4 171 16:28 09.06.2022
3250 Clear 31 1007 15 10000 1.27 164 15:22 09.06.2022
3251 Clear 31 1007 15 10000 1.27 164 14:30 09.06.2022
3252 Clouds 31 1007 14 10000 1.31 156 13:44 09.06.2022
3253 Clouds 31 1006 13 10000 1.61 153 13:19 09.06.2022
3254 Clouds 32 1005 12 10000 2.22 162 11:35 09.06.2022
3255 Clouds 34 1005 11 10000 2.24 179 09:55 09.06.2022
3256 Clouds 34 1005 11 10000 2.24 179 09:55 09.06.2022
3257 Clouds 34 1005 11 10000 2.24 179 09:37 09.06.2022
3258 Clear 35 1004 11 10000 2.49 178 08:38 09.06.2022
3259 Clouds 37 1003 10 10000 2.73 187 07:29 09.06.2022
3260 Clouds 39 1002 7 10000 4.45 193 04:30 09.06.2022
3261 Clear 44 1002 5 10000 5.21 197 00:35 09.06.2022
3262 Clear 44 1004 6 10000 6.1 177 23:23 08.06.2022
3263 Clear 44 1004 6 10000 6.1 177 22:44 08.06.2022
3264 Clear 43 1005 7 10000 5.39 171 22:24 08.06.2022
3265 Clear 43 1005 7 10000 5.39 171 21:40 08.06.2022
3266 Clear 40 1007 12 10000 3.34 164 20:25 08.06.2022
3267 Clear 40 1007 13 10000 3.45 165 19:46 08.06.2022
3268 Clear 38 1007 14 10000 2.86 164 18:48 08.06.2022
3269 Clear 37 1008 15 10000 2.05 167 17:46 08.06.2022
3270 Clear 34 1007 18 10000 1.16 193 16:18 08.06.2022
3271 Clear 32 1007 21 10000 1.35 173 14:46 08.06.2022
3272 Clouds 33 1006 18 10000 1.79 160 12:55 08.06.2022
3273 Clouds 33 1006 18 10000 1.79 160 12:55 08.06.2022
3274 Clouds 33 1006 17 10000 1.92 170 11:44 08.06.2022
3275 Clouds 34 1006 17 10000 1.95 178 11:19 08.06.2022
3276 Clouds 35 1006 17 10000 1.93 183 09:45 08.06.2022
3277 Clouds 36 1006 16 10000 2.17 185 09:18 08.06.2022
3278 Clear 37 1005 12 10000 2.24 190 07:22 08.06.2022
3279 Clear 39 1004 10 10000 2.88 151 04:51 08.06.2022
3280 Clouds 42 1004 8 10000 2.51 157 02:19 08.06.2022
3281 Clouds 42 1005 9 10000 1.54 148 23:41 07.06.2022
3282 Clouds 41 1005 9 10000 1.22 139 23:22 07.06.2022
3283 Clouds 41 1005 9 10000 1.22 139 22:38 07.06.2022
3284 Clear 40 1006 9 10000 1.03 118 21:45 07.06.2022
3285 Clear 39 1007 10 10000 0.95 93 21:24 07.06.2022
3286 Clear 39 1007 10 10000 0.95 93 20:43 07.06.2022
3287 Clear 38 1008 12 10000 0.83 92 19:59 07.06.2022
3288 Clear 36 1008 18 10000 1.01 123 18:42 07.06.2022
3289 Clear 34 1008 21 10000 0.83 121 17:51 07.06.2022
3290 Clear 33 1008 22 10000 0.75 142 16:54 07.06.2022
3291 Clear 33 1008 22 10000 0.75 142 16:32 07.06.2022
3292 Clear 32 1008 22 10000 0.35 54 15:40 07.06.2022
3293 Clear 30 1007 26 10000 0.64 349 15:21 07.06.2022
3294 Clear 30 1007 26 10000 0.64 349 14:45 07.06.2022
3295 Clear 30 1006 26 10000 0.81 317 13:46 07.06.2022
3296 Clear 31 1005 26 10000 1.01 151 13:26 07.06.2022
3297 Clear 32 1005 24 10000 1.09 152 11:56 07.06.2022
3298 Clear 32 1005 24 10000 1.09 152 11:56 07.06.2022
3299 Clear 33 1004 23 10000 1.36 173 10:57 07.06.2022
3300 Clear 34 1004 21 10000 1.74 183 09:46 07.06.2022
3301 Clear 34 1004 19 10000 2.04 179 08:31 07.06.2022
3302 Clouds 36 1003 17 10000 3.01 180 07:19 07.06.2022
3303 Clouds 37 1002 16 10000 0.6 123 05:19 07.06.2022
3304 Clouds 40 1002 14 10000 0.86 138 01:44 07.06.2022
3305 Clouds 40 1004 14 10000 0.86 137 00:20 07.06.2022
3306 Clouds 39 1004 15 10000 0.96 103 23:25 06.06.2022
3307 Clouds 39 1004 15 10000 0.96 103 22:37 06.06.2022
3308 Clouds 38 1006 16 10000 1.08 66 21:33 06.06.2022
3309 Clear 35 1007 23 10000 0.83 95 19:53 06.06.2022
3310 Clear 34 1008 27 10000 0.84 102 19:19 06.06.2022
3311 Clear 34 1008 27 10000 0.84 102 18:34 06.06.2022
3312 Clear 32 1008 29 10000 0.84 143 17:36 06.06.2022
3313 Clear 31 1008 30 10000 0.84 152 16:33 06.06.2022
3314 Clear 30 1007 31 10000 1.3 167 15:39 06.06.2022
3315 Clear 28 1007 34 10000 0.61 164 14:39 06.06.2022
3316 Clear 29 1005 33 10000 0.44 163 13:27 06.06.2022
3317 Clear 29 1005 33 10000 0.44 163 12:38 06.06.2022
3318 Clear 29 1005 32 10000 0.67 86 12:19 06.06.2022
3319 Clear 29 1005 32 10000 0.67 86 11:42 06.06.2022
3320 Clear 31 1004 28 10000 1.33 138 09:41 06.06.2022
3321 Clear 32 1003 24 10000 2.43 163 08:35 06.06.2022
3322 Clouds 33 1003 21 10000 3.12 164 07:40 06.06.2022
3323 Clouds 36 1001 18 10000 3.05 176 05:34 06.06.2022
3324 Clouds 39 1001 15 10000 2.74 145 03:47 06.06.2022
3325 Clouds 40 1001 14 10000 3.01 152 01:30 06.06.2022
3326 Clouds 40 1002 15 10000 3.59 155 00:43 06.06.2022
3327 Clouds 39 1003 16 10000 3.23 154 00:19 06.06.2022
3328 Clouds 38 1004 17 10000 2.92 155 22:57 05.06.2022
3329 Clouds 37 1005 19 10000 2.94 160 21:56 05.06.2022
3330 Clouds 35 1007 23 10000 2.55 158 20:23 05.06.2022
3331 Clouds 33 1007 25 10000 2.2 162 18:47 05.06.2022
3332 Clouds 32 1008 27 10000 2.1 169 17:58 05.06.2022
3333 Clouds 32 1008 27 10000 2.1 169 17:38 05.06.2022
3334 Clouds 30 1008 29 10000 2.2 167 17:19 05.06.2022
3335 Clouds 30 1008 29 10000 2.2 167 16:46 05.06.2022
3336 Clouds 28 1007 33 10000 1.41 172 14:59 05.06.2022
3337 Clouds 28 1006 33 10000 1.5 151 13:55 05.06.2022
3338 Clouds 29 1005 32 10000 1.45 152 11:58 05.06.2022
3339 Clouds 30 1005 30 10000 1.74 153 10:45 05.06.2022
3340 Clouds 30 1005 29 10000 1.67 159 10:24 05.06.2022
3341 Clouds 31 1005 28 10000 2.17 164 09:29 05.06.2022
3342 Clouds 32 1004 27 10000 2.26 170 08:23 05.06.2022
3343 Clouds 33 1003 22 10000 0.71 253 05:58 05.06.2022
3344 Clouds 35 1002 19 10000 1.2 349 05:19 05.06.2022
3345 Clouds 37 1002 17 10000 1.94 126 02:23 05.06.2022
3346 Clouds 37 1002 17 10000 3.26 150 01:23 05.06.2022
3347 Clouds 36 1004 19 10000 3.47 157 22:49 04.06.2022
3348 Clouds 34 1006 24 10000 3.49 161 21:25 04.06.2022
3349 Clouds 31 1007 28 10000 2.58 163 19:27 04.06.2022
3350 Clouds 29 1007 32 10000 1.73 167 16:48 04.06.2022
3351 Clouds 28 1006 35 10000 1.42 155 16:20 04.06.2022
3352 Clouds 28 1006 35 10000 1.42 155 15:39 04.06.2022
3353 Clouds 26 1005 38 10000 1.16 129 13:59 04.06.2022
3354 Clouds 27 1005 32 10000 1.5 135 11:41 04.06.2022
3355 Clouds 28 1004 29 10000 2.09 146 10:54 04.06.2022
3356 Clouds 29 1004 26 10000 2.77 161 09:59 04.06.2022
3357 Clouds 29 1004 26 10000 2.77 161 09:38 04.06.2022
3358 Clouds 30 1004 24 10000 3.39 169 08:39 04.06.2022
3359 Clouds 32 1002 19 10000 4.67 175 07:00 04.06.2022
3360 Clouds 37 1000 11 10000 6.7 189 04:29 04.06.2022
3361 Clouds 39 1002 9 10000 4.76 160 00:24 04.06.2022
3362 Clouds 38 1003 10 10000 4.87 162 23:19 03.06.2022
3363 Clouds 37 1004 11 10000 4.12 158 21:54 03.06.2022
3364 Clouds 36 1005 12 10000 3.01 157 20:42 03.06.2022
3365 Clouds 36 1005 12 10000 3.01 157 20:42 03.06.2022
3366 Clouds 35 1005 12 10000 2.89 158 19:58 03.06.2022
3367 Clouds 31 1006 15 10000 1.81 164 17:00 03.06.2022
3368 Clouds 31 1006 15 10000 1.81 164 16:30 03.06.2022
3369 Clouds 28 1005 18 10000 1.21 165 14:52 03.06.2022
3370 Clouds 29 1004 16 10000 1.46 196 12:28 03.06.2022
3371 Clouds 31 1003 13 10000 2.17 202 10:18 03.06.2022
3372 Clouds 31 1003 13 10000 2.17 202 09:30 03.06.2022
3373 Clouds 33 1003 12 10000 3.27 181 07:53 03.06.2022
3374 Clouds 34 1003 11 10000 3.04 178 07:20 03.06.2022
3375 Clouds 34 1003 11 10000 3.04 178 06:30 03.06.2022
3376 Clouds 36 1002 9 10000 5 197 04:40 03.06.2022
3377 Clouds 40 1003 7 10000 4.79 190 00:22 03.06.2022
3378 Clouds 39 1004 8 10000 4.41 178 22:35 02.06.2022
3379 Clouds 38 1005 8 10000 3.5 168 21:34 02.06.2022
3380 Clear 36 1007 9 10000 1.95 162 20:22 02.06.2022
3381 Clear 36 1007 9 10000 1.95 162 19:42 02.06.2022
3382 Clear 34 1008 10 10000 1.79 157 19:19 02.06.2022
3383 Clear 32 1008 11 10000 1.03 143 16:46 02.06.2022
3384 Clear 31 1008 12 10000 0.76 162 16:20 02.06.2022
3385 Clear 26 1008 14 10000 0.47 124 13:56 02.06.2022
3386 Clear 27 1007 14 10000 0.04 56 13:29 02.06.2022
3387 Clear 29 1007 12 10000 0.75 190 11:22 02.06.2022
3388 Clear 29 1008 11 10000 1.45 188 10:20 02.06.2022
3389 Clear 30 1008 11 10000 1.68 186 09:27 02.06.2022
3390 Clear 30 1008 11 10000 1.69 181 08:26 02.06.2022
3391 Clear 31 1008 10 10000 1.54 186 06:59 02.06.2022
3392 Clear 32 1007 10 10000 1.29 198 04:49 02.06.2022
3393 Clear 36 1007 7 10000 0.66 74 02:37 02.06.2022
3394 Clear 35 1009 8 10000 1.51 12 23:43 01.06.2022
3395 Clear 34 1010 8 10000 2.04 3 22:31 01.06.2022
3396 Clear 33 1011 9 10000 2.61 1 21:32 01.06.2022
3397 Clear 32 1013 10 10000 2.97 4 20:40 01.06.2022
3398 Clear 31 1013 12 10000 3.1 18 19:59 01.06.2022
3399 Clear 30 1014 13 10000 3.37 23 19:25 01.06.2022
3400 Clear 29 1014 15 10000 3.66 23 17:44 01.06.2022
3401 Clear 28 1014 17 10000 3.65 16 16:34 01.06.2022
3402 Clear 24 1013 20 10000 2.76 5 14:54 01.06.2022
3403 Clear 25 1013 18 10000 2.85 2 13:51 01.06.2022
3404 Clear 25 1012 13 10000 3.3 1 12:26 01.06.2022
3405 Clear 27 1011 11 10000 2.7 354 09:41 01.06.2022
3406 Clear 27 1011 11 10000 2.32 352 08:40 01.06.2022
3407 Clear 29 1010 10 10000 2.09 359 07:23 01.06.2022
3408 Clear 29 1009 10 10000 2.04 331 05:52 01.06.2022
3409 Clear 33 1008 9 10000 3.91 337 00:40 01.06.2022
3410 Clear 32 1009 12 10000 4.79 336 23:28 31.05.2022
3411 Clear 32 1009 12 10000 4.79 336 22:37 31.05.2022
3412 Clear 31 1009 13 10000 5.02 336 21:45 31.05.2022
3413 Clear 30 1010 15 10000 5.15 341 20:45 31.05.2022
3414 Clear 29 1010 17 10000 5.5 346 20:18 31.05.2022
3415 Clear 28 1011 17 10000 5.69 356 18:53 31.05.2022
3416 Clear 26 1011 18 10000 6.1 3 17:50 31.05.2022
3417 Clear 25 1011 19 10000 6.11 1 16:57 31.05.2022
3418 Clear 23 1010 18 10000 5.39 355 15:41 31.05.2022
3419 Clear 22 1008 21 10000 3.57 355 14:18 31.05.2022
3420 Clear 24 1006 17 10000 3.78 353 12:20 31.05.2022
3421 Clear 25 1006 15 10000 3.01 340 10:55 31.05.2022
3422 Clear 25 1005 14 10000 1.42 8 09:31 31.05.2022
3423 Clear 27 1004 12 10000 0.55 147 07:25 31.05.2022
3424 Clear 28 1003 12 10000 0.53 122 05:20 31.05.2022
3425 Clear 31 1003 10 10000 0.64 81 01:35 31.05.2022
3426 Clear 30 1005 11 10000 0.88 81 23:27 30.05.2022
3427 Clear 30 1005 11 10000 0.88 81 22:56 30.05.2022
3428 Clear 29 1006 12 10000 1.13 57 21:59 30.05.2022
3429 Clear 29 1006 12 10000 1.13 57 21:33 30.05.2022
3430 Clear 27 1008 14 10000 2.31 32 20:20 30.05.2022
3431 Clear 26 1009 14 10000 2.66 20 18:41 30.05.2022
3432 Clear 24 1009 15 10000 2.81 20 17:38 30.05.2022
3433 Clear 23 1009 16 10000 2.25 22 16:44 30.05.2022
3434 Clear 21 1008 18 10000 1.25 23 14:51 30.05.2022
3435 Clear 22 1007 17 10000 1.61 21 12:29 30.05.2022
3436 Clear 22 1007 16 10000 1.84 21 10:47 30.05.2022
3437 Clear 23 1007 15 10000 2.09 13 09:39 30.05.2022
3438 Clear 26 1005 12 10000 3.2 37 07:23 30.05.2022
3439 Clear 27 1004 11 10000 4.08 41 05:50 30.05.2022
3440 Clear 34 998 10 10000 1.5 79 02:24 30.05.2022
3441 Clear 33 1001 14 10000 1.15 98 23:23 29.05.2022
3442 Clear 33 1001 14 10000 1.15 98 22:39 29.05.2022
3443 Clear 31 1002 17 10000 1.15 108 21:19 29.05.2022
3444 Clear 29 1004 19 10000 0.85 82 19:38 29.05.2022
3445 Clear 28 1004 22 10000 1.6 44 19:18 29.05.2022
3446 Clear 27 1004 23 10000 2.05 41 17:41 29.05.2022
3447 Clear 25 1003 27 10000 0.83 17 15:49 29.05.2022
3448 Clear 23 1002 31 10000 0.83 329 15:28 29.05.2022
3449 Clear 23 1001 33 10000 0.58 69 14:23 29.05.2022
3450 Clear 25 1000 29 10000 1.1 139 11:55 29.05.2022
3451 Clear 26 1000 27 10000 2.3 166 10:44 29.05.2022
3452 Clear 27 999 26 10000 2.66 177 09:52 29.05.2022
3453 Clouds 30 998 23 10000 4.24 195 06:57 29.05.2022
3454 Clouds 33 997 20 10000 4.74 175 04:49 29.05.2022
3455 Clouds 36 996 17 10000 3.9 165 04:24 29.05.2022
3456 Clouds 36 998 15 10000 3.01 154 00:35 29.05.2022
3457 Clouds 36 1000 16 10000 2.54 151 23:42 28.05.2022
3458 Clouds 35 1001 17 10000 2.23 152 22:46 28.05.2022
3459 Clouds 34 1002 19 10000 2.59 161 21:42 28.05.2022
3460 Clouds 33 1003 21 10000 2.82 156 20:30 28.05.2022
3461 Clouds 30 1005 27 10000 2.18 163 19:18 28.05.2022
3462 Clouds 29 1006 30 10000 1.68 172 17:48 28.05.2022
3463 Clouds 28 1006 32 10000 2.11 167 16:57 28.05.2022
3464 Clouds 27 1005 35 10000 2.13 155 15:45 28.05.2022
3465 Clouds 25 1005 37 10000 2.25 153 15:19 28.05.2022
3466 Clouds 26 1004 35 10000 2.28 149 13:26 28.05.2022
3467 Clouds 26 1004 35 10000 2.28 149 12:41 28.05.2022
3468 Clouds 28 1003 32 10000 2.3 192 11:28 28.05.2022
3469 Clouds 28 1003 32 10000 2.3 192 10:32 28.05.2022
3470 Clouds 28 1004 31 10000 3.54 204 09:39 28.05.2022
3471 Clouds 30 1003 24 10000 5.04 198 07:53 28.05.2022
3472 Clouds 31 1004 21 10000 5.62 191 06:32 28.05.2022
3473 Clouds 35 1003 16 10000 7.67 187 04:39 28.05.2022
3474 Clouds 39 1003 10 10000 10.88 201 01:30 28.05.2022
3475 Clouds 40 1005 9 10000 7.4 196 23:53 27.05.2022
3476 Clouds 40 1006 9 10000 7.16 186 22:32 27.05.2022
3477 Clouds 38 1008 13 10000 4.89 163 21:22 27.05.2022
3478 Clouds 38 1008 13 10000 4.89 163 20:42 27.05.2022
3479 Clouds 36 1009 17 10000 3.69 162 20:18 27.05.2022
3480 Clouds 36 1009 17 10000 3.71 162 19:36 27.05.2022
3481 Clouds 34 1010 19 10000 2.92 165 19:18 27.05.2022
3482 Clouds 32 1010 22 10000 2.04 159 16:43 27.05.2022
3483 Clouds 30 1010 23 10000 1.27 165 15:55 27.05.2022
3484 Clouds 28 1009 25 10000 0.67 164 14:47 27.05.2022
3485 Clouds 28 1009 24 10000 0.55 147 13:40 27.05.2022
3486 Clouds 31 1008 19 10000 3.19 182 11:53 27.05.2022
3487 Clouds 31 1008 18 10000 3.97 180 11:27 27.05.2022
3488 Clouds 31 1008 18 10000 3.97 180 10:38 27.05.2022
3489 Clouds 32 1008 18 10000 4.21 185 09:58 27.05.2022
3490 Clouds 32 1008 17 10000 4.35 187 09:28 27.05.2022
3491 Clouds 33 1007 16 10000 4.44 188 07:30 27.05.2022
3492 Clear 39 1004 10 10000 7.02 205 03:38 27.05.2022
3493 Clouds 42 1004 9 10000 9.24 205 01:19 27.05.2022
3494 Clouds 42 1005 9 10000 6.89 200 23:23 26.05.2022
3495 Clear 41 1006 10 10000 6.65 178 21:53 26.05.2022
3496 Clear 41 1007 10 10000 7 170 21:27 26.05.2022
3497 Clouds 40 1008 10 10000 6.44 164 19:34 26.05.2022
3498 Clouds 38 1008 11 10000 5.02 164 18:45 26.05.2022
3499 Clouds 37 1008 12 10000 3.95 163 17:36 26.05.2022
3500 Clouds 34 1008 14 10000 2 163 16:18 26.05.2022
3501 Clouds 31 1007 16 10000 2.02 161 15:24 26.05.2022
3502 Clouds 31 1007 16 10000 2.07 162 14:19 26.05.2022
3503 Clouds 32 1006 15 10000 2.15 165 12:18 26.05.2022
3504 Clouds 33 1006 14 10000 2.17 174 11:20 26.05.2022
3505 Clouds 34 1006 13 10000 2.32 175 09:39 26.05.2022
3506 Clouds 34 1006 12 10000 2.35 176 08:48 26.05.2022
3507 Clouds 37 1005 9 10000 2.63 172 05:43 26.05.2022
3508 Clouds 41 1005 7 10000 3.68 170 02:51 26.05.2022
3509 Clear 40 1006 8 10000 1.18 136 23:57 25.05.2022
3510 Clear 40 1007 8 10000 0.83 113 22:53 25.05.2022
3511 Clear 39 1008 8 10000 0.92 71 21:42 25.05.2022
3512 Clear 38 1009 9 10000 1.18 47 20:49 25.05.2022
3513 Clear 37 1010 9 10000 1.69 32 19:45 25.05.2022
3514 Clear 36 1010 10 10000 2.14 27 18:48 25.05.2022
3515 Clear 34 1010 11 10000 2.51 12 17:26 25.05.2022
3516 Clear 34 1010 11 10000 2.51 12 16:34 25.05.2022
3517 Clear 32 1010 12 10000 1.95 360 15:36 25.05.2022
3518 Clear 29 1010 14 10000 2.2 357 14:50 25.05.2022
3519 Clear 29 1010 14 10000 2.2 357 14:32 25.05.2022
3520 Clear 30 1008 12 10000 1.99 358 13:27 25.05.2022
3521 Clear 30 1008 12 10000 1.59 350 11:50 25.05.2022
3522 Clear 31 1007 12 10000 1.6 343 10:42 25.05.2022
3523 Clear 31 1007 11 10000 1.15 335 09:46 25.05.2022
3524 Clouds 32 1007 11 10000 0.53 244 08:21 25.05.2022
3525 Clouds 33 1007 10 10000 1.32 207 06:37 25.05.2022
3526 Clouds 37 1006 7 10000 0.92 128 02:46 25.05.2022
3527 Clouds 37 1007 7 10000 0.99 71 23:52 24.05.2022
3528 Clouds 37 1008 7 10000 1.05 66 23:23 24.05.2022
3529 Clouds 36 1009 7 10000 0.86 64 22:18 24.05.2022
3530 Clouds 36 1009 7 10000 0.86 64 21:38 24.05.2022
3531 Clouds 35 1010 8 10000 0.78 55 21:19 24.05.2022
3532 Clouds 34 1010 9 10000 1.45 29 19:32 24.05.2022
3533 Clear 33 1011 10 10000 1.88 23 18:49 24.05.2022
3534 Clear 30 1011 11 10000 3.04 12 16:40 24.05.2022
3535 Clear 29 1011 12 10000 2.27 3 16:18 24.05.2022
3536 Clear 26 1010 14 10000 2.39 356 14:50 24.05.2022
3537 Clear 27 1010 14 10000 2.87 359 13:48 24.05.2022
3538 Clear 27 1010 13 10000 3.06 3 12:46 24.05.2022
3539 Clear 29 1008 11 10000 2.81 355 10:29 24.05.2022
3540 Clear 29 1008 11 10000 2.81 355 09:42 24.05.2022
3541 Clear 30 1008 11 10000 1.98 351 08:49 24.05.2022
3542 Clouds 31 1007 11 10000 1.29 343 06:56 24.05.2022
3543 Clouds 36 1005 8 10000 0.63 153 03:48 24.05.2022
3544 Clouds 37 1006 7 10000 1.03 11 01:49 24.05.2022
3545 Clouds 37 1006 7 10000 1.72 11 01:19 24.05.2022
3546 Clouds 36 1008 8 10000 1.87 3 22:51 23.05.2022
3547 Clouds 35 1009 9 10000 1.86 357 21:55 23.05.2022
3548 Clouds 34 1010 9 10000 2.68 8 21:26 23.05.2022
3549 Clear 33 1011 9 10000 3.71 11 20:26 23.05.2022
3550 Clear 33 1011 9 10000 3.71 11 19:31 23.05.2022
3551 Clear 32 1011 9 10000 3.73 14 18:57 23.05.2022
3552 Clear 31 1012 9 10000 3.91 11 18:29 23.05.2022
3553 Clear 30 1012 10 10000 3.4 7 17:20 23.05.2022
3554 Clear 26 1011 14 10000 1.76 359 14:52 23.05.2022
3555 Clouds 27 1010 15 10000 2.08 2 12:56 23.05.2022
3556 Clouds 27 1009 15 10000 1.84 351 11:31 23.05.2022
3557 Clouds 29 1009 15 10000 2.41 347 09:51 23.05.2022
3558 Clouds 29 1009 15 10000 2.41 347 09:30 23.05.2022
3559 Clouds 30 1009 14 10000 1.42 344 08:31 23.05.2022
3560 Clouds 31 1008 13 10000 1.09 142 06:46 23.05.2022
3561 Clouds 32 1007 13 10000 1.85 137 05:31 23.05.2022
3562 Clear 36 1007 10 10000 1.36 107 02:32 23.05.2022
3563 Clouds 36 1007 10 10000 1.19 107 01:37 23.05.2022
3564 Clouds 35 1008 10 10000 1.52 125 00:23 23.05.2022
3565 Clouds 35 1009 11 10000 1.84 138 22:40 22.05.2022
3566 Clouds 34 1010 11 10000 1.5 138 21:55 22.05.2022
3567 Clouds 34 1010 11 10000 1.5 138 21:32 22.05.2022
3568 Clouds 33 1011 11 10000 1.32 137 20:32 22.05.2022
3569 Clouds 31 1012 12 10000 0.85 121 19:56 22.05.2022
3570 Clouds 30 1013 13 10000 1.03 131 18:55 22.05.2022
3571 Clear 29 1013 15 10000 0.98 136 18:25 22.05.2022
3572 Clear 29 1013 15 10000 0.98 136 17:37 22.05.2022
3573 Clear 28 1013 15 10000 1.33 160 16:39 22.05.2022
3574 Clear 23 1013 17 10000 0.98 169 14:53 22.05.2022
3575 Clear 23 1012 14 10000 0.24 203 13:54 22.05.2022
3576 Clear 23 1011 14 10000 0.36 333 12:52 22.05.2022
3577 Clear 24 1011 13 10000 0.45 356 11:52 22.05.2022
3578 Clear 25 1011 13 10000 0.27 339 10:24 22.05.2022
3579 Clear 25 1011 12 10000 0.34 236 09:19 22.05.2022
3580 Clouds 26 1011 11 10000 0.4 217 07:22 22.05.2022
3581 Clouds 26 1011 11 10000 0.4 217 07:22 22.05.2022
3582 Clouds 27 1010 10 10000 0.44 269 06:27 22.05.2022
3583 Clear 31 1008 8 10000 0.47 57 02:50 22.05.2022
3584 Clear 31 1009 7 10000 0.81 128 00:44 22.05.2022
3585 Clear 31 1009 7 10000 0.83 134 23:56 21.05.2022
3586 Clear 30 1010 8 10000 0.75 95 23:21 21.05.2022
3587 Clear 30 1010 8 10000 0.75 95 23:21 21.05.2022
3588 Clear 29 1011 8 10000 1.06 52 21:55 21.05.2022
3589 Clear 28 1011 9 10000 1.35 27 21:26 21.05.2022
3590 Clear 26 1012 10 10000 1.98 15 20:27 21.05.2022
3591 Clear 27 1012 9 10000 2.01 9 19:43 21.05.2022
3592 Clear 25 1012 11 10000 2.83 16 18:31 21.05.2022
3593 Clear 23 1012 12 10000 3.27 17 16:57 21.05.2022
3594 Clear 19 1011 15 10000 2.81 354 14:38 21.05.2022
3595 Clear 20 1010 14 10000 2.94 358 13:54 21.05.2022
3596 Clear 20 1010 13 10000 2.57 6 13:19 21.05.2022
3597 Clear 20 1010 13 10000 2.57 6 12:38 21.05.2022
3598 Clear 22 1009 10 10000 2.83 11 11:20 21.05.2022
3599 Clear 23 1008 9 10000 2.15 7 09:57 21.05.2022
3600 Clear 23 1008 9 10000 2.15 348 08:59 21.05.2022
3601 Clear 23 1008 9 10000 2.15 348 08:37 21.05.2022
3602 Clear 26 1006 9 10000 1.85 32 05:52 21.05.2022
3603 Clouds 30 1004 9 10000 5.12 13 01:33 21.05.2022
3604 Clouds 29 1005 10 10000 6.18 8 23:32 20.05.2022
3605 Clouds 28 1006 11 10000 6.18 9 22:29 20.05.2022
3606 Clouds 28 1006 11 10000 6.18 9 21:56 20.05.2022
3607 Clouds 27 1006 12 10000 6.23 12 21:19 20.05.2022
3608 Clouds 27 1006 12 10000 6.23 12 20:45 20.05.2022
3609 Clouds 27 1006 12 10000 7.08 12 19:45 20.05.2022
3610 Clouds 26 1006 13 10000 7.42 12 18:53 20.05.2022
3611 Clouds 25 1006 12 10000 6.91 16 17:53 20.05.2022
3612 Clouds 24 1003 12 10000 5.1 15 16:23 20.05.2022
3613 Clouds 24 1003 12 10000 5.1 15 15:54 20.05.2022
3614 Clouds 24 1002 15 10000 3.91 18 14:44 20.05.2022
3615 Clouds 26 1000 18 10000 3.88 23 14:26 20.05.2022
3616 Clear 28 998 21 10000 1.99 36 11:52 20.05.2022
3617 Clear 29 998 21 10000 1.67 43 10:45 20.05.2022
3618 Clear 31 997 18 10000 0.63 70 09:27 20.05.2022
3619 Clouds 32 997 16 10000 1.35 197 08:24 20.05.2022
3620 Clouds 34 996 13 10000 2.23 201 06:42 20.05.2022
3621 Clouds 36 996 12 10000 3.37 192 05:39 20.05.2022
3622 Clouds 41 996 8 10000 3.79 165 02:41 20.05.2022
3623 Clouds 42 1000 7 10000 6.19 198 23:47 19.05.2022
3624 Clouds 42 1001 7 10000 6.4 191 22:36 19.05.2022
3625 Clouds 41 1002 8 10000 5.39 175 21:50 19.05.2022
3626 Clouds 40 1004 9 10000 4.75 171 21:24 19.05.2022
3627 Clouds 40 1004 9 10000 4.75 171 20:47 19.05.2022
3628 Clear 38 1005 11 10000 3.96 167 19:54 19.05.2022
3629 Clear 37 1006 12 10000 3.85 168 19:18 19.05.2022
3630 Clear 35 1008 13 10000 1.48 163 17:46 19.05.2022
3631 Clear 32 1008 14 10000 0.48 173 15:58 19.05.2022
3632 Clear 29 1008 17 10000 0.53 153 14:49 19.05.2022
3633 Clear 29 1008 17 10000 0.6 167 14:20 19.05.2022
3634 Clouds 31 1008 15 10000 1.25 186 11:55 19.05.2022
3635 Clouds 32 1008 14 10000 1.12 195 10:31 19.05.2022
3636 Clouds 34 1009 12 10000 2.49 191 08:46 19.05.2022
3637 Clouds 35 1009 11 10000 2.6 187 07:24 19.05.2022
3638 Clouds 39 1007 9 10000 1.99 169 04:23 19.05.2022
3639 Clear 40 1008 7 10000 0.7 104 01:28 19.05.2022
3640 Clear 40 1009 7 10000 0.76 119 23:43 18.05.2022
3641 Clear 39 1010 8 10000 0.79 108 22:44 18.05.2022
3642 Clear 38 1011 8 10000 0.76 65 21:45 18.05.2022
3643 Clear 37 1012 9 10000 1.03 33 21:23 18.05.2022
3644 Clear 36 1013 9 10000 1.43 24 20:22 18.05.2022
3645 Clear 34 1014 11 10000 1.66 17 19:18 18.05.2022
3646 Clear 33 1014 11 10000 1.57 14 18:18 18.05.2022
3647 Clear 33 1014 11 10000 1.57 14 17:40 18.05.2022
3648 Clear 32 1014 11 10000 1.21 15 17:22 18.05.2022
3649 Clear 30 1013 12 10000 0.51 25 15:58 18.05.2022
3650 Clear 30 1013 12 10000 0.51 25 15:37 18.05.2022
3651 Clear 27 1011 13 10000 0.26 184 14:25 18.05.2022
3652 Clear 28 1011 14 10000 0.56 294 12:58 18.05.2022
3653 Clear 28 1011 14 10000 0.56 294 12:39 18.05.2022
3654 Clear 29 1010 14 10000 1.2 274 11:33 18.05.2022
3655 Clear 29 1010 14 10000 0.64 303 10:49 18.05.2022
3656 Clear 32 1009 12 10000 0.91 134 08:27 18.05.2022
3657 Clear 32 1008 11 10000 0.77 159 07:28 18.05.2022
3658 Clear 34 1006 10 10000 3.07 169 04:33 18.05.2022
3659 Clear 38 1006 8 10000 1.5 145 00:52 18.05.2022
3660 Clear 37 1007 8 10000 1.1 137 00:18 18.05.2022
3661 Clear 35 1009 10 10000 1.07 127 21:24 17.05.2022
3662 Clear 35 1009 10 10000 1.07 127 20:57 17.05.2022
3663 Clear 33 1009 12 10000 1.32 138 19:49 17.05.2022
3664 Clear 32 1010 13 10000 1.29 145 19:26 17.05.2022
3665 Clear 31 1010 15 10000 1.59 154 17:49 17.05.2022
3666 Clouds 29 1010 17 10000 1.28 158 16:58 17.05.2022
3667 Clouds 28 1009 18 10000 0.5 181 16:29 17.05.2022
3668 Clear 26 1008 21 10000 0.08 177 15:24 17.05.2022
3669 Clear 26 1008 21 10000 0.08 177 14:30 17.05.2022
3670 Clear 26 1008 21 10000 0.08 177 14:30 17.05.2022
3671 Clear 26 1008 21 10000 0.08 177 14:30 17.05.2022
3672 Clear 26 1007 21 10000 0.09 120 13:32 17.05.2022
3673 Clear 29 1005 17 10000 2.61 167 11:21 17.05.2022
3674 Clear 31 1005 15 10000 3.47 179 09:23 17.05.2022
3675 Clear 33 1005 14 10000 3.33 187 07:59 17.05.2022
3676 Clear 34 1004 12 10000 2.99 182 06:45 17.05.2022
3677 Clear 39 1003 7 10000 3.2 162 02:55 17.05.2022
3678 Clear 40 1003 8 10000 2.86 153 00:32 17.05.2022
3679 Clouds 38 1005 10 10000 2.13 147 22:42 16.05.2022
3680 Clouds 37 1006 11 10000 1.85 140 21:37 16.05.2022
3681 Clouds 36 1007 12 10000 1.57 139 20:46 16.05.2022
3682 Clouds 34 1009 15 10000 1.27 149 19:22 16.05.2022
3683 Clouds 32 1009 16 10000 1.11 145 18:18 16.05.2022
3684 Clouds 29 1008 18 10000 0.1 199 15:49 16.05.2022
3685 Clear 26 1007 23 10000 0.26 123 13:49 16.05.2022
3686 Clear 27 1007 22 10000 0.92 165 13:20 16.05.2022
3687 Clear 29 1006 20 10000 0.76 163 11:20 16.05.2022
3688 Clear 30 1006 19 10000 1.91 185 09:30 16.05.2022
3689 Clouds 33 1006 11 10000 2.64 185 06:47 16.05.2022
3690 Clouds 38 1004 6 10000 4.13 205 03:58 16.05.2022
3691 Clouds 40 1006 5 10000 3.8 167 23:30 15.05.2022
3692 Clouds 40 1007 5 10000 3.63 158 22:30 15.05.2022
3693 Clouds 39 1008 4 10000 2.77 156 21:46 15.05.2022
3694 Clouds 38 1009 5 10000 2.35 162 20:54 15.05.2022
3695 Clouds 37 1010 5 10000 1.61 156 19:32 15.05.2022
3696 Clouds 34 1011 6 10000 0.65 140 17:51 15.05.2022
3697 Clouds 30 1011 8 10000 0.69 184 15:59 15.05.2022
3698 Clouds 27 1010 9 10000 0.39 139 13:58 15.05.2022
3699 Clouds 28 1010 9 10000 0.35 151 12:50 15.05.2022
3700 Clouds 29 1010 8 10000 0.56 190 11:39 15.05.2022
3701 Clear 30 1010 8 10000 1.12 186 10:27 15.05.2022
3702 Clear 31 1011 7 10000 1.19 180 08:45 15.05.2022
3703 Clear 32 1011 7 10000 1.41 190 06:58 15.05.2022
3704 Clear 33 1010 6 10000 1.89 182 05:47 15.05.2022
3705 Clear 38 1010 5 10000 1.07 122 00:49 15.05.2022
3706 Clear 38 1011 5 10000 0.94 115 23:39 14.05.2022
3707 Clear 37 1012 6 10000 0.86 102 22:59 14.05.2022
3708 Clear 35 1014 6 10000 0.67 73 21:29 14.05.2022
3709 Clear 35 1014 6 10000 0.67 73 20:53 14.05.2022
3710 Clear 34 1015 7 10000 0.74 56 19:39 14.05.2022
3711 Clear 33 1015 7 10000 0.69 57 19:19 14.05.2022
3712 Clear 33 1015 7 10000 0.69 57 18:44 14.05.2022
3713 Clear 30 1015 8 10000 0.31 126 16:46 14.05.2022
3714 Clear 28 1015 11 10000 0.2 343 15:33 14.05.2022
3715 Clear 24 1014 13 10000 0.79 350 14:34 14.05.2022
3716 Clear 25 1013 14 10000 0.64 341 12:34 14.05.2022
3717 Clear 25 1013 14 10000 0.42 342 11:35 14.05.2022
3718 Clear 27 1013 12 10000 0.63 187 10:21 14.05.2022
3719 Clear 27 1013 12 10000 0.63 187 09:54 14.05.2022
3720 Clear 27 1014 11 10000 1.11 179 08:49 14.05.2022
3721 Clear 28 1013 10 10000 0.86 169 06:47 14.05.2022
3722 Clear 34 1012 6 10000 1.96 148 02:46 14.05.2022
3723 Clear 34 1014 7 10000 1.43 145 23:45 13.05.2022
3724 Clear 33 1015 7 10000 1.27 135 23:18 13.05.2022
3725 Clear 33 1015 7 10000 1.27 135 22:43 13.05.2022
3726 Clear 32 1016 7 10000 0.76 97 22:18 13.05.2022
3727 Clear 30 1017 7 10000 0.76 58 20:49 13.05.2022
3728 Clear 29 1018 8 10000 1.31 23 20:27 13.05.2022
3729 Clear 29 1017 8 10000 1.3 22 19:34 13.05.2022
3730 Clear 26 1018 9 10000 1.37 9 17:53 13.05.2022
3731 Clear 25 1018 10 10000 0.58 19 17:29 13.05.2022
3732 Clear 23 1018 12 10000 0.61 345 16:23 13.05.2022
3733 Clear 23 1018 12 10000 0.61 345 15:39 13.05.2022
3734 Clear 19 1017 15 10000 0.8 350 13:54 13.05.2022
3735 Clear 19 1017 15 10000 0.9 356 12:32 13.05.2022
3736 Clear 20 1017 14 10000 0.26 356 11:23 13.05.2022
3737 Clear 20 1017 14 10000 0.39 343 09:35 13.05.2022
3738 Clear 21 1017 13 10000 0.33 65 08:50 13.05.2022
3739 Clouds 21 1017 13 10000 0.23 167 07:48 13.05.2022
3740 Clouds 22 1017 13 10000 0.51 195 06:35 13.05.2022
3741 Clouds 26 1016 9 10000 0.29 134 04:22 13.05.2022
3742 Clouds 26 1017 8 10000 0.46 117 00:39 13.05.2022
3743 Clouds 26 1019 8 10000 0.85 86 22:46 12.05.2022
3744 Clouds 25 1020 9 10000 0.7 40 21:59 12.05.2022
3745 Clouds 24 1021 10 10000 1.45 26 20:38 12.05.2022
3746 Clear 22 1023 11 10000 1.1 31 19:23 12.05.2022
3747 Clear 20 1024 12 10000 1.51 14 17:59 12.05.2022
3748 Clear 18 1023 14 10000 0.89 12 16:27 12.05.2022
3749 Clear 15 1023 18 10000 0.94 9 14:47 12.05.2022
3750 Clear 15 1022 16 10000 0.9 9 13:47 12.05.2022
3751 Clear 16 1021 15 10000 1.05 11 11:25 12.05.2022
3752 Clear 16 1021 15 10000 1.01 28 09:37 12.05.2022
3753 Clear 17 1020 15 10000 0.65 47 08:52 12.05.2022
3754 Clear 18 1019 13 10000 0.68 51 07:57 12.05.2022
3755 Clear 19 1018 12 10000 0.64 32 06:55 12.05.2022
3756 Clear 23 1015 8 10000 3.09 346 03:31 12.05.2022
3757 Clouds 23 1013 9 10000 1.35 346 00:41 12.05.2022
3758 Clouds 21 1014 18 10000 1 321 22:53 11.05.2022
3759 Clouds 20 1015 19 10000 1.87 333 21:59 11.05.2022
3760 Clouds 20 1015 19 10000 1.89 351 21:24 11.05.2022
3761 Clouds 19 1015 19 10000 0.97 10 19:42 11.05.2022
3762 Clear 16 1016 25 10000 0.94 359 17:27 11.05.2022
3763 Clear 15 1015 26 10000 0.96 5 16:19 11.05.2022
3764 Clear 13 1015 30 10000 0.88 349 14:45 11.05.2022
3765 Clear 13 1014 29 10000 0.81 359 14:24 11.05.2022
3766 Clear 14 1013 26 10000 0.53 8 12:39 11.05.2022
3767 Clear 15 1012 24 10000 0.56 356 11:47 11.05.2022
3768 Clear 17 1012 22 10000 1.69 207 09:29 11.05.2022
3769 Clear 19 1010 21 10000 5.14 195 06:27 11.05.2022
3770 Clouds 24 1009 11 10000 9.1 202 01:53 11.05.2022
3771 Clear 25 1011 11 10000 6.54 192 22:56 10.05.2022
3772 Clear 23 1012 11 10000 3.48 185 22:21 10.05.2022
3773 Clear 22 1013 12 10000 2.43 174 21:21 10.05.2022
3774 Clear 20 1014 14 10000 1.75 166 20:26 10.05.2022
3775 Clear 19 1014 16 10000 1.13 155 18:38 10.05.2022
3776 Clear 17 1015 18 10000 0.91 156 17:38 10.05.2022
3777 Clear 15 1015 22 10000 0.16 173 15:56 10.05.2022
3778 Clear 14 1012 25 10000 1.77 197 13:19 10.05.2022
3779 Clear 14 1011 25 10000 2 204 11:53 10.05.2022
3780 Clear 14 1011 25 10000 2 204 11:30 10.05.2022
3781 Clear 15 1010 24 10000 2.16 206 10:56 10.05.2022
3782 Clouds 16 1009 22 10000 3.57 211 09:28 10.05.2022
3783 Clear 17 1008 21 10000 4.36 205 07:58 10.05.2022
3784 Clear 18 1006 19 10000 6.46 199 05:54 10.05.2022
3785 Clear 26 1003 9 10000 7.21 192 01:53 10.05.2022
3786 Clear 25 1005 9 10000 4.21 166 23:43 09.05.2022
3787 Clear 24 1006 11 10000 3.15 161 22:35 09.05.2022
3788 Clear 23 1008 13 10000 2.01 161 21:38 09.05.2022
3789 Clear 21 1009 17 10000 0.71 91 19:56 09.05.2022
3790 Clear 18 1010 19 10000 1.01 71 18:25 09.05.2022
3791 Clear 17 1010 20 10000 0.99 61 17:25 09.05.2022
3792 Clear 16 1010 21 10000 0.82 40 16:18 09.05.2022
3793 Clear 16 1010 21 10000 0.82 40 15:47 09.05.2022
3794 Clear 14 1009 24 10000 0.89 92 14:36 09.05.2022
3795 Clouds 15 1009 23 10000 1.37 98 13:57 09.05.2022
3796 Clouds 16 1008 22 10000 1.72 84 13:21 09.05.2022
3797 Clouds 16 1007 21 10000 1.94 70 11:53 09.05.2022
3798 Clouds 17 1006 21 10000 0.22 21 10:48 09.05.2022
3799 Clouds 17 1005 22 10000 1.21 196 10:23 09.05.2022
3800 Clouds 19 1003 19 10000 3.03 178 07:57 09.05.2022
3801 Clouds 23 999 11 10000 4.98 193 04:52 09.05.2022
3802 Clear 31 994 6 10000 13.37 235 00:59 09.05.2022
3803 Clouds 32 996 10 10000 6.84 207 23:28 08.05.2022
3804 Clouds 32 996 10 10000 6.84 207 22:32 08.05.2022
3805 Clear 28 999 13 10000 4.59 173 21:20 08.05.2022
3806 Clear 27 1000 15 10000 4.48 175 20:23 08.05.2022
3807 Clear 27 1000 15 10000 4.23 172 19:33 08.05.2022
3808 Clear 26 1001 16 10000 4.25 172 18:38 08.05.2022
3809 Clear 25 1001 18 10000 4.06 167 17:39 08.05.2022
3810 Clear 23 1002 22 10000 2.2 162 16:22 08.05.2022
3811 Clear 21 1002 25 10000 1.77 162 15:22 08.05.2022
3812 Clouds 22 1002 25 10000 2.23 170 12:49 08.05.2022
3813 Clouds 22 1002 25 10000 1.7 177 11:50 08.05.2022
3814 Clouds 24 1002 23 10000 1.59 158 10:26 08.05.2022
3815 Clouds 24 1002 23 10000 1.59 158 09:53 08.05.2022
3816 Clouds 25 1002 19 10000 0.94 174 07:57 08.05.2022
3817 Clouds 28 1000 16 10000 4.21 181 06:18 08.05.2022
3818 Clouds 34 998 9 10000 5.87 173 03:22 08.05.2022
3819 Clouds 37 998 7 10000 6.41 185 01:19 08.05.2022
3820 Clouds 36 999 9 10000 2.62 176 23:57 07.05.2022
3821 Clouds 36 999 9 10000 2.62 176 23:34 07.05.2022
3822 Clouds 35 1001 12 10000 1.88 171 22:46 07.05.2022
3823 Clouds 34 1002 14 10000 1.99 164 21:56 07.05.2022
3824 Clouds 34 1002 14 10000 1.99 164 21:31 07.05.2022
3825 Clouds 32 1004 19 10000 2.79 174 20:25 07.05.2022
3826 Clouds 30 1005 22 10000 2.92 171 18:59 07.05.2022
3827 Clouds 28 1006 29 10000 2.93 174 16:51 07.05.2022
3828 Clear 24 1006 38 10000 1.46 190 15:18 07.05.2022
3829 Clouds 26 1004 33 10000 2.21 184 12:23 07.05.2022
3830 Clouds 28 1004 29 10000 2.99 189 10:18 07.05.2022
3831 Clouds 29 1004 27 10000 3.29 192 08:34 07.05.2022
3832 Clouds 30 1004 24 10000 3.76 189 07:30 07.05.2022
3833 Clouds 32 1004 21 10000 3.89 179 06:42 07.05.2022
3834 Clouds 38 1002 12 10000 3.71 176 04:21 07.05.2022
3835 Clear 38 1004 11 10000 3.75 158 00:49 07.05.2022
3836 Clear 37 1007 12 10000 3.04 153 22:41 06.05.2022
3837 Clear 36 1008 13 10000 2.97 153 22:21 06.05.2022
3838 Clear 36 1008 13 10000 2.97 153 21:32 06.05.2022
3839 Clouds 34 1010 14 10000 2.43 157 20:18 06.05.2022
3840 Clouds 32 1010 15 10000 2.36 161 19:27 06.05.2022
3841 Clouds 32 1010 15 10000 2.36 161 18:49 06.05.2022
3842 Clouds 30 1011 16 10000 1.86 162 17:38 06.05.2022
3843 Clouds 27 1010 18 10000 1.63 159 15:55 06.05.2022
3844 Clouds 27 1010 18 10000 1.63 159 15:32 06.05.2022
3845 Clouds 26 1009 19 10000 1.43 143 14:22 06.05.2022
3846 Clouds 27 1009 17 10000 1.5 135 12:52 06.05.2022
3847 Clouds 27 1009 17 10000 1.18 144 12:20 06.05.2022
3848 Clouds 27 1009 17 10000 1.18 144 11:31 06.05.2022
3849 Clouds 29 1008 15 10000 1.88 173 09:48 06.05.2022
3850 Clouds 29 1008 15 10000 1.88 173 09:48 06.05.2022
3851 Clouds 30 1008 14 10000 1.33 180 09:18 06.05.2022
3852 Clouds 30 1008 13 10000 2.52 178 07:56 06.05.2022
3853 Clouds 32 1007 12 10000 3 166 06:28 06.05.2022
3854 Clouds 36 1005 7 10000 3.73 169 04:29 06.05.2022
3855 Clouds 38 1005 6 10000 2.91 178 02:40 06.05.2022
3856 Clouds 36 1009 7 10000 3.75 181 23:25 05.05.2022
3857 Clouds 36 1010 8 10000 3.7 167 21:51 05.05.2022
3858 Clouds 35 1011 10 10000 4.49 163 20:48 05.05.2022
3859 Clouds 33 1011 12 10000 4.27 166 19:42 05.05.2022
3860 Clear 29 1012 13 10000 1.69 152 16:51 05.05.2022
3861 Clear 26 1012 15 10000 0.81 131 15:48 05.05.2022
3862 Clear 24 1012 18 10000 1.25 139 14:37 05.05.2022
3863 Clear 25 1011 16 10000 1.49 155 13:18 05.05.2022
3864 Clear 26 1011 15 10000 1.51 166 11:48 05.05.2022
3865 Clear 27 1011 14 10000 1.95 173 10:28 05.05.2022
3866 Clear 27 1011 14 10000 1.95 173 09:32 05.05.2022
3867 Clear 28 1011 13 10000 2.34 175 06:49 05.05.2022
3868 Clear 32 1010 10 10000 0.79 108 02:30 05.05.2022
3869 Clear 32 1010 10 10000 1.15 78 01:47 05.05.2022
3870 Clear 32 1011 10 10000 1.29 50 01:20 05.05.2022
3871 Clear 31 1013 11 10000 1.74 15 23:28 04.05.2022
3872 Clear 30 1014 13 10000 2.4 17 22:25 04.05.2022
3873 Clear 30 1014 13 10000 2.4 17 21:48 04.05.2022
3874 Clear 29 1015 15 10000 2.95 16 21:22 04.05.2022
3875 Clear 28 1015 17 10000 3.6 15 20:22 04.05.2022
3876 Clear 28 1015 17 10000 3.6 15 19:51 04.05.2022
3877 Clear 27 1016 20 10000 3.54 15 18:45 04.05.2022
3878 Clear 25 1016 22 10000 3.18 14 18:20 04.05.2022
3879 Clear 24 1016 24 10000 2.41 16 17:28 04.05.2022
3880 Clear 22 1016 26 10000 1.93 12 15:38 04.05.2022
3881 Clear 21 1015 28 10000 2.15 14 14:49 04.05.2022
3882 Clear 21 1015 27 10000 2.05 12 14:20 04.05.2022
3883 Clear 22 1014 22 10000 2.45 3 13:18 04.05.2022
3884 Clear 22 1014 21 10000 2.45 360 12:28 04.05.2022
3885 Clear 23 1014 19 10000 2.63 359 10:33 04.05.2022
3886 Clear 24 1013 14 10000 2.93 11 09:28 04.05.2022
3887 Clear 24 1013 14 10000 2.93 11 08:33 04.05.2022
3888 Clear 26 1010 11 10000 0.54 309 05:50 04.05.2022
3889 Clear 30 1008 8 10000 0.54 54 02:43 04.05.2022
3890 Clear 30 1010 8 10000 2.08 19 23:41 03.05.2022
3891 Clear 28 1011 10 10000 2.05 11 22:20 03.05.2022
3892 Clear 28 1011 10 10000 2.05 11 21:36 03.05.2022
3893 Clear 26 1012 11 10000 2.51 358 20:53 03.05.2022
3894 Clouds 25 1013 13 10000 3.63 357 19:45 03.05.2022
3895 Clouds 23 1014 15 10000 4.42 9 18:50 03.05.2022
3896 Clouds 23 1014 15 10000 4.42 9 18:50 03.05.2022
3897 Clouds 22 1013 17 10000 4.19 16 17:45 03.05.2022
3898 Clouds 21 1013 20 10000 4.48 11 16:37 03.05.2022
3899 Clouds 19 1013 25 10000 4 356 15:32 03.05.2022
3900 Clouds 21 1009 28 10000 5 8 12:47 03.05.2022
3901 Clouds 22 1007 26 10000 4.48 13 12:27 03.05.2022
3902 Clouds 24 1005 23 10000 2.99 31 10:57 03.05.2022
3903 Clouds 26 1003 20 10000 0.87 172 09:21 03.05.2022
3904 Clouds 29 1002 15 10000 2.98 187 06:46 03.05.2022
3905 Clouds 30 1001 14 10000 1.6 215 05:56 03.05.2022
3906 Clouds 34 1004 10 10000 4.49 187 00:19 03.05.2022
3907 Clouds 33 1006 11 10000 3.78 181 22:36 02.05.2022
3908 Clouds 31 1007 12 10000 2.34 171 21:52 02.05.2022
3909 Clouds 29 1009 13 10000 2.31 162 20:51 02.05.2022
3910 Clear 27 1011 15 10000 1.39 155 18:37 02.05.2022
3911 Clear 25 1011 17 10000 0.58 139 17:57 02.05.2022
3912 Clear 25 1011 17 10000 0.58 139 17:34 02.05.2022
3913 Clear 22 1011 19 10000 0.82 163 16:22 02.05.2022
3914 Clear 22 1011 19 10000 0.82 163 15:30 02.05.2022
3915 Clear 22 1011 19 10000 0.82 163 15:30 02.05.2022
3916 Clear 20 1011 21 10000 0.77 44 13:50 02.05.2022
3917 Clear 22 1011 18 10000 1.02 13 12:19 02.05.2022
3918 Clear 22 1011 17 10000 1.47 352 10:47 02.05.2022
3919 Clear 23 1011 15 10000 2.47 349 09:20 02.05.2022
3920 Clear 24 1010 14 10000 2.99 359 07:51 02.05.2022
3921 Clear 28 1007 11 10000 5.73 30 03:53 02.05.2022
3922 Clear 31 1004 16 10000 5.65 44 00:24 02.05.2022
3923 Clear 31 1004 16 10000 5.65 44 23:48 01.05.2022
3924 Clear 31 1005 17 10000 3.11 25 22:25 01.05.2022
3925 Clear 30 1005 18 10000 1.74 18 21:19 01.05.2022
3926 Clear 28 1005 20 10000 2.26 25 19:53 01.05.2022
3927 Clear 27 1005 21 10000 1.54 27 18:58 01.05.2022
3928 Clear 26 1005 22 10000 0.54 59 18:28 01.05.2022
3929 Clear 25 1004 22 10000 0.2 153 17:29 01.05.2022
3930 Clear 23 1004 23 10000 0.37 216 16:23 01.05.2022
3931 Clear 23 1004 23 10000 0.37 216 15:36 01.05.2022
3932 Clear 22 1002 26 10000 1.51 163 13:47 01.05.2022
3933 Clear 24 1002 22 10000 1.83 187 11:23 01.05.2022
3934 Clear 25 1002 19 10000 2.65 198 08:53 01.05.2022
3935 Clear 25 1002 19 10000 2.65 198 08:34 01.05.2022
3936 Clear 33 1001 6 10000 6.63 196 03:44 01.05.2022
3937 Clear 36 1004 5 10000 5.61 184 00:29 01.05.2022
3938 Clear 34 1007 7 10000 4.04 165 21:49 30.04.2022
3939 Clear 32 1009 7 10000 2.51 158 21:18 30.04.2022
3940 Clouds 31 1010 8 10000 1.9 153 19:42 30.04.2022
3941 Clouds 28 1011 9 10000 1.49 155 18:28 30.04.2022
3942 Clouds 27 1011 10 10000 1.45 156 16:50 30.04.2022
3943 Clouds 25 1011 12 10000 1.01 152 15:47 30.04.2022
3944 Clouds 22 1011 14 10000 0.57 150 14:53 30.04.2022
3945 Clear 22 1011 14 10000 0.1 40 13:20 30.04.2022
3946 Clear 22 1011 14 10000 0.29 346 11:34 30.04.2022
3947 Clear 23 1011 14 10000 0.55 344 10:45 30.04.2022
3948 Clear 24 1012 13 10000 0.64 358 09:48 30.04.2022
3949 Clear 26 1011 12 10000 1.34 215 06:48 30.04.2022
3950 Clear 30 1011 9 10000 0.22 121 02:55 30.04.2022
3951 Clear 30 1012 10 10000 0.87 26 23:37 29.04.2022
3952 Clear 29 1013 11 10000 0.94 20 22:34 29.04.2022
3953 Clear 28 1014 12 10000 1.28 13 21:54 29.04.2022
3954 Clouds 27 1015 14 10000 2.04 3 20:51 29.04.2022
3955 Clear 26 1016 15 10000 3.17 5 19:47 29.04.2022
3956 Clear 24 1016 16 10000 3.9 5 18:36 29.04.2022
3957 Clear 22 1016 20 10000 3.81 359 17:26 29.04.2022
3958 Clear 20 1016 22 10000 2.36 352 15:52 29.04.2022
3959 Clear 18 1015 23 10000 2.53 355 14:34 29.04.2022
3960 Clear 20 1014 21 10000 2.35 5 13:27 29.04.2022
3961 Clear 20 1013 20 10000 2.31 14 11:51 29.04.2022
3962 Clear 23 1010 16 10000 2.44 38 09:23 29.04.2022
3963 Clear 25 1008 14 10000 2.64 36 07:42 29.04.2022
3964 Clear 26 1006 13 10000 1.35 157 07:23 29.04.2022
3965 Clear 27 1005 11 10000 2.49 185 05:55 29.04.2022
3966 Clear 31 1002 8 10000 0.37 74 00:47 29.04.2022
3967 Clear 30 1003 8 10000 0.27 63 23:48 28.04.2022
3968 Clear 30 1004 9 10000 0.72 154 22:45 28.04.2022
3969 Clear 29 1004 10 10000 2.51 166 21:55 28.04.2022
3970 Clear 28 1006 12 10000 3.01 169 21:29 28.04.2022
3971 Clear 28 1006 12 10000 3.01 169 20:37 28.04.2022
3972 Clouds 26 1007 14 10000 2.65 169 19:46 28.04.2022
3973 Clouds 25 1007 17 10000 2.46 169 19:23 28.04.2022
3974 Clouds 25 1007 17 10000 2.46 169 18:38 28.04.2022
3975 Clouds 23 1007 20 10000 2.5 167 17:32 28.04.2022
3976 Clouds 22 1007 23 10000 2.12 168 16:49 28.04.2022
3977 Clouds 21 1007 27 10000 1.56 166 16:19 28.04.2022
3978 Clouds 21 1007 27 10000 1.56 166 15:41 28.04.2022
3979 Clouds 19 1006 30 10000 2.24 172 14:47 28.04.2022
3980 Clouds 21 1006 29 10000 2.81 169 13:20 28.04.2022
3981 Clouds 21 1005 27 10000 3.03 173 12:28 28.04.2022
3982 Clouds 22 1005 26 10000 2.95 181 10:51 28.04.2022
3983 Clouds 23 1005 24 10000 3.28 182 10:26 28.04.2022
3984 Clouds 23 1005 24 10000 3.28 182 09:41 28.04.2022
3985 Clouds 25 1005 18 10000 3.68 187 07:40 28.04.2022
3986 Clouds 27 1005 15 10000 4.13 175 06:38 28.04.2022
3987 Clouds 28 1004 13 10000 4.86 168 05:40 28.04.2022
3988 Clouds 29 1003 11 10000 5.54 169 04:42 28.04.2022
3989 Clouds 34 1003 11 10000 3.8 167 00:51 28.04.2022
3990 Clouds 33 1005 14 10000 4.3 163 23:18 27.04.2022
3991 Clouds 32 1006 16 10000 4.11 162 21:58 27.04.2022
3992 Clouds 32 1006 16 10000 4.11 162 21:32 27.04.2022
3993 Clear 31 1007 18 10000 3.72 160 20:44 27.04.2022
3994 Clear 29 1008 20 10000 3.21 161 19:41 27.04.2022
3995 Clear 28 1008 21 10000 2.92 157 19:22 27.04.2022
3996 Clear 28 1008 21 10000 2.92 157 19:22 27.04.2022
3997 Clear 28 1008 21 10000 2.92 157 18:38 27.04.2022
3998 Clear 27 1008 23 10000 2.72 163 17:41 27.04.2022
3999 Clear 24 1008 28 10000 1.66 155 15:56 27.04.2022
4000 Clouds 24 1006 28 10000 1.66 188 12:50 27.04.2022
4001 Clouds 25 1005 26 10000 2.71 195 11:23 27.04.2022
4002 Clouds 26 1005 24 10000 3.2 186 10:26 27.04.2022
4003 Clouds 27 1005 22 10000 3.78 181 07:53 27.04.2022
4004 Clouds 28 1005 20 10000 3.86 180 06:36 27.04.2022
4005 Clouds 33 1005 10 10000 6.86 182 02:26 27.04.2022
4006 Clouds 34 1005 10 10000 7.34 187 01:21 27.04.2022
4007 Clouds 34 1006 11 10000 6.68 183 00:27 27.04.2022
4008 Clouds 34 1007 11 10000 5.54 176 23:24 26.04.2022
4009 Clouds 34 1007 11 10000 5.54 176 22:44 26.04.2022
4010 Clouds 33 1007 12 10000 3.96 173 21:59 26.04.2022
4011 Clouds 32 1009 12 10000 2.89 166 21:18 26.04.2022
4012 Clouds 32 1009 12 10000 2.89 166 20:36 26.04.2022
4013 Clouds 31 1009 13 10000 2.51 167 19:44 26.04.2022
4014 Clouds 29 1010 12 10000 2.1 180 19:24 26.04.2022
4015 Clouds 29 1010 12 10000 2.1 180 18:31 26.04.2022
4016 Clouds 28 1010 12 10000 2.15 179 17:38 26.04.2022
4017 Clouds 23 1010 11 10000 1.11 157 14:59 26.04.2022
4018 Clouds 23 1010 11 10000 0.97 149 13:40 26.04.2022
4019 Clouds 24 1010 10 10000 1.43 154 12:47 26.04.2022
4020 Clouds 25 1011 9 10000 1.66 163 11:20 26.04.2022
4021 Clouds 25 1011 9 10000 1.66 163 10:30 26.04.2022
4022 Clouds 26 1012 9 10000 1.85 165 08:32 26.04.2022
4023 Clouds 28 1012 8 10000 3.54 161 04:53 26.04.2022
4024 Clouds 30 1012 7 10000 4.3 159 03:59 26.04.2022
4025 Clouds 31 1012 6 10000 2.62 160 00:46 26.04.2022
4026 Clouds 31 1014 6 10000 2.21 157 23:48 25.04.2022
4027 Clouds 29 1016 7 10000 1.03 114 21:51 25.04.2022
4028 Clouds 28 1017 8 10000 0.87 80 21:23 25.04.2022
4029 Clouds 27 1018 9 10000 0.92 81 19:47 25.04.2022
4030 Clouds 26 1018 9 10000 1.06 67 18:31 25.04.2022
4031 Clouds 25 1019 10 10000 0.99 66 17:39 25.04.2022
4032 Clouds 24 1018 11 10000 0.72 82 16:35 25.04.2022
4033 Clouds 18 1017 15 10000 0.71 89 15:21 25.04.2022
4034 Clear 19 1017 14 10000 0.72 134 14:23 25.04.2022
4035 Clear 20 1017 14 10000 0.9 143 12:40 25.04.2022
4036 Clear 21 1016 13 10000 0.58 91 10:42 25.04.2022
4037 Clear 22 1017 13 10000 0.37 182 09:39 25.04.2022
4038 Clear 23 1016 13 10000 0.86 197 07:38 25.04.2022
4039 Clear 24 1016 12 10000 0.59 163 05:54 25.04.2022
4040 Clouds 28 1015 9 10000 2.04 352 01:28 25.04.2022
4041 Clouds 27 1016 9 10000 2.26 351 23:54 24.04.2022
4042 Clear 27 1017 10 10000 2.88 352 23:24 24.04.2022
4043 Clear 27 1017 10 10000 2.88 352 22:39 24.04.2022
4044 Clear 26 1018 11 10000 3.34 355 21:55 24.04.2022
4045 Clear 25 1019 12 10000 4.05 355 21:21 24.04.2022
4046 Clear 25 1019 12 10000 4.05 355 20:44 24.04.2022
4047 Clear 24 1020 14 10000 4.28 7 19:57 24.04.2022
4048 Clear 23 1020 15 10000 4.23 13 18:38 24.04.2022
4049 Clear 22 1020 16 10000 4.01 13 17:42 24.04.2022
4050 Clear 21 1020 18 10000 3.35 8 17:21 24.04.2022
4051 Clear 21 1020 18 10000 3.35 8 16:51 24.04.2022
4052 Clear 19 1020 20 10000 2.48 358 16:25 24.04.2022
4053 Clear 19 1020 20 10000 2.48 358 15:39 24.04.2022
4054 Clear 18 1019 21 10000 2.47 358 14:33 24.04.2022
4055 Clear 18 1019 21 10000 2.47 358 14:33 24.04.2022
4056 Clear 19 1018 19 10000 2.71 359 13:26 24.04.2022
4057 Clear 19 1018 19 10000 2.71 359 12:55 24.04.2022
4058 Clear 20 1017 19 10000 3.24 3 11:49 24.04.2022
4059 Clear 21 1017 18 10000 3.49 356 10:37 24.04.2022
4060 Clear 21 1017 17 10000 2.82 5 09:43 24.04.2022
4061 Clear 23 1015 16 10000 1.55 330 07:55 24.04.2022
4062 Clear 23 1015 16 10000 1.13 296 05:45 24.04.2022
4063 Clear 26 1014 13 10000 2.25 354 02:30 24.04.2022
4064 Clear 26 1015 13 10000 2.71 359 00:45 24.04.2022
4065 Clear 25 1016 14 10000 2.86 357 23:46 23.04.2022
4066 Clear 25 1017 15 10000 3.07 349 23:25 23.04.2022
4067 Clear 24 1018 16 10000 3.62 347 21:58 23.04.2022
4068 Clear 24 1018 16 10000 3.62 347 21:36 23.04.2022
4069 Clear 23 1019 18 10000 3.93 349 20:59 23.04.2022
4070 Clouds 23 1019 18 10000 4.23 5 19:56 23.04.2022
4071 Clouds 22 1019 20 10000 4.59 8 19:20 23.04.2022
4072 Clouds 22 1019 20 10000 4.59 8 18:54 23.04.2022
4073 Clouds 22 1019 20 10000 4.59 8 18:31 23.04.2022
4074 Clouds 21 1019 21 10000 4.28 2 17:44 23.04.2022
4075 Clouds 20 1019 21 10000 3.21 359 16:45 23.04.2022
4076 Clouds 18 1019 25 10000 1.75 349 15:43 23.04.2022
4077 Clouds 18 1017 26 10000 1.12 344 13:24 23.04.2022
4078 Clouds 19 1016 28 10000 2.05 353 11:29 23.04.2022
4079 Clouds 19 1016 32 10000 1.83 355 09:39 23.04.2022
4080 Clouds 21 1014 26 10000 1.87 24 07:52 23.04.2022
4081 Clouds 22 1010 27 10000 1.92 185 03:57 23.04.2022
4082 Clouds 23 1009 25 10000 2.16 186 02:34 23.04.2022
4083 Clouds 22 1009 28 10000 1.58 134 23:34 22.04.2022
4084 Clouds 21 1009 35 10000 1.95 183 22:43 22.04.2022
4085 Clouds 20 1010 43 10000 1.9 221 21:56 22.04.2022
4086 Clouds 20 1010 43 10000 1.9 221 21:56 22.04.2022
4087 Clouds 20 1010 43 10000 1.9 221 21:38 22.04.2022
4088 Clouds 19 1011 47 10000 0.75 257 20:30 22.04.2022
4089 Clouds 17 1010 54 10000 1.74 28 19:24 22.04.2022
4090 Clouds 17 1010 54 10000 1.74 28 18:56 22.04.2022
4091 Clouds 15 1009 61 10000 3.33 9 18:24 22.04.2022
4092 Clouds 16 1008 55 10000 2.1 324 16:54 22.04.2022
4093 Clouds 15 1007 60 10000 2.51 190 15:58 22.04.2022
4094 Clouds 14 1007 65 10000 3.51 208 15:23 22.04.2022
4095 Clouds 14 1007 65 10000 3.51 208 14:38 22.04.2022
4096 Clouds 15 1006 65 10000 5.93 201 13:41 22.04.2022
4097 Clouds 15 1005 63 10000 6.38 185 12:36 22.04.2022
4098 Clouds 17 1005 51 10000 8.01 184 11:23 22.04.2022
4099 Clouds 17 1005 51 10000 8.01 184 10:56 22.04.2022
4100 Clouds 17 1005 51 10000 8.01 184 10:32 22.04.2022
4101 Clouds 18 1005 49 10000 7.76 189 09:54 22.04.2022
4102 Clouds 19 1005 47 10000 7.95 185 09:21 22.04.2022
4103 Clouds 19 1005 47 10000 7.95 185 08:42 22.04.2022
4104 Clouds 20 1005 45 10000 8.37 184 06:38 22.04.2022
4105 Clear 29 1003 16 10000 9.69 206 00:56 22.04.2022
4106 Clouds 30 1004 14 10000 9.74 202 23:33 21.04.2022
4107 Clouds 30 1005 15 10000 8.76 193 22:43 21.04.2022
4108 Clear 29 1006 16 10000 9 192 21:36 21.04.2022
4109 Clear 28 1007 17 10000 8.1 188 20:30 21.04.2022
4110 Clear 24 1008 22 10000 5.65 180 18:49 21.04.2022
4111 Clear 22 1009 28 10000 4.66 185 18:28 21.04.2022
4112 Clear 21 1009 35 10000 4.39 190 17:19 21.04.2022
4113 Clear 18 1007 47 10000 4.24 193 15:25 21.04.2022
4114 Clear 18 1007 47 10000 4.24 193 14:52 21.04.2022
4115 Clear 18 1007 47 10000 4.4 192 14:28 21.04.2022
4116 Clear 19 1006 45 10000 4.49 191 13:21 21.04.2022
4117 Clear 20 1006 43 10000 4.73 193 12:25 21.04.2022
4118 Clear 21 1006 37 10000 5.55 193 09:36 21.04.2022
4119 Clear 22 1005 32 10000 5.6 192 08:47 21.04.2022
4120 Clouds 24 1005 23 10000 5.04 187 06:44 21.04.2022
4121 Clouds 30 1003 13 10000 5.28 173 03:42 21.04.2022
4122 Clouds 32 1003 12 10000 4.63 183 03:22 21.04.2022
4123 Clouds 32 1003 12 10000 4.63 183 02:44 21.04.2022
4124 Clouds 32 1003 12 10000 4.63 183 02:44 21.04.2022
4125 Clear 31 1004 14 10000 3.97 171 00:35 21.04.2022
4126 Clear 30 1005 16 10000 4.72 164 23:37 20.04.2022
4127 Clear 29 1006 19 10000 4.29 164 23:18 20.04.2022
4128 Clear 29 1006 19 10000 4.29 164 22:36 20.04.2022
4129 Clear 28 1007 21 10000 3.45 163 21:47 20.04.2022
4130 Clear 27 1008 24 10000 3.07 165 20:45 20.04.2022
4131 Clear 26 1009 26 10000 2.9 163 20:21 20.04.2022
4132 Clouds 26 1009 29 10000 2.84 160 19:46 20.04.2022
4133 Clouds 24 1009 32 10000 2.4 161 18:48 20.04.2022
4134 Clouds 23 1009 36 10000 2.18 169 17:52 20.04.2022
4135 Clouds 22 1009 38 10000 2.05 171 16:39 20.04.2022
4136 Clouds 20 1008 41 10000 1.99 168 15:33 20.04.2022
4137 Clouds 20 1007 38 10000 1.72 171 12:46 20.04.2022
4138 Clouds 21 1007 36 10000 1.96 170 11:42 20.04.2022
4139 Clouds 21 1007 35 10000 1.47 167 10:51 20.04.2022
4140 Clouds 22 1007 33 10000 1.71 154 09:34 20.04.2022
4141 Clouds 23 1007 31 10000 0.93 138 08:51 20.04.2022
4142 Clouds 23 1006 30 10000 0.24 171 08:19 20.04.2022
4143 Clouds 25 1004 25 10000 1.04 153 06:26 20.04.2022
4144 Clouds 30 999 14 10000 6.39 166 02:58 20.04.2022
4145 Clear 33 999 9 10000 10.63 214 00:22 20.04.2022
4146 Clear 33 1000 7 10000 8.24 205 23:19 19.04.2022
4147 Clear 33 1001 8 10000 6.67 190 22:24 19.04.2022
4148 Clear 33 1001 8 10000 6.67 190 21:55 19.04.2022
4149 Clear 31 1003 10 10000 6.1 181 21:18 19.04.2022
4150 Clear 31 1003 10 10000 6.1 181 20:37 19.04.2022
4151 Clear 31 1003 10 10000 6.1 181 20:37 19.04.2022
4152 Clouds 29 1005 12 10000 5.35 183 19:43 19.04.2022
4153 Clouds 28 1005 15 10000 5.66 186 18:46 19.04.2022
4154 Clouds 25 1005 18 10000 5.62 192 17:27 19.04.2022
4155 Clouds 25 1005 18 10000 5.62 192 16:43 19.04.2022
4156 Clouds 23 1005 22 10000 5.28 199 16:21 19.04.2022
4157 Clouds 23 1005 21 10000 6.02 194 14:47 19.04.2022
4158 Clouds 24 1005 19 10000 5.78 194 13:34 19.04.2022
4159 Clouds 24 1006 18 10000 5.87 194 12:50 19.04.2022
4160 Clouds 25 1006 17 10000 5.97 193 11:55 19.04.2022
4161 Clouds 26 1007 13 10000 5.83 193 10:23 19.04.2022
4162 Clouds 27 1007 12 10000 5.61 197 08:54 19.04.2022
4163 Clouds 30 1005 10 10000 6.59 191 04:42 19.04.2022
4164 Clear 35 1005 8 10000 13.36 230 03:25 19.04.2022
4165 Clouds 36 1006 6 10000 3.53 180 00:54 19.04.2022
4166 Clouds 34 1009 6 10000 3 171 23:29 18.04.2022
4167 Clouds 32 1010 7 10000 2.7 164 21:30 18.04.2022
4168 Clouds 32 1010 7 10000 2.7 164 21:30 18.04.2022
4169 Clouds 31 1011 8 10000 2.31 166 20:54 18.04.2022
4170 Clouds 31 1011 8 10000 2.31 166 20:30 18.04.2022
4171 Clouds 29 1012 11 10000 2.3 167 19:42 18.04.2022
4172 Clouds 28 1013 13 10000 1.94 174 18:54 18.04.2022
4173 Clouds 27 1013 15 10000 1.76 172 17:57 18.04.2022
4174 Clouds 27 1013 15 10000 1.76 172 17:33 18.04.2022
4175 Clouds 25 1013 17 10000 1.25 175 16:50 18.04.2022
4176 Clouds 25 1013 17 10000 1.25 175 16:31 18.04.2022
4177 Clouds 21 1012 20 10000 1.21 174 14:45 18.04.2022
4178 Clouds 22 1012 20 10000 0.82 174 13:35 18.04.2022
4179 Clouds 24 1011 18 10000 0.79 189 12:29 18.04.2022
4180 Clouds 24 1011 18 10000 0.79 189 11:34 18.04.2022
4181 Clouds 24 1011 17 10000 1.41 167 10:31 18.04.2022
4182 Clouds 25 1012 16 10000 1.78 158 09:31 18.04.2022
4183 Clouds 26 1012 16 10000 1.38 144 07:42 18.04.2022
4184 Clouds 27 1013 14 10000 1.84 150 05:37 18.04.2022
4185 Clear 31 1014 14 10000 2.46 150 00:27 18.04.2022
4186 Clear 30 1015 16 10000 2.15 154 22:41 17.04.2022
4187 Clear 29 1016 18 10000 1.84 154 21:46 17.04.2022
4188 Clear 27 1017 21 10000 1.84 148 21:24 17.04.2022
4189 Clear 27 1017 21 10000 1.84 148 20:36 17.04.2022
4190 Clear 27 1017 21 10000 1.84 148 20:35 17.04.2022
4191 Clear 24 1019 28 10000 1.18 139 19:28 17.04.2022
4192 Clear 23 1019 31 10000 0.92 167 17:48 17.04.2022
4193 Clear 19 1018 37 10000 0.69 201 15:40 17.04.2022
4194 Clear 18 1017 41 10000 0.92 314 14:55 17.04.2022
4195 Clear 18 1016 39 10000 0.45 234 14:19 17.04.2022
4196 Clear 19 1016 39 10000 1.02 197 12:59 17.04.2022
4197 Clear 19 1015 37 10000 1 159 12:27 17.04.2022
4198 Clear 20 1015 35 10000 1.18 125 10:46 17.04.2022
4199 Clear 21 1015 32 10000 1.31 128 10:28 17.04.2022
4200 Clear 21 1015 32 10000 1.31 128 09:34 17.04.2022
4201 Clear 22 1015 30 10000 2.01 161 08:51 17.04.2022
4202 Clear 22 1014 25 10000 2.25 166 07:30 17.04.2022
4203 Clear 25 1010 21 10000 3.71 174 04:30 17.04.2022
4204 Clear 29 1006 15 10000 3.13 202 01:26 17.04.2022
4205 Clear 29 1006 16 10000 4.14 218 23:52 16.04.2022
4206 Clear 28 1007 16 10000 5.92 222 22:35 16.04.2022
4207 Clear 28 1007 17 10000 9.62 219 21:38 16.04.2022
4208 Clear 27 1008 20 10000 8.98 207 20:32 16.04.2022
4209 Clear 25 1009 29 10000 7.13 184 18:59 16.04.2022
4210 Clear 24 1009 32 10000 6.16 185 17:52 16.04.2022
4211 Clear 22 1008 36 10000 5.53 183 16:40 16.04.2022
4212 Clear 19 1008 42 10000 4.31 191 15:45 16.04.2022
4213 Clear 19 1008 42 10000 4.31 191 15:45 16.04.2022
4214 Clear 19 1008 43 10000 4.07 195 14:57 16.04.2022
4215 Clouds 19 1007 42 10000 3.63 201 13:58 16.04.2022
4216 Clouds 19 1007 42 10000 3.63 201 13:37 16.04.2022
4217 Clouds 20 1007 39 10000 4.14 196 12:26 16.04.2022
4218 Clouds 21 1007 37 10000 4.17 186 11:18 16.04.2022
4219 Clouds 22 1007 35 10000 3.81 183 09:56 16.04.2022
4220 Clouds 23 1006 31 10000 3.62 181 08:59 16.04.2022
4221 Clouds 24 1007 28 10000 3.57 176 07:57 16.04.2022
4222 Clouds 24 1007 24 10000 3.53 159 06:59 16.04.2022
4223 Clouds 27 1006 19 10000 1.92 134 03:36 16.04.2022
4224 Clouds 28 1006 20 10000 2.2 148 00:31 16.04.2022
4225 Clouds 27 1008 22 10000 2.3 156 23:23 15.04.2022
4226 Clouds 27 1008 22 10000 2.3 156 22:36 15.04.2022
4227 Clear 26 1009 24 10000 2.26 156 21:58 15.04.2022
4228 Clear 25 1010 26 10000 2.24 157 21:18 15.04.2022
4229 Clear 24 1011 28 10000 1.81 161 20:24 15.04.2022
4230 Clear 24 1011 27 10000 1.57 154 19:40 15.04.2022
4231 Clear 22 1011 29 10000 1.65 163 18:54 15.04.2022
4232 Clear 21 1011 32 10000 1.16 176 18:25 15.04.2022
4233 Clear 21 1011 32 10000 1.16 176 17:48 15.04.2022
4234 Clear 20 1010 34 10000 0.77 173 17:21 15.04.2022
4235 Clouds 18 1010 37 10000 0.66 167 16:23 15.04.2022
4236 Clear 16 1009 41 10000 1.38 167 15:24 15.04.2022
4237 Clouds 17 1008 39 10000 1.57 172 13:42 15.04.2022
4238 Clouds 18 1008 37 10000 1.73 163 12:43 15.04.2022
4239 Clouds 18 1007 35 10000 2.24 170 11:58 15.04.2022
4240 Clouds 18 1007 35 10000 2.24 170 11:35 15.04.2022
4241 Clouds 19 1007 32 10000 2.21 179 10:45 15.04.2022
4242 Clouds 19 1006 31 10000 2.34 193 09:50 15.04.2022
4243 Clear 20 1006 29 10000 2.61 197 09:21 15.04.2022
4244 Clouds 21 1005 28 10000 2.62 200 07:53 15.04.2022
4245 Clouds 21 1005 26 10000 3.14 196 06:46 15.04.2022
4246 Clouds 26 1002 16 10000 3.97 180 03:47 15.04.2022
4247 Clouds 26 1007 14 10000 4.07 160 23:32 14.04.2022
4248 Clouds 25 1009 13 10000 3.67 158 22:50 14.04.2022
4249 Clouds 25 1009 13 10000 3.67 158 22:32 14.04.2022
4250 Clouds 24 1010 13 10000 3.2 154 21:59 14.04.2022
4251 Clouds 24 1010 14 10000 3.29 155 21:32 14.04.2022
4252 Clouds 20 1013 17 10000 3.11 162 19:24 14.04.2022
4253 Clouds 20 1013 17 10000 3.11 162 18:31 14.04.2022
4254 Clouds 19 1013 18 10000 2.25 168 17:44 14.04.2022
4255 Clouds 18 1013 19 10000 1.67 143 16:49 14.04.2022
4256 Clear 16 1013 21 10000 1.61 158 15:48 14.04.2022
4257 Clear 15 1012 19 10000 1.2 169 13:52 14.04.2022
4258 Clear 16 1013 18 10000 1.47 154 13:19 14.04.2022
4259 Clear 16 1013 18 10000 1.47 154 12:32 14.04.2022
4260 Clear 16 1012 17 10000 1.63 154 11:36 14.04.2022
4261 Clear 17 1013 16 10000 1.28 157 10:57 14.04.2022
4262 Clear 17 1012 15 10000 1.73 150 10:29 14.04.2022
4263 Clear 18 1013 14 10000 1.11 138 09:28 14.04.2022
4264 Clear 18 1013 14 10000 0.73 125 07:54 14.04.2022
4265 Clear 19 1013 12 10000 1.43 98 05:35 14.04.2022
4266 Clear 22 1014 9 10000 2.62 153 00:22 14.04.2022
4267 Clear 22 1015 9 10000 2.23 152 22:37 13.04.2022
4268 Clear 21 1016 10 10000 1.23 134 21:42 13.04.2022
4269 Clear 20 1017 11 10000 0.94 110 20:39 13.04.2022
4270 Clear 18 1018 12 10000 0.74 100 19:48 13.04.2022
4271 Clear 17 1019 14 10000 0.74 102 18:37 13.04.2022
4272 Clear 15 1019 15 10000 0.88 139 17:25 13.04.2022
4273 Clear 15 1019 15 10000 0.88 139 16:53 13.04.2022
4274 Clear 13 1019 17 10000 0.28 60 15:47 13.04.2022
4275 Clear 12 1018 18 10000 0.8 1 15:27 13.04.2022
4276 Clear 12 1018 18 10000 0.8 1 14:40 13.04.2022
4277 Clear 12 1017 19 10000 0.52 130 13:38 13.04.2022
4278 Clear 12 1016 19 10000 0.6 143 12:52 13.04.2022
4279 Clear 13 1015 18 10000 0.42 136 11:47 13.04.2022
4280 Clear 14 1015 17 10000 0.3 78 10:31 13.04.2022
4281 Clear 15 1014 16 10000 0.66 129 08:45 13.04.2022
4282 Clear 15 1014 15 10000 0.98 164 08:23 13.04.2022
4283 Clear 16 1013 14 10000 1.26 158 06:49 13.04.2022
4284 Clear 17 1012 13 10000 2.25 153 06:24 13.04.2022
4285 Clear 19 1012 10 10000 1.63 127 02:24 13.04.2022
4286 Clear 19 1013 10 10000 1.33 106 00:20 13.04.2022
4287 Clear 18 1014 10 10000 1.25 88 22:36 12.04.2022
4288 Clear 17 1014 11 10000 1.34 53 21:56 12.04.2022
4289 Clear 16 1015 13 10000 1.95 31 20:48 12.04.2022
4290 Clear 16 1016 14 10000 2.58 26 20:22 12.04.2022
4291 Clear 16 1016 16 10000 2.42 30 19:40 12.04.2022
4292 Clear 15 1016 17 10000 3.36 42 19:18 12.04.2022
4293 Clouds 14 1016 19 10000 3.65 45 17:39 12.04.2022
4294 Clouds 13 1015 19 10000 2.68 53 16:48 12.04.2022
4295 Clouds 12 1014 20 10000 1.88 53 15:38 12.04.2022
4296 Clouds 11 1013 21 10000 2.16 46 15:20 12.04.2022
4297 Clouds 12 1012 21 10000 2.18 47 13:53 12.04.2022
4298 Clouds 13 1011 22 10000 1.78 63 13:27 12.04.2022
4299 Clouds 13 1010 23 10000 1.96 77 12:26 12.04.2022
4300 Clouds 13 1010 23 10000 1.96 77 11:39 12.04.2022
4301 Clouds 14 1007 24 10000 2.7 40 09:59 12.04.2022
4302 Clear 15 1005 27 10000 4.64 40 08:53 12.04.2022
4303 Clear 19 999 30 10000 2.1 182 07:21 12.04.2022
4304 Clear 20 997 27 10000 4.97 193 05:42 12.04.2022
4305 Clear 27 993 15 10000 9.22 205 02:53 12.04.2022
4306 Clouds 30 995 17 10000 6.28 188 23:25 11.04.2022
4307 Clouds 30 995 17 10000 6.28 188 22:44 11.04.2022
4308 Clouds 27 998 17 10000 5.13 184 21:35 11.04.2022
4309 Clouds 25 1000 17 10000 5.24 176 20:49 11.04.2022
4310 Clouds 24 1001 16 10000 4.4 165 20:28 11.04.2022
4311 Clouds 23 1002 15 10000 5.07 164 19:29 11.04.2022
4312 Clouds 23 1002 15 10000 5.07 164 18:59 11.04.2022
4313 Clouds 23 1002 15 10000 5.07 164 18:33 11.04.2022
4314 Clouds 22 1002 15 10000 4.7 165 17:43 11.04.2022
4315 Clouds 20 1003 17 10000 3.86 158 16:38 11.04.2022
4316 Clouds 18 1003 18 10000 3.31 167 15:24 11.04.2022
4317 Clouds 19 1003 17 10000 2.69 163 13:44 11.04.2022
4318 Clouds 19 1003 17 10000 2.43 161 12:43 11.04.2022
4319 Clouds 19 1003 17 10000 2.2 163 12:22 11.04.2022
4320 Clouds 20 1004 16 10000 2.16 162 10:56 11.04.2022
4321 Clouds 20 1004 15 10000 1.29 172 09:58 11.04.2022
4322 Clouds 21 1004 14 10000 0.11 98 08:23 11.04.2022
4323 Clouds 23 1004 12 10000 1.01 276 05:26 11.04.2022
4324 Clouds 26 1006 9 10000 0.89 100 00:49 11.04.2022
4325 Clouds 25 1008 8 10000 2.21 24 22:33 10.04.2022
4326 Clouds 24 1010 9 10000 3.14 16 21:54 10.04.2022
4327 Clouds 23 1011 9 10000 3.93 13 21:26 10.04.2022
4328 Clouds 22 1012 10 10000 4.48 15 20:21 10.04.2022
4329 Clouds 22 1012 10 10000 4.02 17 19:37 10.04.2022
4330 Clouds 21 1012 10 10000 4.89 12 18:50 10.04.2022
4331 Clouds 21 1012 10 10000 4.89 12 18:30 10.04.2022
4332 Clouds 21 1012 10 10000 5.14 9 17:49 10.04.2022
4333 Clouds 20 1012 11 10000 4.01 3 16:59 10.04.2022
4334 Clouds 18 1011 14 10000 2.93 7 15:41 10.04.2022
4335 Clouds 18 1011 15 10000 2.76 13 14:49 10.04.2022
4336 Clouds 19 1011 15 10000 2.59 19 13:45 10.04.2022
4337 Clouds 20 1010 15 10000 2.93 14 12:33 10.04.2022
4338 Clouds 20 1009 16 10000 3.53 15 11:44 10.04.2022
4339 Clouds 22 1009 18 10000 3.89 16 11:20 10.04.2022
4340 Clouds 22 1009 18 10000 3.89 16 10:38 10.04.2022
4341 Clouds 23 1008 18 10000 4.01 21 09:46 10.04.2022
4342 Clouds 24 1006 17 10000 4.06 24 08:40 10.04.2022
4343 Clear 26 1005 14 10000 3.66 27 08:18 10.04.2022
4344 Clear 28 1003 11 10000 3.84 16 06:59 10.04.2022
4345 Clear 31 1000 9 10000 2.45 204 04:36 10.04.2022
4346 Clouds 35 1000 7 10000 1.51 58 02:19 10.04.2022
4347 Clouds 36 1001 8 10000 0.72 65 23:54 09.04.2022
4348 Clouds 36 1001 8 10000 0.72 65 23:54 09.04.2022
4349 Clouds 35 1002 8 10000 0.68 89 22:56 09.04.2022
4350 Clouds 35 1002 8 10000 0.68 89 22:38 09.04.2022
4351 Clear 33 1005 10 10000 0.95 158 21:28 09.04.2022
4352 Clear 33 1005 10 10000 0.95 158 20:31 09.04.2022
4353 Clouds 33 1005 11 10000 2.3 170 19:57 09.04.2022
4354 Clouds 33 1005 11 10000 2.3 170 19:39 09.04.2022
4355 Clouds 30 1006 13 10000 1.56 181 18:24 09.04.2022
4356 Clouds 30 1006 13 10000 1.56 181 17:50 09.04.2022
4357 Clouds 29 1007 14 10000 1.09 209 16:59 09.04.2022
4358 Clouds 29 1007 14 10000 1.09 209 16:40 09.04.2022
4359 Clouds 25 1006 16 10000 1 206 15:51 09.04.2022
4360 Clouds 25 1006 16 10000 1.15 204 15:26 09.04.2022
4361 Clouds 26 1006 15 10000 0.99 200 14:26 09.04.2022
4362 Clouds 26 1006 15 10000 1.15 191 13:34 09.04.2022
4363 Clouds 26 1007 14 10000 0.92 217 12:57 09.04.2022
4364 Clouds 27 1007 13 10000 1.16 199 11:51 09.04.2022
4365 Clouds 28 1007 12 10000 1.89 190 10:53 09.04.2022
4366 Clouds 29 1008 10 10000 2.26 182 10:19 09.04.2022
4367 Clouds 29 1008 9 10000 2.17 172 09:24 09.04.2022
4368 Clouds 29 1008 9 10000 2.17 172 08:35 09.04.2022
4369 Clear 32 1010 7 10000 3.25 167 05:21 09.04.2022
4370 Clear 36 1011 6 10000 2.5 153 00:35 09.04.2022
4371 Clear 35 1014 6 10000 1.4 137 23:24 08.04.2022
4372 Clear 34 1015 7 10000 0.98 122 21:54 08.04.2022
4373 Clouds 33 1016 7 10000 0.83 97 20:45 08.04.2022
4374 Clouds 33 1017 7 10000 0.72 78 19:57 08.04.2022
4375 Clouds 31 1017 7 10000 0.69 63 18:59 08.04.2022
4376 Clouds 30 1017 8 10000 0.74 67 18:25 08.04.2022
4377 Clouds 30 1017 8 10000 0.74 67 17:38 08.04.2022
4378 Clouds 29 1018 9 10000 0.63 46 17:19 08.04.2022
4379 Clouds 29 1018 9 10000 0.63 46 16:35 08.04.2022
4380 Clouds 24 1017 11 10000 0.71 41 15:39 08.04.2022
4381 Clouds 23 1017 12 10000 0.59 51 14:52 08.04.2022
4382 Clear 24 1017 11 10000 0.62 39 14:21 08.04.2022
4383 Clear 24 1017 11 10000 0.62 39 13:41 08.04.2022
4384 Clear 24 1017 11 10000 0.63 73 13:22 08.04.2022
4385 Clear 24 1017 11 10000 0.47 68 11:51 08.04.2022
4386 Clear 25 1018 10 10000 0.74 36 10:31 08.04.2022
4387 Clear 26 1018 9 10000 0.82 360 09:25 08.04.2022
4388 Clear 26 1018 9 10000 0.82 360 08:30 08.04.2022
4389 Clear 27 1019 10 10000 1.06 3 06:47 08.04.2022
4390 Clear 29 1019 9 10000 1.25 24 04:34 08.04.2022
4391 Clear 34 1018 6 10000 2.73 360 00:42 08.04.2022
4392 Clear 33 1019 6 10000 2.73 3 00:18 08.04.2022
4393 Clear 32 1021 6 10000 2.83 7 22:58 07.04.2022
4394 Clear 32 1021 6 10000 2.83 7 22:37 07.04.2022
4395 Clear 32 1022 7 10000 3.09 9 22:19 07.04.2022
4396 Clear 32 1022 7 10000 3.09 9 21:49 07.04.2022
4397 Clear 30 1023 7 10000 3.22 11 20:58 07.04.2022
4398 Clear 30 1023 7 10000 3.22 11 20:30 07.04.2022
4399 Clear 27 1024 9 10000 2.3 23 18:29 07.04.2022
4400 Clear 25 1024 10 10000 1.66 17 17:25 07.04.2022
4401 Clear 25 1024 10 10000 1.66 17 16:44 07.04.2022
4402 Clear 22 1024 12 10000 1.54 13 16:20 07.04.2022
4403 Clear 21 1023 12 10000 1.51 10 14:42 07.04.2022
4404 Clear 22 1022 11 10000 1.46 10 13:42 07.04.2022
4405 Clear 22 1022 11 10000 1.36 19 12:41 07.04.2022
4406 Clear 23 1022 11 10000 1.37 25 11:30 07.04.2022
4407 Clear 24 1022 10 10000 1.44 16 09:37 07.04.2022
4408 Clear 24 1022 10 10000 1.44 16 09:37 07.04.2022
4409 Clear 24 1022 10 10000 1.44 15 08:38 07.04.2022
4410 Clear 25 1021 10 10000 1.56 30 06:42 07.04.2022
4411 Clear 31 1018 7 10000 3.19 16 02:51 07.04.2022
4412 Clear 32 1018 7 10000 4.04 5 02:20 07.04.2022
4413 Clear 31 1019 8 10000 3.1 355 00:26 07.04.2022
4414 Clear 30 1020 9 10000 3.05 4 22:49 06.04.2022
4415 Clear 29 1021 10 10000 3.5 13 22:27 06.04.2022
4416 Clear 29 1021 10 10000 3.5 13 21:44 06.04.2022
4417 Clear 28 1021 10 10000 3.9 17 20:36 06.04.2022
4418 Clear 27 1022 11 10000 4.11 19 19:53 06.04.2022
4419 Clear 26 1021 12 10000 3.87 18 18:51 06.04.2022
4420 Clear 25 1021 13 10000 3.94 11 18:25 06.04.2022
4421 Clear 25 1021 13 10000 3.94 11 17:35 06.04.2022
4422 Clear 24 1020 15 10000 3.57 1 16:38 06.04.2022
4423 Clear 22 1019 18 10000 2.97 353 15:48 06.04.2022
4424 Clear 21 1018 19 10000 3.07 355 15:21 06.04.2022
4425 Clear 23 1017 17 10000 3.08 355 13:24 06.04.2022
4426 Clear 24 1016 16 10000 3.21 355 12:27 06.04.2022
4427 Clear 24 1016 15 10000 3.19 358 10:48 06.04.2022
4428 Clear 25 1015 15 10000 3.03 5 10:29 06.04.2022
4429 Clear 25 1015 15 10000 3.03 5 09:40 06.04.2022
4430 Clear 26 1014 15 10000 2.91 14 08:34 06.04.2022
4431 Clear 27 1013 15 10000 2.73 24 07:53 06.04.2022
4432 Clear 30 1010 17 10000 2.45 36 04:30 06.04.2022
4433 Clouds 33 1009 16 10000 0.9 70 23:54 05.04.2022
4434 Clear 33 1010 17 10000 0.89 65 23:21 05.04.2022
4435 Clear 31 1011 20 10000 0.68 61 21:23 05.04.2022
4436 Clouds 29 1011 21 10000 0.58 75 20:26 05.04.2022
4437 Clouds 29 1011 21 10000 0.58 75 19:52 05.04.2022
4438 Clouds 27 1011 23 10000 1.36 170 18:18 05.04.2022
4439 Clouds 26 1011 24 10000 1.66 182 16:55 05.04.2022
4440 Clouds 26 1011 24 10000 1.66 182 16:35 05.04.2022
4441 Clouds 23 1011 29 10000 0.75 181 15:43 05.04.2022
4442 Clouds 23 1011 29 10000 0.75 181 15:43 05.04.2022
4443 Clouds 22 1010 29 10000 0.85 170 15:24 05.04.2022
4444 Clear 23 1009 27 10000 1.36 177 13:38 05.04.2022
4445 Clear 24 1009 22 10000 1.45 154 11:51 05.04.2022
4446 Clear 24 1009 22 10000 1.45 154 11:51 05.04.2022
4447 Clear 24 1009 22 10000 1.45 154 11:33 05.04.2022
4448 Clear 25 1009 21 10000 1.94 165 10:57 05.04.2022
4449 Clear 27 1009 17 10000 1.63 189 09:29 05.04.2022
4450 Clear 28 1009 15 10000 1.93 195 07:32 05.04.2022
4451 Clear 33 1007 16 10000 1.43 158 02:43 05.04.2022
4452 Clouds 31 1009 17 10000 1.36 127 23:22 04.04.2022
4453 Clouds 31 1009 17 10000 1.36 127 22:32 04.04.2022
4454 Clouds 30 1009 19 10000 1.25 128 21:43 04.04.2022
4455 Clouds 30 1010 21 10000 1 131 21:18 04.04.2022
4456 Clouds 30 1010 21 10000 1 131 20:46 04.04.2022
4457 Clouds 27 1010 26 10000 1.37 167 19:27 04.04.2022
4458 Clouds 27 1010 26 10000 1.37 167 18:39 04.04.2022
4459 Clear 25 1009 29 10000 0.78 192 17:19 04.04.2022
4460 Clear 21 1008 35 10000 0.51 157 16:28 04.04.2022
4461 Clear 21 1008 35 10000 0.51 157 15:33 04.04.2022
4462 Clear 21 1008 36 10000 0.51 168 14:46 04.04.2022
4463 Clear 21 1007 35 10000 0.72 189 13:59 04.04.2022
4464 Clear 22 1007 33 10000 0.81 217 12:58 04.04.2022
4465 Clear 23 1007 29 10000 1.19 227 11:29 04.04.2022
4466 Clear 24 1007 27 10000 1.18 228 09:53 04.04.2022
4467 Clouds 25 1007 24 10000 0.64 202 05:34 04.04.2022
4468 Clouds 28 1006 17 10000 1.29 98 02:59 04.04.2022
4469 Clouds 29 1009 15 10000 3.78 359 23:19 03.04.2022
4470 Clouds 29 1009 14 10000 3.39 7 22:18 03.04.2022
4471 Clouds 29 1009 14 10000 3.39 7 21:31 03.04.2022
4472 Clouds 29 1010 14 10000 3.87 12 20:32 03.04.2022
4473 Clouds 26 1011 27 10000 1.23 14 18:47 03.04.2022
4474 Clouds 25 1010 31 10000 0.68 9 17:56 03.04.2022
4475 Clouds 25 1010 31 10000 0.68 9 17:36 03.04.2022
4476 Clouds 25 1010 33 10000 0.6 348 16:50 03.04.2022
4477 Clouds 23 1010 38 10000 1.24 339 15:57 03.04.2022
4478 Clouds 23 1009 37 10000 0.79 39 14:27 03.04.2022
4479 Clouds 23 1008 37 10000 1.03 37 13:34 03.04.2022
4480 Clouds 25 1008 34 10000 1.47 150 11:51 03.04.2022
4481 Clouds 26 1008 31 10000 1.94 175 09:59 03.04.2022
4482 Clouds 27 1008 29 10000 2.32 178 09:19 03.04.2022
4483 Clouds 27 1009 24 10000 1.95 164 06:41 03.04.2022
4484 Clouds 30 1008 19 10000 1.45 137 03:37 03.04.2022
4485 Clouds 32 1008 15 10000 3.23 156 00:29 03.04.2022
4486 Clouds 32 1009 15 10000 3.73 157 22:52 02.04.2022
4487 Clouds 31 1010 16 10000 3.48 161 21:57 02.04.2022
4488 Clouds 30 1011 17 10000 2.53 161 21:28 02.04.2022
4489 Clouds 30 1011 17 10000 2.53 161 20:41 02.04.2022
4490 Clear 28 1012 19 10000 2.14 159 18:57 02.04.2022
4491 Clear 27 1011 21 10000 2 178 18:20 02.04.2022
4492 Clear 27 1011 21 10000 2 178 18:20 02.04.2022
4493 Clear 27 1011 21 10000 2 178 17:46 02.04.2022
4494 Clear 22 1011 27 10000 1.8 152 15:59 02.04.2022
4495 Clear 22 1010 27 10000 1.59 161 15:21 02.04.2022
4496 Clear 22 1010 27 10000 1.59 161 14:43 02.04.2022
4497 Clear 23 1010 26 10000 1.7 173 13:34 02.04.2022
4498 Clear 24 1010 24 10000 1.98 179 12:37 02.04.2022
4499 Clear 24 1010 20 10000 1.87 172 10:56 02.04.2022
4500 Clear 25 1010 19 10000 1.36 184 08:44 02.04.2022
4501 Clear 25 1010 18 10000 0.69 186 06:49 02.04.2022
4502 Clear 28 1008 16 10000 0.58 189 03:39 02.04.2022
4503 Clear 30 1009 12 10000 0.72 45 23:55 01.04.2022
4504 Clear 29 1010 12 10000 1.4 23 23:18 01.04.2022
4505 Clear 29 1010 13 10000 2.16 13 21:33 01.04.2022
4506 Clear 28 1011 13 10000 2.82 9 20:51 01.04.2022
4507 Clouds 27 1012 14 10000 3.42 6 19:57 01.04.2022
4508 Clouds 27 1012 14 10000 3.42 6 19:31 01.04.2022
4509 Clouds 26 1012 14 10000 3.8 8 18:45 01.04.2022
4510 Clouds 24 1011 16 10000 3.52 7 17:46 01.04.2022
4511 Clouds 23 1011 19 10000 2.5 3 16:52 01.04.2022
4512 Clouds 20 1010 24 10000 2.31 351 15:39 01.04.2022
4513 Clouds 21 1009 26 10000 2.44 349 14:21 01.04.2022
4514 Clouds 21 1009 27 10000 2.07 353 13:34 01.04.2022
4515 Clouds 21 1008 28 10000 2.03 359 12:32 01.04.2022
4516 Clouds 21 1008 28 10000 2.03 359 12:32 01.04.2022
4517 Clouds 22 1008 29 10000 1.79 9 11:40 01.04.2022
4518 Clouds 23 1007 32 10000 1.49 0 10:19 01.04.2022
4519 Clouds 23 1006 32 10000 1.03 17 08:58 01.04.2022
4520 Clouds 25 1006 28 10000 1.62 171 06:54 01.04.2022
4521 Clouds 25 1005 26 10000 0.92 171 04:51 01.04.2022
4522 Clouds 25 1005 26 10000 0.92 171 04:31 01.04.2022
4523 Clouds 28 1004 21 10000 0.98 125 01:57 01.04.2022
4524 Clouds 28 1005 21 10000 1.14 111 23:58 31.03.2022
4525 Clouds 27 1007 25 10000 0.87 88 21:53 31.03.2022
4526 Clouds 27 1007 25 10000 0.87 88 21:32 31.03.2022
4527 Clouds 25 1008 32 10000 0.96 94 20:29 31.03.2022
4528 Clouds 25 1008 32 10000 0.96 94 19:50 31.03.2022
4529 Clouds 24 1009 34 10000 0.8 115 18:46 31.03.2022
4530 Clouds 23 1009 37 10000 1.3 171 17:50 31.03.2022
4531 Clouds 21 1009 38 10000 1.27 190 16:38 31.03.2022
4532 Clouds 20 1008 41 10000 0.78 154 15:46 31.03.2022
4533 Clouds 20 1007 39 10000 0.81 120 15:20 31.03.2022
4534 Clouds 20 1007 39 10000 0.81 120 14:37 31.03.2022
4535 Clouds 20 1007 36 10000 1.2 166 12:30 31.03.2022
4536 Clouds 21 1007 32 10000 0.77 162 11:26 31.03.2022
4537 Clouds 22 1007 30 10000 0.58 141 09:47 31.03.2022
4538 Clouds 23 1007 26 10000 1.02 173 08:23 31.03.2022
4539 Clouds 25 1007 23 10000 2.32 164 05:42 31.03.2022
4540 Clouds 29 1008 15 10000 1.68 150 00:46 31.03.2022
4541 Clouds 28 1010 16 10000 1.26 139 23:23 30.03.2022
4542 Clear 28 1011 18 10000 1.37 128 21:41 30.03.2022
4543 Clear 26 1013 21 10000 0.89 127 20:55 30.03.2022
4544 Clouds 25 1014 23 10000 0.88 154 20:20 30.03.2022
4545 Clouds 25 1014 24 10000 1.19 160 19:36 30.03.2022
4546 Clouds 23 1014 29 10000 1.2 178 18:29 30.03.2022
4547 Clouds 23 1014 29 10000 1.2 178 17:48 30.03.2022
4548 Clouds 21 1014 32 10000 1.12 202 16:57 30.03.2022
4549 Clouds 21 1014 32 10000 1.12 202 16:38 30.03.2022
4550 Clouds 18 1014 38 10000 0.73 211 15:24 30.03.2022
4551 Clouds 19 1013 36 10000 0.97 238 13:44 30.03.2022
4552 Clouds 19 1013 36 10000 0.91 305 13:18 30.03.2022
4553 Clouds 20 1013 34 10000 1.63 320 11:36 30.03.2022
4554 Clouds 20 1013 33 10000 1.56 321 10:37 30.03.2022
4555 Clear 21 1013 32 10000 2.12 333 09:27 30.03.2022
4556 Clear 22 1012 32 10000 2.57 328 07:41 30.03.2022
4557 Clear 23 1011 29 10000 3.21 349 05:41 30.03.2022
4558 Clouds 24 1009 27 10000 0.78 20 04:19 30.03.2022
4559 Clear 26 1007 25 10000 1.2 31 00:42 30.03.2022
4560 Clouds 24 1008 30 10000 1.62 24 22:35 29.03.2022
4561 Clouds 23 1009 34 10000 2.19 12 21:46 29.03.2022
4562 Clouds 21 1009 38 10000 2.4 11 20:55 29.03.2022
4563 Clouds 20 1010 42 10000 1.91 4 20:24 29.03.2022
4564 Clouds 19 1010 47 10000 1.93 3 18:57 29.03.2022
4565 Clouds 19 1010 47 10000 1.93 3 18:36 29.03.2022
4566 Clouds 17 1009 53 10000 0.83 358 17:37 29.03.2022
4567 Clouds 16 1009 60 10000 0.51 236 16:58 29.03.2022
4568 Clouds 16 1009 60 10000 0.51 236 16:58 29.03.2022
4569 Clouds 14 1008 65 10000 0.72 232 15:58 29.03.2022
4570 Clouds 14 1007 67 10000 1.13 271 14:53 29.03.2022
4571 Clouds 14 1006 63 10000 0.91 169 14:24 29.03.2022
4572 Clouds 14 1005 63 10000 0.98 190 12:57 29.03.2022
4573 Clouds 15 1004 61 10000 1.42 182 11:45 29.03.2022
4574 Clouds 15 1005 59 10000 1.72 188 10:58 29.03.2022
4575 Clouds 16 1005 58 10000 1.15 152 09:50 29.03.2022
4576 Clouds 17 1004 52 10000 3.35 171 08:20 29.03.2022
4577 Clouds 18 1003 47 10000 4.38 183 05:38 29.03.2022
4578 Clouds 20 1004 46 10000 7.39 196 01:25 29.03.2022
4579 Clouds 22 1004 40 10000 6.76 208 23:25 28.03.2022
4580 Clouds 22 1004 40 10000 6.76 208 22:54 28.03.2022
4581 Clouds 22 1005 38 10000 6.58 206 22:28 28.03.2022
4582 Clouds 22 1005 36 10000 7.03 189 20:59 28.03.2022
4583 Clouds 20 1006 48 10000 5.9 197 20:31 28.03.2022
4584 Clouds 22 1006 36 10000 7.87 187 19:46 28.03.2022
4585 Clouds 21 1006 33 10000 7.62 179 19:28 28.03.2022
4586 Clouds 21 1006 33 10000 7.62 179 18:40 28.03.2022
4587 Clear 21 1005 31 10000 7.22 168 17:39 28.03.2022
4588 Clear 19 1005 32 10000 4.57 175 16:38 28.03.2022
4589 Clear 18 1005 32 10000 4.05 195 14:50 28.03.2022
4590 Clouds 19 1005 30 10000 4.18 192 14:22 28.03.2022
4591 Clouds 20 1005 25 10000 4.3 191 12:41 28.03.2022
4592 Clouds 21 1005 24 10000 4.54 185 11:38 28.03.2022
4593 Clear 22 1005 22 10000 4.12 189 09:43 28.03.2022
4594 Clear 23 1005 20 10000 4.18 190 09:20 28.03.2022
4595 Clouds 23 1005 19 10000 4.21 196 08:23 28.03.2022
4596 Clouds 23 1005 20 10000 4.21 195 07:56 28.03.2022
4597 Clouds 27 1003 14 10000 4.86 206 04:27 28.03.2022
4598 Clouds 32 1004 8 10000 6.49 195 23:43 27.03.2022
4599 Clouds 31 1005 7 10000 6.69 196 22:25 27.03.2022
4600 Clouds 31 1005 7 10000 6.69 196 22:25 27.03.2022
4601 Clouds 31 1005 7 10000 6.69 196 22:25 27.03.2022
4602 Clouds 31 1005 7 10000 6.69 196 21:42 27.03.2022
4603 Clouds 31 1006 7 10000 6.97 184 20:58 27.03.2022
4604 Clouds 30 1006 7 10000 6.01 179 19:53 27.03.2022
4605 Clouds 30 1006 7 10000 6.01 179 19:30 27.03.2022
4606 Clouds 28 1006 8 10000 4.88 182 18:29 27.03.2022
4607 Clouds 28 1006 8 10000 4.88 182 17:42 27.03.2022
4608 Clouds 25 1006 10 10000 3.95 176 17:23 27.03.2022
4609 Clouds 24 1005 11 10000 3.76 170 15:39 27.03.2022
4610 Clouds 24 1005 11 10000 3.99 175 13:57 27.03.2022
4611 Clouds 25 1005 11 10000 3.93 177 12:50 27.03.2022
4612 Clouds 26 1005 11 10000 3.78 177 11:30 27.03.2022
4613 Clouds 27 1005 11 10000 3.71 177 09:32 27.03.2022
4614 Clouds 29 1006 12 10000 2.88 184 06:44 27.03.2022
4615 Clouds 35 1004 7 10000 5.27 200 01:55 27.03.2022
4616 Clouds 36 1005 7 10000 5.36 195 00:25 27.03.2022
4617 Clouds 36 1006 7 10000 5.75 185 22:45 26.03.2022
4618 Clouds 36 1007 7 10000 5.98 178 21:50 26.03.2022
4619 Clouds 35 1008 8 10000 5.38 169 21:26 26.03.2022
4620 Clouds 34 1009 9 10000 4.53 167 19:31 26.03.2022
4621 Clouds 31 1010 12 10000 3.21 174 18:24 26.03.2022
4622 Clouds 31 1010 12 10000 3.21 174 17:33 26.03.2022
4623 Clouds 30 1010 13 10000 2.52 177 16:30 26.03.2022
4624 Clouds 28 1010 15 10000 1.6 167 15:35 26.03.2022
4625 Clouds 26 1010 16 10000 2.16 174 13:55 26.03.2022
4626 Clouds 27 1010 16 10000 2.05 173 13:19 26.03.2022
4627 Clouds 28 1010 16 10000 2.15 176 11:42 26.03.2022
4628 Clouds 28 1010 16 10000 2.37 178 10:32 26.03.2022
4629 Clouds 29 1010 16 10000 2.43 175 08:44 26.03.2022
4630 Clouds 30 1011 18 10000 2.72 179 06:37 26.03.2022
4631 Clouds 31 1011 17 10000 2.91 185 05:29 26.03.2022
4632 Clouds 35 1010 12 10000 4.63 178 00:41 26.03.2022
4633 Clouds 35 1012 13 10000 3.36 167 21:56 25.03.2022
4634 Clouds 34 1013 14 10000 2.66 165 20:47 25.03.2022
4635 Clouds 33 1014 14 10000 1.9 162 20:24 25.03.2022
4636 Clear 32 1015 15 10000 1.35 159 18:59 25.03.2022
4637 Clear 30 1015 15 10000 1.16 157 17:53 25.03.2022
4638 Clear 29 1015 16 10000 1.16 164 17:27 25.03.2022
4639 Clouds 27 1015 18 10000 1.02 158 16:21 25.03.2022
4640 Clear 23 1015 22 10000 0.97 153 14:54 25.03.2022
4641 Clear 24 1014 21 10000 0.56 141 13:28 25.03.2022
4642 Clear 26 1014 19 10000 0.9 167 10:49 25.03.2022
4643 Clear 27 1014 18 10000 1.22 168 09:28 25.03.2022
4644 Clear 27 1014 18 10000 1.22 168 08:36 25.03.2022
4645 Clear 27 1014 17 10000 1.44 174 07:32 25.03.2022
4646 Clear 28 1014 17 10000 1.36 165 06:29 25.03.2022
4647 Clear 33 1012 13 10000 1.8 152 01:57 25.03.2022
4648 Clear 32 1014 12 10000 0.93 143 22:56 24.03.2022
4649 Clear 32 1015 12 10000 0.69 116 21:56 24.03.2022
4650 Clear 31 1016 13 10000 0.56 90 20:45 24.03.2022
4651 Clear 30 1017 13 10000 0.38 73 19:49 24.03.2022
4652 Clear 30 1017 13 10000 0.38 73 19:49 24.03.2022
4653 Clouds 28 1018 14 10000 0.33 110 18:22 24.03.2022
4654 Clouds 28 1018 14 10000 0.33 110 17:32 24.03.2022
4655 Clouds 24 1018 20 10000 0.18 37 15:56 24.03.2022
4656 Clouds 21 1017 25 10000 0.16 75 14:51 24.03.2022
4657 Clouds 21 1017 25 10000 0.38 146 14:21 24.03.2022
4658 Clear 21 1017 26 10000 0.24 22 13:26 24.03.2022
4659 Clear 22 1017 26 10000 0.13 139 12:23 24.03.2022
4660 Clear 22 1017 25 10000 0.33 165 10:32 24.03.2022
4661 Clear 23 1017 24 10000 0.97 166 09:23 24.03.2022
4662 Clear 24 1017 23 10000 1.16 165 07:42 24.03.2022
4663 Clear 25 1018 22 10000 1.92 176 04:43 24.03.2022
4664 Clear 29 1017 18 10000 1.33 141 23:38 23.03.2022
4665 Clear 29 1019 20 10000 1.23 123 22:18 23.03.2022
4666 Clear 28 1021 21 10000 1.21 126 21:20 23.03.2022
4667 Clear 27 1022 22 10000 1.23 127 19:50 23.03.2022
4668 Clear 27 1022 22 10000 1.41 150 19:25 23.03.2022
4669 Clear 26 1022 24 10000 1.29 148 17:47 23.03.2022
4670 Clear 24 1022 26 10000 1.38 131 16:55 23.03.2022
4671 Clear 20 1022 36 10000 0.98 56 15:21 23.03.2022
4672 Clear 20 1022 36 10000 0.98 56 14:42 23.03.2022
4673 Clear 21 1021 35 10000 1.13 31 13:30 23.03.2022
4674 Clear 22 1021 31 10000 2.11 13 10:37 23.03.2022
4675 Clear 24 1020 26 10000 2.09 5 08:21 23.03.2022
4676 Clear 25 1019 25 10000 1.58 28 05:50 23.03.2022
4677 Clear 30 1017 18 10000 3.43 338 01:59 23.03.2022
4678 Clouds 30 1017 18 10000 4.04 347 00:25 23.03.2022
4679 Clouds 30 1017 18 10000 4.04 347 00:25 23.03.2022
4680 Clouds 29 1019 20 10000 4.07 353 21:36 22.03.2022
4681 Clouds 28 1020 22 10000 4.19 348 20:57 22.03.2022
4682 Clouds 26 1021 24 10000 4.39 355 20:18 22.03.2022
4683 Clear 25 1022 25 10000 4.17 10 19:26 22.03.2022
4684 Clear 25 1022 25 10000 4.17 10 18:46 22.03.2022
4685 Clear 24 1022 27 10000 3.97 18 17:43 22.03.2022
4686 Clear 23 1021 29 10000 2.98 15 16:39 22.03.2022
4687 Clear 21 1021 32 10000 2.11 8 15:41 22.03.2022
4688 Clear 19 1021 36 10000 2.11 3 15:19 22.03.2022
4689 Clear 19 1021 36 10000 2.11 3 14:42 22.03.2022
4690 Clear 19 1020 35 10000 2.06 1 13:42 22.03.2022
4691 Clear 20 1019 33 10000 2.21 5 12:18 22.03.2022
4692 Clear 20 1019 31 10000 2.42 7 11:20 22.03.2022
4693 Clear 21 1018 28 10000 2.4 2 09:28 22.03.2022
4694 Clear 22 1018 26 10000 2.42 1 07:30 22.03.2022
4695 Clouds 24 1016 21 10000 3.66 340 03:58 22.03.2022
4696 Clouds 27 1015 15 10000 4.96 356 01:27 22.03.2022
4697 Clouds 27 1016 14 10000 4.73 350 22:57 21.03.2022
4698 Clouds 25 1017 15 10000 4.31 345 21:37 21.03.2022
4699 Clouds 24 1018 16 10000 4.26 354 20:44 21.03.2022
4700 Clouds 23 1019 16 10000 4.67 0 20:23 21.03.2022
4701 Clouds 23 1019 16 10000 4.67 0 19:47 21.03.2022
4702 Clouds 22 1019 16 10000 5.37 1 18:59 21.03.2022
4703 Clouds 21 1020 17 10000 4.92 2 17:36 21.03.2022
4704 Clouds 19 1020 18 10000 3.97 5 16:59 21.03.2022
4705 Clouds 19 1020 18 10000 3.97 5 16:33 21.03.2022
4706 Clouds 17 1020 20 10000 2.64 4 15:44 21.03.2022
4707 Clouds 15 1020 22 10000 2.4 359 14:45 21.03.2022
4708 Clouds 16 1018 20 10000 2.66 357 13:20 21.03.2022
4709 Clouds 17 1017 18 10000 2.81 357 11:59 21.03.2022
4710 Clouds 17 1017 18 10000 2.81 357 11:34 21.03.2022
4711 Clouds 17 1017 17 10000 3.19 353 09:53 21.03.2022
4712 Clouds 19 1016 15 10000 3.69 353 07:53 21.03.2022
4713 Clouds 19 1016 14 10000 4.26 351 06:30 21.03.2022
4714 Clouds 23 1013 9 10000 9.16 357 02:24 21.03.2022
4715 Clear 24 1012 8 10000 11.45 352 23:26 20.03.2022
4716 Clear 24 1012 8 10000 11.45 352 22:36 20.03.2022
4717 Clear 24 1012 8 10000 10.49 350 21:44 20.03.2022
4718 Clear 23 1012 10 10000 9 350 20:59 20.03.2022
4719 Clear 23 1012 10 10000 9 350 20:39 20.03.2022
4720 Clear 22 1012 14 10000 9.6 349 19:56 20.03.2022
4721 Clear 21 1013 20 10000 9.3 348 19:25 20.03.2022
4722 Clear 20 1012 25 10000 7.87 348 17:50 20.03.2022
4723 Clear 19 1011 32 10000 5.46 349 17:28 20.03.2022
4724 Clear 19 1011 32 10000 5.46 349 16:46 20.03.2022
4725 Clear 15 1010 59 10000 1.73 323 14:54 20.03.2022
4726 Clear 15 1009 59 10000 1.17 306 13:46 20.03.2022
4727 Clouds 17 1008 56 10000 1.24 262 12:21 20.03.2022
4728 Clouds 16 1008 58 10000 2.25 249 10:39 20.03.2022
4729 Clouds 17 1007 50 10000 0.97 203 08:37 20.03.2022
4730 Clear 18 1005 48 10000 3.99 207 06:55 20.03.2022
4731 Clouds 21 1003 35 10000 7.46 188 03:59 20.03.2022
4732 Clouds 27 1003 18 10000 11.02 209 00:59 20.03.2022
4733 Clouds 27 1003 18 10000 11.02 209 00:36 20.03.2022
4734 Clouds 27 1005 13 10000 8.43 196 22:56 19.03.2022
4735 Clouds 27 1009 14 10000 6.83 195 21:27 19.03.2022
4736 Clouds 26 1010 16 10000 7.47 187 20:28 19.03.2022
4737 Clouds 25 1010 15 10000 7.24 177 18:44 19.03.2022
4738 Clouds 25 1011 14 10000 6.27 175 18:23 19.03.2022
4739 Clouds 25 1011 14 10000 6.27 175 17:35 19.03.2022
4740 Clouds 22 1012 16 10000 3.6 174 15:43 19.03.2022
4741 Clouds 21 1012 16 10000 3 173 14:30 19.03.2022
4742 Clouds 21 1012 17 10000 2.76 172 12:58 19.03.2022
4743 Clouds 21 1012 17 10000 2.76 172 12:38 19.03.2022
4744 Clouds 21 1012 17 10000 2.64 170 11:51 19.03.2022
4745 Clouds 22 1013 16 10000 2.49 170 10:44 19.03.2022
4746 Clouds 23 1015 13 10000 2.2 164 06:29 19.03.2022
4747 Clouds 24 1015 12 10000 0.84 150 03:21 19.03.2022
4748 Clear 27 1014 9 10000 1.19 145 01:41 19.03.2022
4749 Clear 27 1014 10 10000 0.76 129 23:36 18.03.2022
4750 Clear 27 1016 10 10000 0.65 57 22:26 18.03.2022
4751 Clear 26 1017 10 10000 1.14 23 21:19 18.03.2022
4752 Clear 25 1018 11 10000 1.7 13 19:51 18.03.2022
4753 Clear 24 1018 12 10000 2.3 10 19:21 18.03.2022
4754 Clear 23 1019 13 10000 2.32 5 17:43 18.03.2022
4755 Clear 22 1018 14 10000 1.48 4 16:47 18.03.2022
4756 Clear 16 1017 20 10000 1.22 343 14:51 18.03.2022
4757 Clear 17 1016 20 10000 1.11 342 14:21 18.03.2022
4758 Clear 17 1016 18 10000 0.97 351 12:26 18.03.2022
4759 Clear 18 1016 18 10000 1.05 350 10:52 18.03.2022
4760 Clear 19 1016 17 10000 0.88 345 09:29 18.03.2022
4761 Clear 19 1016 17 10000 0.88 345 08:30 18.03.2022
4762 Clouds 19 1016 16 10000 0.89 9 06:34 18.03.2022
4763 Clouds 22 1016 15 10000 0.49 62 02:51 18.03.2022
4764 Clouds 25 1015 11 10000 1.12 142 00:22 18.03.2022
4765 Clouds 25 1016 12 10000 0.76 115 23:24 17.03.2022
4766 Clouds 24 1017 13 10000 0.64 78 22:24 17.03.2022
4767 Clouds 24 1017 13 10000 0.64 78 21:48 17.03.2022
4768 Clouds 24 1018 14 10000 1.12 42 21:21 17.03.2022
4769 Clouds 24 1018 14 10000 1.12 42 20:44 17.03.2022
4770 Clouds 23 1020 16 10000 1.47 47 19:48 17.03.2022
4771 Clouds 22 1020 17 10000 2.02 33 18:59 17.03.2022
4772 Clouds 22 1020 18 10000 1.83 31 18:39 17.03.2022
4773 Clear 20 1020 21 10000 2.29 11 16:58 17.03.2022
4774 Clear 18 1020 23 10000 1.77 6 15:44 17.03.2022
4775 Clear 16 1020 26 10000 1.83 359 15:25 17.03.2022
4776 Clear 17 1019 25 10000 1.74 9 14:29 17.03.2022
4777 Clear 17 1018 25 10000 1.59 5 12:54 17.03.2022
4778 Clear 18 1018 23 10000 1.73 4 12:25 17.03.2022
4779 Clear 19 1018 22 10000 2.4 352 11:29 17.03.2022
4780 Clear 19 1018 22 10000 2.4 352 10:30 17.03.2022
4781 Clear 20 1019 20 10000 2.55 353 08:37 17.03.2022
4782 Clear 21 1018 18 10000 2.71 352 07:34 17.03.2022
4783 Clear 22 1017 17 10000 2.96 348 05:47 17.03.2022
4784 Clear 22 1017 17 10000 2.96 348 05:47 17.03.2022
4785 Clear 26 1013 13 10000 8.94 360 01:30 17.03.2022
4786 Clear 27 1012 13 10000 5.82 350 23:56 16.03.2022
4787 Clear 27 1013 16 10000 5.43 345 22:50 16.03.2022
4788 Clear 27 1013 16 10000 5.43 345 22:32 16.03.2022
4789 Clear 27 1013 17 10000 5.21 348 21:42 16.03.2022
4790 Clear 26 1015 22 10000 5.19 355 19:47 16.03.2022
4791 Clear 25 1015 26 10000 5.14 355 19:21 16.03.2022
4792 Clear 25 1015 24 10000 5.26 354 18:38 16.03.2022
4793 Clear 24 1015 28 10000 5.11 357 17:43 16.03.2022
4794 Clear 23 1015 34 10000 3.61 354 17:20 16.03.2022
4795 Clear 21 1015 41 10000 2.15 341 15:55 16.03.2022
4796 Clear 20 1014 42 10000 2.21 338 14:27 16.03.2022
4797 Clear 20 1014 42 10000 2.21 338 13:31 16.03.2022
4798 Clouds 20 1013 38 10000 2.16 337 11:57 16.03.2022
4799 Clouds 21 1013 35 10000 2.14 327 11:21 16.03.2022
4800 Clouds 22 1014 32 10000 2.59 341 10:23 16.03.2022
4801 Clouds 22 1014 28 10000 2.34 340 08:53 16.03.2022
4802 Clouds 24 1014 19 10000 2.87 344 06:27 16.03.2022
4803 Clouds 27 1013 15 10000 1.91 357 01:56 16.03.2022
4804 Clouds 28 1015 14 10000 0.81 76 22:41 15.03.2022
4805 Clouds 27 1016 15 10000 0.55 120 22:18 15.03.2022
4806 Clouds 27 1017 15 10000 1.03 156 20:33 15.03.2022
4807 Clouds 25 1019 17 10000 1.09 154 18:58 15.03.2022
4808 Clouds 23 1019 19 10000 1.16 163 17:24 15.03.2022
4809 Clouds 23 1019 19 10000 1.16 163 16:32 15.03.2022
4810 Clouds 18 1019 27 10000 0.62 163 15:21 15.03.2022
4811 Clouds 18 1019 27 10000 0.62 163 14:45 15.03.2022
4812 Clouds 18 1019 27 10000 0.55 98 13:46 15.03.2022
4813 Clouds 19 1019 25 10000 0.89 130 12:29 15.03.2022
4814 Clouds 19 1019 25 10000 0.89 130 11:31 15.03.2022
4815 Clear 20 1020 24 10000 1.29 149 09:46 15.03.2022
4816 Clear 20 1020 23 10000 1.17 160 08:42 15.03.2022
4817 Clear 21 1020 23 10000 0.89 159 07:52 15.03.2022
4818 Clear 21 1020 23 10000 0.89 159 07:34 15.03.2022
4819 Clear 22 1020 23 10000 0.63 213 04:20 15.03.2022
4820 Clear 26 1020 17 10000 0.61 121 23:57 14.03.2022
4821 Clear 26 1020 17 10000 0.73 88 23:24 14.03.2022
4822 Clear 26 1020 17 10000 0.73 88 22:30 14.03.2022
4823 Clear 25 1021 18 10000 0.86 67 21:35 14.03.2022
4824 Clear 24 1022 19 10000 1.07 43 20:54 14.03.2022
4825 Clear 23 1023 21 10000 1.31 40 20:20 14.03.2022
4826 Clouds 23 1023 22 10000 1.63 37 18:55 14.03.2022
4827 Clouds 22 1023 23 10000 2.26 30 17:55 14.03.2022
4828 Clouds 20 1023 24 10000 1.52 16 17:24 14.03.2022
4829 Clouds 19 1023 27 10000 1.33 4 16:18 14.03.2022
4830 Clouds 17 1022 29 10000 1.42 353 14:41 14.03.2022
4831 Clouds 17 1020 28 10000 2.08 356 12:51 14.03.2022
4832 Clouds 18 1020 25 10000 1.6 2 10:54 14.03.2022
4833 Clouds 19 1020 23 10000 1.64 9 09:55 14.03.2022
4834 Clear 19 1019 21 10000 1.77 17 09:22 14.03.2022
4835 Clear 19 1019 21 10000 1.77 17 08:56 14.03.2022
4836 Clear 20 1018 18 10000 2.29 18 07:43 14.03.2022
4837 Clouds 21 1016 18 10000 1.41 6 05:46 14.03.2022
4838 Clouds 25 1012 13 10000 0.27 310 01:58 14.03.2022
4839 Clouds 25 1012 13 10000 0.82 26 01:29 14.03.2022
4840 Clouds 26 1011 13 10000 1.09 89 22:52 13.03.2022
4841 Clouds 25 1012 14 10000 1.07 134 21:31 13.03.2022
4842 Clouds 24 1013 15 10000 1.23 146 20:56 13.03.2022
4843 Clouds 24 1013 15 10000 1.23 146 20:37 13.03.2022
4844 Clouds 23 1014 16 10000 1.2 130 20:19 13.03.2022
4845 Clouds 23 1014 16 10000 1.2 130 19:39 13.03.2022
4846 Clouds 22 1014 17 10000 1.23 166 19:18 13.03.2022
4847 Clouds 22 1014 17 10000 1.23 166 18:38 13.03.2022
4848 Clouds 21 1014 16 10000 1.02 181 17:47 13.03.2022
4849 Clouds 20 1015 17 10000 0.33 248 17:21 13.03.2022
4850 Clouds 20 1015 17 10000 0.33 248 16:33 13.03.2022
4851 Clouds 18 1014 19 10000 0.4 182 15:49 13.03.2022
4852 Clouds 16 1013 20 10000 0.57 143 14:58 13.03.2022
4853 Clouds 17 1013 19 10000 0.87 161 13:49 13.03.2022
4854 Clouds 17 1013 18 10000 0.61 154 12:57 13.03.2022
4855 Clouds 17 1014 16 10000 0.49 158 12:19 13.03.2022
4856 Clouds 17 1014 16 10000 0.49 158 11:36 13.03.2022
4857 Clear 18 1014 16 10000 1.38 152 10:48 13.03.2022
4858 Clear 18 1014 16 10000 1.38 152 10:48 13.03.2022
4859 Clear 18 1014 15 10000 1.39 160 10:24 13.03.2022
4860 Clear 18 1014 15 10000 1.39 160 09:41 13.03.2022
4861 Clear 18 1014 15 10000 1.39 160 09:41 13.03.2022
4862 Clear 19 1015 15 10000 1.3 143 08:47 13.03.2022
4863 Clear 19 1016 14 10000 0.97 147 07:47 13.03.2022
4864 Clear 20 1016 13 10000 1.93 164 05:42 13.03.2022
4865 Clear 22 1017 12 10000 1.57 138 02:50 13.03.2022
4866 Clear 25 1017 9 10000 1.85 153 00:20 13.03.2022
4867 Clear 24 1018 9 10000 1.35 151 22:37 12.03.2022
4868 Clear 23 1022 9 10000 0.76 120 20:54 12.03.2022
4869 Clear 22 1023 9 10000 0.43 96 19:56 12.03.2022
4870 Clear 22 1023 9 10000 0.43 96 19:38 12.03.2022
4871 Clear 20 1025 10 10000 0.4 82 18:27 12.03.2022
4872 Clear 20 1025 10 10000 0.4 82 17:34 12.03.2022
4873 Clear 15 1025 14 10000 0.22 68 16:24 12.03.2022
4874 Clear 13 1024 15 10000 0.28 331 15:24 12.03.2022
4875 Clear 13 1024 15 10000 0.28 331 15:24 12.03.2022
4876 Clear 13 1024 15 10000 0.28 331 14:51 12.03.2022
4877 Clear 13 1024 15 10000 0.47 354 13:47 12.03.2022
4878 Clear 14 1025 15 10000 0.1 165 12:18 12.03.2022
4879 Clear 14 1025 15 10000 0.1 165 11:45 12.03.2022
4880 Clear 14 1025 15 10000 0.21 4 10:58 12.03.2022
4881 Clear 15 1026 14 10000 0.36 39 09:46 12.03.2022
4882 Clear 15 1026 14 10000 0.41 56 09:20 12.03.2022
4883 Clear 16 1026 13 10000 0.61 172 07:29 12.03.2022
4884 Clear 17 1026 13 10000 0.74 333 03:54 12.03.2022
4885 Clear 21 1025 8 10000 1.5 15 23:56 11.03.2022
4886 Clear 21 1025 8 10000 1.5 15 23:56 11.03.2022
4887 Clear 20 1025 9 10000 1.88 10 23:19 11.03.2022
4888 Clear 20 1025 9 10000 1.88 10 23:19 11.03.2022
4889 Clear 20 1026 9 10000 2.4 8 21:43 11.03.2022
4890 Clear 19 1028 9 10000 2.77 9 20:57 11.03.2022
4891 Clear 19 1028 9 10000 2.77 9 20:35 11.03.2022
4892 Clear 18 1029 10 10000 2.89 6 19:52 11.03.2022
4893 Clear 16 1029 12 10000 2.98 7 19:22 11.03.2022
4894 Clear 15 1029 13 10000 2.83 6 17:34 11.03.2022
4895 Clear 14 1029 14 10000 2.46 8 16:38 11.03.2022
4896 Clear 12 1029 17 10000 2.1 359 15:57 11.03.2022
4897 Clear 11 1027 18 10000 2.4 1 14:21 11.03.2022
4898 Clear 11 1026 17 10000 2.44 356 12:52 11.03.2022
4899 Clear 11 1026 17 10000 2.37 1 12:21 11.03.2022
4900 Clear 11 1026 17 10000 2.37 1 11:55 11.03.2022
4901 Clear 12 1026 16 10000 2.48 2 10:18 11.03.2022
4902 Clear 12 1025 16 10000 2.36 355 08:57 11.03.2022
4903 Clear 12 1025 16 10000 2.7 352 08:24 11.03.2022
4904 Clear 12 1025 16 10000 2.7 352 07:45 11.03.2022
4905 Clear 14 1023 16 10000 4.13 350 05:49 11.03.2022
4906 Clear 15 1021 13 10000 6.54 343 03:49 11.03.2022
4907 Clear 18 1017 11 10000 10.44 349 23:46 10.03.2022
4908 Clear 18 1018 11 10000 10.69 351 22:31 10.03.2022
4909 Clear 17 1018 12 10000 10.78 355 21:47 10.03.2022
4910 Clear 17 1019 12 10000 10.92 356 21:19 10.03.2022
4911 Clear 16 1019 14 10000 11.27 0 19:45 10.03.2022
4912 Clouds 16 1018 16 10000 10.53 0 18:55 10.03.2022
4913 Clouds 15 1017 20 10000 9.83 358 17:36 10.03.2022
4914 Clouds 14 1015 39 10000 6.42 346 15:55 10.03.2022
4915 Clouds 14 1013 48 10000 6 6 15:20 10.03.2022
4916 Clouds 16 1009 44 10000 4.14 19 13:24 10.03.2022
4917 Clouds 16 1008 43 10000 3.53 22 11:58 10.03.2022
4918 Clouds 16 1007 40 10000 3.12 26 10:54 10.03.2022
4919 Clouds 18 1007 30 10000 1.65 18 09:22 10.03.2022
4920 Clouds 18 1007 26 10000 1.74 13 07:41 10.03.2022
4921 Clear 18 1006 23 10000 0.74 338 04:44 10.03.2022
4922 Clear 22 1006 18 10000 0.55 85 01:49 10.03.2022
4923 Clear 23 1008 16 10000 1.06 117 23:28 09.03.2022
4924 Clear 23 1009 15 10000 1.04 131 21:51 09.03.2022
4925 Clear 23 1009 15 10000 1.04 131 21:32 09.03.2022
4926 Clear 21 1012 16 10000 0.93 131 19:50 09.03.2022
4927 Clear 20 1013 18 10000 0.86 128 18:34 09.03.2022
4928 Clear 19 1013 19 10000 0.48 170 17:27 09.03.2022
4929 Clear 15 1013 19 10000 0.48 170 16:31 09.03.2022
4930 Clear 13 1013 26 10000 1.03 195 15:28 09.03.2022
4931 Clear 14 1013 25 10000 0.9 187 13:54 09.03.2022
4932 Clear 14 1013 25 10000 0.79 184 12:47 09.03.2022
4933 Clear 14 1013 24 10000 0.75 183 11:54 09.03.2022
4934 Clear 14 1013 24 10000 0.75 183 11:35 09.03.2022
4935 Clear 15 1014 24 10000 0.8 185 10:34 09.03.2022
4936 Clear 16 1014 23 10000 0.68 169 08:57 09.03.2022
4937 Clear 16 1015 22 10000 0.42 142 07:54 09.03.2022
4938 Clear 21 1015 18 10000 2.13 168 02:59 09.03.2022
4939 Clear 20 1015 15 10000 0.84 130 00:46 09.03.2022
4940 Clear 20 1017 16 10000 0.75 80 22:48 08.03.2022
4941 Clear 20 1018 16 10000 0.57 102 22:27 08.03.2022
4942 Clear 19 1020 17 10000 0.38 82 21:23 08.03.2022
4943 Clear 19 1020 17 10000 0.38 82 20:44 08.03.2022
4944 Clear 18 1021 18 10000 0.49 41 19:42 08.03.2022
4945 Clear 18 1021 18 10000 0.49 41 19:42 08.03.2022
4946 Clear 17 1022 19 10000 1.74 17 18:44 08.03.2022
4947 Clear 17 1022 20 10000 1.28 24 18:44 08.03.2022
4948 Clear 19 1023 20 10000 1.94 17 17:37 08.03.2022
4949 Clear 14 1023 25 10000 1.56 3 16:26 08.03.2022
4950 Clear 14 1023 27 10000 1.84 7 14:19 08.03.2022
4951 Clear 14 1023 26 10000 1.79 3 12:43 08.03.2022
4952 Clear 14 1024 25 10000 1.66 7 11:45 08.03.2022
4953 Clear 12 1024 24 10000 1.52 12 10:50 08.03.2022
4954 Clear 13 1024 24 10000 1.43 12 09:57 08.03.2022
4955 Clear 14 1024 23 10000 1.73 350 07:33 08.03.2022
4956 Clear 15 1024 21 10000 1.97 2 05:43 08.03.2022
4957 Clear 19 1022 12 10000 8.32 0 23:52 07.03.2022
4958 Clear 18 1024 13 10000 8.42 356 21:59 07.03.2022
4959 Clear 18 1024 13 10000 8.42 356 21:32 07.03.2022
4960 Clear 18 1025 15 10000 8.64 355 20:49 07.03.2022
4961 Clear 17 1026 18 10000 8.7 354 20:20 07.03.2022
4962 Clear 18 1026 18 10000 8.7 354 19:33 07.03.2022
4963 Clear 16 1027 23 10000 7.49 355 18:44 07.03.2022
4964 Clear 15 1027 25 10000 6.57 355 17:52 07.03.2022
4965 Clear 13 1027 26 10000 4.61 353 16:56 07.03.2022
4966 Clear 10 1026 30 10000 2.77 351 15:59 07.03.2022
4967 Clear 11 1025 33 10000 2.82 354 13:52 07.03.2022
4968 Clear 11 1025 33 10000 2.82 354 13:52 07.03.2022
4969 Clear 10 1024 32 10000 3.03 357 12:28 07.03.2022
4970 Clear 10 1024 31 10000 2.64 360 10:39 07.03.2022
4971 Clear 11 1023 29 10000 2.16 14 09:24 07.03.2022
4972 Clear 15 1020 27 10000 1.09 19 04:51 07.03.2022
4973 Clear 18 1018 23 10000 1.07 55 00:23 07.03.2022
4974 Clear 18 1018 23 10000 1.07 55 23:35 06.03.2022
4975 Clear 18 1018 23 10000 1.07 55 23:35 06.03.2022
4976 Clear 18 1019 24 10000 1.27 54 22:57 06.03.2022
4977 Clear 18 1019 25 10000 1.07 56 22:19 06.03.2022
4978 Clear 17 1020 27 10000 0.91 56 20:50 06.03.2022
4979 Clear 16 1021 30 10000 0.69 62 20:23 06.03.2022
4980 Clear 15 1021 32 10000 0.43 71 19:23 06.03.2022
4981 Clear 14 1021 35 10000 0.27 151 18:25 06.03.2022
4982 Clear 14 1021 37 10000 0.81 168 17:21 06.03.2022
4983 Clear 11 1021 37 10000 0.81 168 16:43 06.03.2022
4984 Clear 10 1020 42 10000 1.06 179 16:18 06.03.2022
4985 Clear 10 1019 46 10000 1.21 179 14:57 06.03.2022
4986 Clear 9 1019 46 10000 1.21 179 14:33 06.03.2022
4987 Clear 9 1019 47 10000 0.74 190 13:36 06.03.2022
4988 Clouds 9 1017 43 10000 0.88 195 12:35 06.03.2022
4989 Clouds 9 1016 44 10000 0.81 198 11:21 06.03.2022
4990 Clouds 10 1016 43 10000 0.47 34 10:28 06.03.2022
4991 Clouds 10 1015 40 10000 0.8 333 08:40 06.03.2022
4992 Clouds 10 1015 38 10000 1.85 341 08:20 06.03.2022
4993 Clouds 11 1013 28 10000 0.87 1 06:22 06.03.2022
4994 Clouds 18 1009 23 10000 1.15 160 00:55 06.03.2022
4995 Clouds 17 1009 22 10000 0.72 101 00:33 06.03.2022
4996 Clouds 17 1009 22 10000 0.72 101 00:33 06.03.2022
4997 Clouds 18 1010 25 10000 0.96 262 23:26 05.03.2022
4998 Clouds 15 1010 25 10000 0.96 262 22:57 05.03.2022
4999 Clouds 15 1010 23 10000 0.68 191 22:25 05.03.2022
5000 Clouds 16 1010 22 10000 1.1 118 21:24 05.03.2022
5001 Clouds 16 1011 23 10000 0.73 83 19:53 05.03.2022
5002 Clouds 16 1012 25 10000 0.15 193 18:56 05.03.2022
5003 Clouds 14 1012 32 10000 0.57 259 18:27 05.03.2022
5004 Clouds 12 1011 34 10000 1.43 305 16:52 05.03.2022
5005 Clear 11 1009 27 10000 3.84 233 15:40 05.03.2022
5006 Clear 11 1006 34 10000 7.13 199 14:52 05.03.2022
5007 Clear 11 1006 34 10000 7.13 199 14:34 05.03.2022
5008 Clear 11 1006 47 10000 8.22 198 13:34 05.03.2022
5009 Clear 14 1005 64 10000 5.66 194 11:49 05.03.2022
5010 Clear 14 1006 64 10000 4.83 196 11:20 05.03.2022
5011 Clear 14 1007 62 10000 4.41 189 10:20 05.03.2022
5012 Clear 14 1007 60 10000 3.91 183 09:28 05.03.2022
5013 Clear 14 1007 56 10000 4.11 181 07:58 05.03.2022
5014 Clouds 14 1007 51 10000 4.26 173 05:43 05.03.2022
5015 Clouds 16 1006 44 10000 4.56 170 04:33 05.03.2022
5016 Clouds 20 1005 31 10000 4.5 169 23:39 04.03.2022
5017 Clouds 23 1005 33 10000 3.71 173 22:44 04.03.2022
5018 Clouds 21 1006 34 10000 3.54 164 22:23 04.03.2022
5019 Clouds 23 1007 36 10000 3.36 163 21:24 04.03.2022
5020 Clouds 20 1007 37 10000 2.85 163 20:28 04.03.2022
5021 Clouds 22 1007 37 10000 2.85 163 19:36 04.03.2022
5022 Clouds 20 1007 38 10000 2.86 162 18:47 04.03.2022
5023 Clouds 19 1007 47 10000 4.08 162 18:22 04.03.2022
5024 Clouds 17 1007 51 10000 3.8 167 17:28 04.03.2022
5025 Clouds 13 1007 57 10000 2.98 173 15:31 04.03.2022
5026 Clouds 14 1006 60 10000 3.01 174 14:40 04.03.2022
5027 Clouds 15 1005 44 10000 3.63 184 13:27 04.03.2022
5028 Clouds 16 1004 38 10000 3.64 184 11:57 04.03.2022
5029 Clouds 18 1004 35 10000 3.79 186 10:58 04.03.2022
5030 Clouds 18 1005 30 10000 3.93 188 10:21 04.03.2022
5031 Clouds 19 1005 19 10000 4.43 197 09:27 04.03.2022
5032 Clouds 19 1005 17 10000 2.87 185 07:47 04.03.2022
5033 Clouds 20 1005 16 10000 3.41 210 05:44 04.03.2022
5034 Clouds 29 1005 8 10000 4.69 195 00:43 04.03.2022
5035 Clouds 29 1006 9 10000 5.71 181 23:28 03.03.2022
5036 Clouds 28 1007 8 10000 5.22 171 21:58 03.03.2022
5037 Clouds 29 1007 8 10000 5.22 171 21:35 03.03.2022
5038 Clouds 28 1008 9 10000 4.12 171 20:32 03.03.2022
5039 Clouds 28 1010 10 10000 2.46 175 19:22 03.03.2022
5040 Clouds 26 1010 9 10000 2.18 180 18:25 03.03.2022
5041 Clouds 25 1010 9 10000 2.18 180 17:31 03.03.2022
5042 Clouds 24 1011 11 10000 1.87 165 16:38 03.03.2022
5043 Clouds 21 1010 12 10000 1.81 158 15:44 03.03.2022
5044 Clouds 20 1010 13 10000 1.68 157 14:44 03.03.2022
5045 Clouds 20 1010 12 10000 1.39 163 14:25 03.03.2022
5046 Clouds 21 1010 12 10000 1.28 154 12:33 03.03.2022
5047 Clouds 22 1011 11 10000 1.08 177 11:23 03.03.2022
5048 Clouds 22 1011 11 10000 1.08 177 10:38 03.03.2022
5049 Clouds 23 1012 10 10000 1.37 161 08:42 03.03.2022
5050 Clouds 24 1013 10 10000 1.66 162 06:57 03.03.2022
5051 Clouds 24 1013 10 10000 1.44 162 05:37 03.03.2022
5052 Clouds 30 1013 7 10000 1.95 159 00:30 03.03.2022
5053 Clouds 30 1014 7 10000 1.58 155 23:18 02.03.2022
5054 Clouds 30 1014 7 10000 1.58 155 22:42 02.03.2022
5055 Clouds 29 1016 8 10000 0.67 127 21:22 02.03.2022
5056 Clouds 29 1016 8 10000 0.67 127 20:30 02.03.2022
5057 Clouds 28 1017 8 10000 0.39 98 19:43 02.03.2022
5058 Clouds 27 1018 9 10000 0.33 58 19:24 02.03.2022
5059 Clouds 27 1018 9 10000 0.33 58 18:39 02.03.2022
5060 Clouds 28 1018 10 10000 0.38 126 17:45 02.03.2022
5061 Clouds 23 1018 13 10000 0.2 170 16:54 02.03.2022
5062 Clouds 19 1017 15 10000 0.11 353 16:25 02.03.2022
5063 Clouds 15 1017 16 10000 0.22 63 14:39 02.03.2022
5064 Clouds 19 1017 15 10000 0.39 117 13:23 02.03.2022
5065 Clouds 19 1017 15 10000 0.39 117 12:40 02.03.2022
5066 Clouds 20 1017 15 10000 1.08 145 11:38 02.03.2022
5067 Clouds 20 1017 14 10000 1.01 162 11:18 02.03.2022
5068 Clouds 21 1018 14 10000 0.79 171 09:40 02.03.2022
5069 Clouds 21 1018 14 10000 0.76 155 08:51 02.03.2022
5070 Clear 22 1018 13 10000 0.93 186 07:25 02.03.2022
5071 Clear 22 1018 14 10000 0.58 170 05:44 02.03.2022
5072 Clear 29 1016 9 10000 0.34 103 00:57 02.03.2022
5073 Clear 29 1016 9 10000 0.57 77 23:46 01.03.2022
5074 Clear 29 1017 9 10000 0.95 35 22:45 01.03.2022
5075 Clear 29 1018 9 10000 1.2 24 21:56 01.03.2022
5076 Clear 28 1019 10 10000 1.69 14 21:21 01.03.2022
5077 Clear 27 1020 10 10000 2.15 9 20:24 01.03.2022
5078 Clear 26 1021 11 10000 2.81 5 19:23 01.03.2022
5079 Clear 26 1021 11 10000 2.71 4 18:37 01.03.2022
5080 Clear 25 1021 12 10000 2.79 3 18:18 01.03.2022
5081 Clear 24 1021 14 10000 1.79 358 16:54 01.03.2022
5082 Clear 23 1021 14 10000 1.79 358 16:30 01.03.2022
5083 Clear 20 1021 18 10000 2.13 346 15:32 01.03.2022
5084 Clear 19 1020 20 10000 2.55 346 14:34 01.03.2022
5085 Clear 19 1020 20 10000 2.48 343 13:45 01.03.2022
5086 Clear 19 1020 18 10000 2.34 343 13:22 01.03.2022
5087 Clear 16 1020 18 10000 2.3 346 12:27 01.03.2022
5088 Clear 21 1020 18 10000 2.14 344 10:33 01.03.2022
5089 Clear 19 1020 16 10000 2.07 347 08:41 01.03.2022
5090 Clear 20 1020 15 10000 2.05 346 07:44 01.03.2022
5091 Clear 20 1021 14 10000 2.43 341 05:49 01.03.2022
5092 Clear 26 1019 11 10000 3.67 355 01:48 01.03.2022
5093 Clear 27 1020 9 10000 3.94 359 00:25 01.03.2022
5094 Clear 27 1020 10 10000 3.98 5 23:29 28.02.2022
5095 Clear 26 1021 10 10000 4.7 8 21:59 28.02.2022
5096 Clear 26 1023 11 10000 5.2 4 21:25 28.02.2022
5097 Clear 24 1024 12 10000 5.65 4 19:55 28.02.2022
5098 Clear 24 1024 12 10000 5.65 4 19:33 28.02.2022
5099 Clear 23 1024 13 10000 4.94 2 18:40 28.02.2022
5100 Clear 23 1025 15 10000 4.55 1 17:30 28.02.2022
5101 Clear 20 1025 16 10000 2.8 0 16:33 28.02.2022
5102 Clear 17 1024 18 10000 2.7 352 15:23 28.02.2022
5103 Clear 16 1024 18 10000 2.7 352 14:31 28.02.2022
5104 Clear 18 1024 17 10000 3.03 352 13:47 28.02.2022
5105 Clouds 19 1024 17 10000 2.61 349 12:47 28.02.2022
5106 Clouds 17 1024 16 10000 2.78 347 11:57 28.02.2022
5107 Clouds 17 1025 15 10000 3.1 349 10:49 28.02.2022
5108 Clouds 19 1025 15 10000 2.66 345 10:21 28.02.2022
5109 Clouds 19 1025 15 10000 2.66 345 09:33 28.02.2022
5110 Clouds 19 1025 14 10000 2.61 347 08:32 28.02.2022
5111 Clouds 19 1025 13 10000 2.39 349 07:35 28.02.2022
5112 Clouds 20 1025 12 10000 2.12 341 05:21 28.02.2022
5113 Clouds 20 1026 12 10000 1.94 352 04:27 28.02.2022
5114 Clouds 21 1025 9 10000 2.56 12 23:44 27.02.2022
5115 Clouds 21 1026 9 10000 2.75 2 22:35 27.02.2022
5116 Clouds 20 1026 9 10000 2.44 8 21:52 27.02.2022
5117 Clouds 20 1027 10 10000 2.58 3 21:27 27.02.2022
5118 Clouds 20 1027 10 10000 2.58 3 20:37 27.02.2022
5119 Clouds 18 1028 11 10000 2.26 9 19:58 27.02.2022
5120 Clouds 18 1029 12 10000 2.36 355 19:27 27.02.2022
5121 Clouds 18 1029 12 10000 2.36 355 18:48 27.02.2022
5122 Clouds 17 1029 13 10000 2.44 21 17:57 27.02.2022
5123 Clouds 15 1030 14 10000 1.61 348 17:20 27.02.2022
5124 Clouds 14 1029 17 10000 1.59 4 16:22 27.02.2022
5125 Clouds 11 1028 18 10000 1.41 17 13:49 27.02.2022
5126 Clouds 9 1028 18 10000 0.97 338 12:35 27.02.2022
5127 Clouds 12 1028 18 10000 0.61 30 11:28 27.02.2022
5128 Clouds 12 1028 17 10000 1.1 54 10:24 27.02.2022
5129 Clouds 12 1028 17 10000 1.1 54 09:51 27.02.2022
5130 Clouds 13 1028 17 10000 0.52 4 09:21 27.02.2022
5131 Clouds 13 1028 17 10000 0.52 4 08:38 27.02.2022
5132 Clouds 12 1028 17 10000 0.6 326 05:41 27.02.2022
5133 Clouds 18 1027 16 10000 0.92 354 02:57 27.02.2022
5134 Clear 18 1026 11 10000 1.82 10 23:36 26.02.2022
5135 Clear 18 1026 12 10000 2.75 19 22:34 26.02.2022
5136 Clear 16 1029 15 10000 3.61 10 21:26 26.02.2022
5137 Clear 16 1029 15 10000 3.61 10 20:37 26.02.2022
5138 Clear 15 1030 17 10000 3.65 11 19:54 26.02.2022
5139 Clear 15 1030 17 10000 3.65 11 19:33 26.02.2022
5140 Clear 16 1030 18 10000 3.8 13 18:31 26.02.2022
5141 Clear 15 1030 20 10000 3.33 7 17:34 26.02.2022
5142 Clear 10 1030 22 10000 3.11 4 16:38 26.02.2022
5143 Clear 8 1030 25 10000 2.32 358 15:37 26.02.2022
5144 Clear 9 1029 25 10000 2.27 359 15:18 26.02.2022
5145 Clear 11 1029 25 10000 2.27 359 14:41 26.02.2022
5146 Clear 11 1028 24 10000 2.47 3 13:51 26.02.2022
5147 Clear 11 1027 22 10000 2.6 360 12:53 26.02.2022
5148 Clear 11 1027 22 10000 2.79 354 11:52 26.02.2022
5149 Clear 11 1026 22 10000 2.63 353 11:25 26.02.2022
5150 Clear 11 1026 21 10000 2.69 352 09:44 26.02.2022
5151 Clear 13 1025 19 10000 2.43 346 08:28 26.02.2022
5152 Clear 13 1025 19 10000 2.29 351 06:31 26.02.2022
5153 Clear 17 1022 16 10000 2.62 2 23:53 25.02.2022
5154 Clear 17 1022 16 10000 2.94 6 22:43 25.02.2022
5155 Clear 16 1022 17 10000 3.18 8 21:33 25.02.2022
5156 Clear 16 1024 18 10000 3.24 8 20:56 25.02.2022
5157 Clear 15 1025 19 10000 3.39 7 20:27 25.02.2022
5158 Clouds 14 1025 19 10000 2.65 8 17:57 25.02.2022
5159 Clouds 10 1025 19 10000 1.74 7 16:59 25.02.2022
5160 Clouds 9 1025 21 10000 1.6 355 16:19 25.02.2022
5161 Clouds 8 1024 20 10000 1.76 354 15:24 25.02.2022
5162 Clouds 8 1024 20 10000 1.76 354 15:24 25.02.2022
5163 Clouds 9 1024 20 10000 1.76 354 14:56 25.02.2022
5164 Clouds 9 1024 20 10000 1.76 354 14:37 25.02.2022
5165 Clouds 9 1024 20 10000 1.88 350 13:30 25.02.2022
5166 Clouds 9 1023 21 10000 1.99 346 12:33 25.02.2022
5167 Clouds 9 1024 21 10000 1.85 1 11:22 25.02.2022
5168 Clear 9 1024 22 10000 1.32 354 10:24 25.02.2022
5169 Clear 9 1024 22 10000 1.32 354 09:52 25.02.2022
5170 Clear 9 1023 22 10000 0.86 6 08:44 25.02.2022
5171 Clear 10 1023 21 10000 0.89 356 07:36 25.02.2022
5172 Clear 11 1023 20 10000 0.76 41 05:45 25.02.2022
5173 Clear 11 1022 16 10000 0.21 47 02:58 25.02.2022
5174 Clear 13 1023 14 10000 1.17 131 22:56 24.02.2022
5175 Clear 13 1023 15 10000 1.35 143 21:54 24.02.2022
5176 Clear 13 1023 15 10000 1.35 143 21:31 24.02.2022
5177 Clear 12 1025 16 10000 1.01 143 20:57 24.02.2022
5178 Clear 11 1026 18 10000 0.67 115 19:38 24.02.2022
5179 Clear 11 1026 21 10000 0.48 80 18:38 24.02.2022
5180 Clear 10 1026 23 10000 0.92 23 18:18 24.02.2022
5181 Clear 9 1026 23 10000 0.92 23 17:33 24.02.2022
5182 Clear 6 1027 26 10000 0.58 33 16:45 24.02.2022
5183 Clear 5 1026 31 10000 0.37 59 16:21 24.02.2022
5184 Clear 4 1025 33 10000 0.78 357 14:53 24.02.2022
5185 Clear 4 1025 32 10000 1.6 350 14:26 24.02.2022
5186 Clear 3 1025 32 10000 1.6 350 13:39 24.02.2022
5187 Clear 3 1025 32 10000 1.6 350 13:39 24.02.2022
5188 Clear 3 1025 31 10000 2.02 350 12:49 24.02.2022
5189 Clear 7 1024 30 10000 2.48 342 10:40 24.02.2022
5190 Clouds 4 1023 29 10000 3.52 343 08:59 24.02.2022
5191 Clouds 4 1023 29 10000 3.52 343 08:40 24.02.2022
5192 Clouds 6 1022 30 10000 3.91 318 05:52 24.02.2022
5193 Clouds 10 1015 20 10000 6.52 338 01:56 24.02.2022
5194 Clouds 12 1013 19 10000 3.08 319 22:56 23.02.2022
5195 Clouds 12 1013 22 10000 3.48 327 21:43 23.02.2022
5196 Clouds 12 1014 29 10000 2.86 334 20:31 23.02.2022
5197 Clouds 11 1014 37 10000 2.41 341 19:47 23.02.2022
5198 Clouds 9 1014 48 10000 2.56 348 18:32 23.02.2022
5199 Clouds 9 1014 48 10000 2.56 348 18:32 23.02.2022
5200 Clouds 9 1014 48 10000 2.56 348 18:32 23.02.2022
5201 Clouds 6 1014 59 10000 1.28 336 17:44 23.02.2022
5202 Clouds 5 1011 73 10000 1.44 211 15:19 23.02.2022
5203 Clouds 6 1011 80 10000 1.24 252 12:50 23.02.2022
5204 Clouds 5 1010 85 9772 1.54 261 12:24 23.02.2022
5205 Clouds 5 1010 85 9772 1.54 261 12:24 23.02.2022
5206 Clouds 6 1010 83 10000 1.07 253 10:44 23.02.2022
5207 Clouds 7 1010 81 8389 3.28 346 09:00 23.02.2022
5208 Clouds 7 1009 72 10000 4.51 352 08:23 23.02.2022
5209 Clouds 8 1008 61 10000 4.24 351 07:18 23.02.2022
5210 Clouds 14 1003 27 10000 8.79 219 01:21 23.02.2022
5211 Clouds 16 1003 28 10000 8.39 216 23:39 22.02.2022
5212 Clouds 16 1003 26 10000 5.54 205 22:51 22.02.2022
5213 Clouds 18 1004 29 10000 3.43 199 21:56 22.02.2022
5214 Clouds 18 1004 29 10000 3.43 199 21:37 22.02.2022
5215 Clouds 18 1006 32 10000 2.94 204 21:18 22.02.2022
5216 Clouds 18 1006 32 10000 2.94 204 20:31 22.02.2022
5217 Clouds 14 1007 36 10000 1.8 216 19:51 22.02.2022
5218 Clouds 14 1007 36 10000 1.8 216 19:31 22.02.2022
5219 Clear 13 1009 45 10000 2.49 180 18:27 22.02.2022
5220 Clear 13 1009 49 10000 2.33 180 17:26 22.02.2022
5221 Clear 9 1009 49 10000 2.33 180 16:42 22.02.2022
5222 Clear 6 1009 55 10000 1.7 181 15:59 22.02.2022
5223 Clear 7 1008 55 10000 1.92 183 14:52 22.02.2022
5224 Clear 7 1008 50 10000 1.91 193 12:52 22.02.2022
5225 Clear 9 1008 38 10000 0.27 298 10:54 22.02.2022
5226 Clear 10 1008 34 10000 0.41 290 08:56 22.02.2022
5227 Clear 11 1006 28 10000 0.68 242 07:28 22.02.2022
5228 Clear 11 1006 28 10000 0.68 242 06:53 22.02.2022
5229 Clear 19 1001 17 10000 3.37 167 02:48 22.02.2022
5230 Clear 23 1000 16 10000 0.41 126 23:18 21.02.2022
5231 Clear 24 1001 18 10000 0.87 137 21:56 21.02.2022
5232 Clear 23 1002 21 10000 0.78 164 20:38 21.02.2022
5233 Clouds 22 1003 29 10000 2.71 211 18:47 21.02.2022
5234 Clouds 19 1002 33 10000 3.49 210 18:18 21.02.2022
5235 Clouds 16 1002 42 10000 3.48 203 15:36 21.02.2022
5236 Clouds 16 1002 36 10000 3.06 209 14:22 21.02.2022
5237 Clouds 17 1002 36 10000 3.06 209 13:30 21.02.2022
5238 Clouds 18 1002 32 10000 3.33 198 12:41 21.02.2022
5239 Clouds 18 1003 31 10000 3.24 198 12:20 21.02.2022
5240 Clouds 19 1004 30 10000 3.29 202 10:26 21.02.2022
5241 Clouds 19 1005 23 10000 1.72 194 05:40 21.02.2022
5242 Clouds 23 1006 14 10000 2.18 180 00:35 21.02.2022
5243 Clouds 25 1008 14 10000 2.29 163 22:32 20.02.2022
5244 Clouds 24 1009 15 10000 2.06 164 21:43 20.02.2022
5245 Clouds 24 1011 15 10000 1.89 166 21:21 20.02.2022
5246 Clouds 26 1011 15 10000 1.89 166 20:43 20.02.2022
5247 Clear 23 1012 16 10000 1.65 170 19:48 20.02.2022
5248 Clear 22 1013 17 10000 1.29 163 18:55 20.02.2022
5249 Clear 24 1013 17 10000 1.07 159 18:34 20.02.2022
5250 Clear 23 1013 18 10000 0.48 182 17:55 20.02.2022
5251 Clear 16 1013 26 10000 0.64 160 16:18 20.02.2022
5252 Clear 15 1013 27 10000 0.51 164 14:55 20.02.2022
5253 Clear 15 1013 26 10000 0.66 167 13:58 20.02.2022
5254 Clouds 16 1013 26 10000 0.58 171 12:42 20.02.2022
5255 Clouds 16 1013 26 10000 0.82 181 11:30 20.02.2022
5256 Clouds 17 1015 26 10000 0.21 186 10:21 20.02.2022
5257 Clouds 17 1015 26 10000 0.15 236 09:24 20.02.2022
5258 Clear 19 1016 25 10000 0.32 162 06:28 20.02.2022
5259 Clear 24 1016 16 10000 0.36 98 00:32 20.02.2022
5260 Clear 24 1016 16 10000 0.62 71 23:32 19.02.2022
5261 Clear 24 1018 17 10000 0.97 31 22:24 19.02.2022
5262 Clear 24 1018 17 10000 0.97 31 21:45 19.02.2022
5263 Clear 22 1021 19 10000 2.08 15 20:26 19.02.2022
5264 Clear 22 1021 19 10000 2.08 15 19:34 19.02.2022
5265 Clear 22 1021 20 10000 2.41 8 18:39 19.02.2022
5266 Clear 22 1022 21 10000 2.33 4 17:54 19.02.2022
5267 Clear 15 1022 24 10000 1.8 356 16:47 19.02.2022
5268 Clear 13 1021 28 10000 1.89 349 15:58 19.02.2022
5269 Clear 14 1021 29 10000 1.74 351 14:53 19.02.2022
5270 Clear 16 1021 28 10000 1.72 347 13:55 19.02.2022
5271 Clear 18 1021 27 10000 1.83 345 11:42 19.02.2022
5272 Clear 18 1022 27 10000 1.82 346 10:48 19.02.2022
5273 Clear 19 1022 24 10000 1.98 343 08:56 19.02.2022
5274 Clear 19 1023 23 10000 2.1 346 06:45 19.02.2022
5275 Clear 23 1021 17 10000 3.19 358 00:23 19.02.2022
5276 Clear 22 1023 17 10000 3.9 5 22:24 18.02.2022
5277 Clear 21 1025 18 10000 3.94 4 21:21 18.02.2022
5278 Clear 20 1026 19 10000 3.89 5 19:57 18.02.2022
5279 Clear 19 1026 21 10000 3.75 2 18:51 18.02.2022
5280 Clear 18 1026 23 10000 3.46 4 18:28 18.02.2022
5281 Clear 18 1026 23 10000 3.46 4 17:56 18.02.2022
5282 Clear 13 1026 31 10000 1.88 350 16:19 18.02.2022
5283 Clear 14 1025 30 10000 1.9 357 13:56 18.02.2022
5284 Clear 14 1025 30 10000 1.9 357 13:32 18.02.2022
5285 Clouds 15 1025 29 10000 1.73 349 12:48 18.02.2022
5286 Clouds 14 1024 29 10000 1.04 337 11:56 18.02.2022
5287 Clouds 14 1025 28 10000 1.28 346 10:42 18.02.2022
5288 Clear 15 1025 26 10000 0.08 236 07:20 18.02.2022
5289 Clear 15 1025 25 10000 0.31 262 05:52 18.02.2022
5290 Clear 15 1025 25 10000 0.31 262 05:34 18.02.2022
5291 Clear 18 1025 22 10000 2.49 359 21:59 17.02.2022
5292 Clear 18 1025 22 10000 2.49 359 21:33 17.02.2022
5293 Clear 18 1027 24 10000 2.95 11 20:42 17.02.2022
5294 Clear 17 1028 25 10000 3.38 14 19:55 17.02.2022
5295 Clear 16 1028 27 10000 3.78 13 19:22 17.02.2022
5296 Clear 15 1028 29 10000 3.54 9 18:29 17.02.2022
5297 Clear 15 1028 29 10000 3.54 9 17:30 17.02.2022
5298 Clear 11 1028 37 10000 2.39 6 15:51 17.02.2022
5299 Clear 13 1026 37 10000 2.64 0 14:29 17.02.2022
5300 Clear 13 1026 37 10000 2.64 0 13:31 17.02.2022
5301 Clear 13 1024 36 10000 3.11 354 11:48 17.02.2022
5302 Clear 13 1023 34 10000 4.39 350 09:58 17.02.2022
5303 Clear 14 1022 31 10000 3.56 352 07:45 17.02.2022
5304 Clear 20 1010 17 10000 1.61 15 23:23 16.02.2022
5305 Clear 19 1011 18 10000 1.9 7 22:28 16.02.2022
5306 Clear 17 1013 21 10000 2.57 6 20:22 16.02.2022
5307 Clear 18 1013 25 10000 2.83 2 18:56 16.02.2022
5308 Clear 16 1013 29 10000 2.63 2 18:27 16.02.2022
5309 Clear 13 1013 35 10000 2.32 1 17:22 16.02.2022
5310 Clear 10 1012 43 10000 3.4 351 15:22 16.02.2022
5311 Clear 10 1011 43 10000 3.51 349 13:40 16.02.2022
5312 Clear 10 1010 44 10000 3.8 346 12:24 16.02.2022
5313 Clear 10 1010 44 10000 3.8 346 11:46 16.02.2022
5314 Clouds 11 1010 48 10000 4.1 344 10:34 16.02.2022
5315 Clouds 10 1009 52 10000 4.39 342 09:38 16.02.2022
5316 Clouds 12 1009 57 10000 3.98 328 06:43 16.02.2022
5317 Clouds 15 1005 57 10000 5.9 350 00:37 16.02.2022
5318 Clouds 16 1003 41 10000 8.52 329 22:34 15.02.2022
5319 Clear 17 1001 26 10000 2.32 244 21:50 15.02.2022
5320 Clear 18 1002 28 10000 3.23 201 21:29 15.02.2022
5321 Clear 20 1002 28 10000 3.23 201 20:58 15.02.2022
5322 Clear 20 1002 31 10000 4.59 193 20:22 15.02.2022
5323 Clear 20 1002 31 10000 4.59 193 19:45 15.02.2022
5324 Clear 18 1001 35 10000 5.43 192 18:26 15.02.2022
5325 Clear 18 1001 35 10000 5.43 192 17:53 15.02.2022
5326 Clear 17 1001 35 10000 5.43 192 17:32 15.02.2022
5327 Clear 16 1002 46 10000 3.11 205 15:43 15.02.2022
5328 Clouds 18 1001 38 10000 3.74 208 13:57 15.02.2022
5329 Clouds 18 1001 35 10000 4.3 206 13:25 15.02.2022
5330 Clouds 18 1002 35 10000 4 206 11:41 15.02.2022
5331 Clouds 19 1003 27 10000 3.56 197 10:27 15.02.2022
5332 Clouds 19 1004 25 10000 2.89 188 08:42 15.02.2022
5333 Clouds 20 1006 24 10000 2.04 179 06:46 15.02.2022
5334 Clouds 28 1011 13 10000 2.03 152 23:35 14.02.2022
5335 Clouds 25 1014 14 10000 1.11 159 21:57 14.02.2022
5336 Clouds 25 1015 14 10000 1.09 158 20:53 14.02.2022
5337 Clouds 24 1017 14 10000 1.24 159 19:49 14.02.2022
5338 Clouds 23 1018 14 10000 1.03 159 19:29 14.02.2022
5339 Clouds 23 1018 14 10000 0.69 176 18:24 14.02.2022
5340 Clouds 20 1018 14 10000 0.69 176 17:30 14.02.2022
5341 Clouds 20 1018 18 10000 0.98 173 16:37 14.02.2022
5342 Clouds 17 1018 21 10000 0.45 142 15:22 14.02.2022
5343 Clouds 17 1019 20 10000 0.53 171 13:35 14.02.2022
5344 Clear 17 1019 19 10000 0.51 186 12:59 14.02.2022
5345 Clear 17 1019 19 10000 0.51 186 12:32 14.02.2022
5346 Clear 18 1019 19 10000 0.65 166 11:39 14.02.2022
5347 Clear 19 1021 19 10000 0.7 193 10:21 14.02.2022
5348 Clear 20 1021 18 10000 0.15 255 08:26 14.02.2022
5349 Clear 20 1021 18 10000 0.14 253 07:26 14.02.2022
5350 Clear 27 1022 12 10000 0.5 97 23:19 13.02.2022
5351 Clear 27 1022 12 10000 0.5 97 22:41 13.02.2022
5352 Clear 26 1023 12 10000 0.43 83 22:22 13.02.2022
5353 Clear 26 1024 13 10000 0.52 44 21:24 13.02.2022
5354 Clear 26 1024 13 10000 0.52 44 20:30 13.02.2022
5355 Clear 24 1025 15 10000 1.09 14 19:23 13.02.2022
5356 Clear 24 1025 14 10000 1.02 14 18:41 13.02.2022
5357 Clear 24 1025 15 10000 0.59 13 17:41 13.02.2022
5358 Clear 17 1025 23 10000 0.85 333 15:53 13.02.2022
5359 Clear 16 1024 23 10000 1.05 349 14:52 13.02.2022
5360 Clear 17 1024 23 10000 0.82 355 13:42 13.02.2022
5361 Clouds 18 1023 23 10000 0.63 347 12:49 13.02.2022
5362 Clouds 19 1024 22 10000 0.93 356 11:24 13.02.2022
5363 Clouds 19 1024 22 10000 0.87 4 10:28 13.02.2022
5364 Clouds 19 1024 22 10000 0.87 4 09:36 13.02.2022
5365 Clear 20 1024 21 10000 0.16 42 06:22 13.02.2022
5366 Clear 26 1022 12 10000 0.52 93 00:35 13.02.2022
5367 Clear 27 1022 12 10000 0.67 70 23:39 12.02.2022
5368 Clear 27 1022 12 10000 0.94 40 22:33 12.02.2022
5369 Clear 25 1024 14 10000 1.4 33 21:19 12.02.2022
5370 Clear 25 1024 14 10000 1.4 33 20:32 12.02.2022
5371 Clear 24 1025 15 10000 1.8 31 19:21 12.02.2022
5372 Clear 24 1025 15 10000 1.8 31 18:52 12.02.2022
5373 Clear 24 1025 15 10000 1.65 32 18:34 12.02.2022
5374 Clear 21 1024 20 10000 1.36 19 16:56 12.02.2022
5375 Clear 15 1023 23 10000 1.37 2 16:25 12.02.2022
5376 Clear 16 1023 23 10000 1.37 2 15:50 12.02.2022
5377 Clear 20 1022 23 10000 1.76 2 14:31 12.02.2022
5378 Clear 21 1022 22 10000 2.18 349 12:58 12.02.2022
5379 Clear 21 1021 20 10000 2.89 356 10:41 12.02.2022
5380 Clear 22 1021 19 10000 2.93 356 09:39 12.02.2022
5381 Clear 23 1020 20 10000 2.99 353 09:20 12.02.2022
5382 Clear 24 1020 20 10000 2.92 356 08:18 12.02.2022
5383 Clear 24 1020 20 10000 2.92 356 08:18 12.02.2022
5384 Clear 24 1020 20 10000 2.92 356 08:18 12.02.2022
5385 Clear 25 1020 19 10000 2.87 357 05:33 12.02.2022
5386 Clear 25 1019 17 10000 2.99 352 04:27 12.02.2022
5387 Clear 29 1017 16 10000 3.41 340 02:18 12.02.2022
5388 Clear 28 1017 16 10000 4.31 359 22:34 11.02.2022
5389 Clear 28 1018 17 10000 4.11 2 21:55 11.02.2022
5390 Clear 27 1019 18 10000 4.07 6 20:41 11.02.2022
5391 Clear 26 1019 20 10000 4.2 358 19:47 11.02.2022
5392 Clear 25 1019 22 10000 4.13 3 19:27 11.02.2022
5393 Clear 23 1019 25 10000 3.38 5 17:59 11.02.2022
5394 Clear 21 1019 29 10000 2.48 4 17:26 11.02.2022
5395 Clear 20 1019 33 10000 2.41 351 16:23 11.02.2022
5396 Clear 20 1019 33 10000 2.31 356 14:44 11.02.2022
5397 Clear 20 1019 32 10000 2.62 0 14:23 11.02.2022
5398 Clear 21 1019 32 10000 2.62 0 13:59 11.02.2022
5399 Clear 21 1019 32 10000 2.62 0 13:39 11.02.2022
5400 Clear 20 1019 31 10000 2.43 354 11:47 11.02.2022
5401 Clear 21 1019 28 10000 2.74 351 10:24 11.02.2022
5402 Clear 21 1020 27 10000 2.16 350 08:49 11.02.2022
5403 Clear 22 1020 26 10000 2.22 350 08:27 11.02.2022
5404 Clear 22 1020 27 10000 2.12 346 07:22 11.02.2022
5405 Clear 23 1020 23 10000 2.72 335 02:40 11.02.2022
5406 Clear 28 1019 21 10000 2.73 341 02:19 11.02.2022
5407 Clear 26 1021 19 10000 5.51 356 23:20 10.02.2022
5408 Clear 25 1022 21 10000 5.26 359 21:53 10.02.2022
5409 Clear 24 1023 23 10000 5.29 0 21:21 10.02.2022
5410 Clear 24 1023 23 10000 5.29 0 20:48 10.02.2022
5411 Clear 22 1025 27 10000 4.57 10 19:26 10.02.2022
5412 Clear 22 1025 26 10000 4.49 10 18:47 10.02.2022
5413 Clear 19 1025 33 10000 3.01 8 17:27 10.02.2022
5414 Clear 21 1025 33 10000 3.01 8 16:57 10.02.2022
5415 Clear 18 1024 36 10000 3.11 1 15:59 10.02.2022
5416 Clear 18 1024 36 10000 3.11 1 15:33 10.02.2022
5417 Clear 20 1024 35 10000 3.37 3 14:49 10.02.2022
5418 Clear 19 1023 34 10000 3.79 358 14:29 10.02.2022
5419 Clear 18 1023 34 10000 3.79 358 13:33 10.02.2022
5420 Clear 20 1023 33 10000 4.04 358 12:51 10.02.2022
5421 Clear 20 1023 32 10000 4.22 357 11:38 10.02.2022
5422 Clear 20 1023 32 10000 4.03 358 11:20 10.02.2022
5423 Clear 21 1023 30 10000 3.91 359 10:19 10.02.2022
5424 Clear 21 1023 28 10000 4.36 357 09:25 10.02.2022
5425 Clear 22 1023 26 10000 4.58 358 07:40 10.02.2022
5426 Clouds 23 1021 22 10000 3.2 359 05:52 10.02.2022
5427 Clouds 25 1020 16 10000 5.19 343 01:58 10.02.2022
5428 Clear 27 1019 13 10000 6.11 343 00:51 10.02.2022
5429 Clear 27 1020 13 10000 6.46 346 00:29 10.02.2022
5430 Clear 27 1020 13 10000 6.24 354 23:28 09.02.2022
5431 Clear 27 1020 13 10000 6.24 354 22:38 09.02.2022
5432 Clear 29 1021 13 10000 6.37 0 21:56 09.02.2022
5433 Clear 28 1021 13 10000 6.37 0 21:38 09.02.2022
5434 Clear 25 1022 14 10000 6.35 358 21:18 09.02.2022
5435 Clear 25 1022 14 10000 6.35 358 20:41 09.02.2022
5436 Clear 24 1023 16 10000 6.34 2 20:20 09.02.2022
5437 Clear 24 1023 16 10000 6.34 2 19:38 09.02.2022
5438 Clouds 21 1024 21 10000 4.49 1 17:43 09.02.2022
5439 Clouds 18 1024 24 10000 3.87 1 16:53 09.02.2022
5440 Clear 16 1023 26 10000 3.06 352 15:54 09.02.2022
5441 Clear 18 1023 26 10000 3.29 357 14:43 09.02.2022
5442 Clear 18 1023 24 10000 3.02 358 12:42 09.02.2022
5443 Clear 18 1023 24 10000 3.02 358 12:41 09.02.2022
5444 Clear 20 1023 22 10000 3.53 353 11:20 09.02.2022
5445 Clear 19 1023 22 10000 3.53 353 10:32 09.02.2022
5446 Clear 20 1024 22 10000 3.23 358 09:42 09.02.2022
5447 Clear 21 1024 21 10000 3.01 354 09:19 09.02.2022
5448 Clear 21 1024 20 10000 3.37 354 08:26 09.02.2022
5449 Clear 21 1024 19 10000 3.44 351 05:30 09.02.2022
5450 Clear 21 1024 19 10000 3.44 351 05:30 09.02.2022
5451 Clear 24 1023 18 10000 3.54 353 03:51 09.02.2022
5452 Clear 26 1022 14 10000 5.12 338 01:28 09.02.2022
5453 Clear 26 1022 14 10000 5.25 353 23:39 08.02.2022
5454 Clear 26 1023 14 10000 5.75 359 22:51 08.02.2022
5455 Clear 25 1023 15 10000 5.74 360 22:22 08.02.2022
5456 Clear 25 1023 15 10000 5.74 360 21:52 08.02.2022
5457 Clear 24 1025 16 10000 5.45 3 21:21 08.02.2022
5458 Clear 24 1025 16 10000 5.45 3 20:55 08.02.2022
5459 Clear 23 1026 17 10000 5.23 2 20:23 08.02.2022
5460 Clear 22 1026 18 10000 5 2 18:53 08.02.2022
5461 Clear 21 1026 20 10000 3.64 3 17:50 08.02.2022
5462 Clear 18 1025 23 10000 2.3 357 16:35 08.02.2022
5463 Clear 18 1025 25 10000 2.27 350 15:39 08.02.2022
5464 Clear 18 1025 24 10000 2.22 347 14:56 08.02.2022
5465 Clear 16 1025 23 10000 1.96 345 13:29 08.02.2022
5466 Clear 18 1025 24 10000 1.69 343 12:18 08.02.2022
5467 Clear 16 1025 24 10000 1.3 355 10:45 08.02.2022
5468 Clear 16 1025 24 10000 0.98 343 09:46 08.02.2022
5469 Clear 17 1026 23 10000 0.97 340 08:25 08.02.2022
5470 Clear 17 1026 23 10000 0.49 3 05:45 08.02.2022
5471 Clear 18 1026 23 10000 0.2 260 04:39 08.02.2022
5472 Clear 18 1026 23 10000 0.49 260 04:21 08.02.2022
5473 Clear 20 1026 23 10000 0.49 260 03:36 08.02.2022
5474 Clear 20 1026 22 10000 0.45 269 03:18 08.02.2022
5475 Clear 21 1026 22 10000 0.45 269 02:59 08.02.2022
5476 Clear 23 1026 22 10000 0.45 269 02:36 08.02.2022
5477 Clear 24 1025 19 10000 0.06 37 02:18 08.02.2022
5478 Clear 21 1025 19 10000 0.06 37 01:44 08.02.2022
5479 Clear 22 1025 16 10000 0.55 26 01:24 08.02.2022
5480 Clear 22 1025 16 10000 0.55 26 00:55 08.02.2022
5481 Clear 22 1025 16 10000 0.71 40 23:58 07.02.2022
5482 Clear 22 1025 16 10000 0.71 40 23:40 07.02.2022
5483 Clear 22 1026 16 10000 0.89 36 23:18 07.02.2022
5484 Clear 22 1026 16 10000 0.89 36 22:56 07.02.2022
5485 Clear 22 1027 16 10000 1.22 23 22:18 07.02.2022
5486 Clear 22 1027 16 10000 1.22 23 21:47 07.02.2022
5487 Clear 21 1028 17 10000 1.52 27 21:26 07.02.2022
5488 Clear 21 1028 17 10000 1.52 27 20:41 07.02.2022
5489 Clear 20 1029 18 10000 1.71 23 20:18 07.02.2022
5490 Clear 20 1029 18 10000 1.71 23 19:45 07.02.2022
5491 Clear 19 1029 20 10000 1.62 16 18:22 07.02.2022
5492 Clear 19 1029 24 10000 1.42 8 16:53 07.02.2022
5493 Clear 17 1029 27 10000 1.66 355 16:21 07.02.2022
5494 Clear 15 1029 27 10000 1.66 355 15:48 07.02.2022
5495 Clear 13 1028 27 10000 1.9 2 13:39 07.02.2022
5496 Clear 13 1028 26 10000 2 0 13:21 07.02.2022
5497 Clear 15 1028 25 10000 1.94 358 11:58 07.02.2022
5498 Clear 15 1028 25 10000 1.94 358 11:38 07.02.2022
5499 Clear 17 1028 24 10000 2.08 358 10:53 07.02.2022
5500 Clear 18 1028 24 10000 2.08 358 10:33 07.02.2022
5501 Clear 18 1028 23 10000 2.24 359 09:53 07.02.2022
5502 Clear 19 1028 22 10000 2.38 358 09:18 07.02.2022
5503 Clear 19 1028 22 10000 2.38 358 08:44 07.02.2022
5504 Clear 19 1028 21 10000 2.25 350 07:30 07.02.2022
5505 Clear 17 1028 21 10000 2.23 353 06:34 07.02.2022
5506 Clear 21 1027 19 10000 2.04 6 04:18 07.02.2022
5507 Clear 22 1024 13 10000 2.92 4 00:54 07.02.2022
5508 Clear 22 1024 13 10000 2.88 7 23:50 06.02.2022
5509 Clear 22 1024 13 10000 2.88 7 23:50 06.02.2022
5510 Clear 22 1025 14 10000 3.12 6 23:19 06.02.2022
5511 Clear 22 1025 14 10000 3.12 6 22:37 06.02.2022
5512 Clear 22 1026 14 10000 3.84 7 21:37 06.02.2022
5513 Clear 21 1026 15 10000 4.27 11 20:58 06.02.2022
5514 Clear 21 1026 15 10000 4.27 11 20:36 06.02.2022
5515 Clear 20 1027 16 10000 4.37 9 19:50 06.02.2022
5516 Clear 23 1027 17 10000 4.41 7 18:52 06.02.2022
5517 Clear 20 1026 18 10000 4.32 4 18:26 06.02.2022
5518 Clear 18 1026 22 10000 3.59 359 17:29 06.02.2022
5519 Clear 15 1026 22 10000 3.59 359 16:50 06.02.2022
5520 Clear 13 1026 23 10000 3.52 355 15:51 06.02.2022
5521 Clear 13 1025 22 10000 3.28 357 15:28 06.02.2022
5522 Clear 14 1025 22 10000 3.28 357 14:59 06.02.2022
5523 Clear 14 1024 22 10000 3.19 358 13:57 06.02.2022
5524 Clear 15 1024 22 10000 3.18 358 13:20 06.02.2022
5525 Clear 15 1024 22 10000 3.08 355 11:45 06.02.2022
5526 Clear 15 1024 22 10000 2.99 356 10:33 06.02.2022
5527 Clear 16 1024 22 10000 3.11 353 09:36 06.02.2022
5528 Clear 18 1024 21 10000 2.98 1 08:41 06.02.2022
5529 Clouds 19 1024 18 10000 3.15 360 06:31 06.02.2022
5530 Clouds 19 1024 17 10000 3.11 353 05:28 06.02.2022
5531 Clouds 21 1022 15 10000 3.59 348 02:25 06.02.2022
5532 Clouds 20 1022 14 10000 3.52 354 00:32 06.02.2022
5533 Clouds 21 1023 14 10000 4.14 358 23:38 05.02.2022
5534 Clouds 20 1024 14 10000 4.37 358 21:46 05.02.2022
5535 Clouds 19 1025 15 10000 3.91 2 20:41 05.02.2022
5536 Clouds 18 1026 17 10000 3.81 4 20:20 05.02.2022
5537 Clouds 18 1026 17 10000 3.81 4 19:42 05.02.2022
5538 Clear 17 1027 18 10000 3.27 7 18:30 05.02.2022
5539 Clear 16 1027 20 10000 2.63 10 17:35 05.02.2022
5540 Clear 14 1028 27 10000 2.47 350 16:20 05.02.2022
5541 Clear 14 1028 27 10000 2.47 350 15:31 05.02.2022
5542 Clear 11 1027 28 10000 1.76 348 13:38 05.02.2022
5543 Clear 11 1027 27 10000 1.62 347 12:46 05.02.2022
5544 Clear 15 1028 26 10000 1.97 344 11:47 05.02.2022
5545 Clear 11 1028 25 10000 1.99 349 10:44 05.02.2022
5546 Clear 13 1029 25 10000 1.73 349 09:51 05.02.2022
5547 Clear 14 1029 25 10000 1.57 345 08:47 05.02.2022
5548 Clear 15 1031 25 10000 1.49 352 06:59 05.02.2022
5549 Clear 15 1031 25 10000 1.49 352 06:35 05.02.2022
5550 Clear 16 1030 24 10000 2.3 352 02:43 05.02.2022
5551 Clear 17 1030 19 10000 2.54 357 01:18 05.02.2022
5552 Clear 17 1029 18 10000 2.49 359 00:36 05.02.2022
5553 Clear 17 1029 18 10000 2.96 2 23:33 04.02.2022
5554 Clear 17 1030 19 10000 3.72 3 22:45 04.02.2022
5555 Clear 17 1031 20 10000 4.23 7 21:36 04.02.2022
5556 Clear 16 1032 22 10000 4.05 9 21:18 04.02.2022
5557 Clear 16 1032 22 10000 4.05 9 20:37 04.02.2022
5558 Clear 14 1034 26 10000 3.6 16 19:19 04.02.2022
5559 Clear 12 1034 33 10000 2.45 5 16:44 04.02.2022
5560 Clear 12 1034 36 10000 2.6 357 15:33 04.02.2022
5561 Clear 12 1033 36 10000 2.65 359 14:47 04.02.2022
5562 Clear 12 1032 35 10000 2.05 359 12:43 04.02.2022
5563 Clear 13 1031 35 10000 2.45 356 11:45 04.02.2022
5564 Clear 13 1031 34 10000 2.37 356 10:56 04.02.2022
5565 Clear 13 1030 33 10000 2.02 1 10:22 04.02.2022
5566 Clear 13 1029 32 10000 1.99 6 08:31 04.02.2022
5567 Clear 14 1027 28 10000 1.54 13 04:45 04.02.2022
5568 Clear 16 1026 27 10000 1.63 9 02:38 04.02.2022
5569 Clear 16 1024 20 10000 2.22 357 23:56 03.02.2022
5570 Clear 16 1024 20 10000 2.44 2 22:52 03.02.2022
5571 Clear 15 1025 21 10000 2.47 11 21:58 03.02.2022
5572 Clear 15 1025 21 10000 2.47 11 21:37 03.02.2022
5573 Clear 14 1027 22 10000 2.78 4 20:22 03.02.2022
5574 Clear 14 1027 22 10000 2.78 4 19:49 03.02.2022
5575 Clear 12 1027 23 10000 2.16 17 19:20 03.02.2022
5576 Clear 12 1026 23 10000 1.51 14 17:59 03.02.2022
5577 Clear 13 1025 26 10000 1.17 5 17:19 03.02.2022
5578 Clear 7 1025 29 10000 1.09 9 15:38 03.02.2022
5579 Clear 9 1024 28 10000 1.45 349 14:18 03.02.2022
5580 Clear 11 1024 29 10000 1.67 351 12:32 03.02.2022
5581 Clear 9 1024 27 10000 1.7 9 08:56 03.02.2022
5582 Clear 10 1024 27 10000 1.63 9 08:18 03.02.2022
5583 Clear 14 1019 17 10000 8.47 357 00:59 03.02.2022
5584 Clear 14 1019 17 10000 9.27 358 00:22 03.02.2022
5585 Clear 14 1019 17 10000 9.77 358 22:40 02.02.2022
5586 Clear 16 1020 17 10000 9.93 359 21:51 02.02.2022
5587 Clear 13 1021 18 10000 10.29 1 21:29 02.02.2022
5588 Clear 15 1022 19 10000 10.25 4 20:27 02.02.2022
5589 Clear 15 1022 19 10000 10.25 4 19:48 02.02.2022
5590 Clear 13 1022 21 10000 8.36 10 19:00 02.02.2022
5591 Clear 13 1022 23 10000 6.37 10 18:25 02.02.2022
5592 Clear 10 1021 27 10000 3.65 4 17:22 02.02.2022
5593 Clear 8 1021 27 10000 3.65 4 16:58 02.02.2022
5594 Clear 6 1021 30 10000 3.17 357 15:49 02.02.2022
5595 Clear 9 1018 29 10000 3.79 353 12:47 02.02.2022
5596 Clear 8 1018 29 10000 3.44 355 11:51 02.02.2022
5597 Clear 6 1018 29 10000 3.44 355 11:30 02.02.2022
5598 Clear 8 1017 28 10000 3.47 357 09:18 02.02.2022
5599 Clear 11 1015 24 10000 4.34 354 04:57 02.02.2022
5600 Clouds 18 1011 21 10000 7.92 354 22:34 01.02.2022
5601 Clouds 19 1013 21 10000 7.47 358 20:58 01.02.2022
5602 Clouds 17 1013 21 10000 7.25 2 19:39 01.02.2022
5603 Clouds 15 1012 22 10000 4.9 360 17:37 01.02.2022
5604 Clouds 15 1012 22 10000 3.41 353 16:31 01.02.2022
5605 Clouds 15 1010 17 10000 1.72 357 13:27 01.02.2022
5606 Clouds 14 1010 16 10000 0.57 337 12:28 01.02.2022
5607 Clouds 14 1010 16 10000 0.26 172 10:42 01.02.2022
5608 Clouds 19 1014 15 10000 1.43 173 02:24 01.02.2022
5609 Clouds 23 1014 11 10000 0.86 164 23:39 31.01.2022
5610 Clouds 23 1015 10 10000 0.5 134 22:43 31.01.2022
5611 Clouds 24 1015 10 10000 0.68 71 21:38 31.01.2022
5612 Clouds 20 1017 10 10000 0.56 151 20:44 31.01.2022
5613 Clouds 19 1019 10 10000 0.28 217 20:24 31.01.2022
5614 Clouds 19 1019 10 10000 0.28 18 18:54 31.01.2022
5615 Clouds 18 1019 12 10000 1.14 353 18:20 31.01.2022
5616 Clouds 18 1019 17 10000 0.97 346 17:25 31.01.2022
5617 Clouds 16 1018 18 10000 0.55 26 16:25 31.01.2022
5618 Clouds 15 1018 18 10000 0.81 163 14:54 31.01.2022
5619 Clouds 13 1018 18 10000 0.82 162 13:43 31.01.2022
5620 Clouds 11 1018 18 10000 0.14 338 12:38 31.01.2022
5621 Clouds 11 1019 17 10000 0.6 16 11:34 31.01.2022
5622 Clouds 13 1019 17 10000 0.25 185 10:49 31.01.2022
5623 Clouds 13 1019 17 10000 0.63 152 09:39 31.01.2022
5624 Clouds 14 1019 17 10000 0.5 189 08:57 31.01.2022
5625 Clouds 14 1019 17 10000 0.5 189 08:38 31.01.2022
5626 Clouds 14 1020 17 10000 0.48 162 08:19 31.01.2022
5627 Clear 16 1020 16 10000 0.96 180 06:18 31.01.2022
5628 Clear 21 1019 11 10000 0.42 128 00:44 31.01.2022
5629 Clear 21 1019 10 10000 0.23 90 22:38 30.01.2022
5630 Clear 21 1019 11 10000 0.61 11 22:20 30.01.2022
5631 Clear 21 1019 11 10000 0.61 11 21:38 30.01.2022
5632 Clear 20 1020 11 10000 1.2 1 21:18 30.01.2022
5633 Clear 20 1020 11 10000 1.2 1 20:45 30.01.2022
5634 Clear 19 1021 12 10000 1.89 4 20:26 30.01.2022
5635 Clear 18 1021 12 10000 2.11 4 19:24 30.01.2022
5636 Clear 18 1021 12 10000 2.11 4 18:35 30.01.2022
5637 Clear 18 1021 13 10000 1.72 356 17:54 30.01.2022
5638 Clear 15 1021 18 10000 1.24 342 17:21 30.01.2022
5639 Clear 14 1021 18 10000 1.24 342 16:39 30.01.2022
5640 Clear 10 1020 18 10000 1.63 346 16:21 30.01.2022
5641 Clear 13 1020 18 10000 1.63 346 15:49 30.01.2022
5642 Clear 12 1020 18 10000 1.63 346 15:31 30.01.2022
5643 Clear 13 1020 18 10000 1.61 347 14:46 30.01.2022
5644 Clouds 14 1019 17 10000 1.54 0 12:47 30.01.2022
5645 Clouds 14 1019 16 10000 1.72 340 11:57 30.01.2022
5646 Clouds 14 1019 15 10000 1.8 343 10:32 30.01.2022
5647 Clouds 13 1019 16 10000 1.25 342 09:50 30.01.2022
5648 Clouds 15 1019 16 10000 0.69 349 08:54 30.01.2022
5649 Clouds 14 1020 16 10000 0.69 309 07:28 30.01.2022
5650 Clouds 20 1020 17 10000 0.29 354 01:56 30.01.2022
5651 Clouds 20 1020 17 10000 0.29 354 01:56 30.01.2022
5652 Clouds 21 1019 11 10000 2.16 3 00:23 30.01.2022
5653 Clouds 19 1020 12 10000 2.44 2 23:18 29.01.2022
5654 Clouds 19 1021 12 10000 2.29 6 21:49 29.01.2022
5655 Clouds 18 1022 12 10000 2.23 2 21:24 29.01.2022
5656 Clouds 18 1022 12 10000 2.23 2 20:32 29.01.2022
5657 Clouds 18 1024 13 10000 2.35 3 19:34 29.01.2022
5658 Clouds 19 1024 13 10000 1.96 7 18:52 29.01.2022
5659 Clouds 16 1024 14 10000 1.54 358 18:24 29.01.2022
5660 Clouds 16 1024 14 10000 1.54 358 17:31 29.01.2022
5661 Clouds 12 1024 18 10000 1.77 345 16:25 29.01.2022
5662 Clouds 12 1024 20 10000 1.6 346 14:23 29.01.2022
5663 Clouds 12 1024 20 10000 1.6 346 13:44 29.01.2022
5664 Clouds 12 1024 19 10000 1.81 352 13:24 29.01.2022
5665 Clouds 12 1025 20 10000 1.55 340 11:50 29.01.2022
5666 Clouds 13 1025 19 10000 1.64 336 11:24 29.01.2022
5667 Clouds 13 1025 19 10000 1.41 348 08:57 29.01.2022
5668 Clouds 14 1027 18 10000 1.18 355 06:55 29.01.2022
5669 Clouds 18 1027 14 10000 2.62 343 00:36 29.01.2022
5670 Clouds 18 1028 14 10000 2.64 356 23:59 28.01.2022
5671 Clouds 18 1028 14 10000 2.52 7 22:51 28.01.2022
5672 Clouds 18 1029 15 10000 2.7 11 22:22 28.01.2022
5673 Clouds 18 1029 15 10000 2.7 11 21:50 28.01.2022
5674 Clouds 17 1031 17 10000 2.3 11 20:30 28.01.2022
5675 Clouds 16 1032 19 10000 2.55 18 19:42 28.01.2022
5676 Clouds 15 1033 20 10000 2.55 17 18:47 28.01.2022
5677 Clouds 18 1033 22 10000 2.18 13 17:42 28.01.2022
5678 Clear 11 1032 26 10000 2.32 7 15:28 28.01.2022
5679 Clear 10 1032 25 10000 2.23 4 13:59 28.01.2022
5680 Clear 13 1031 23 10000 2.26 360 12:32 28.01.2022
5681 Clear 15 1031 22 10000 2.25 14 11:38 28.01.2022
5682 Clear 14 1031 22 10000 2.24 16 10:21 28.01.2022
5683 Clear 14 1031 22 10000 2.24 16 09:44 28.01.2022
5684 Clear 15 1030 23 10000 3.34 5 07:39 28.01.2022
5685 Clear 18 1028 20 10000 2.96 1 05:23 28.01.2022
5686 Clear 19 1027 19 10000 2.67 3 03:47 28.01.2022
5687 Clear 20 1025 16 10000 3.18 11 02:23 28.01.2022
5688 Clear 19 1025 16 10000 3.18 11 01:34 28.01.2022
5689 Clear 21 1023 13 10000 4.26 1 23:33 27.01.2022
5690 Clear 21 1024 14 10000 4.26 3 21:50 27.01.2022
5691 Clear 21 1024 14 10000 4.26 3 21:30 27.01.2022
5692 Clear 21 1024 14 10000 4.26 3 21:30 27.01.2022
5693 Clear 20 1025 15 10000 4.31 4 20:53 27.01.2022
5694 Clear 18 1026 16 10000 4.16 4 19:30 27.01.2022
5695 Clear 18 1026 19 10000 2.7 11 17:56 27.01.2022
5696 Clear 13 1025 25 10000 2.49 350 15:31 27.01.2022
5697 Clear 14 1024 22 10000 2.41 355 13:39 27.01.2022
5698 Clear 15 1024 22 10000 2.25 351 12:46 27.01.2022
5699 Clear 15 1024 22 10000 2.25 351 12:46 27.01.2022
5700 Clear 15 1024 21 10000 2.12 347 10:57 27.01.2022
5701 Clear 15 1024 17 10000 2.29 343 09:20 27.01.2022
5702 Clear 14 1024 17 10000 2.29 343 08:37 27.01.2022
5703 Clear 13 1024 18 10000 1.88 343 07:22 27.01.2022
5704 Clear 15 1022 21 10000 1.62 330 02:57 27.01.2022
5705 Clear 17 1021 17 10000 1.17 25 23:45 26.01.2022
5706 Clear 16 1022 18 10000 1.72 21 22:26 26.01.2022
5707 Clear 16 1022 18 10000 1.72 21 21:37 26.01.2022
5708 Clear 16 1024 19 10000 1.67 16 20:41 26.01.2022
5709 Clear 15 1025 21 10000 1.9 17 20:23 26.01.2022
5710 Clear 14 1025 22 10000 2.05 21 19:27 26.01.2022
5711 Clear 17 1025 24 10000 1.98 21 18:46 26.01.2022
5712 Clear 15 1025 26 10000 1.78 16 17:51 26.01.2022
5713 Clear 11 1025 30 10000 1.68 4 17:24 26.01.2022
5714 Clear 12 1025 30 10000 1.68 4 16:35 26.01.2022
5715 Clear 10 1025 33 10000 1.86 357 15:50 26.01.2022
5716 Clear 9 1024 32 10000 2.05 354 14:23 26.01.2022
5717 Clear 11 1024 31 10000 2.29 352 11:56 26.01.2022
5718 Clear 13 1024 30 10000 2.54 353 10:45 26.01.2022
5719 Clear 14 1023 30 10000 2.79 353 09:49 26.01.2022
5720 Clear 14 1023 29 10000 2.9 353 08:32 26.01.2022
5721 Clear 15 1022 26 10000 3.09 2 05:42 26.01.2022
5722 Clear 20 1017 14 10000 8.43 7 00:18 26.01.2022
5723 Clear 20 1017 15 10000 8.85 8 23:28 25.01.2022
5724 Clear 20 1017 15 10000 8.85 8 22:48 25.01.2022
5725 Clear 20 1017 15 10000 8.38 0 22:18 25.01.2022
5726 Clear 22 1018 15 10000 7.94 1 21:22 25.01.2022
5727 Clear 22 1018 15 10000 7.94 1 20:44 25.01.2022
5728 Clear 21 1019 18 10000 7.06 4 19:53 25.01.2022
5729 Clear 20 1018 19 10000 6.51 7 18:46 25.01.2022
5730 Clear 19 1017 21 10000 4.93 1 17:45 25.01.2022
5731 Clear 16 1016 26 10000 3.54 354 17:18 25.01.2022
5732 Clear 16 1016 26 10000 3.54 354 16:34 25.01.2022
5733 Clear 16 1015 30 10000 1.98 340 15:39 25.01.2022
5734 Clear 17 1014 29 10000 1.85 2 14:58 25.01.2022
5735 Clear 18 1014 29 10000 1.85 2 14:38 25.01.2022
5736 Clear 18 1012 28 10000 1.49 344 11:30 25.01.2022
5737 Clear 15 1013 27 10000 1.14 199 09:21 25.01.2022
5738 Clear 16 1014 28 10000 0.51 278 07:31 25.01.2022
5739 Clear 17 1014 28 10000 1.1 344 06:54 25.01.2022
5740 Clear 17 1014 28 10000 0.14 180 05:23 25.01.2022
5741 Clear 17 1014 28 10000 0.14 180 05:23 25.01.2022
5742 Clear 22 1014 21 10000 0.43 116 00:28 25.01.2022
5743 Clear 22 1014 21 10000 0.43 116 23:36 24.01.2022
5744 Clear 22 1014 21 10000 0.5 110 23:18 24.01.2022
5745 Clear 22 1014 21 10000 0.5 110 23:18 24.01.2022
5746 Clear 22 1014 21 10000 0.5 110 22:42 24.01.2022
5747 Clear 21 1015 22 10000 0.33 88 21:57 24.01.2022
5748 Clear 21 1015 22 10000 0.33 88 21:32 24.01.2022
5749 Clear 21 1017 23 10000 0.56 9 20:38 24.01.2022
5750 Clear 20 1018 24 10000 1.31 4 20:20 24.01.2022
5751 Clear 20 1018 24 10000 1.31 4 19:38 24.01.2022
5752 Clear 19 1019 26 10000 1.59 9 18:47 24.01.2022
5753 Clear 19 1019 34 10000 1.47 360 17:24 24.01.2022
5754 Clear 17 1019 34 10000 1.47 360 16:58 24.01.2022
5755 Clear 17 1019 34 10000 1.47 360 16:58 24.01.2022
5756 Clear 17 1019 34 10000 1.47 360 16:58 24.01.2022
5757 Clear 16 1019 34 10000 1.47 360 16:30 24.01.2022
5758 Clear 15 1019 36 10000 1.41 3 14:56 24.01.2022
5759 Clear 14 1019 35 10000 1.59 358 13:39 24.01.2022
5760 Clear 14 1019 34 10000 1.74 357 12:33 24.01.2022
5761 Clear 13 1020 32 10000 1.81 358 11:21 24.01.2022
5762 Clear 14 1020 31 10000 1.72 353 10:18 24.01.2022
5763 Clear 17 1020 31 10000 1.72 353 09:44 24.01.2022
5764 Clear 16 1021 28 10000 1.66 353 07:40 24.01.2022
5765 Clear 18 1021 24 10000 1.73 351 01:38 24.01.2022
5766 Clear 20 1021 18 10000 2.63 352 00:50 24.01.2022
5767 Clear 20 1021 17 10000 3.1 355 00:29 24.01.2022
5768 Clear 20 1022 17 10000 3.79 1 22:58 23.01.2022
5769 Clear 20 1023 18 10000 4.25 2 21:53 23.01.2022
5770 Clear 19 1024 19 10000 4.26 1 21:27 23.01.2022
5771 Clear 19 1024 19 10000 4.26 1 20:57 23.01.2022
5772 Clear 18 1025 21 10000 4.14 7 20:21 23.01.2022
5773 Clear 20 1026 23 10000 4.19 4 18:53 23.01.2022
5774 Clear 18 1026 26 10000 3.36 5 18:22 23.01.2022
5775 Clear 12 1026 30 10000 2.73 358 16:56 23.01.2022
5776 Clear 13 1026 32 10000 3.06 355 15:56 23.01.2022
5777 Clear 13 1026 32 10000 3.15 355 14:50 23.01.2022
5778 Clear 13 1025 32 10000 3.4 353 14:18 23.01.2022
5779 Clear 13 1024 32 10000 3.48 357 12:45 23.01.2022
5780 Clear 14 1024 31 10000 3.68 357 12:19 23.01.2022
5781 Clear 14 1024 31 10000 3.58 358 11:26 23.01.2022
5782 Clear 14 1024 31 10000 3.58 358 10:57 23.01.2022
5783 Clear 16 1024 30 10000 3.38 358 10:25 23.01.2022
5784 Clear 15 1024 30 10000 3.38 358 09:31 23.01.2022
5785 Clear 15 1024 30 10000 3.38 358 09:31 23.01.2022
5786 Clear 15 1024 30 10000 3.3 356 08:49 23.01.2022
5787 Clear 16 1022 26 10000 4.62 351 03:49 23.01.2022
5788 Clear 17 1021 24 10000 5.21 338 01:38 23.01.2022
5789 Clear 19 1021 21 10000 7.11 346 00:47 23.01.2022
5790 Clear 19 1021 20 10000 8.06 343 23:59 22.01.2022
5791 Clear 19 1021 21 10000 8.55 342 22:53 22.01.2022
5792 Clear 19 1021 21 10000 8.55 342 22:33 22.01.2022
5793 Clear 18 1023 22 10000 7.9 355 20:46 22.01.2022
5794 Clear 19 1024 24 10000 8.12 358 19:46 22.01.2022
5795 Clear 16 1024 26 10000 7.49 1 18:41 22.01.2022
5796 Clear 14 1024 32 10000 6.52 0 17:49 22.01.2022
5797 Clear 13 1024 32 10000 6.52 0 17:31 22.01.2022
5798 Clear 12 1024 42 10000 5 357 16:54 22.01.2022
5799 Clear 11 1024 45 10000 4.83 357 15:45 22.01.2022
5800 Clear 11 1023 44 10000 4.79 356 14:56 22.01.2022
5801 Clear 11 1023 45 10000 4.79 354 13:36 22.01.2022
5802 Clear 11 1023 45 10000 4.91 355 12:40 22.01.2022
5803 Clear 12 1022 44 10000 5.05 353 12:22 22.01.2022
5804 Clear 11 1023 43 10000 4.81 354 10:55 22.01.2022
5805 Clear 12 1022 43 10000 4.98 353 10:27 22.01.2022
5806 Clear 13 1022 43 10000 4.98 353 09:46 22.01.2022
5807 Clear 13 1023 41 10000 6.04 351 08:51 22.01.2022
5808 Clouds 13 1022 38 10000 5.85 356 07:28 22.01.2022
5809 Clouds 14 1021 35 10000 5.96 351 04:50 22.01.2022
5810 Clouds 20 1017 24 10000 9.96 9 00:57 22.01.2022
5811 Clouds 21 1017 22 10000 9.76 3 23:30 21.01.2022
5812 Clouds 20 1018 26 10000 10.54 346 22:19 21.01.2022
5813 Clouds 20 1018 26 10000 10.54 346 22:19 21.01.2022
5814 Clear 20 1020 23 10000 9.83 349 19:56 21.01.2022
5815 Clear 19 1019 33 10000 3.77 353 18:23 21.01.2022
5816 Clear 18 1018 36 10000 2.62 2 17:18 21.01.2022
5817 Clear 15 1017 38 10000 1.94 9 15:27 21.01.2022
5818 Clouds 14 1017 39 10000 1.05 338 13:18 21.01.2022
5819 Clouds 14 1019 38 10000 1.62 349 12:28 21.01.2022
5820 Clouds 14 1019 39 10000 0.34 26 11:27 21.01.2022
5821 Clouds 14 1019 39 10000 0.05 211 09:46 21.01.2022
5822 Clouds 16 1021 37 10000 0.85 180 08:23 21.01.2022
5823 Clouds 17 1023 37 10000 1.37 182 04:49 21.01.2022
5824 Clouds 20 1024 27 10000 2.53 10 23:27 20.01.2022
5825 Clouds 20 1025 28 10000 2.84 3 22:21 20.01.2022
5826 Clouds 20 1025 28 10000 2.84 3 21:42 20.01.2022
5827 Clouds 19 1026 30 10000 3.07 5 20:40 20.01.2022
5828 Clear 18 1028 34 10000 2.83 9 19:19 20.01.2022
5829 Clear 18 1028 34 10000 2.83 9 19:19 20.01.2022
5830 Clear 17 1028 36 10000 2.87 5 18:23 20.01.2022
5831 Clear 13 1027 41 10000 2.52 354 16:58 20.01.2022
5832 Clear 13 1027 44 10000 2.6 355 15:41 20.01.2022
5833 Clear 14 1027 44 10000 2.88 354 14:41 20.01.2022
5834 Clear 13 1026 44 10000 2.81 352 13:41 20.01.2022
5835 Clear 13 1026 43 10000 3.13 356 12:34 20.01.2022
5836 Clear 14 1025 41 10000 3.11 357 11:50 20.01.2022
5837 Clear 15 1025 40 10000 2.6 356 10:39 20.01.2022
5838 Clear 17 1025 39 10000 2.72 352 09:37 20.01.2022
5839 Clear 18 1024 36 10000 2.5 359 07:51 20.01.2022
5840 Clear 22 1020 24 10000 3.07 353 00:46 20.01.2022
5841 Clear 22 1019 24 10000 3.62 357 23:28 19.01.2022
5842 Clear 22 1020 25 10000 3.62 359 22:24 19.01.2022
5843 Clear 21 1021 26 10000 3.24 1 21:23 19.01.2022
5844 Clear 21 1021 26 10000 3.24 1 20:49 19.01.2022
5845 Clear 23 1021 28 10000 2.73 0 19:54 19.01.2022
5846 Clear 21 1021 30 10000 2.42 6 18:40 19.01.2022
5847 Clear 19 1020 32 10000 1.59 7 17:45 19.01.2022
5848 Clear 14 1020 37 10000 1.86 351 16:48 19.01.2022
5849 Clear 12 1018 39 10000 1.48 347 14:42 19.01.2022
5850 Clear 14 1018 41 10000 1.56 352 12:43 19.01.2022
5851 Clear 15 1017 43 10000 0.82 351 11:42 19.01.2022
5852 Clear 15 1017 43 10000 0.12 324 10:35 19.01.2022
5853 Clouds 14 1017 43 10000 0.45 326 09:34 19.01.2022
5854 Clouds 17 1017 44 10000 0.42 334 07:18 19.01.2022
5855 Clouds 17 1016 51 10000 0.01 57 05:18 19.01.2022
5856 Clouds 20 1014 52 10000 0.68 42 23:20 18.01.2022
5857 Clouds 20 1014 52 10000 0.68 42 22:44 18.01.2022
5858 Clouds 19 1016 58 10000 0.4 72 21:20 18.01.2022
5859 Clouds 19 1016 62 10000 0.91 150 19:55 18.01.2022
5860 Clouds 19 1016 62 10000 0.47 131 19:55 18.01.2022
5861 Clouds 22 1016 62 10000 0.91 150 19:37 18.01.2022
5862 Clouds 18 1017 65 10000 1.26 162 18:54 18.01.2022
5863 Clouds 18 1016 68 10000 1.42 170 17:58 18.01.2022
5864 Clouds 15 1016 72 10000 1.36 185 16:59 18.01.2022
5865 Clouds 15 1016 72 10000 1.52 171 15:48 18.01.2022
5866 Clouds 15 1016 72 10000 1.52 171 15:48 18.01.2022
5867 Clouds 15 1016 72 10000 1.52 171 15:48 18.01.2022
5868 Clouds 15 1015 66 10000 1.65 162 15:22 18.01.2022
5869 Clouds 16 1015 55 10000 1.36 182 12:49 18.01.2022
5870 Clouds 17 1015 44 10000 1.16 190 10:47 18.01.2022
5871 Clouds 16 1015 37 10000 0.71 195 09:28 18.01.2022
5872 Clouds 16 1016 35 10000 0.4 210 07:56 18.01.2022
5873 Clouds 17 1016 32 10000 0.12 261 05:31 18.01.2022
5874 Clouds 20 1015 20 10000 0.31 114 23:55 17.01.2022
5875 Clouds 20 1015 19 10000 0.51 117 22:29 17.01.2022
5876 Clouds 20 1015 19 10000 0.51 117 21:35 17.01.2022
5877 Clouds 19 1017 20 10000 0.99 160 20:27 17.01.2022
5878 Clouds 18 1018 22 10000 1.03 167 18:31 17.01.2022
5879 Clouds 17 1017 25 10000 0.9 186 17:51 17.01.2022
5880 Clouds 15 1017 28 10000 0.05 157 16:45 17.01.2022
5881 Clouds 16 1017 29 10000 0.13 111 15:23 17.01.2022
5882 Clouds 16 1017 29 10000 0.13 111 14:57 17.01.2022
5883 Clouds 16 1016 29 10000 0.24 250 13:30 17.01.2022
5884 Clouds 16 1016 29 10000 0.1 9 12:57 17.01.2022
5885 Clouds 16 1016 29 10000 0.45 16 11:50 17.01.2022
5886 Clouds 15 1017 29 10000 0.23 318 10:38 17.01.2022
5887 Clouds 15 1017 29 10000 0.46 3 09:35 17.01.2022
5888 Clouds 16 1018 29 10000 0.33 246 07:47 17.01.2022
5889 Clouds 16 1018 28 10000 1.08 357 07:19 17.01.2022
5890 Clouds 23 1018 21 10000 0.54 173 00:57 17.01.2022
5891 Clouds 20 1018 20 10000 0.45 33 22:31 16.01.2022
5892 Clouds 19 1020 21 10000 0.71 23 20:40 16.01.2022
5893 Clouds 21 1021 23 10000 0.47 18 18:53 16.01.2022
5894 Clouds 20 1021 24 10000 0.58 12 18:18 16.01.2022
5895 Clouds 14 1021 30 10000 0.8 348 17:25 16.01.2022
5896 Clouds 14 1021 30 10000 0.8 348 16:48 16.01.2022
5897 Clouds 12 1021 33 10000 0.82 358 15:19 16.01.2022
5898 Clouds 13 1021 32 10000 0.8 349 14:28 16.01.2022
5899 Clouds 13 1021 32 10000 0.87 337 12:51 16.01.2022
5900 Clouds 13 1021 31 10000 0.99 354 11:48 16.01.2022
5901 Clouds 13 1022 30 10000 1.14 349 10:58 16.01.2022
5902 Clouds 14 1022 30 10000 0.61 351 10:26 16.01.2022
5903 Clouds 14 1022 30 10000 0.61 351 09:54 16.01.2022
5904 Clouds 14 1023 29 10000 0.86 345 09:22 16.01.2022
5905 Clouds 14 1023 29 10000 0.86 345 08:47 16.01.2022
5906 Clouds 15 1024 28 10000 1.36 347 03:58 16.01.2022
5907 Clouds 18 1024 25 10000 1.82 3 23:50 15.01.2022
5908 Clouds 18 1024 26 10000 1.63 358 22:35 15.01.2022
5909 Clouds 18 1025 26 10000 2.53 8 21:20 15.01.2022
5910 Clouds 18 1025 26 10000 2.53 8 20:40 15.01.2022
5911 Clouds 21 1027 27 10000 2.78 11 19:30 15.01.2022
5912 Clouds 20 1027 29 10000 2.8 9 18:47 15.01.2022
5913 Clouds 19 1027 32 10000 2.39 5 17:30 15.01.2022
5914 Clouds 18 1027 35 10000 2.53 3 16:37 15.01.2022
5915 Clouds 18 1026 36 10000 2.7 2 13:57 15.01.2022
5916 Clouds 18 1026 36 10000 2.86 353 12:20 15.01.2022
5917 Clouds 18 1026 34 10000 3.23 357 10:43 15.01.2022
5918 Clouds 18 1026 34 10000 3.47 0 08:32 15.01.2022
5919 Clouds 21 1023 25 10000 5.67 340 00:35 15.01.2022
5920 Clouds 22 1023 24 10000 6.55 3 21:56 14.01.2022
5921 Clouds 23 1024 24 10000 6.71 2 20:41 14.01.2022
5922 Clouds 22 1025 24 10000 6.12 1 20:21 14.01.2022
5923 Clouds 21 1025 25 10000 6.04 5 18:49 14.01.2022
5924 Clouds 20 1024 26 10000 3.84 5 18:27 14.01.2022
5925 Clouds 16 1023 28 10000 3.74 357 16:50 14.01.2022
5926 Clouds 16 1022 29 10000 3.21 347 15:48 14.01.2022
5927 Clouds 18 1021 29 10000 2.87 345 14:46 14.01.2022
5928 Clouds 15 1020 28 10000 2.58 353 13:37 14.01.2022
5929 Clouds 17 1019 28 10000 2.04 350 12:29 14.01.2022
5930 Clouds 15 1018 29 10000 1.45 3 10:57 14.01.2022
5931 Clouds 16 1019 30 10000 0.5 165 09:44 14.01.2022
5932 Clouds 17 1019 30 10000 0.31 128 08:44 14.01.2022
5933 Clouds 18 1020 30 10000 1.13 333 06:57 14.01.2022
5934 Clouds 22 1020 28 10000 1.27 346 01:33 14.01.2022
5935 Clouds 25 1020 22 10000 1.23 181 23:19 13.01.2022
5936 Clouds 21 1021 21 10000 0.25 330 21:38 13.01.2022
5937 Clouds 21 1022 21 10000 0.57 294 21:19 13.01.2022
5938 Clouds 23 1023 22 10000 0.38 116 19:40 13.01.2022
5939 Clouds 23 1023 22 10000 0.37 339 19:22 13.01.2022
5940 Clouds 20 1024 26 10000 0.35 198 17:52 13.01.2022
5941 Clouds 16 1023 28 10000 0.24 215 16:21 13.01.2022
5942 Clouds 15 1023 28 10000 0.24 215 15:37 13.01.2022
5943 Clouds 15 1023 28 10000 0.23 66 14:46 13.01.2022
5944 Clouds 17 1022 26 10000 0.28 235 12:44 13.01.2022
5945 Clouds 17 1024 25 10000 0.57 329 10:25 13.01.2022
5946 Clouds 18 1024 25 10000 1.01 2 09:20 13.01.2022
5947 Clouds 18 1024 25 10000 1.01 2 09:20 13.01.2022
5948 Clouds 18 1025 24 10000 0.94 349 08:27 13.01.2022
5949 Clouds 18 1025 25 10000 0.74 29 07:24 13.01.2022
5950 Clouds 18 1025 24 10000 0.79 217 05:59 13.01.2022
5951 Clouds 18 1025 24 10000 0.79 217 05:59 13.01.2022
5952 Clouds 19 1025 24 10000 0.13 164 05:19 13.01.2022
5953 Clouds 19 1025 24 10000 1.05 336 01:58 13.01.2022
5954 Clouds 22 1024 21 10000 0.48 356 00:55 13.01.2022
5955 Clouds 22 1024 17 10000 1.34 17 23:49 12.01.2022
5956 Clouds 22 1024 17 10000 1.34 17 23:49 12.01.2022
5957 Clear 22 1025 17 10000 0.73 22 23:20 12.01.2022
5958 Clear 22 1026 18 10000 0.46 30 21:57 12.01.2022
5959 Clear 21 1027 19 10000 0.72 23 21:22 12.01.2022
5960 Clear 21 1027 19 10000 0.72 23 20:56 12.01.2022
5961 Clear 21 1028 19 10000 0.93 11 19:45 12.01.2022
5962 Clear 20 1028 20 10000 1.73 359 18:42 12.01.2022
5963 Clear 21 1028 23 10000 2.21 356 17:38 12.01.2022
5964 Clear 16 1028 26 10000 2.78 353 16:33 12.01.2022
5965 Clear 15 1028 31 10000 1.17 357 14:48 12.01.2022
5966 Clouds 15 1027 29 10000 2.44 353 13:24 12.01.2022
5967 Clear 15 1028 29 10000 2.2 343 11:59 12.01.2022
5968 Clear 15 1028 29 10000 1.43 357 08:43 12.01.2022
5969 Clouds 16 1028 29 10000 1.13 349 07:50 12.01.2022
5970 Clouds 17 1028 29 10000 1.13 349 07:31 12.01.2022
5971 Clouds 20 1026 18 10000 1.25 359 23:53 11.01.2022
5972 Clouds 20 1026 18 10000 2.95 0 22:57 11.01.2022
5973 Clouds 20 1027 18 10000 3.11 6 22:23 11.01.2022
5974 Clouds 19 1028 18 10000 2.38 358 21:25 11.01.2022
5975 Clear 18 1030 19 10000 3.22 360 20:21 11.01.2022
5976 Clear 17 1031 21 10000 3.98 1 18:43 11.01.2022
5977 Clear 16 1030 23 10000 2.31 352 17:42 11.01.2022
5978 Clear 11 1030 27 10000 2.67 354 16:38 11.01.2022
5979 Clear 13 1030 30 10000 2.07 346 15:59 11.01.2022
5980 Clear 10 1029 31 10000 1.78 351 14:43 11.01.2022
5981 Clear 13 1029 30 10000 2.5 356 13:58 11.01.2022
5982 Clear 13 1029 30 10000 2.5 356 13:39 11.01.2022
5983 Clouds 13 1029 31 10000 2.04 340 13:21 11.01.2022
5984 Clouds 13 1029 32 10000 1.68 355 12:22 11.01.2022
5985 Clouds 14 1031 31 10000 2.31 349 10:24 11.01.2022
5986 Clouds 14 1030 32 10000 0.73 348 07:35 11.01.2022
5987 Clouds 15 1029 29 10000 2.24 338 01:47 11.01.2022
5988 Clouds 19 1029 23 10000 3.07 1 00:22 11.01.2022
5989 Clouds 20 1029 23 10000 3.07 1 23:37 10.01.2022
5990 Clouds 19 1029 24 10000 3.04 1 22:19 10.01.2022
5991 Clouds 19 1029 24 10000 3.04 1 21:55 10.01.2022
5992 Clouds 19 1029 24 10000 3.04 1 21:32 10.01.2022
5993 Clouds 18 1031 25 10000 3.12 4 20:58 10.01.2022
5994 Clouds 18 1032 27 10000 3.09 355 20:29 10.01.2022
5995 Clouds 19 1032 27 10000 3.09 355 19:47 10.01.2022
5996 Clouds 16 1033 28 10000 2.73 2 19:23 10.01.2022
5997 Clouds 16 1033 28 10000 2.73 2 18:54 10.01.2022
5998 Clouds 18 1033 28 10000 2.73 2 18:34 10.01.2022
5999 Clouds 14 1033 35 10000 2.13 349 16:43 10.01.2022
6000 Clouds 9 1032 37 10000 2.11 342 16:18 10.01.2022
6001 Clouds 12 1032 37 10000 2.04 347 14:41 10.01.2022
6002 Clouds 13 1031 36 10000 1.92 345 12:43 10.01.2022
6003 Clouds 12 1031 36 10000 1.76 343 11:40 10.01.2022
6004 Clouds 10 1031 36 10000 1.69 352 10:46 10.01.2022
6005 Clouds 14 1031 35 10000 1.9 341 08:59 10.01.2022
6006 Clear 15 1032 32 10000 1.9 345 05:51 10.01.2022
6007 Clear 16 1030 31 10000 1.98 325 01:35 10.01.2022
6008 Clear 17 1029 27 10000 2.37 335 00:44 10.01.2022
6009 Clear 18 1029 26 10000 2.58 347 00:19 10.01.2022
6010 Clear 18 1029 26 10000 2.77 3 22:43 09.01.2022
6011 Clear 18 1029 27 10000 2.9 5 21:57 09.01.2022
6012 Clear 18 1029 27 10000 2.9 5 21:37 09.01.2022
6013 Clear 17 1030 28 10000 2.93 6 21:18 09.01.2022
6014 Clear 17 1030 28 10000 2.93 6 20:45 09.01.2022
6015 Clear 17 1031 30 10000 3.04 10 20:26 09.01.2022
6016 Clear 17 1031 30 10000 3.04 10 19:38 09.01.2022
6017 Clear 16 1031 33 10000 3 10 19:20 09.01.2022
6018 Clear 16 1030 32 10000 2.99 9 18:37 09.01.2022
6019 Clear 16 1030 35 10000 2.51 4 17:48 09.01.2022
6020 Clear 11 1029 40 10000 2.36 357 17:29 09.01.2022
6021 Clear 13 1029 40 10000 2.36 357 16:49 09.01.2022
6022 Clear 12 1029 41 10000 2.3 354 15:46 09.01.2022
6023 Clear 13 1028 40 10000 2.47 355 15:25 09.01.2022
6024 Clear 13 1028 40 10000 2.47 355 14:39 09.01.2022
6025 Clear 11 1027 40 10000 2.45 352 13:48 09.01.2022
6026 Clear 13 1026 35 10000 2.65 356 11:58 09.01.2022
6027 Clear 14 1026 35 10000 2.65 356 11:38 09.01.2022
6028 Clear 10 1025 34 10000 2.66 354 09:55 09.01.2022
6029 Clear 12 1024 34 10000 2.84 354 09:24 09.01.2022
6030 Clear 15 1024 34 10000 2.71 354 07:54 09.01.2022
6031 Clear 17 1019 30 10000 2.58 336 01:30 09.01.2022
6032 Clear 19 1018 28 10000 2.41 343 00:53 09.01.2022
6033 Clear 20 1017 27 10000 2.79 355 23:37 08.01.2022
6034 Clear 20 1017 28 10000 3.01 0 22:58 08.01.2022
6035 Clear 20 1017 30 10000 3.01 1 21:32 08.01.2022
6036 Clear 19 1017 32 10000 2.79 352 20:44 08.01.2022
6037 Clear 18 1018 35 10000 2.81 2 20:23 08.01.2022
6038 Clear 18 1018 35 10000 2.81 2 19:46 08.01.2022
6039 Clear 18 1016 39 10000 1.1 10 17:49 08.01.2022
6040 Clear 15 1015 48 10000 1.02 340 16:57 08.01.2022
6041 Clear 12 1014 52 10000 1.38 357 15:37 08.01.2022
6042 Clear 13 1013 53 10000 0.66 343 14:38 08.01.2022
6043 Clouds 15 1011 52 10000 1.1 336 12:36 08.01.2022
6044 Clouds 16 1010 52 10000 1.39 338 10:49 08.01.2022
6045 Clouds 16 1009 50 10000 1.99 337 10:24 08.01.2022
6046 Clouds 15 1009 50 10000 1.99 337 09:34 08.01.2022
6047 Clouds 14 1007 51 10000 0.82 204 07:18 08.01.2022
6048 Clouds 19 1007 44 10000 1.79 348 01:52 08.01.2022
6049 Clouds 19 1006 38 10000 1.02 353 00:40 08.01.2022
6050 Clouds 23 1007 36 10000 0.88 164 22:40 07.01.2022
6051 Clouds 23 1009 38 10000 0.75 178 20:56 07.01.2022
6052 Clouds 21 1010 40 10000 0.94 184 19:56 07.01.2022
6053 Clouds 21 1010 40 10000 0.94 184 19:56 07.01.2022
6054 Clouds 20 1011 42 10000 1.09 122 18:54 07.01.2022
6055 Clouds 20 1011 42 10000 1.09 122 18:34 07.01.2022
6056 Clear 15 1010 51 10000 0.6 186 17:25 07.01.2022
6057 Clear 11 1010 56 10000 0.96 163 16:23 07.01.2022
6058 Clear 15 1010 53 10000 0.89 160 13:53 07.01.2022
6059 Clear 15 1010 52 10000 1.12 156 13:19 07.01.2022
6060 Clear 15 1010 52 10000 1.12 156 12:48 07.01.2022
6061 Clear 16 1012 52 10000 0.99 168 09:21 07.01.2022
6062 Clear 19 1013 47 10000 1.41 163 02:54 07.01.2022
6063 Clear 22 1013 46 10000 1.22 180 01:53 07.01.2022
6064 Clear 21 1013 39 10000 0.95 186 01:27 07.01.2022
6065 Clear 21 1013 39 10000 0.95 186 00:57 07.01.2022
6066 Clear 22 1013 34 10000 0.83 155 22:46 06.01.2022
6067 Clear 21 1016 36 10000 0.34 107 21:23 06.01.2022
6068 Clear 20 1017 37 10000 0.33 13 20:21 06.01.2022
6069 Clear 20 1017 37 10000 0.33 13 19:44 06.01.2022
6070 Clouds 22 1018 38 10000 0.54 343 17:54 06.01.2022
6071 Clouds 21 1018 38 10000 0.54 343 17:34 06.01.2022
6072 Clouds 14 1017 47 10000 0.91 327 16:42 06.01.2022
6073 Clouds 16 1017 54 10000 1.16 358 15:46 06.01.2022
6074 Clouds 18 1017 51 10000 1.22 345 15:25 06.01.2022
6075 Clouds 18 1017 51 10000 1.22 345 14:43 06.01.2022
6076 Clouds 18 1017 46 10000 1.17 343 14:18 06.01.2022
6077 Clouds 16 1017 45 10000 1.32 347 12:50 06.01.2022
6078 Clouds 14 1018 42 10000 1.7 345 11:43 06.01.2022
6079 Clouds 13 1018 41 10000 1.44 354 11:22 06.01.2022
6080 Clouds 15 1018 39 10000 1.07 328 08:52 06.01.2022
6081 Clear 18 1019 31 10000 0.38 233 01:24 06.01.2022
6082 Clear 19 1019 27 10000 0.33 18 23:38 05.01.2022
6083 Clear 19 1019 26 10000 0.68 12 22:57 05.01.2022
6084 Clear 19 1019 26 10000 0.68 12 22:33 05.01.2022
6085 Clear 19 1019 25 10000 0.71 27 21:49 05.01.2022
6086 Clear 18 1021 25 10000 0.54 356 21:20 05.01.2022
6087 Clear 17 1022 26 10000 0.16 32 20:19 05.01.2022
6088 Clear 16 1023 26 10000 0.5 12 18:50 05.01.2022
6089 Clear 18 1023 27 10000 0.54 331 17:44 05.01.2022
6090 Clear 14 1022 34 10000 1.12 11 16:51 05.01.2022
6091 Clear 12 1021 35 10000 0.16 340 15:26 05.01.2022
6092 Clear 15 1021 36 10000 0.37 283 14:24 05.01.2022
6093 Clear 15 1022 36 10000 0.36 37 13:25 05.01.2022
6094 Clouds 12 1022 38 10000 0.58 352 11:36 05.01.2022
6095 Clear 12 1023 40 10000 0.32 332 08:20 05.01.2022
6096 Clouds 12 1023 40 10000 0.51 342 06:25 05.01.2022
6097 Clouds 15 1022 31 10000 0.19 116 00:59 05.01.2022
6098 Clouds 15 1022 28 10000 0.32 57 23:29 04.01.2022
6099 Clouds 15 1022 28 10000 0.32 57 22:58 04.01.2022
6100 Clouds 15 1023 28 10000 0.47 77 21:31 04.01.2022
6101 Clouds 18 1026 28 10000 0.38 131 19:22 04.01.2022
6102 Clouds 14 1025 28 10000 0.14 73 17:54 04.01.2022
6103 Clouds 10 1025 36 10000 1.33 342 16:53 04.01.2022
6104 Clouds 10 1025 36 10000 1.33 342 16:30 04.01.2022
6105 Clouds 9 1023 39 10000 0.94 338 14:54 04.01.2022
6106 Clouds 9 1023 39 10000 0.94 338 14:36 04.01.2022
6107 Clouds 9 1022 39 10000 1.15 355 13:48 04.01.2022
6108 Clouds 10 1022 38 10000 0.2 47 10:59 04.01.2022
6109 Clouds 10 1022 38 10000 0.21 215 09:58 04.01.2022
6110 Clouds 10 1022 38 10000 0.19 289 08:35 04.01.2022
6111 Clouds 11 1022 36 10000 0.29 24 04:24 04.01.2022
6112 Clouds 14 1021 30 10000 0.43 340 00:42 04.01.2022
6113 Clouds 14 1021 25 10000 0.07 78 23:44 03.01.2022
6114 Clouds 13 1022 24 10000 0.46 161 22:21 03.01.2022
6115 Clouds 13 1022 24 10000 0.46 161 21:38 03.01.2022
6116 Clouds 13 1023 24 10000 1.24 163 20:34 03.01.2022
6117 Clouds 13 1025 23 10000 0.45 161 18:54 03.01.2022
6118 Clouds 13 1025 23 10000 0.67 162 18:29 03.01.2022
6119 Clouds 9 1024 30 10000 0.62 163 17:20 03.01.2022
6120 Clouds 8 1024 32 10000 0.13 151 16:28 03.01.2022
6121 Clouds 8 1024 32 10000 0.21 3 14:31 03.01.2022
6122 Clear 8 1024 30 10000 0.28 121 12:51 03.01.2022
6123 Clear 8 1025 30 10000 0.43 154 11:50 03.01.2022
6124 Clear 8 1025 30 10000 0.42 25 10:37 03.01.2022
6125 Clear 9 1025 30 10000 0.96 350 09:27 03.01.2022
6126 Clear 9 1026 30 10000 0.82 7 07:52 03.01.2022
6127 Clear 10 1026 30 10000 0.42 294 02:28 03.01.2022
6128 Clear 13 1026 22 10000 0.44 109 23:23 02.01.2022
6129 Clear 13 1026 22 10000 0.44 109 22:56 02.01.2022
6130 Clear 12 1027 22 10000 0.72 118 21:52 02.01.2022
6131 Clear 12 1028 22 10000 0.59 141 20:50 02.01.2022
6132 Clear 11 1029 23 10000 0.4 120 20:29 02.01.2022
6133 Clear 11 1029 23 10000 0.4 120 19:31 02.01.2022
6134 Clear 13 1030 23 10000 0.43 82 18:56 02.01.2022
6135 Clear 11 1030 25 10000 0.81 31 17:57 02.01.2022
6136 Clear 9 1030 25 10000 0.81 31 17:39 02.01.2022
6137 Clear 6 1030 29 10000 0.91 10 17:20 02.01.2022
6138 Clear 7 1030 32 10000 1.09 23 16:28 02.01.2022
6139 Clear 7 1029 32 10000 0.92 17 14:44 02.01.2022
6140 Clear 7 1029 32 10000 0.76 35 13:37 02.01.2022
6141 Clouds 4 1029 33 10000 0.69 35 12:32 02.01.2022
6142 Clouds 4 1029 33 10000 0.59 36 11:49 02.01.2022
6143 Clouds 4 1029 33 10000 0.55 48 10:54 02.01.2022
6144 Clouds 4 1029 33 10000 0.51 80 09:57 02.01.2022
6145 Clouds 5 1029 32 10000 0.49 27 07:34 02.01.2022
6146 Clouds 9 1026 31 10000 1.71 340 02:56 02.01.2022
6147 Clear 13 1023 23 10000 1.95 351 23:42 01.01.2022
6148 Clear 13 1023 23 10000 1.71 7 23:24 01.01.2022
6149 Clear 12 1023 23 10000 1.8 6 22:25 01.01.2022
6150 Clear 12 1023 23 10000 1.8 6 21:46 01.01.2022
6151 Clear 12 1023 24 10000 2.58 359 21:28 01.01.2022
6152 Clear 11 1024 26 10000 3.25 9 20:25 01.01.2022
6153 Clear 11 1024 26 10000 3.25 9 19:36 01.01.2022
6154 Clear 12 1024 29 10000 3.42 12 18:51 01.01.2022
6155 Clear 10 1023 32 10000 3.02 4 17:38 01.01.2022
6156 Clear 7 1022 40 10000 2.24 351 16:35 01.01.2022
6157 Clear 5 1021 42 10000 2.57 357 15:42 01.01.2022
6158 Clear 5 1020 42 10000 2.4 359 14:39 01.01.2022
6159 Clear 5 1018 42 10000 2.73 0 13:42 01.01.2022
6160 Clear 5 1016 43 10000 2.53 357 12:25 01.01.2022
6161 Clear 6 1015 43 10000 2.75 352 11:26 01.01.2022
6162 Clear 6 1015 43 10000 2.75 352 10:58 01.01.2022
6163 Clear 6 1014 43 10000 3.38 349 09:48 01.01.2022
6164 Clear 8 1013 44 10000 3.77 346 08:45 01.01.2022
6165 Clear 8 1012 46 10000 4.31 347 08:18 01.01.2022
6166 Clear 9 1012 46 10000 4.31 347 07:39 01.01.2022
6167 Clouds 9 1011 48 10000 4.53 346 06:44 01.01.2022
6168 Clouds 11 1007 60 10000 5.86 353 05:24 01.01.2022
6169 Clouds 11 1007 60 10000 5.86 353 04:35 01.01.2022
6170 Clouds 15 1001 65 10000 1.61 167 00:23 01.01.2022
6171 Clouds 14 1002 68 10000 0.78 124 22:34 31.12.2021
6172 Clouds 16 1002 69 10000 0.79 75 21:47 31.12.2021
6173 Clouds 14 1005 74 10000 0.42 126 19:56 31.12.2021
6174 Clouds 14 1006 78 10000 0.36 94 19:28 31.12.2021
6175 Clouds 12 1006 81 10000 0.24 121 18:24 31.12.2021
6176 Clouds 10 1006 81 10000 0.24 121 17:37 31.12.2021
6177 Clouds 10 1006 84 10000 0.65 336 16:56 31.12.2021
6178 Clouds 9 1006 85 10000 1.03 347 16:19 31.12.2021
6179 Clouds 9 1006 85 10000 1.03 347 15:51 31.12.2021
6180 Clouds 9 1006 84 10000 0.21 232 15:28 31.12.2021
6181 Clouds 9 1006 84 10000 0.21 232 14:41 31.12.2021
6182 Clouds 10 1006 85 10000 0.23 213 13:58 31.12.2021
6183 Clouds 9 1006 87 10000 0.46 221 13:23 31.12.2021
6184 Clouds 10 1007 87 10000 0.38 307 12:44 31.12.2021
6185 Clouds 10 1007 88 10000 0.88 197 11:43 31.12.2021
6186 Clouds 10 1008 89 10000 0.63 209 11:19 31.12.2021
6187 Clouds 10 1008 89 10000 0.63 209 10:30 31.12.2021
6188 Clouds 10 1008 89 10000 0.26 265 09:35 31.12.2021
6189 Clouds 11 1009 88 10000 1.43 328 08:56 31.12.2021
6190 Clouds 10 1010 86 10000 1.33 318 08:25 31.12.2021
6191 Clouds 10 1010 86 10000 1.33 318 07:30 31.12.2021
6192 Clouds 11 1012 91 10000 2.66 179 23:23 30.12.2021
6193 Clouds 13 1012 91 10000 2.66 179 22:33 30.12.2021
6194 Clouds 14 1012 93 10000 1.87 179 21:51 30.12.2021
6195 Clouds 11 1012 93 10000 1.87 179 21:33 30.12.2021
6196 Clouds 13 1014 94 10000 1.54 180 20:44 30.12.2021
6197 Clouds 13 1015 95 10000 0.61 187 20:24 30.12.2021
6198 Clouds 12 1015 95 10000 0.61 187 19:43 30.12.2021
6199 Clouds 11 1015 94 10000 0.65 319 18:29 30.12.2021
6200 Rain 10 1015 94 10000 0.65 319 17:45 30.12.2021
6201 Clouds 9 1014 95 5464 0.78 333 16:19 30.12.2021
6202 Clouds 9 1014 95 5464 0.78 333 15:42 30.12.2021
6203 Clouds 8 1014 94 9544 0.91 358 14:38 30.12.2021
6204 Clouds 8 1014 95 8879 1.6 1 13:33 30.12.2021
6205 Clouds 9 1014 95 5378 2.19 344 12:40 30.12.2021
6206 Clouds 9 1014 94 5913 1.66 3 10:58 30.12.2021
6207 Clouds 9 1013 93 8210 1.62 357 09:58 30.12.2021
6208 Rain 9 1013 93 3804 1.98 348 08:56 30.12.2021
6209 Rain 10 1012 89 7890 1.15 138 06:52 30.12.2021
6210 Clouds 11 1011 76 10000 2.43 143 03:42 30.12.2021
6211 Clouds 11 1011 78 10000 3.38 153 02:47 30.12.2021
6212 Clouds 11 1010 77 10000 4.93 175 23:43 29.12.2021
6213 Clouds 11 1009 72 10000 4.91 173 23:23 29.12.2021
6214 Clouds 10 1009 68 10000 4.79 172 22:21 29.12.2021
6215 Clouds 10 1009 68 10000 4.79 172 21:43 29.12.2021
6216 Clouds 13 1010 63 10000 4.09 168 20:39 29.12.2021
6217 Clouds 9 1011 56 10000 3.99 165 19:50 29.12.2021
6218 Clear 10 1012 56 10000 3.4 156 18:54 29.12.2021
6219 Clear 9 1011 61 10000 2.87 155 17:57 29.12.2021
6220 Clear 7 1011 68 10000 2.03 158 17:28 29.12.2021
6221 Clear 8 1011 68 10000 2.03 158 16:44 29.12.2021
6222 Clear 7 1011 75 10000 1.97 162 16:19 29.12.2021
6223 Clear 7 1010 75 10000 1.58 129 14:24 29.12.2021
6224 Clouds 5 1010 74 10000 1.14 133 12:48 29.12.2021
6225 Clouds 6 1009 70 10000 1.92 144 12:20 29.12.2021
6226 Clouds 5 1009 69 10000 1.85 147 10:31 29.12.2021
6227 Clouds 6 1009 69 10000 1.3 160 08:24 29.12.2021
6228 Clouds 10 1008 66 10000 1.72 173 06:45 29.12.2021
6229 Clouds 10 1008 67 10000 1.14 170 06:24 29.12.2021
6230 Clouds 10 1008 67 10000 1.14 170 05:42 29.12.2021
6231 Clouds 9 1007 66 10000 0.65 163 03:20 29.12.2021
6232 Clouds 9 1007 66 10000 0.65 163 03:20 29.12.2021
6233 Clouds 11 1006 64 10000 0.39 185 00:24 29.12.2021
6234 Clouds 12 1006 64 10000 0.39 185 23:49 28.12.2021
6235 Clouds 13 1006 62 10000 0.42 159 22:50 28.12.2021
6236 Clouds 11 1006 62 10000 0.93 173 22:24 28.12.2021
6237 Clouds 12 1006 62 10000 0.93 173 21:53 28.12.2021
6238 Clouds 11 1007 65 10000 1.44 171 20:49 28.12.2021
6239 Clouds 12 1008 66 10000 1.29 164 19:50 28.12.2021
6240 Clouds 11 1009 69 10000 0.51 186 18:50 28.12.2021
6241 Clouds 10 1008 72 10000 0.68 217 18:23 28.12.2021
6242 Clouds 9 1008 74 10000 0.88 202 16:35 28.12.2021
6243 Clouds 9 1007 74 10000 0.74 196 15:52 28.12.2021
6244 Clouds 5 1007 74 10000 0.71 201 15:27 28.12.2021
6245 Clouds 5 1007 74 10000 0.71 201 14:53 28.12.2021
6246 Clouds 9 1007 74 10000 0.8 219 14:21 28.12.2021
6247 Clouds 9 1007 74 10000 0.8 219 13:54 28.12.2021
6248 Clouds 9 1007 74 10000 0.8 219 13:33 28.12.2021
6249 Clouds 9 1007 76 10000 0.7 256 12:55 28.12.2021
6250 Clouds 10 1006 73 10000 0.48 290 12:18 28.12.2021
6251 Clouds 8 1006 70 10000 0.89 198 09:32 28.12.2021
6252 Clouds 8 1006 69 10000 1.57 146 07:33 28.12.2021
6253 Clouds 9 1005 81 10000 4.41 176 03:31 28.12.2021
6254 Clouds 13 1004 53 10000 6.58 193 23:37 27.12.2021
6255 Clouds 13 1006 46 10000 5.29 192 22:20 27.12.2021
6256 Clouds 14 1006 46 10000 5.29 192 21:30 27.12.2021
6257 Clouds 13 1008 43 10000 4.56 186 20:32 27.12.2021
6258 Clouds 15 1010 40 10000 3.99 175 19:47 27.12.2021
6259 Clear 11 1011 40 10000 3.52 174 18:57 27.12.2021
6260 Clear 10 1012 43 10000 2.46 174 17:51 27.12.2021
6261 Clear 9 1012 48 10000 1.22 179 17:28 27.12.2021
6262 Clear 8 1012 50 10000 1.15 185 15:56 27.12.2021
6263 Clear 6 1012 50 10000 1.49 180 15:19 27.12.2021
6264 Clear 8 1012 49 10000 1.79 178 14:22 27.12.2021
6265 Clear 9 1011 52 10000 1.6 178 12:52 27.12.2021
6266 Clear 5 1012 51 10000 1.54 184 10:40 27.12.2021
6267 Clear 6 1012 51 10000 1.68 195 10:22 27.12.2021
6268 Clear 10 1013 52 10000 1.71 198 08:43 27.12.2021
6269 Clear 6 1014 51 10000 2.11 193 07:34 27.12.2021
6270 Clear 8 1013 46 10000 1.74 195 06:29 27.12.2021
6271 Clear 13 1012 38 10000 0.79 134 01:52 27.12.2021
6272 Clear 14 1012 32 10000 1.52 166 23:49 26.12.2021
6273 Clear 14 1012 33 10000 1.71 162 23:19 26.12.2021
6274 Clear 14 1012 35 10000 2.27 162 21:37 26.12.2021
6275 Clear 13 1013 40 10000 3.12 168 19:57 26.12.2021
6276 Clear 12 1013 43 10000 2.8 153 18:46 26.12.2021
6277 Clear 12 1012 46 10000 2.19 163 18:22 26.12.2021
6278 Clear 10 1010 56 10000 3.35 207 15:54 26.12.2021
6279 Clear 9 1008 56 10000 6.3 206 13:51 26.12.2021
6280 Clear 10 1008 56 10000 6.3 206 13:32 26.12.2021
6281 Clouds 9 1007 63 10000 6.9 199 12:37 26.12.2021
6282 Clouds 9 1007 64 10000 6.86 199 12:37 26.12.2021
6283 Clouds 10 1007 74 10000 7.23 195 11:56 26.12.2021
6284 Clouds 10 1007 82 10000 8.13 190 09:42 26.12.2021
6285 Clouds 10 1007 72 10000 7.13 194 08:59 26.12.2021
6286 Clouds 9 1007 72 10000 7.13 194 08:38 26.12.2021
6287 Clear 10 1008 62 10000 7.21 190 06:47 26.12.2021
6288 Clear 17 1006 44 10000 7.73 189 00:45 26.12.2021
6289 Clear 18 1006 38 10000 7.71 186 23:49 25.12.2021
6290 Clear 18 1007 38 10000 6.67 187 23:26 25.12.2021
6291 Clear 19 1008 41 10000 6.18 182 22:22 25.12.2021
6292 Clear 18 1010 46 10000 6.52 180 20:48 25.12.2021
6293 Clear 15 1012 59 10000 5.42 167 19:21 25.12.2021
6294 Clear 14 1012 59 10000 5.42 167 18:54 25.12.2021
6295 Clear 8 1013 76 10000 1.6 151 16:58 25.12.2021
6296 Clear 8 1013 81 10000 1.4 151 16:18 25.12.2021
6297 Clear 11 1012 80 10000 1.41 143 14:38 25.12.2021
6298 Clear 12 1012 77 10000 1.15 139 12:43 25.12.2021
6299 Clear 9 1012 75 10000 1.21 147 11:37 25.12.2021
6300 Clear 13 1011 73 10000 1.86 158 09:49 25.12.2021
6301 Clear 14 1011 69 10000 1.94 176 07:54 25.12.2021
6302 Clear 16 1005 53 10000 2.2 172 02:22 25.12.2021
6303 Clear 20 1005 47 10000 0.55 207 00:33 25.12.2021
6304 Clear 21 1004 44 10000 1 216 23:38 24.12.2021
6305 Clear 18 1004 55 10000 3.28 195 19:39 24.12.2021
6306 Clouds 18 1005 60 10000 3.45 201 19:21 24.12.2021
6307 Clouds 14 1005 76 10000 3.5 196 16:50 24.12.2021
6308 Rain 13 1004 78 10000 3.83 192 16:21 24.12.2021
6309 Clouds 13 1004 78 10000 3.83 192 15:46 24.12.2021
6310 Clouds 13 1004 77 10000 3.64 193 14:46 24.12.2021
6311 Clear 14 1003 76 10000 4.68 189 14:23 24.12.2021
6312 Clear 13 1003 76 10000 4.68 189 13:37 24.12.2021
6313 Clouds 13 1003 76 10000 5.96 189 12:48 24.12.2021
6314 Clouds 14 1004 76 10000 5.22 190 11:52 24.12.2021
6315 Clouds 15 1004 76 10000 6.23 183 11:26 24.12.2021
6316 Clouds 15 1004 76 10000 6.23 183 10:53 24.12.2021
6317 Clouds 15 1003 75 10000 7.39 185 10:22 24.12.2021
6318 Clouds 15 1005 79 10000 7.75 182 08:25 24.12.2021
6319 Clouds 15 1005 79 10000 7.75 182 07:50 24.12.2021
6320 Clouds 16 1006 85 10000 7.66 171 02:52 24.12.2021
6321 Rain 16 1008 77 10000 7.64 175 00:19 24.12.2021
6322 Clouds 17 1008 81 10000 7.52 173 23:23 23.12.2021
6323 Rain 17 1008 81 10000 7.52 173 22:39 23.12.2021
6324 Clouds 17 1009 79 10000 7.07 179 22:20 23.12.2021
6325 Rain 18 1009 79 10000 7.07 179 21:33 23.12.2021
6326 Rain 18 1011 72 10000 5.02 168 20:20 23.12.2021
6327 Clouds 16 1014 91 10000 2.24 164 18:37 23.12.2021
6328 Clouds 17 1013 81 8726 1.26 215 17:57 23.12.2021
6329 Clouds 16 1013 77 10000 1.64 157 16:57 23.12.2021
6330 Clouds 17 1013 71 10000 0.54 244 16:25 23.12.2021
6331 Clouds 17 1013 71 10000 0.54 244 15:32 23.12.2021
6332 Clouds 16 1013 66 10000 0.67 167 14:54 23.12.2021
6333 Clouds 16 1013 66 10000 0.67 167 14:36 23.12.2021
6334 Clouds 16 1012 52 10000 0.82 173 13:22 23.12.2021
6335 Clouds 16 1013 43 10000 1.58 186 10:54 23.12.2021
6336 Clouds 14 1014 37 10000 3.11 165 09:49 23.12.2021
6337 Clouds 14 1015 37 10000 1.19 171 09:26 23.12.2021
6338 Rain 14 1016 37 10000 1.01 180 08:25 23.12.2021
6339 Clouds 15 1016 35 10000 1.09 146 04:36 23.12.2021
6340 Clouds 20 1015 26 10000 0.08 131 23:33 22.12.2021
6341 Clouds 19 1015 25 10000 0.89 161 22:49 22.12.2021
6342 Clouds 17 1016 25 10000 0.68 154 21:57 22.12.2021
6343 Clouds 17 1017 25 10000 0.76 121 21:29 22.12.2021
6344 Clouds 17 1017 25 10000 0.76 121 20:52 22.12.2021
6345 Clouds 15 1017 25 10000 0.76 121 20:33 22.12.2021
6346 Clouds 15 1019 25 10000 0.05 74 19:37 22.12.2021
6347 Clouds 14 1019 27 10000 0.78 165 18:18 22.12.2021
6348 Clouds 15 1019 27 10000 0.78 165 17:35 22.12.2021
6349 Clouds 11 1019 36 10000 0.53 183 15:49 22.12.2021
6350 Clouds 11 1019 36 10000 0.58 175 13:46 22.12.2021
6351 Clouds 11 1019 32 10000 0.28 264 12:44 22.12.2021
6352 Clouds 11 1019 32 10000 0.38 335 11:37 22.12.2021
6353 Clouds 12 1020 32 10000 0.43 167 09:43 22.12.2021
6354 Clouds 12 1021 32 10000 0.63 183 07:55 22.12.2021
6355 Clouds 13 1021 32 10000 0.01 16 05:51 22.12.2021
6356 Clouds 13 1021 32 10000 0.01 16 05:31 22.12.2021
6357 Clouds 13 1021 31 10000 0.22 107 04:55 22.12.2021
6358 Clouds 13 1021 31 10000 0.22 107 04:31 22.12.2021
6359 Clouds 13 1021 31 10000 0.5 162 03:34 22.12.2021
6360 Clouds 14 1020 30 10000 0.61 214 02:25 22.12.2021
6361 Clouds 21 1019 22 10000 0.5 151 23:47 21.12.2021
6362 Clouds 23 1020 21 10000 0.34 112 22:29 21.12.2021
6363 Clouds 23 1020 21 10000 0.34 112 21:53 21.12.2021
6364 Clouds 22 1021 22 10000 0.46 57 21:26 21.12.2021
6365 Clouds 16 1023 23 10000 1.2 4 20:24 21.12.2021
6366 Clouds 16 1023 23 10000 1.2 4 19:52 21.12.2021
6367 Clouds 16 1023 23 10000 1.2 4 19:31 21.12.2021
6368 Clouds 15 1023 24 10000 0.19 17 18:23 21.12.2021
6369 Clouds 15 1023 24 10000 0.19 17 17:52 21.12.2021
6370 Clouds 12 1023 29 10000 0.48 14 16:47 21.12.2021
6371 Clouds 11 1023 33 10000 0.56 357 15:34 21.12.2021
6372 Clouds 11 1023 31 10000 1.33 356 13:55 21.12.2021
6373 Clouds 11 1023 31 10000 1.33 356 13:36 21.12.2021
6374 Clouds 11 1023 33 10000 1.56 348 12:25 21.12.2021
6375 Clouds 11 1023 33 10000 1.59 351 10:38 21.12.2021
6376 Clouds 11 1023 34 10000 1.66 342 09:42 21.12.2021
6377 Clouds 11 1023 34 10000 1.78 1 08:55 21.12.2021
6378 Clouds 12 1024 35 10000 1.29 347 07:42 21.12.2021
6379 Clouds 12 1024 36 10000 1.24 343 07:19 21.12.2021
6380 Clouds 14 1023 37 10000 0.63 314 03:24 21.12.2021
6381 Clouds 14 1022 33 10000 0.5 323 01:19 21.12.2021
6382 Clouds 18 1021 25 10000 0.08 136 23:54 20.12.2021
6383 Clouds 19 1021 24 10000 0.05 209 22:35 20.12.2021
6384 Clouds 20 1021 24 10000 0.28 31 21:51 20.12.2021
6385 Clouds 20 1022 24 10000 0.39 18 21:24 20.12.2021
6386 Clouds 19 1022 24 10000 0.39 18 20:51 20.12.2021
6387 Clear 19 1024 24 10000 0.56 358 20:19 20.12.2021
6388 Clear 18 1024 24 10000 0.56 358 19:36 20.12.2021
6389 Clouds 18 1024 25 10000 0.44 53 19:18 20.12.2021
6390 Clouds 14 1024 24 10000 0.48 51 18:30 20.12.2021
6391 Clouds 14 1024 26 10000 0.54 347 17:49 20.12.2021
6392 Clouds 12 1024 32 10000 0.67 356 16:46 20.12.2021
6393 Clear 10 1023 34 10000 0.76 348 15:57 20.12.2021
6394 Clear 10 1023 34 10000 0.76 348 15:31 20.12.2021
6395 Clear 10 1022 34 10000 0.69 358 13:31 20.12.2021
6396 Clear 11 1022 34 10000 0.82 353 11:48 20.12.2021
6397 Clear 11 1022 34 10000 0.58 14 10:36 20.12.2021
6398 Clear 11 1021 34 10000 0.46 323 09:39 20.12.2021
6399 Clear 12 1021 35 10000 0.25 32 08:49 20.12.2021
6400 Clear 12 1021 35 10000 0.25 32 08:31 20.12.2021
6401 Clear 12 1022 35 10000 0.23 133 07:32 20.12.2021
6402 Clouds 12 1022 36 10000 0.04 308 06:39 20.12.2021
6403 Clear 19 1019 27 10000 0.76 155 00:20 20.12.2021
6404 Clear 19 1019 26 10000 0.85 157 22:56 19.12.2021
6405 Clear 20 1020 26 10000 0.73 152 22:24 19.12.2021
6406 Clear 20 1020 26 10000 0.73 152 21:32 19.12.2021
6407 Clear 19 1021 26 10000 0.42 134 20:42 19.12.2021
6408 Clear 19 1022 27 10000 0.36 97 20:23 19.12.2021
6409 Clear 18 1022 27 10000 0.36 97 19:41 19.12.2021
6410 Clear 18 1023 27 10000 0.27 34 18:37 19.12.2021
6411 Clear 14 1023 29 10000 0.44 36 17:53 19.12.2021
6412 Clear 12 1022 37 10000 0.35 9 17:28 19.12.2021
6413 Clear 9 1022 39 10000 0.36 50 16:27 19.12.2021
6414 Clear 9 1022 38 10000 0.46 36 15:52 19.12.2021
6415 Clear 10 1022 38 10000 0.48 6 15:24 19.12.2021
6416 Clear 10 1022 38 10000 0.48 6 14:45 19.12.2021
6417 Clear 10 1021 38 10000 0.42 21 13:27 19.12.2021
6418 Clear 10 1021 38 10000 0.42 21 12:59 19.12.2021
6419 Clear 10 1021 38 10000 0.36 9 12:29 19.12.2021
6420 Clear 10 1021 38 10000 0.36 9 11:37 19.12.2021
6421 Clear 10 1021 37 10000 0.54 16 10:49 19.12.2021
6422 Clear 11 1021 38 10000 0.38 36 10:22 19.12.2021
6423 Clear 11 1022 38 10000 0.34 25 08:50 19.12.2021
6424 Clouds 11 1023 38 10000 0.55 2 06:45 19.12.2021
6425 Clouds 15 1023 37 10000 0.6 333 01:52 19.12.2021
6426 Clouds 15 1022 31 10000 0.52 341 00:54 19.12.2021
6427 Clouds 16 1022 27 10000 0.9 30 23:18 18.12.2021
6428 Clouds 15 1023 27 10000 1.22 23 22:24 18.12.2021
6429 Clouds 15 1023 27 10000 1.22 23 21:44 18.12.2021
6430 Clouds 15 1025 28 10000 1.61 12 21:25 18.12.2021
6431 Clouds 20 1025 28 10000 1.61 12 20:43 18.12.2021
6432 Clouds 14 1026 30 10000 1.75 10 19:38 18.12.2021
6433 Clouds 12 1027 34 10000 1.64 12 18:25 18.12.2021
6434 Clouds 15 1027 34 10000 1.64 12 17:49 18.12.2021
6435 Clouds 11 1027 39 10000 1.52 1 16:48 18.12.2021
6436 Clouds 9 1027 42 10000 1.7 353 16:20 18.12.2021
6437 Clouds 10 1027 42 10000 1.82 354 14:54 18.12.2021
6438 Clouds 10 1026 42 10000 1.94 353 13:58 18.12.2021
6439 Clear 10 1026 41 10000 1.95 356 11:57 18.12.2021
6440 Clear 10 1025 41 10000 1.95 357 09:59 18.12.2021
6441 Clear 10 1025 41 10000 1.95 357 09:32 18.12.2021
6442 Clear 11 1026 40 10000 2.31 356 08:36 18.12.2021
6443 Clear 12 1026 36 10000 2.42 352 07:24 18.12.2021
6444 Clear 14 1024 30 10000 3.24 349 01:46 18.12.2021
6445 Clear 16 1022 26 10000 3.94 1 23:51 17.12.2021
6446 Clear 16 1022 27 10000 3.91 2 22:51 17.12.2021
6447 Clear 15 1023 28 10000 4.14 4 21:49 17.12.2021
6448 Clear 15 1023 31 10000 4.21 3 20:44 17.12.2021
6449 Clear 18 1024 34 10000 4.19 4 19:58 17.12.2021
6450 Clear 14 1025 38 10000 4.22 3 18:40 17.12.2021
6451 Clear 14 1025 44 10000 3.52 4 18:18 17.12.2021
6452 Clear 10 1024 52 10000 2.6 1 16:57 17.12.2021
6453 Clear 10 1024 59 10000 2.58 357 16:28 17.12.2021
6454 Clear 10 1024 59 10000 2.58 357 15:51 17.12.2021
6455 Clear 10 1023 59 10000 2.86 357 14:43 17.12.2021
6456 Clear 10 1022 59 10000 2.8 359 13:55 17.12.2021
6457 Clear 10 1022 59 10000 2.77 357 12:37 17.12.2021
6458 Clear 10 1021 58 10000 2.74 353 10:42 17.12.2021
6459 Clear 9 1021 57 10000 2.65 353 09:47 17.12.2021
6460 Clear 11 1021 55 10000 2.81 352 08:43 17.12.2021
6461 Clear 11 1021 54 10000 2.64 353 08:18 17.12.2021
6462 Clouds 10 1021 60 10000 2.04 319 04:57 17.12.2021
6463 Clouds 11 1018 54 10000 2.94 344 00:58 17.12.2021
6464 Clouds 12 1017 51 10000 1.18 12 22:44 16.12.2021
6465 Clouds 11 1018 52 10000 0.69 15 22:22 16.12.2021
6466 Clouds 15 1018 52 10000 0.69 15 21:43 16.12.2021
6467 Clouds 14 1018 53 10000 1.29 8 20:42 16.12.2021
6468 Clouds 13 1019 54 10000 0.83 360 20:21 16.12.2021
6469 Clouds 13 1019 54 10000 0.83 360 20:21 16.12.2021
6470 Clouds 13 1019 54 10000 0.83 360 19:30 16.12.2021
6471 Clouds 11 1020 54 10000 0.65 6 18:33 16.12.2021
6472 Clouds 10 1020 57 10000 0.6 3 17:46 16.12.2021
6473 Clouds 7 1021 61 10000 0.3 230 16:24 16.12.2021
6474 Clouds 7 1021 61 10000 0.3 230 15:38 16.12.2021
6475 Clouds 7 1021 60 10000 0.31 267 13:45 16.12.2021
6476 Clouds 7 1021 53 10000 0.48 205 12:26 16.12.2021
6477 Clouds 8 1022 52 10000 0.45 222 11:19 16.12.2021
6478 Clouds 6 1022 52 10000 0.45 222 10:39 16.12.2021
6479 Clouds 7 1022 52 10000 0.69 224 09:43 16.12.2021
6480 Clear 7 1024 66 10000 0.63 234 06:23 16.12.2021
6481 Clear 8 1024 67 10000 0.69 271 04:33 16.12.2021
6482 Clouds 11 1022 59 10000 0.5 174 23:58 15.12.2021
6483 Clouds 11 1023 59 10000 0.27 207 22:50 15.12.2021
6484 Clouds 10 1023 62 10000 0.25 173 22:21 15.12.2021
6485 Clouds 10 1023 62 10000 0.25 173 21:31 15.12.2021
6486 Clouds 10 1024 66 10000 0.57 344 20:51 15.12.2021
6487 Clouds 9 1025 71 10000 0.78 298 19:53 15.12.2021
6488 Clouds 9 1025 76 10000 1.01 336 19:18 15.12.2021
6489 Clouds 8 1024 78 10000 1.17 355 18:20 15.12.2021
6490 Clouds 8 1024 78 10000 1.17 355 17:45 15.12.2021
6491 Clouds 7 1023 80 10000 1.45 2 17:21 15.12.2021
6492 Clouds 6 1022 81 10000 1.1 349 15:49 15.12.2021
6493 Clouds 5 1022 81 10000 1.1 349 15:30 15.12.2021
6494 Clouds 6 1022 79 10000 0.59 349 14:59 15.12.2021
6495 Clouds 7 1021 78 10000 0.87 271 13:45 15.12.2021
6496 Clouds 5 1019 78 10000 0.81 210 11:52 15.12.2021
6497 Clouds 8 1018 85 10000 1.73 194 10:22 15.12.2021
6498 Clouds 9 1015 88 10000 1.75 206 08:26 15.12.2021
6499 Clouds 9 1011 89 8395 2.04 221 05:53 15.12.2021
6500 Clouds 13 1001 75 10000 6.31 188 00:39 15.12.2021
6501 Clouds 12 1001 88 10000 5.67 142 23:31 14.12.2021
6502 Rain 12 1002 85 3320 6.63 170 22:44 14.12.2021
6503 Rain 15 1002 77 10000 9.12 148 21:43 14.12.2021
6504 Clouds 15 1007 83 4167 7.46 153 20:23 14.12.2021
6505 Clouds 15 1007 83 4167 7.46 153 19:37 14.12.2021
6506 Clouds 15 1007 80 9627 7.35 154 18:39 14.12.2021
6507 Clouds 15 1007 71 10000 7.03 157 17:56 14.12.2021
6508 Clouds 14 1008 75 8391 6.82 158 16:47 14.12.2021
6509 Clouds 14 1009 72 10000 6.64 159 16:29 14.12.2021
6510 Clouds 14 1009 71 10000 6.52 154 14:32 14.12.2021
6511 Clouds 14 1010 69 10000 5.32 169 13:22 14.12.2021
6512 Clouds 13 1010 67 10000 6.06 170 11:51 14.12.2021
6513 Clouds 13 1011 67 10000 6.78 173 11:22 14.12.2021
6514 Clouds 13 1011 69 10000 5.68 167 09:55 14.12.2021
6515 Clouds 13 1012 69 10000 6.32 174 09:19 14.12.2021
6516 Clouds 13 1013 69 10000 5.9 178 08:22 14.12.2021
6517 Clouds 13 1013 69 10000 5.9 178 07:42 14.12.2021
6518 Clouds 15 1012 47 10000 6.47 180 00:35 14.12.2021
6519 Clouds 16 1012 36 10000 6.7 175 22:33 13.12.2021
6520 Clouds 16 1013 31 10000 6.5 172 21:49 13.12.2021
6521 Clouds 17 1014 28 10000 5.52 167 20:58 13.12.2021
6522 Clouds 18 1014 28 10000 5.52 167 20:31 13.12.2021
6523 Clouds 18 1015 29 10000 4.76 170 19:51 13.12.2021
6524 Clouds 15 1016 28 10000 2.71 180 17:56 13.12.2021
6525 Clouds 13 1016 31 10000 2.02 181 17:23 13.12.2021
6526 Clouds 13 1015 34 10000 1.66 177 15:49 13.12.2021
6527 Clouds 11 1015 32 10000 1.76 168 15:18 13.12.2021
6528 Clouds 10 1014 31 10000 1.71 168 13:38 13.12.2021
6529 Clear 12 1014 30 10000 1.22 174 12:42 13.12.2021
6530 Clear 13 1014 28 10000 1.5 167 11:54 13.12.2021
6531 Clear 13 1014 28 10000 1.5 167 11:35 13.12.2021
6532 Clear 13 1014 28 10000 1.74 161 10:43 13.12.2021
6533 Clouds 13 1015 27 10000 1.84 163 08:52 13.12.2021
6534 Clouds 13 1015 26 10000 1.89 162 07:38 13.12.2021
6535 Clear 13 1015 26 10000 1.69 169 05:34 13.12.2021
6536 Clear 19 1014 21 10000 0.81 163 00:43 13.12.2021
6537 Clear 19 1015 19 10000 0.78 155 22:22 12.12.2021
6538 Clear 20 1015 19 10000 0.78 155 21:35 12.12.2021
6539 Clear 17 1017 20 10000 0.39 112 19:40 12.12.2021
6540 Clouds 15 1018 21 10000 0.42 33 18:35 12.12.2021
6541 Clouds 11 1018 25 10000 0.21 354 17:26 12.12.2021
6542 Clouds 8 1018 32 10000 0.47 344 16:27 12.12.2021
6543 Clouds 6 1018 32 10000 0.47 344 15:41 12.12.2021
6544 Clouds 6 1018 32 10000 0.57 345 15:22 12.12.2021
6545 Clouds 6 1018 32 10000 0.57 345 14:30 12.12.2021
6546 Clouds 6 1018 32 10000 0.57 345 14:30 12.12.2021
6547 Clouds 6 1018 30 10000 0.2 60 12:57 12.12.2021
6548 Clouds 7 1018 29 10000 0.39 120 12:27 12.12.2021
6549 Clouds 8 1018 29 10000 0.39 120 11:44 12.12.2021
6550 Clouds 8 1018 29 10000 0.39 120 11:44 12.12.2021
6551 Clouds 8 1018 29 10000 0.62 132 11:20 12.12.2021
6552 Clouds 8 1019 28 10000 0.87 149 10:22 12.12.2021
6553 Clouds 9 1019 28 10000 0.88 149 08:54 12.12.2021
6554 Clouds 10 1019 28 10000 1 142 07:32 12.12.2021
6555 Clouds 10 1020 27 10000 0.78 156 05:57 12.12.2021
6556 Clouds 11 1020 27 10000 0.74 139 04:55 12.12.2021
6557 Clouds 11 1021 25 10000 0.24 185 02:58 12.12.2021
6558 Clouds 17 1020 19 10000 0.99 152 23:39 11.12.2021
6559 Clouds 19 1022 19 10000 1.01 148 22:22 11.12.2021
6560 Clouds 19 1022 19 10000 1.01 148 21:51 11.12.2021
6561 Clouds 13 1025 21 10000 0.48 81 20:29 11.12.2021
6562 Clouds 12 1026 23 10000 0.83 41 19:23 11.12.2021
6563 Clouds 15 1026 23 10000 0.71 52 18:52 11.12.2021
6564 Clouds 12 1026 24 10000 0.73 84 18:21 11.12.2021
6565 Clouds 12 1026 27 10000 0.69 30 17:20 11.12.2021
6566 Clouds 5 1026 33 10000 0.66 35 15:53 11.12.2021
6567 Clouds 5 1026 32 10000 0.87 33 15:27 11.12.2021
6568 Clear 8 1025 31 10000 0.57 8 12:57 11.12.2021
6569 Clear 9 1024 28 10000 0.51 29 11:25 11.12.2021
6570 Clear 9 1024 27 10000 0.67 28 09:46 11.12.2021
6571 Clear 5 1024 26 10000 0.53 8 08:23 11.12.2021
6572 Clear 13 1022 23 10000 1.74 338 02:23 11.12.2021
6573 Clouds 15 1021 19 10000 1.71 350 00:36 11.12.2021
6574 Clouds 16 1020 18 10000 3.19 354 23:21 10.12.2021
6575 Clouds 15 1020 19 10000 3.34 356 21:57 10.12.2021
6576 Clouds 15 1020 19 10000 3.34 356 21:31 10.12.2021
6577 Clouds 13 1021 32 10000 2.51 18 19:22 10.12.2021
6578 Clouds 14 1020 38 10000 2.48 24 18:21 10.12.2021
6579 Clouds 9 1020 47 10000 1.69 17 16:56 10.12.2021
6580 Clouds 9 1019 56 10000 1.27 13 16:29 10.12.2021
6581 Clouds 6 1019 56 10000 1.27 13 15:41 10.12.2021
6582 Clear 8 1017 58 10000 1.38 28 15:21 10.12.2021
6583 Clear 9 1016 60 10000 1.36 25 13:52 10.12.2021
6584 Clear 9 1015 62 10000 1.32 37 13:26 10.12.2021
6585 Clear 9 1016 60 10000 1.34 35 12:45 10.12.2021
6586 Clear 10 1015 61 10000 1.28 23 11:30 10.12.2021
6587 Clear 9 1015 63 10000 1.45 23 10:38 10.12.2021
6588 Clouds 10 1014 66 10000 1.26 0 09:19 10.12.2021
6589 Clouds 11 1012 71 10000 1.33 2 06:59 10.12.2021
6590 Clouds 15 1008 64 10000 2.57 5 02:50 10.12.2021
6591 Clouds 19 1005 49 10000 1.14 310 00:55 10.12.2021
6592 Clouds 18 1004 47 10000 1.25 258 23:37 09.12.2021
6593 Clouds 21 1004 47 10000 1.48 293 22:32 09.12.2021
6594 Clouds 18 1004 47 10000 1.78 279 21:59 09.12.2021
6595 Clouds 19 1005 49 10000 2.12 254 21:20 09.12.2021
6596 Clouds 18 1006 51 10000 2.56 217 20:29 09.12.2021
6597 Clouds 18 1006 55 10000 3.03 195 19:22 09.12.2021
6598 Clouds 18 1006 59 10000 3.12 191 18:50 09.12.2021
6599 Clouds 16 1006 65 10000 2.58 191 17:57 09.12.2021
6600 Clouds 15 1006 70 10000 1.97 192 17:28 09.12.2021
6601 Clouds 15 1006 70 10000 1.97 192 16:57 09.12.2021
6602 Clouds 13 1006 77 10000 1.56 193 16:20 09.12.2021
6603 Clouds 11 1006 75 10000 1.39 180 14:52 09.12.2021
6604 Clouds 12 1006 79 10000 1.23 160 13:51 09.12.2021
6605 Clouds 14 1006 74 10000 1.46 159 12:47 09.12.2021
6606 Clouds 15 1008 62 10000 1.36 150 11:25 09.12.2021
6607 Clouds 14 1008 57 10000 1.5 139 10:20 09.12.2021
6608 Clouds 14 1010 52 10000 1.3 140 06:53 09.12.2021
6609 Clouds 14 1010 46 10000 1.03 62 03:50 09.12.2021
6610 Clouds 24 1010 35 10000 3.51 158 00:25 09.12.2021
6611 Clouds 23 1010 35 10000 3.51 158 23:36 08.12.2021
6612 Clouds 25 1011 36 10000 3.26 162 22:57 08.12.2021
6613 Clouds 24 1012 37 10000 3.64 165 21:50 08.12.2021
6614 Clouds 25 1012 37 10000 3.64 165 21:32 08.12.2021
6615 Clouds 24 1013 38 10000 3.32 166 20:31 08.12.2021
6616 Clouds 21 1015 41 10000 2.4 164 19:55 08.12.2021
6617 Clouds 23 1016 44 10000 1.79 172 18:57 08.12.2021
6618 Clouds 21 1016 49 10000 1.69 167 18:22 08.12.2021
6619 Clear 17 1016 52 10000 1.42 147 16:49 08.12.2021
6620 Clear 10 1016 65 10000 0.6 155 15:41 08.12.2021
6621 Clear 14 1016 66 10000 1.07 142 15:21 08.12.2021
6622 Clouds 14 1015 61 10000 1.43 160 13:21 08.12.2021
6623 Clouds 16 1015 57 10000 0.19 17 10:42 08.12.2021
6624 Clouds 17 1016 54 10000 0.55 172 09:32 08.12.2021
6625 Clouds 16 1016 53 10000 1.12 188 08:31 08.12.2021
6626 Clouds 16 1015 50 10000 0.46 50 05:37 08.12.2021
6627 Clouds 20 1014 41 10000 1.65 68 00:41 08.12.2021
6628 Clouds 20 1013 31 10000 2.37 59 23:22 07.12.2021
6629 Clouds 21 1012 27 10000 0.76 36 21:25 07.12.2021
6630 Clouds 21 1013 27 10000 0.85 40 20:25 07.12.2021
6631 Clouds 23 1013 34 10000 0.71 63 18:59 07.12.2021
6632 Clouds 22 1012 33 10000 0.74 70 18:23 07.12.2021
6633 Clouds 20 1012 34 10000 0.14 318 17:27 07.12.2021
6634 Clouds 19 1012 34 10000 0.14 318 16:53 07.12.2021
6635 Clouds 19 1011 36 10000 0.53 4 16:25 07.12.2021
6636 Clouds 20 1010 34 10000 0.83 357 14:38 07.12.2021
6637 Clouds 19 1010 32 10000 0.87 359 13:41 07.12.2021
6638 Clouds 18 1009 28 10000 0.51 330 12:22 07.12.2021
6639 Clouds 19 1009 27